<?xml version="1.0" encoding="UTF-8"?>
<gpx creator="Garmin Connect" version="1.1"
  xsi:schemaLocation="http://www.topografix.com/GPX/1/1 http://www.topografix.com/GPX/11.xsd"
  xmlns="http://www.topografix.com/GPX/1/1"
  xmlns:ns3="http://www.garmin.com/xmlschemas/TrackPointExtension/v1"
  xmlns:ns2="http://www.garmin.com/xmlschemas/GpxExtensions/v3" xmlns:xsi="http://www.w3.org/2001/XMLSchema-instance">
  <metadata>
    <link href="connect.garmin.com">
      <text>Garmin Connect</text>
    </link>
    <time>2015-09-08T09:27:17.000Z</time>
  </metadata>
  <trk>
    <name>Münster_Grimsel</name>
    <type>mountain_biking</type>
    <trkseg>
      <trkpt lat="46.4879137091338634490966796875" lon="8.269120641052722930908203125">
        <ele>1396</ele>
        <time>2015-09-08T09:27:17.000Z</time>
        <extensions>
          <ns3:TrackPointExtension>
            <ns3:hr>103</ns3:hr>
          </ns3:TrackPointExtension>
        </extensions>
      </trkpt>
      <trkpt lat="46.487916223704814910888671875" lon="8.26909809373319149017333984375">
        <ele>1396.199951171875</ele>
        <time>2015-09-08T09:27:18.000Z</time>
        <extensions>
          <ns3:TrackPointExtension>
            <ns3:hr>103</ns3:hr>
          </ns3:TrackPointExtension>
        </extensions>
      </trkpt>
      <trkpt lat="46.4878302253782749176025390625" lon="8.26861982233822345733642578125">
        <ele>1398.4000244140625</ele>
        <time>2015-09-08T09:27:28.000Z</time>
        <extensions>
          <ns3:TrackPointExtension>
            <ns3:hr>106</ns3:hr>
          </ns3:TrackPointExtension>
        </extensions>
      </trkpt>
      <trkpt lat="46.4877095259726047515869140625" lon="8.2681330852210521697998046875">
        <ele>1396.199951171875</ele>
        <time>2015-09-08T09:27:36.000Z</time>
        <extensions>
          <ns3:TrackPointExtension>
            <ns3:hr>103</ns3:hr>
          </ns3:TrackPointExtension>
        </extensions>
      </trkpt>
      <trkpt lat="46.48760919459164142608642578125" lon="8.267693705856800079345703125">
        <ele>1395.4000244140625</ele>
        <time>2015-09-08T09:27:43.000Z</time>
        <extensions>
          <ns3:TrackPointExtension>
            <ns3:hr>101</ns3:hr>
          </ns3:TrackPointExtension>
        </extensions>
      </trkpt>
      <trkpt lat="46.48744306527078151702880859375" lon="8.2670068927109241485595703125">
        <ele>1393.199951171875</ele>
        <time>2015-09-08T09:27:53.000Z</time>
        <extensions>
          <ns3:TrackPointExtension>
            <ns3:hr>98</ns3:hr>
          </ns3:TrackPointExtension>
        </extensions>
      </trkpt>
      <trkpt lat="46.48735371418297290802001953125" lon="8.266619481146335601806640625">
        <ele>1392.800048828125</ele>
        <time>2015-09-08T09:27:58.000Z</time>
        <extensions>
          <ns3:TrackPointExtension>
            <ns3:hr>94</ns3:hr>
          </ns3:TrackPointExtension>
        </extensions>
      </trkpt>
      <trkpt lat="46.48729001171886920928955078125" lon="8.26596611179411411285400390625">
        <ele>1392</ele>
        <time>2015-09-08T09:28:05.000Z</time>
        <extensions>
          <ns3:TrackPointExtension>
            <ns3:hr>92</ns3:hr>
          </ns3:TrackPointExtension>
        </extensions>
      </trkpt>
      <trkpt lat="46.48725648410618305206298828125" lon="8.2656718231737613677978515625">
        <ele>1391.4000244140625</ele>
        <time>2015-09-08T09:28:08.000Z</time>
        <extensions>
          <ns3:TrackPointExtension>
            <ns3:hr>90</ns3:hr>
          </ns3:TrackPointExtension>
        </extensions>
      </trkpt>
      <trkpt lat="46.48724223487079143524169921875" lon="8.265368901193141937255859375">
        <ele>1391.4000244140625</ele>
        <time>2015-09-08T09:28:11.000Z</time>
        <extensions>
          <ns3:TrackPointExtension>
            <ns3:hr>86</ns3:hr>
          </ns3:TrackPointExtension>
        </extensions>
      </trkpt>
      <trkpt lat="46.48722446523606777191162109375" lon="8.26504804193973541259765625">
        <ele>1391.4000244140625</ele>
        <time>2015-09-08T09:28:14.000Z</time>
        <extensions>
          <ns3:TrackPointExtension>
            <ns3:hr>83</ns3:hr>
          </ns3:TrackPointExtension>
        </extensions>
      </trkpt>
      <trkpt lat="46.487218849360942840576171875" lon="8.26462232507765293121337890625">
        <ele>1391.800048828125</ele>
        <time>2015-09-08T09:28:18.000Z</time>
        <extensions>
          <ns3:TrackPointExtension>
            <ns3:hr>82</ns3:hr>
          </ns3:TrackPointExtension>
        </extensions>
      </trkpt>
      <trkpt lat="46.48734533227980136871337890625" lon="8.26416081748902797698974609375">
        <ele>1390.5999755859375</ele>
        <time>2015-09-08T09:28:23.000Z</time>
        <extensions>
          <ns3:TrackPointExtension>
            <ns3:hr>79</ns3:hr>
          </ns3:TrackPointExtension>
        </extensions>
      </trkpt>
      <trkpt lat="46.4875552989542484283447265625" lon="8.2634506188333034515380859375">
        <ele>1391</ele>
        <time>2015-09-08T09:28:32.000Z</time>
        <extensions>
          <ns3:TrackPointExtension>
            <ns3:hr>80</ns3:hr>
          </ns3:TrackPointExtension>
        </extensions>
      </trkpt>
      <trkpt lat="46.487694270908832550048828125" lon="8.2632554881274700164794921875">
        <ele>1392.199951171875</ele>
        <time>2015-09-08T09:28:36.000Z</time>
        <extensions>
          <ns3:TrackPointExtension>
            <ns3:hr>79</ns3:hr>
          </ns3:TrackPointExtension>
        </extensions>
      </trkpt>
      <trkpt lat="46.48780918680131435394287109375" lon="8.26311559416353702545166015625">
        <ele>1392.199951171875</ele>
        <time>2015-09-08T09:28:39.000Z</time>
        <extensions>
          <ns3:TrackPointExtension>
            <ns3:hr>82</ns3:hr>
          </ns3:TrackPointExtension>
        </extensions>
      </trkpt>
      <trkpt lat="46.487878672778606414794921875" lon="8.26302473433315753936767578125">
        <ele>1392.199951171875</ele>
        <time>2015-09-08T09:28:41.000Z</time>
        <extensions>
          <ns3:TrackPointExtension>
            <ns3:hr>85</ns3:hr>
          </ns3:TrackPointExtension>
        </extensions>
      </trkpt>
      <trkpt lat="46.487904489040374755859375" lon="8.262977711856365203857421875">
        <ele>1392</ele>
        <time>2015-09-08T09:28:42.000Z</time>
        <extensions>
          <ns3:TrackPointExtension>
            <ns3:hr>85</ns3:hr>
          </ns3:TrackPointExtension>
        </extensions>
      </trkpt>
      <trkpt lat="46.4879836142063140869140625" lon="8.262743689119815826416015625">
        <ele>1392.800048828125</ele>
        <time>2015-09-08T09:28:47.000Z</time>
        <extensions>
          <ns3:TrackPointExtension>
            <ns3:hr>84</ns3:hr>
          </ns3:TrackPointExtension>
        </extensions>
      </trkpt>
      <trkpt lat="46.48804421536624431610107421875" lon="8.262374214828014373779296875">
        <ele>1391.800048828125</ele>
        <time>2015-09-08T09:28:54.000Z</time>
        <extensions>
          <ns3:TrackPointExtension>
            <ns3:hr>87</ns3:hr>
          </ns3:TrackPointExtension>
        </extensions>
      </trkpt>
      <trkpt lat="46.48799367249011993408203125" lon="8.26221034862101078033447265625">
        <ele>1391.5999755859375</ele>
        <time>2015-09-08T09:28:59.000Z</time>
        <extensions>
          <ns3:TrackPointExtension>
            <ns3:hr>90</ns3:hr>
          </ns3:TrackPointExtension>
        </extensions>
      </trkpt>
      <trkpt lat="46.48794748820364475250244140625" lon="8.262165002524852752685546875">
        <ele>1390.5999755859375</ele>
        <time>2015-09-08T09:29:02.000Z</time>
        <extensions>
          <ns3:TrackPointExtension>
            <ns3:hr>93</ns3:hr>
          </ns3:TrackPointExtension>
        </extensions>
      </trkpt>
      <trkpt lat="46.48787699639797210693359375" lon="8.26211906969547271728515625">
        <ele>1389.800048828125</ele>
        <time>2015-09-08T09:29:06.000Z</time>
        <extensions>
          <ns3:TrackPointExtension>
            <ns3:hr>96</ns3:hr>
          </ns3:TrackPointExtension>
        </extensions>
      </trkpt>
      <trkpt lat="46.4877789281308650970458984375" lon="8.26205595396459102630615234375">
        <ele>1391.199951171875</ele>
        <time>2015-09-08T09:29:11.000Z</time>
        <extensions>
          <ns3:TrackPointExtension>
            <ns3:hr>99</ns3:hr>
          </ns3:TrackPointExtension>
        </extensions>
      </trkpt>
      <trkpt lat="46.487725116312503814697265625" lon="8.2620159722864627838134765625">
        <ele>1392.5999755859375</ele>
        <time>2015-09-08T09:29:14.000Z</time>
        <extensions>
          <ns3:TrackPointExtension>
            <ns3:hr>102</ns3:hr>
          </ns3:TrackPointExtension>
        </extensions>
      </trkpt>
      <trkpt lat="46.48766107857227325439453125" lon="8.261912874877452850341796875">
        <ele>1394.199951171875</ele>
        <time>2015-09-08T09:29:19.000Z</time>
        <extensions>
          <ns3:TrackPointExtension>
            <ns3:hr>106</ns3:hr>
          </ns3:TrackPointExtension>
        </extensions>
      </trkpt>
      <trkpt lat="46.48762344382703304290771484375" lon="8.26185277663171291351318359375">
        <ele>1395.4000244140625</ele>
        <time>2015-09-08T09:29:22.000Z</time>
        <extensions>
          <ns3:TrackPointExtension>
            <ns3:hr>110</ns3:hr>
          </ns3:TrackPointExtension>
        </extensions>
      </trkpt>
      <trkpt lat="46.4875646866858005523681640625" lon="8.2617454044520854949951171875">
        <ele>1397</ele>
        <time>2015-09-08T09:29:27.000Z</time>
        <extensions>
          <ns3:TrackPointExtension>
            <ns3:hr>113</ns3:hr>
          </ns3:TrackPointExtension>
        </extensions>
      </trkpt>
      <trkpt lat="46.48751615546643733978271484375" lon="8.26164255850017070770263671875">
        <ele>1399</ele>
        <time>2015-09-08T09:29:32.000Z</time>
        <extensions>
          <ns3:TrackPointExtension>
            <ns3:hr>114</ns3:hr>
          </ns3:TrackPointExtension>
        </extensions>
      </trkpt>
      <trkpt lat="46.487477011978626251220703125" lon="8.26155723072588443756103515625">
        <ele>1399.800048828125</ele>
        <time>2015-09-08T09:29:36.000Z</time>
        <extensions>
          <ns3:TrackPointExtension>
            <ns3:hr>115</ns3:hr>
          </ns3:TrackPointExtension>
        </extensions>
      </trkpt>
      <trkpt lat="46.487363018095493316650390625" lon="8.2613098807632923126220703125">
        <ele>1402</ele>
        <time>2015-09-08T09:29:46.000Z</time>
        <extensions>
          <ns3:TrackPointExtension>
            <ns3:hr>118</ns3:hr>
          </ns3:TrackPointExtension>
        </extensions>
      </trkpt>
      <trkpt lat="46.4872947894036769866943359375" lon="8.2612424902617931365966796875">
        <ele>1402.5999755859375</ele>
        <time>2015-09-08T09:29:51.000Z</time>
        <extensions>
          <ns3:TrackPointExtension>
            <ns3:hr>122</ns3:hr>
          </ns3:TrackPointExtension>
        </extensions>
      </trkpt>
      <trkpt lat="46.486986838281154632568359375" lon="8.2606242410838603973388671875">
        <ele>1409.800048828125</ele>
        <time>2015-09-08T09:30:21.000Z</time>
        <extensions>
          <ns3:TrackPointExtension>
            <ns3:hr>124</ns3:hr>
          </ns3:TrackPointExtension>
        </extensions>
      </trkpt>
      <trkpt lat="46.48696144111454486846923828125" lon="8.26038342900574207305908203125">
        <ele>1409.4000244140625</ele>
        <time>2015-09-08T09:30:30.000Z</time>
        <extensions>
          <ns3:TrackPointExtension>
            <ns3:hr>124</ns3:hr>
          </ns3:TrackPointExtension>
        </extensions>
      </trkpt>
      <trkpt lat="46.4869186095893383026123046875" lon="8.260302208364009857177734375">
        <ele>1409.4000244140625</ele>
        <time>2015-09-08T09:30:34.000Z</time>
        <extensions>
          <ns3:TrackPointExtension>
            <ns3:hr>124</ns3:hr>
          </ns3:TrackPointExtension>
        </extensions>
      </trkpt>
      <trkpt lat="46.48671098984777927398681640625" lon="8.2601112686097621917724609375">
        <ele>1411.5999755859375</ele>
        <time>2015-09-08T09:30:49.000Z</time>
        <extensions>
          <ns3:TrackPointExtension>
            <ns3:hr>125</ns3:hr>
          </ns3:TrackPointExtension>
        </extensions>
      </trkpt>
      <trkpt lat="46.48643069900572299957275390625" lon="8.25944758951663970947265625">
        <ele>1410.5999755859375</ele>
        <time>2015-09-08T09:31:21.000Z</time>
        <extensions>
          <ns3:TrackPointExtension>
            <ns3:hr>123</ns3:hr>
          </ns3:TrackPointExtension>
        </extensions>
      </trkpt>
      <trkpt lat="46.48641142062842845916748046875" lon="8.25872716493904590606689453125">
        <ele>1418</ele>
        <time>2015-09-08T09:31:48.000Z</time>
        <extensions>
          <ns3:TrackPointExtension>
            <ns3:hr>122</ns3:hr>
          </ns3:TrackPointExtension>
        </extensions>
      </trkpt>
      <trkpt lat="46.4861115999519824981689453125" lon="8.25807773508131504058837890625">
        <ele>1428.800048828125</ele>
        <time>2015-09-08T09:32:18.000Z</time>
        <extensions>
          <ns3:TrackPointExtension>
            <ns3:hr>121</ns3:hr>
          </ns3:TrackPointExtension>
        </extensions>
      </trkpt>
      <trkpt lat="46.4858182333409786224365234375" lon="8.25741707347333431243896484375">
        <ele>1437.800048828125</ele>
        <time>2015-09-08T09:32:50.000Z</time>
        <extensions>
          <ns3:TrackPointExtension>
            <ns3:hr>122</ns3:hr>
          </ns3:TrackPointExtension>
        </extensions>
      </trkpt>
      <trkpt lat="46.48551665246486663818359375" lon="8.25674098916351795196533203125">
        <ele>1442.199951171875</ele>
        <time>2015-09-08T09:33:21.000Z</time>
        <extensions>
          <ns3:TrackPointExtension>
            <ns3:hr>123</ns3:hr>
          </ns3:TrackPointExtension>
        </extensions>
      </trkpt>
      <trkpt lat="46.48520761169493198394775390625" lon="8.2560889609158039093017578125">
        <ele>1450.5999755859375</ele>
        <time>2015-09-08T09:33:52.000Z</time>
        <extensions>
          <ns3:TrackPointExtension>
            <ns3:hr>123</ns3:hr>
          </ns3:TrackPointExtension>
        </extensions>
      </trkpt>
      <trkpt lat="46.48487300612032413482666015625" lon="8.25545000843703746795654296875">
        <ele>1458.800048828125</ele>
        <time>2015-09-08T09:34:25.000Z</time>
        <extensions>
          <ns3:TrackPointExtension>
            <ns3:hr>124</ns3:hr>
          </ns3:TrackPointExtension>
        </extensions>
      </trkpt>
      <trkpt lat="46.484727747738361358642578125" lon="8.25517726130783557891845703125">
        <ele>1461.4000244140625</ele>
        <time>2015-09-08T09:34:39.000Z</time>
        <extensions>
          <ns3:TrackPointExtension>
            <ns3:hr>124</ns3:hr>
          </ns3:TrackPointExtension>
        </extensions>
      </trkpt>
      <trkpt lat="46.48468072526156902313232421875" lon="8.25507500208914279937744140625">
        <ele>1461.800048828125</ele>
        <time>2015-09-08T09:34:44.000Z</time>
        <extensions>
          <ns3:TrackPointExtension>
            <ns3:hr>124</ns3:hr>
          </ns3:TrackPointExtension>
        </extensions>
      </trkpt>
      <trkpt lat="46.484355591237545013427734375" lon="8.254438899457454681396484375">
        <ele>1467.199951171875</ele>
        <time>2015-09-08T09:35:16.000Z</time>
        <extensions>
          <ns3:TrackPointExtension>
            <ns3:hr>124</ns3:hr>
          </ns3:TrackPointExtension>
        </extensions>
      </trkpt>
      <trkpt lat="46.48404655046761035919189453125" lon="8.2537819258868694305419921875">
        <ele>1476</ele>
        <time>2015-09-08T09:35:49.000Z</time>
        <extensions>
          <ns3:TrackPointExtension>
            <ns3:hr>124</ns3:hr>
          </ns3:TrackPointExtension>
        </extensions>
      </trkpt>
      <trkpt lat="46.483833901584148406982421875" lon="8.25320969335734844207763671875">
        <ele>1482.199951171875</ele>
        <time>2015-09-08T09:36:16.000Z</time>
        <extensions>
          <ns3:TrackPointExtension>
            <ns3:hr>127</ns3:hr>
          </ns3:TrackPointExtension>
        </extensions>
      </trkpt>
      <trkpt lat="46.48358269594609737396240234375" lon="8.25258742086589336395263671875">
        <ele>1486.199951171875</ele>
        <time>2015-09-08T09:36:44.000Z</time>
        <extensions>
          <ns3:TrackPointExtension>
            <ns3:hr>130</ns3:hr>
          </ns3:TrackPointExtension>
        </extensions>
      </trkpt>
      <trkpt lat="46.48344003595411777496337890625" lon="8.252242170274257659912109375">
        <ele>1490.199951171875</ele>
        <time>2015-09-08T09:37:01.000Z</time>
        <extensions>
          <ns3:TrackPointExtension>
            <ns3:hr>130</ns3:hr>
          </ns3:TrackPointExtension>
        </extensions>
      </trkpt>
      <trkpt lat="46.482956819236278533935546875" lon="8.2518978416919708251953125">
        <ele>1497.5999755859375</ele>
        <time>2015-09-08T09:37:35.000Z</time>
        <extensions>
          <ns3:TrackPointExtension>
            <ns3:hr>130</ns3:hr>
          </ns3:TrackPointExtension>
        </extensions>
      </trkpt>
      <trkpt lat="46.482545100152492523193359375" lon="8.25138864107429981231689453125">
        <ele>1505.800048828125</ele>
        <time>2015-09-08T09:38:07.000Z</time>
        <extensions>
          <ns3:TrackPointExtension>
            <ns3:hr>130</ns3:hr>
          </ns3:TrackPointExtension>
        </extensions>
      </trkpt>
      <trkpt lat="46.48217730224132537841796875" lon="8.2508180849254131317138671875">
        <ele>1514.4000244140625</ele>
        <time>2015-09-08T09:38:39.000Z</time>
        <extensions>
          <ns3:TrackPointExtension>
            <ns3:hr>129</ns3:hr>
          </ns3:TrackPointExtension>
        </extensions>
      </trkpt>
      <trkpt lat="46.4819085784256458282470703125" lon="8.250547014176845550537109375">
        <ele>1519.5999755859375</ele>
        <time>2015-09-08T09:38:59.000Z</time>
        <extensions>
          <ns3:TrackPointExtension>
            <ns3:hr>128</ns3:hr>
          </ns3:TrackPointExtension>
        </extensions>
      </trkpt>
      <trkpt lat="46.48215777240693569183349609375" lon="8.2505723275244235992431640625">
        <ele>1521.800048828125</ele>
        <time>2015-09-08T09:39:26.000Z</time>
        <extensions>
          <ns3:TrackPointExtension>
            <ns3:hr>127</ns3:hr>
          </ns3:TrackPointExtension>
        </extensions>
      </trkpt>
      <trkpt lat="46.4825680665671825408935546875" lon="8.2506849803030490875244140625">
        <ele>1527.4000244140625</ele>
        <time>2015-09-08T09:39:55.000Z</time>
        <extensions>
          <ns3:TrackPointExtension>
            <ns3:hr>130</ns3:hr>
          </ns3:TrackPointExtension>
        </extensions>
      </trkpt>
      <trkpt lat="46.48257787339389324188232421875" lon="8.25072764419019222259521484375">
        <ele>1532</ele>
        <time>2015-09-08T09:40:38.000Z</time>
        <extensions>
          <ns3:TrackPointExtension>
            <ns3:hr>127</ns3:hr>
          </ns3:TrackPointExtension>
        </extensions>
      </trkpt>
      <trkpt lat="46.4825764484703540802001953125" lon="8.25071825645864009857177734375">
        <ele>1532</ele>
        <time>2015-09-08T09:40:50.000Z</time>
        <extensions>
          <ns3:TrackPointExtension>
            <ns3:hr>124</ns3:hr>
          </ns3:TrackPointExtension>
        </extensions>
      </trkpt>
      <trkpt lat="46.4825556613504886627197265625" lon="8.2507101260125637054443359375">
        <ele>1531.800048828125</ele>
        <time>2015-09-08T09:40:56.000Z</time>
        <extensions>
          <ns3:TrackPointExtension>
            <ns3:hr>121</ns3:hr>
          </ns3:TrackPointExtension>
        </extensions>
      </trkpt>
      <trkpt lat="46.4825325272977352142333984375" lon="8.2507064379751682281494140625">
        <ele>1531.4000244140625</ele>
        <time>2015-09-08T09:41:01.000Z</time>
        <extensions>
          <ns3:TrackPointExtension>
            <ns3:hr>118</ns3:hr>
          </ns3:TrackPointExtension>
        </extensions>
      </trkpt>
      <trkpt lat="46.48258273489773273468017578125" lon="8.25074742548167705535888671875">
        <ele>1530.800048828125</ele>
        <time>2015-09-08T09:41:13.000Z</time>
        <extensions>
          <ns3:TrackPointExtension>
            <ns3:hr>121</ns3:hr>
          </ns3:TrackPointExtension>
        </extensions>
      </trkpt>
      <trkpt lat="46.48260637186467647552490234375" lon="8.2507885806262493133544921875">
        <ele>1531</ele>
        <time>2015-09-08T09:41:16.000Z</time>
        <extensions>
          <ns3:TrackPointExtension>
            <ns3:hr>124</ns3:hr>
          </ns3:TrackPointExtension>
        </extensions>
      </trkpt>
      <trkpt lat="46.4826218783855438232421875" lon="8.25084817595779895782470703125">
        <ele>1531</ele>
        <time>2015-09-08T09:41:19.000Z</time>
        <extensions>
          <ns3:TrackPointExtension>
            <ns3:hr>127</ns3:hr>
          </ns3:TrackPointExtension>
        </extensions>
      </trkpt>
      <trkpt lat="46.48262917064130306243896484375" lon="8.2508905045688152313232421875">
        <ele>1530.800048828125</ele>
        <time>2015-09-08T09:41:21.000Z</time>
        <extensions>
          <ns3:TrackPointExtension>
            <ns3:hr>128</ns3:hr>
          </ns3:TrackPointExtension>
        </extensions>
      </trkpt>
      <trkpt lat="46.48276026360690593719482421875" lon="8.2511577196419239044189453125">
        <ele>1527</ele>
        <time>2015-09-08T09:41:51.000Z</time>
        <extensions>
          <ns3:TrackPointExtension>
            <ns3:hr>125</ns3:hr>
          </ns3:TrackPointExtension>
        </extensions>
      </trkpt>
      <trkpt lat="46.48291633464395999908447265625" lon="8.2514132000505924224853515625">
        <ele>1525.800048828125</ele>
        <time>2015-09-08T09:42:07.000Z</time>
        <extensions>
          <ns3:TrackPointExtension>
            <ns3:hr>123</ns3:hr>
          </ns3:TrackPointExtension>
        </extensions>
      </trkpt>
      <trkpt lat="46.4830548875033855438232421875" lon="8.251522667706012725830078125">
        <ele>1524.800048828125</ele>
        <time>2015-09-08T09:42:13.000Z</time>
        <extensions>
          <ns3:TrackPointExtension>
            <ns3:hr>121</ns3:hr>
          </ns3:TrackPointExtension>
        </extensions>
      </trkpt>
      <trkpt lat="46.48314826190471649169921875" lon="8.25160036794841289520263671875">
        <ele>1523.800048828125</ele>
        <time>2015-09-08T09:42:21.000Z</time>
        <extensions>
          <ns3:TrackPointExtension>
            <ns3:hr>120</ns3:hr>
          </ns3:TrackPointExtension>
        </extensions>
      </trkpt>
      <trkpt lat="46.48322998546063899993896484375" lon="8.2516297884285449981689453125">
        <ele>1522.199951171875</ele>
        <time>2015-09-08T09:42:28.000Z</time>
        <extensions>
          <ns3:TrackPointExtension>
            <ns3:hr>123</ns3:hr>
          </ns3:TrackPointExtension>
        </extensions>
      </trkpt>
      <trkpt lat="46.483263261616230010986328125" lon="8.25166306458413600921630859375">
        <ele>1520.5999755859375</ele>
        <time>2015-09-08T09:42:34.000Z</time>
        <extensions>
          <ns3:TrackPointExtension>
            <ns3:hr>126</ns3:hr>
          </ns3:TrackPointExtension>
        </extensions>
      </trkpt>
      <trkpt lat="46.48327642120420932769775390625" lon="8.25165803544223308563232421875">
        <ele>1520</ele>
        <time>2015-09-08T09:42:41.000Z</time>
        <extensions>
          <ns3:TrackPointExtension>
            <ns3:hr>129</ns3:hr>
          </ns3:TrackPointExtension>
        </extensions>
      </trkpt>
      <trkpt lat="46.48346954025328159332275390625" lon="8.2517261803150177001953125">
        <ele>1516.4000244140625</ele>
        <time>2015-09-08T09:43:07.000Z</time>
        <extensions>
          <ns3:TrackPointExtension>
            <ns3:hr>132</ns3:hr>
          </ns3:TrackPointExtension>
        </extensions>
      </trkpt>
      <trkpt lat="46.48394286632537841796875" lon="8.2519855163991451263427734375">
        <ele>1522.800048828125</ele>
        <time>2015-09-08T09:44:04.000Z</time>
        <extensions>
          <ns3:TrackPointExtension>
            <ns3:hr>134</ns3:hr>
          </ns3:TrackPointExtension>
        </extensions>
      </trkpt>
      <trkpt lat="46.4843492209911346435546875" lon="8.25253427959978580474853515625">
        <ele>1523.800048828125</ele>
        <time>2015-09-08T09:44:33.000Z</time>
        <extensions>
          <ns3:TrackPointExtension>
            <ns3:hr>132</ns3:hr>
          </ns3:TrackPointExtension>
        </extensions>
      </trkpt>
      <trkpt lat="46.48460847325623035430908203125" lon="8.2527910172939300537109375">
        <ele>1525.5999755859375</ele>
        <time>2015-09-08T09:44:47.000Z</time>
        <extensions>
          <ns3:TrackPointExtension>
            <ns3:hr>131</ns3:hr>
          </ns3:TrackPointExtension>
        </extensions>
      </trkpt>
      <trkpt lat="46.4846424199640750885009765625" lon="8.25288279913365840911865234375">
        <ele>1526.5999755859375</ele>
        <time>2015-09-08T09:44:51.000Z</time>
        <extensions>
          <ns3:TrackPointExtension>
            <ns3:hr>131</ns3:hr>
          </ns3:TrackPointExtension>
        </extensions>
      </trkpt>
      <trkpt lat="46.48476563394069671630859375" lon="8.25307223014533519744873046875">
        <ele>1528</ele>
        <time>2015-09-08T09:45:00.000Z</time>
        <extensions>
          <ns3:TrackPointExtension>
            <ns3:hr>130</ns3:hr>
          </ns3:TrackPointExtension>
        </extensions>
      </trkpt>
      <trkpt lat="46.4848963916301727294921875" lon="8.25326987542212009429931640625">
        <ele>1528.5999755859375</ele>
        <time>2015-09-08T09:45:08.000Z</time>
        <extensions>
          <ns3:TrackPointExtension>
            <ns3:hr>129</ns3:hr>
          </ns3:TrackPointExtension>
        </extensions>
      </trkpt>
      <trkpt lat="46.485126726329326629638671875" lon="8.253600709140300750732421875">
        <ele>1531</ele>
        <time>2015-09-08T09:45:23.000Z</time>
        <extensions>
          <ns3:TrackPointExtension>
            <ns3:hr>126</ns3:hr>
          </ns3:TrackPointExtension>
        </extensions>
      </trkpt>
      <trkpt lat="46.48519034497439861297607421875" lon="8.25367019511759281158447265625">
        <ele>1532.199951171875</ele>
        <time>2015-09-08T09:45:28.000Z</time>
        <extensions>
          <ns3:TrackPointExtension>
            <ns3:hr>127</ns3:hr>
          </ns3:TrackPointExtension>
        </extensions>
      </trkpt>
      <trkpt lat="46.48528036661446094512939453125" lon="8.25379391200840473175048828125">
        <ele>1533.5999755859375</ele>
        <time>2015-09-08T09:45:35.000Z</time>
        <extensions>
          <ns3:TrackPointExtension>
            <ns3:hr>130</ns3:hr>
          </ns3:TrackPointExtension>
        </extensions>
      </trkpt>
      <trkpt lat="46.48544917814433574676513671875" lon="8.2539726980030536651611328125">
        <ele>1535.4000244140625</ele>
        <time>2015-09-08T09:45:48.000Z</time>
        <extensions>
          <ns3:TrackPointExtension>
            <ns3:hr>131</ns3:hr>
          </ns3:TrackPointExtension>
        </extensions>
      </trkpt>
      <trkpt lat="46.4854993857443332672119140625" lon="8.2540669105947017669677734375">
        <ele>1535.5999755859375</ele>
        <time>2015-09-08T09:45:53.000Z</time>
        <extensions>
          <ns3:TrackPointExtension>
            <ns3:hr>132</ns3:hr>
          </ns3:TrackPointExtension>
        </extensions>
      </trkpt>
      <trkpt lat="46.4855560474097728729248046875" lon="8.25418115593492984771728515625">
        <ele>1536</ele>
        <time>2015-09-08T09:45:58.000Z</time>
        <extensions>
          <ns3:TrackPointExtension>
            <ns3:hr>133</ns3:hr>
          </ns3:TrackPointExtension>
        </extensions>
      </trkpt>
      <trkpt lat="46.4859344065189361572265625" lon="8.2547361217439174652099609375">
        <ele>1540</ele>
        <time>2015-09-08T09:46:36.000Z</time>
        <extensions>
          <ns3:TrackPointExtension>
            <ns3:hr>131</ns3:hr>
          </ns3:TrackPointExtension>
        </extensions>
      </trkpt>
      <trkpt lat="46.48614889942109584808349609375" lon="8.254985399544239044189453125">
        <ele>1541</ele>
        <time>2015-09-08T09:46:49.000Z</time>
        <extensions>
          <ns3:TrackPointExtension>
            <ns3:hr>130</ns3:hr>
          </ns3:TrackPointExtension>
        </extensions>
      </trkpt>
      <trkpt lat="46.486200951039791107177734375" lon="8.25508899986743927001953125">
        <ele>1541.4000244140625</ele>
        <time>2015-09-08T09:46:53.000Z</time>
        <extensions>
          <ns3:TrackPointExtension>
            <ns3:hr>130</ns3:hr>
          </ns3:TrackPointExtension>
        </extensions>
      </trkpt>
      <trkpt lat="46.48631972260773181915283203125" lon="8.25527499429881572723388671875">
        <ele>1541.800048828125</ele>
        <time>2015-09-08T09:47:03.000Z</time>
        <extensions>
          <ns3:TrackPointExtension>
            <ns3:hr>131</ns3:hr>
          </ns3:TrackPointExtension>
        </extensions>
      </trkpt>
      <trkpt lat="46.48639448918402194976806640625" lon="8.2553498446941375732421875">
        <ele>1541.4000244140625</ele>
        <time>2015-09-08T09:47:08.000Z</time>
        <extensions>
          <ns3:TrackPointExtension>
            <ns3:hr>133</ns3:hr>
          </ns3:TrackPointExtension>
        </extensions>
      </trkpt>
      <trkpt lat="46.48649054579436779022216796875" lon="8.25547833926975727081298828125">
        <ele>1542</ele>
        <time>2015-09-08T09:47:15.000Z</time>
        <extensions>
          <ns3:TrackPointExtension>
            <ns3:hr>136</ns3:hr>
          </ns3:TrackPointExtension>
        </extensions>
      </trkpt>
      <trkpt lat="46.4865003526210784912109375" lon="8.25549644418060779571533203125">
        <ele>1542.199951171875</ele>
        <time>2015-09-08T09:47:16.000Z</time>
        <extensions>
          <ns3:TrackPointExtension>
            <ns3:hr>136</ns3:hr>
          </ns3:TrackPointExtension>
        </extensions>
      </trkpt>
      <trkpt lat="46.4865233190357685089111328125" lon="8.2555216737091541290283203125">
        <ele>1542.4000244140625</ele>
        <time>2015-09-08T09:47:18.000Z</time>
        <extensions>
          <ns3:TrackPointExtension>
            <ns3:hr>136</ns3:hr>
          </ns3:TrackPointExtension>
        </extensions>
      </trkpt>
      <trkpt lat="46.48658693768084049224853515625" lon="8.25560809113085269927978515625">
        <ele>1542.800048828125</ele>
        <time>2015-09-08T09:47:23.000Z</time>
        <extensions>
          <ns3:TrackPointExtension>
            <ns3:hr>135</ns3:hr>
          </ns3:TrackPointExtension>
        </extensions>
      </trkpt>
      <trkpt lat="46.48685968481004238128662109375" lon="8.255963064730167388916015625">
        <ele>1545</ele>
        <time>2015-09-08T09:47:42.000Z</time>
        <extensions>
          <ns3:TrackPointExtension>
            <ns3:hr>136</ns3:hr>
          </ns3:TrackPointExtension>
        </extensions>
      </trkpt>
      <trkpt lat="46.48715279996395111083984375" lon="8.256372101604938507080078125">
        <ele>1547</ele>
        <time>2015-09-08T09:48:04.000Z</time>
        <extensions>
          <ns3:TrackPointExtension>
            <ns3:hr>134</ns3:hr>
          </ns3:TrackPointExtension>
        </extensions>
      </trkpt>
      <trkpt lat="46.48735136725008487701416015625" lon="8.25664593838155269622802734375">
        <ele>1546.5999755859375</ele>
        <time>2015-09-08T09:48:15.000Z</time>
        <extensions>
          <ns3:TrackPointExtension>
            <ns3:hr>133</ns3:hr>
          </ns3:TrackPointExtension>
        </extensions>
      </trkpt>
      <trkpt lat="46.48755236528813838958740234375" lon="8.2568867504596710205078125">
        <ele>1545.4000244140625</ele>
        <time>2015-09-08T09:48:25.000Z</time>
        <extensions>
          <ns3:TrackPointExtension>
            <ns3:hr>130</ns3:hr>
          </ns3:TrackPointExtension>
        </extensions>
      </trkpt>
      <trkpt lat="46.487575583159923553466796875" lon="8.25690343044698238372802734375">
        <ele>1545.199951171875</ele>
        <time>2015-09-08T09:48:26.000Z</time>
        <extensions>
          <ns3:TrackPointExtension>
            <ns3:hr>130</ns3:hr>
          </ns3:TrackPointExtension>
        </extensions>
      </trkpt>
      <trkpt lat="46.48759343661367893218994140625" lon="8.2569254748523235321044921875">
        <ele>1545.199951171875</ele>
        <time>2015-09-08T09:48:27.000Z</time>
        <extensions>
          <ns3:TrackPointExtension>
            <ns3:hr>130</ns3:hr>
          </ns3:TrackPointExtension>
        </extensions>
      </trkpt>
      <trkpt lat="46.4876666106283664703369140625" lon="8.2570253871381282806396484375">
        <ele>1545</ele>
        <time>2015-09-08T09:48:32.000Z</time>
        <extensions>
          <ns3:TrackPointExtension>
            <ns3:hr>129</ns3:hr>
          </ns3:TrackPointExtension>
        </extensions>
      </trkpt>
      <trkpt lat="46.48773408494889736175537109375" lon="8.25709135271608829498291015625">
        <ele>1543.800048828125</ele>
        <time>2015-09-08T09:48:37.000Z</time>
        <extensions>
          <ns3:TrackPointExtension>
            <ns3:hr>129</ns3:hr>
          </ns3:TrackPointExtension>
        </extensions>
      </trkpt>
      <trkpt lat="46.487789489328861236572265625" lon="8.25711448676884174346923828125">
        <ele>1544</ele>
        <time>2015-09-08T09:48:41.000Z</time>
        <extensions>
          <ns3:TrackPointExtension>
            <ns3:hr>131</ns3:hr>
          </ns3:TrackPointExtension>
        </extensions>
      </trkpt>
      <trkpt lat="46.48782075382769107818603515625" lon="8.2571641914546489715576171875">
        <ele>1544.199951171875</ele>
        <time>2015-09-08T09:48:48.000Z</time>
        <extensions>
          <ns3:TrackPointExtension>
            <ns3:hr>134</ns3:hr>
          </ns3:TrackPointExtension>
        </extensions>
      </trkpt>
      <trkpt lat="46.4882878772914409637451171875" lon="8.2576121203601360321044921875">
        <ele>1547.800048828125</ele>
        <time>2015-09-08T09:49:24.000Z</time>
        <extensions>
          <ns3:TrackPointExtension>
            <ns3:hr>135</ns3:hr>
          </ns3:TrackPointExtension>
        </extensions>
      </trkpt>
      <trkpt lat="46.4884290285408496856689453125" lon="8.257719911634922027587890625">
        <ele>1548.4000244140625</ele>
        <time>2015-09-08T09:49:32.000Z</time>
        <extensions>
          <ns3:TrackPointExtension>
            <ns3:hr>135</ns3:hr>
          </ns3:TrackPointExtension>
        </extensions>
      </trkpt>
      <trkpt lat="46.48863337934017181396484375" lon="8.25781923718750476837158203125">
        <ele>1549.5999755859375</ele>
        <time>2015-09-08T09:49:44.000Z</time>
        <extensions>
          <ns3:TrackPointExtension>
            <ns3:hr>138</ns3:hr>
          </ns3:TrackPointExtension>
        </extensions>
      </trkpt>
      <trkpt lat="46.4888699166476726531982421875" lon="8.2579971849918365478515625">
        <ele>1551.5999755859375</ele>
        <time>2015-09-08T09:50:02.000Z</time>
        <extensions>
          <ns3:TrackPointExtension>
            <ns3:hr>139</ns3:hr>
          </ns3:TrackPointExtension>
        </extensions>
      </trkpt>
      <trkpt lat="46.48897024802863597869873046875" lon="8.258092738687992095947265625">
        <ele>1552.199951171875</ele>
        <time>2015-09-08T09:50:09.000Z</time>
        <extensions>
          <ns3:TrackPointExtension>
            <ns3:hr>139</ns3:hr>
          </ns3:TrackPointExtension>
        </extensions>
      </trkpt>
      <trkpt lat="46.4891059510409832000732421875" lon="8.2581768929958343505859375">
        <ele>1553</ele>
        <time>2015-09-08T09:50:19.000Z</time>
        <extensions>
          <ns3:TrackPointExtension>
            <ns3:hr>142</ns3:hr>
          </ns3:TrackPointExtension>
        </extensions>
      </trkpt>
      <trkpt lat="46.4892561547458171844482421875" lon="8.25832785107195377349853515625">
        <ele>1555.800048828125</ele>
        <time>2015-09-08T09:50:29.000Z</time>
        <extensions>
          <ns3:TrackPointExtension>
            <ns3:hr>141</ns3:hr>
          </ns3:TrackPointExtension>
        </extensions>
      </trkpt>
      <trkpt lat="46.48928515613079071044921875" lon="8.25845223851501941680908203125">
        <ele>1556</ele>
        <time>2015-09-08T09:50:34.000Z</time>
        <extensions>
          <ns3:TrackPointExtension>
            <ns3:hr>141</ns3:hr>
          </ns3:TrackPointExtension>
        </extensions>
      </trkpt>
      <trkpt lat="46.489384733140468597412109375" lon="8.25855030678212642669677734375">
        <ele>1555.199951171875</ele>
        <time>2015-09-08T09:50:39.000Z</time>
        <extensions>
          <ns3:TrackPointExtension>
            <ns3:hr>140</ns3:hr>
          </ns3:TrackPointExtension>
        </extensions>
      </trkpt>
      <trkpt lat="46.48950777947902679443359375" lon="8.2585529051721096038818359375">
        <ele>1555.4000244140625</ele>
        <time>2015-09-08T09:50:45.000Z</time>
        <extensions>
          <ns3:TrackPointExtension>
            <ns3:hr>139</ns3:hr>
          </ns3:TrackPointExtension>
        </extensions>
      </trkpt>
      <trkpt lat="46.48958497680723667144775390625" lon="8.258533291518688201904296875">
        <ele>1555.4000244140625</ele>
        <time>2015-09-08T09:50:49.000Z</time>
        <extensions>
          <ns3:TrackPointExtension>
            <ns3:hr>138</ns3:hr>
          </ns3:TrackPointExtension>
        </extensions>
      </trkpt>
      <trkpt lat="46.4896319992840290069580078125" lon="8.25852197594940662384033203125">
        <ele>1555.4000244140625</ele>
        <time>2015-09-08T09:50:54.000Z</time>
        <extensions>
          <ns3:TrackPointExtension>
            <ns3:hr>135</ns3:hr>
          </ns3:TrackPointExtension>
        </extensions>
      </trkpt>
      <trkpt lat="46.489636860787868499755859375" lon="8.258524574339389801025390625">
        <ele>1555.5999755859375</ele>
        <time>2015-09-08T09:51:00.000Z</time>
        <extensions>
          <ns3:TrackPointExtension>
            <ns3:hr>132</ns3:hr>
          </ns3:TrackPointExtension>
        </extensions>
      </trkpt>
      <trkpt lat="46.48970031179487705230712890625" lon="8.258515186607837677001953125">
        <ele>1555.199951171875</ele>
        <time>2015-09-08T09:51:06.000Z</time>
        <extensions>
          <ns3:TrackPointExtension>
            <ns3:hr>130</ns3:hr>
          </ns3:TrackPointExtension>
        </extensions>
      </trkpt>
      <trkpt lat="46.489764265716075897216796875" lon="8.2584110833704471588134765625">
        <ele>1555.5999755859375</ele>
        <time>2015-09-08T09:51:11.000Z</time>
        <extensions>
          <ns3:TrackPointExtension>
            <ns3:hr>127</ns3:hr>
          </ns3:TrackPointExtension>
        </extensions>
      </trkpt>
      <trkpt lat="46.48984632454812526702880859375" lon="8.2583218999207019805908203125">
        <ele>1556.199951171875</ele>
        <time>2015-09-08T09:51:16.000Z</time>
        <extensions>
          <ns3:TrackPointExtension>
            <ns3:hr>127</ns3:hr>
          </ns3:TrackPointExtension>
        </extensions>
      </trkpt>
      <trkpt lat="46.4899615757167339324951171875" lon="8.2582216523587703704833984375">
        <ele>1555.800048828125</ele>
        <time>2015-09-08T09:51:20.000Z</time>
        <extensions>
          <ns3:TrackPointExtension>
            <ns3:hr>124</ns3:hr>
          </ns3:TrackPointExtension>
        </extensions>
      </trkpt>
      <trkpt lat="46.4901094324886798858642578125" lon="8.25792149640619754791259765625">
        <ele>1556.199951171875</ele>
        <time>2015-09-08T09:51:34.000Z</time>
        <extensions>
          <ns3:TrackPointExtension>
            <ns3:hr>124</ns3:hr>
          </ns3:TrackPointExtension>
        </extensions>
      </trkpt>
      <trkpt lat="46.4904517494142055511474609375" lon="8.25728078372776508331298828125">
        <ele>1557.199951171875</ele>
        <time>2015-09-08T09:51:54.000Z</time>
        <extensions>
          <ns3:TrackPointExtension>
            <ns3:hr>123</ns3:hr>
          </ns3:TrackPointExtension>
        </extensions>
      </trkpt>
      <trkpt lat="46.4908497221767902374267578125" lon="8.256742917001247406005859375">
        <ele>1559.4000244140625</ele>
        <time>2015-09-08T09:52:13.000Z</time>
        <extensions>
          <ns3:TrackPointExtension>
            <ns3:hr>122</ns3:hr>
          </ns3:TrackPointExtension>
        </extensions>
      </trkpt>
      <trkpt lat="46.49124342016875743865966796875" lon="8.2562001049518585205078125">
        <ele>1562.800048828125</ele>
        <time>2015-09-08T09:52:33.000Z</time>
        <extensions>
          <ns3:TrackPointExtension>
            <ns3:hr>121</ns3:hr>
          </ns3:TrackPointExtension>
        </extensions>
      </trkpt>
      <trkpt lat="46.49148096330463886260986328125" lon="8.25593951158225536346435546875">
        <ele>1568.4000244140625</ele>
        <time>2015-09-08T09:52:44.000Z</time>
        <extensions>
          <ns3:TrackPointExtension>
            <ns3:hr>124</ns3:hr>
          </ns3:TrackPointExtension>
        </extensions>
      </trkpt>
      <trkpt lat="46.4919076859951019287109375" lon="8.2554542832076549530029296875">
        <ele>1577</ele>
        <time>2015-09-08T09:53:03.000Z</time>
        <extensions>
          <ns3:TrackPointExtension>
            <ns3:hr>124</ns3:hr>
          </ns3:TrackPointExtension>
        </extensions>
      </trkpt>
      <trkpt lat="46.4923044852912425994873046875" lon="8.255069553852081298828125">
        <ele>1585.199951171875</ele>
        <time>2015-09-08T09:53:19.000Z</time>
        <extensions>
          <ns3:TrackPointExtension>
            <ns3:hr>126</ns3:hr>
          </ns3:TrackPointExtension>
        </extensions>
      </trkpt>
      <trkpt lat="46.492380760610103607177734375" lon="8.25497911311686038970947265625">
        <ele>1586.5999755859375</ele>
        <time>2015-09-08T09:53:23.000Z</time>
        <extensions>
          <ns3:TrackPointExtension>
            <ns3:hr>127</ns3:hr>
          </ns3:TrackPointExtension>
        </extensions>
      </trkpt>
      <trkpt lat="46.492750234901905059814453125" lon="8.2545693218708038330078125">
        <ele>1594</ele>
        <time>2015-09-08T09:53:45.000Z</time>
        <extensions>
          <ns3:TrackPointExtension>
            <ns3:hr>129</ns3:hr>
          </ns3:TrackPointExtension>
        </extensions>
      </trkpt>
      <trkpt lat="46.49284712970256805419921875" lon="8.2544769532978534698486328125">
        <ele>1595</ele>
        <time>2015-09-08T09:53:54.000Z</time>
        <extensions>
          <ns3:TrackPointExtension>
            <ns3:hr>132</ns3:hr>
          </ns3:TrackPointExtension>
        </extensions>
      </trkpt>
      <trkpt lat="46.49295047856867313385009765625" lon="8.25434091500937938690185546875">
        <ele>1598.199951171875</ele>
        <time>2015-09-08T09:54:04.000Z</time>
        <extensions>
          <ns3:TrackPointExtension>
            <ns3:hr>135</ns3:hr>
          </ns3:TrackPointExtension>
        </extensions>
      </trkpt>
      <trkpt lat="46.49330553598701953887939453125" lon="8.254085518419742584228515625">
        <ele>1606.800048828125</ele>
        <time>2015-09-08T09:54:32.000Z</time>
        <extensions>
          <ns3:TrackPointExtension>
            <ns3:hr>138</ns3:hr>
          </ns3:TrackPointExtension>
        </extensions>
      </trkpt>
      <trkpt lat="46.49361826479434967041015625" lon="8.25383682735264301300048828125">
        <ele>1615</ele>
        <time>2015-09-08T09:55:02.000Z</time>
        <extensions>
          <ns3:TrackPointExtension>
            <ns3:hr>141</ns3:hr>
          </ns3:TrackPointExtension>
        </extensions>
      </trkpt>
      <trkpt lat="46.49407197721302509307861328125" lon="8.25347070582211017608642578125">
        <ele>1625.800048828125</ele>
        <time>2015-09-08T09:55:43.000Z</time>
        <extensions>
          <ns3:TrackPointExtension>
            <ns3:hr>140</ns3:hr>
          </ns3:TrackPointExtension>
        </extensions>
      </trkpt>
      <trkpt lat="46.494142301380634307861328125" lon="8.25343005359172821044921875">
        <ele>1627</ele>
        <time>2015-09-08T09:55:47.000Z</time>
        <extensions>
          <ns3:TrackPointExtension>
            <ns3:hr>140</ns3:hr>
          </ns3:TrackPointExtension>
        </extensions>
      </trkpt>
      <trkpt lat="46.4941773377358913421630859375" lon="8.253412954509258270263671875">
        <ele>1627.5999755859375</ele>
        <time>2015-09-08T09:55:49.000Z</time>
        <extensions>
          <ns3:TrackPointExtension>
            <ns3:hr>139</ns3:hr>
          </ns3:TrackPointExtension>
        </extensions>
      </trkpt>
      <trkpt lat="46.4942172355949878692626953125" lon="8.2533909939229488372802734375">
        <ele>1628.5999755859375</ele>
        <time>2015-09-08T09:55:52.000Z</time>
        <extensions>
          <ns3:TrackPointExtension>
            <ns3:hr>139</ns3:hr>
          </ns3:TrackPointExtension>
        </extensions>
      </trkpt>
      <trkpt lat="46.49439015425741672515869140625" lon="8.2533135451376438140869140625">
        <ele>1634.5999755859375</ele>
        <time>2015-09-08T09:56:09.000Z</time>
        <extensions>
          <ns3:TrackPointExtension>
            <ns3:hr>138</ns3:hr>
          </ns3:TrackPointExtension>
        </extensions>
      </trkpt>
      <trkpt lat="46.49441488087177276611328125" lon="8.25329887680709362030029296875">
        <ele>1635</ele>
        <time>2015-09-08T09:56:11.000Z</time>
        <extensions>
          <ns3:TrackPointExtension>
            <ns3:hr>138</ns3:hr>
          </ns3:TrackPointExtension>
        </extensions>
      </trkpt>
      <trkpt lat="46.49450029246509075164794921875" lon="8.2532307319343090057373046875">
        <ele>1636.5999755859375</ele>
        <time>2015-09-08T09:56:18.000Z</time>
        <extensions>
          <ns3:TrackPointExtension>
            <ns3:hr>138</ns3:hr>
          </ns3:TrackPointExtension>
        </extensions>
      </trkpt>
      <trkpt lat="46.49459953419864177703857421875" lon="8.25308329425752162933349609375">
        <ele>1639.199951171875</ele>
        <time>2015-09-08T09:56:29.000Z</time>
        <extensions>
          <ns3:TrackPointExtension>
            <ns3:hr>139</ns3:hr>
          </ns3:TrackPointExtension>
        </extensions>
      </trkpt>
      <trkpt lat="46.4946852810680866241455078125" lon="8.25286519713699817657470703125">
        <ele>1642.4000244140625</ele>
        <time>2015-09-08T09:56:41.000Z</time>
        <extensions>
          <ns3:TrackPointExtension>
            <ns3:hr>139</ns3:hr>
          </ns3:TrackPointExtension>
        </extensions>
      </trkpt>
      <trkpt lat="46.49480958469212055206298828125" lon="8.25281540863215923309326171875">
        <ele>1645.199951171875</ele>
        <time>2015-09-08T09:56:50.000Z</time>
        <extensions>
          <ns3:TrackPointExtension>
            <ns3:hr>139</ns3:hr>
          </ns3:TrackPointExtension>
        </extensions>
      </trkpt>
      <trkpt lat="46.49483204819262027740478515625" lon="8.25282094068825244903564453125">
        <ele>1645.5999755859375</ele>
        <time>2015-09-08T09:56:52.000Z</time>
        <extensions>
          <ns3:TrackPointExtension>
            <ns3:hr>139</ns3:hr>
          </ns3:TrackPointExtension>
        </extensions>
      </trkpt>
      <trkpt lat="46.4948822557926177978515625" lon="8.2528146542608737945556640625">
        <ele>1646.800048828125</ele>
        <time>2015-09-08T09:56:56.000Z</time>
        <extensions>
          <ns3:TrackPointExtension>
            <ns3:hr>138</ns3:hr>
          </ns3:TrackPointExtension>
        </extensions>
      </trkpt>
      <trkpt lat="46.4949410967528820037841796875" lon="8.252814151346683502197265625">
        <ele>1647.800048828125</ele>
        <time>2015-09-08T09:57:00.000Z</time>
        <extensions>
          <ns3:TrackPointExtension>
            <ns3:hr>138</ns3:hr>
          </ns3:TrackPointExtension>
        </extensions>
      </trkpt>
      <trkpt lat="46.49541157297790050506591796875" lon="8.25244409032166004180908203125">
        <ele>1642.4000244140625</ele>
        <time>2015-09-08T09:57:41.000Z</time>
        <extensions>
          <ns3:TrackPointExtension>
            <ns3:hr>139</ns3:hr>
          </ns3:TrackPointExtension>
        </extensions>
      </trkpt>
      <trkpt lat="46.495861597359180450439453125" lon="8.2520954869687557220458984375">
        <ele>1643.5999755859375</ele>
        <time>2015-09-08T09:58:42.000Z</time>
        <extensions>
          <ns3:TrackPointExtension>
            <ns3:hr>138</ns3:hr>
          </ns3:TrackPointExtension>
        </extensions>
      </trkpt>
      <trkpt lat="46.49617575109004974365234375" lon="8.25176716782152652740478515625">
        <ele>1647.4000244140625</ele>
        <time>2015-09-08T09:59:09.000Z</time>
        <extensions>
          <ns3:TrackPointExtension>
            <ns3:hr>137</ns3:hr>
          </ns3:TrackPointExtension>
        </extensions>
      </trkpt>
      <trkpt lat="46.49629469029605388641357421875" lon="8.25166909955441951751708984375">
        <ele>1649</ele>
        <time>2015-09-08T09:59:19.000Z</time>
        <extensions>
          <ns3:TrackPointExtension>
            <ns3:hr>137</ns3:hr>
          </ns3:TrackPointExtension>
        </extensions>
      </trkpt>
      <trkpt lat="46.4967522583901882171630859375" lon="8.25127749703824520111083984375">
        <ele>1654.4000244140625</ele>
        <time>2015-09-08T09:59:54.000Z</time>
        <extensions>
          <ns3:TrackPointExtension>
            <ns3:hr>137</ns3:hr>
          </ns3:TrackPointExtension>
        </extensions>
      </trkpt>
      <trkpt lat="46.4969081617891788482666015625" lon="8.2511548697948455810546875">
        <ele>1656</ele>
        <time>2015-09-08T10:00:03.000Z</time>
        <extensions>
          <ns3:TrackPointExtension>
            <ns3:hr>135</ns3:hr>
          </ns3:TrackPointExtension>
        </extensions>
      </trkpt>
      <trkpt lat="46.49697110988199710845947265625" lon="8.251098878681659698486328125">
        <ele>1657</ele>
        <time>2015-09-08T10:00:11.000Z</time>
        <extensions>
          <ns3:TrackPointExtension>
            <ns3:hr>133</ns3:hr>
          </ns3:TrackPointExtension>
        </extensions>
      </trkpt>
      <trkpt lat="46.496947221457958221435546875" lon="8.25116350315511226654052734375">
        <ele>1658.199951171875</ele>
        <time>2015-09-08T10:00:17.000Z</time>
        <extensions>
          <ns3:TrackPointExtension>
            <ns3:hr>130</ns3:hr>
          </ns3:TrackPointExtension>
        </extensions>
      </trkpt>
      <trkpt lat="46.4969675056636333465576171875" lon="8.25119066052138805389404296875">
        <ele>1658.5999755859375</ele>
        <time>2015-09-08T10:00:28.000Z</time>
        <extensions>
          <ns3:TrackPointExtension>
            <ns3:hr>127</ns3:hr>
          </ns3:TrackPointExtension>
        </extensions>
      </trkpt>
      <trkpt lat="46.49701318703591823577880859375" lon="8.2512425445020198822021484375">
        <ele>1659.199951171875</ele>
        <time>2015-09-08T10:00:37.000Z</time>
        <extensions>
          <ns3:TrackPointExtension>
            <ns3:hr>124</ns3:hr>
          </ns3:TrackPointExtension>
        </extensions>
      </trkpt>
      <trkpt lat="46.497017629444599151611328125" lon="8.25131052173674106597900390625">
        <ele>1658.199951171875</ele>
        <time>2015-09-08T10:00:50.000Z</time>
        <extensions>
          <ns3:TrackPointExtension>
            <ns3:hr>121</ns3:hr>
          </ns3:TrackPointExtension>
        </extensions>
      </trkpt>
      <trkpt lat="46.4970811642706394195556640625" lon="8.2513692788779735565185546875">
        <ele>1657.5999755859375</ele>
        <time>2015-09-08T10:01:02.000Z</time>
        <extensions>
          <ns3:TrackPointExtension>
            <ns3:hr>118</ns3:hr>
          </ns3:TrackPointExtension>
        </extensions>
      </trkpt>
      <trkpt lat="46.497177891433238983154296875" lon="8.25145821087062358856201171875">
        <ele>1657.800048828125</ele>
        <time>2015-09-08T10:01:12.000Z</time>
        <extensions>
          <ns3:TrackPointExtension>
            <ns3:hr>120</ns3:hr>
          </ns3:TrackPointExtension>
        </extensions>
      </trkpt>
      <trkpt lat="46.49723312817513942718505859375" lon="8.25141898356378078460693359375">
        <ele>1657.800048828125</ele>
        <time>2015-09-08T10:01:16.000Z</time>
        <extensions>
          <ns3:TrackPointExtension>
            <ns3:hr>120</ns3:hr>
          </ns3:TrackPointExtension>
        </extensions>
      </trkpt>
      <trkpt lat="46.4972920529544353485107421875" lon="8.251397944986820220947265625">
        <ele>1658</ele>
        <time>2015-09-08T10:01:20.000Z</time>
        <extensions>
          <ns3:TrackPointExtension>
            <ns3:hr>121</ns3:hr>
          </ns3:TrackPointExtension>
        </extensions>
      </trkpt>
      <trkpt lat="46.49737779982388019561767578125" lon="8.251308761537075042724609375">
        <ele>1657.4000244140625</ele>
        <time>2015-09-08T10:01:27.000Z</time>
        <extensions>
          <ns3:TrackPointExtension>
            <ns3:hr>124</ns3:hr>
          </ns3:TrackPointExtension>
        </extensions>
      </trkpt>
      <trkpt lat="46.4973906241357326507568359375" lon="8.25131555087864398956298828125">
        <ele>1656</ele>
        <time>2015-09-08T10:01:37.000Z</time>
        <extensions>
          <ns3:TrackPointExtension>
            <ns3:hr>121</ns3:hr>
          </ns3:TrackPointExtension>
        </extensions>
      </trkpt>
      <trkpt lat="46.49749296717345714569091796875" lon="8.25130750425159931182861328125">
        <ele>1646</ele>
        <time>2015-09-08T10:02:06.000Z</time>
        <extensions>
          <ns3:TrackPointExtension>
            <ns3:hr>118</ns3:hr>
          </ns3:TrackPointExtension>
        </extensions>
      </trkpt>
      <trkpt lat="46.497635878622531890869140625" lon="8.25105495750904083251953125">
        <ele>1638.5999755859375</ele>
        <time>2015-09-08T10:02:32.000Z</time>
        <extensions>
          <ns3:TrackPointExtension>
            <ns3:hr>121</ns3:hr>
          </ns3:TrackPointExtension>
        </extensions>
      </trkpt>
      <trkpt lat="46.497700251638889312744140625" lon="8.250994943082332611083984375">
        <ele>1636.800048828125</ele>
        <time>2015-09-08T10:02:43.000Z</time>
        <extensions>
          <ns3:TrackPointExtension>
            <ns3:hr>124</ns3:hr>
          </ns3:TrackPointExtension>
        </extensions>
      </trkpt>
      <trkpt lat="46.497719027101993560791015625" lon="8.251015059649944305419921875">
        <ele>1634.199951171875</ele>
        <time>2015-09-08T10:02:55.000Z</time>
        <extensions>
          <ns3:TrackPointExtension>
            <ns3:hr>127</ns3:hr>
          </ns3:TrackPointExtension>
        </extensions>
      </trkpt>
      <trkpt lat="46.497782059013843536376953125" lon="8.2510514371097087860107421875">
        <ele>1632.5999755859375</ele>
        <time>2015-09-08T10:03:07.000Z</time>
        <extensions>
          <ns3:TrackPointExtension>
            <ns3:hr>124</ns3:hr>
          </ns3:TrackPointExtension>
        </extensions>
      </trkpt>
      <trkpt lat="46.49780008010566234588623046875" lon="8.251062333583831787109375">
        <ele>1632.4000244140625</ele>
        <time>2015-09-08T10:03:09.000Z</time>
        <extensions>
          <ns3:TrackPointExtension>
            <ns3:hr>123</ns3:hr>
          </ns3:TrackPointExtension>
        </extensions>
      </trkpt>
      <trkpt lat="46.49780829437077045440673828125" lon="8.25111907906830310821533203125">
        <ele>1632</ele>
        <time>2015-09-08T10:03:14.000Z</time>
        <extensions>
          <ns3:TrackPointExtension>
            <ns3:hr>120</ns3:hr>
          </ns3:TrackPointExtension>
        </extensions>
      </trkpt>
      <trkpt lat="46.4977500401437282562255859375" lon="8.2515442930161952972412109375">
        <ele>1632.5999755859375</ele>
        <time>2015-09-08T10:04:00.000Z</time>
        <extensions>
          <ns3:TrackPointExtension>
            <ns3:hr>123</ns3:hr>
          </ns3:TrackPointExtension>
        </extensions>
      </trkpt>
      <trkpt lat="46.497728414833545684814453125" lon="8.25159902684390544891357421875">
        <ele>1632</ele>
        <time>2015-09-08T10:04:14.000Z</time>
        <extensions>
          <ns3:TrackPointExtension>
            <ns3:hr>120</ns3:hr>
          </ns3:TrackPointExtension>
        </extensions>
      </trkpt>
      <trkpt lat="46.49768122471868991851806640625" lon="8.25172827579081058502197265625">
        <ele>1632.199951171875</ele>
        <time>2015-09-08T10:04:33.000Z</time>
        <extensions>
          <ns3:TrackPointExtension>
            <ns3:hr>123</ns3:hr>
          </ns3:TrackPointExtension>
        </extensions>
      </trkpt>
      <trkpt lat="46.4976489543914794921875" lon="8.25190781615674495697021484375">
        <ele>1632.4000244140625</ele>
        <time>2015-09-08T10:04:48.000Z</time>
        <extensions>
          <ns3:TrackPointExtension>
            <ns3:hr>126</ns3:hr>
          </ns3:TrackPointExtension>
        </extensions>
      </trkpt>
      <trkpt lat="46.497264392673969268798828125" lon="8.252409137785434722900390625">
        <ele>1633.199951171875</ele>
        <time>2015-09-08T10:05:21.000Z</time>
        <extensions>
          <ns3:TrackPointExtension>
            <ns3:hr>126</ns3:hr>
          </ns3:TrackPointExtension>
        </extensions>
      </trkpt>
      <trkpt lat="46.49705576710402965545654296875" lon="8.25258071534335613250732421875">
        <ele>1632.800048828125</ele>
        <time>2015-09-08T10:05:40.000Z</time>
        <extensions>
          <ns3:TrackPointExtension>
            <ns3:hr>129</ns3:hr>
          </ns3:TrackPointExtension>
        </extensions>
      </trkpt>
      <trkpt lat="46.49695551954209804534912109375" lon="8.25274516828358173370361328125">
        <ele>1632.4000244140625</ele>
        <time>2015-09-08T10:05:52.000Z</time>
        <extensions>
          <ns3:TrackPointExtension>
            <ns3:hr>131</ns3:hr>
          </ns3:TrackPointExtension>
        </extensions>
      </trkpt>
      <trkpt lat="46.496923752129077911376953125" lon="8.25290023349225521087646484375">
        <ele>1631.800048828125</ele>
        <time>2015-09-08T10:05:58.000Z</time>
        <extensions>
          <ns3:TrackPointExtension>
            <ns3:hr>131</ns3:hr>
          </ns3:TrackPointExtension>
        </extensions>
      </trkpt>
      <trkpt lat="46.49683750234544277191162109375" lon="8.25307440944015979766845703125">
        <ele>1631.199951171875</ele>
        <time>2015-09-08T10:06:03.000Z</time>
        <extensions>
          <ns3:TrackPointExtension>
            <ns3:hr>130</ns3:hr>
          </ns3:TrackPointExtension>
        </extensions>
      </trkpt>
      <trkpt lat="46.49675250984728336334228515625" lon="8.25323701836168766021728515625">
        <ele>1630</ele>
        <time>2015-09-08T10:06:09.000Z</time>
        <extensions>
          <ns3:TrackPointExtension>
            <ns3:hr>127</ns3:hr>
          </ns3:TrackPointExtension>
        </extensions>
      </trkpt>
      <trkpt lat="46.4966885559260845184326171875" lon="8.253356628119945526123046875">
        <ele>1628.5999755859375</ele>
        <time>2015-09-08T10:06:14.000Z</time>
        <extensions>
          <ns3:TrackPointExtension>
            <ns3:hr>126</ns3:hr>
          </ns3:TrackPointExtension>
        </extensions>
      </trkpt>
      <trkpt lat="46.49655997753143310546875" lon="8.253453187644481658935546875">
        <ele>1626.5999755859375</ele>
        <time>2015-09-08T10:06:33.000Z</time>
        <extensions>
          <ns3:TrackPointExtension>
            <ns3:hr>123</ns3:hr>
          </ns3:TrackPointExtension>
        </extensions>
      </trkpt>
      <trkpt lat="46.4965205825865268707275390625" lon="8.25359559617936611175537109375">
        <ele>1626</ele>
        <time>2015-09-08T10:06:43.000Z</time>
        <extensions>
          <ns3:TrackPointExtension>
            <ns3:hr>120</ns3:hr>
          </ns3:TrackPointExtension>
        </extensions>
      </trkpt>
      <trkpt lat="46.49646568112075328826904296875" lon="8.2536427862942218780517578125">
        <ele>1625.800048828125</ele>
        <time>2015-09-08T10:06:48.000Z</time>
        <extensions>
          <ns3:TrackPointExtension>
            <ns3:hr>120</ns3:hr>
          </ns3:TrackPointExtension>
        </extensions>
      </trkpt>
      <trkpt lat="46.4963628351688385009765625" lon="8.2537614740431308746337890625">
        <ele>1624.800048828125</ele>
        <time>2015-09-08T10:06:53.000Z</time>
        <extensions>
          <ns3:TrackPointExtension>
            <ns3:hr>118</ns3:hr>
          </ns3:TrackPointExtension>
        </extensions>
      </trkpt>
      <trkpt lat="46.4962892420589923858642578125" lon="8.25396993197500705718994140625">
        <ele>1623.800048828125</ele>
        <time>2015-09-08T10:07:06.000Z</time>
        <extensions>
          <ns3:TrackPointExtension>
            <ns3:hr>119</ns3:hr>
          </ns3:TrackPointExtension>
        </extensions>
      </trkpt>
      <trkpt lat="46.49624775163829326629638671875" lon="8.254096247255802154541015625">
        <ele>1624.199951171875</ele>
        <time>2015-09-08T10:07:11.000Z</time>
        <extensions>
          <ns3:TrackPointExtension>
            <ns3:hr>120</ns3:hr>
          </ns3:TrackPointExtension>
        </extensions>
      </trkpt>
      <trkpt lat="46.49622671306133270263671875" lon="8.25418819673359394073486328125">
        <ele>1624.4000244140625</ele>
        <time>2015-09-08T10:07:15.000Z</time>
        <extensions>
          <ns3:TrackPointExtension>
            <ns3:hr>122</ns3:hr>
          </ns3:TrackPointExtension>
        </extensions>
      </trkpt>
      <trkpt lat="46.49615622125566005706787109375" lon="8.25431878678500652313232421875">
        <ele>1624.4000244140625</ele>
        <time>2015-09-08T10:07:20.000Z</time>
        <extensions>
          <ns3:TrackPointExtension>
            <ns3:hr>125</ns3:hr>
          </ns3:TrackPointExtension>
        </extensions>
      </trkpt>
      <trkpt lat="46.4961375296115875244140625" lon="8.25435943901538848876953125">
        <ele>1624.4000244140625</ele>
        <time>2015-09-08T10:07:21.000Z</time>
        <extensions>
          <ns3:TrackPointExtension>
            <ns3:hr>125</ns3:hr>
          </ns3:TrackPointExtension>
        </extensions>
      </trkpt>
      <trkpt lat="46.496035270392894744873046875" lon="8.2545151747763156890869140625">
        <ele>1624.5999755859375</ele>
        <time>2015-09-08T10:07:27.000Z</time>
        <extensions>
          <ns3:TrackPointExtension>
            <ns3:hr>125</ns3:hr>
          </ns3:TrackPointExtension>
        </extensions>
      </trkpt>
      <trkpt lat="46.49591649882495403289794921875" lon="8.25464383698999881744384765625">
        <ele>1624</ele>
        <time>2015-09-08T10:07:33.000Z</time>
        <extensions>
          <ns3:TrackPointExtension>
            <ns3:hr>127</ns3:hr>
          </ns3:TrackPointExtension>
        </extensions>
      </trkpt>
      <trkpt lat="46.49590375833213329315185546875" lon="8.254660852253437042236328125">
        <ele>1624</ele>
        <time>2015-09-08T10:07:34.000Z</time>
        <extensions>
          <ns3:TrackPointExtension>
            <ns3:hr>127</ns3:hr>
          </ns3:TrackPointExtension>
        </extensions>
      </trkpt>
      <trkpt lat="46.495800912380218505859375" lon="8.254756741225719451904296875">
        <ele>1623.199951171875</ele>
        <time>2015-09-08T10:07:39.000Z</time>
        <extensions>
          <ns3:TrackPointExtension>
            <ns3:hr>127</ns3:hr>
          </ns3:TrackPointExtension>
        </extensions>
      </trkpt>
      <trkpt lat="46.49578020907938480377197265625" lon="8.2547642849385738372802734375">
        <ele>1623</ele>
        <time>2015-09-08T10:07:49.000Z</time>
        <extensions>
          <ns3:TrackPointExtension>
            <ns3:hr>124</ns3:hr>
          </ns3:TrackPointExtension>
        </extensions>
      </trkpt>
      <trkpt lat="46.4957886748015880584716796875" lon="8.25475732795894145965576171875">
        <ele>1622.800048828125</ele>
        <time>2015-09-08T10:07:54.000Z</time>
        <extensions>
          <ns3:TrackPointExtension>
            <ns3:hr>120</ns3:hr>
          </ns3:TrackPointExtension>
        </extensions>
      </trkpt>
      <trkpt lat="46.49578557349741458892822265625" lon="8.25477375648915767669677734375">
        <ele>1621.800048828125</ele>
        <time>2015-09-08T10:08:00.000Z</time>
        <extensions>
          <ns3:TrackPointExtension>
            <ns3:hr>116</ns3:hr>
          </ns3:TrackPointExtension>
        </extensions>
      </trkpt>
      <trkpt lat="46.49577920325100421905517578125" lon="8.2547854073345661163330078125">
        <ele>1621.800048828125</ele>
        <time>2015-09-08T10:08:03.000Z</time>
        <extensions>
          <ns3:TrackPointExtension>
            <ns3:hr>113</ns3:hr>
          </ns3:TrackPointExtension>
        </extensions>
      </trkpt>
      <trkpt lat="46.4957796223461627960205078125" lon="8.2547991536557674407958984375">
        <ele>1621.4000244140625</ele>
        <time>2015-09-08T10:08:08.000Z</time>
        <extensions>
          <ns3:TrackPointExtension>
            <ns3:hr>110</ns3:hr>
          </ns3:TrackPointExtension>
        </extensions>
      </trkpt>
      <trkpt lat="46.49577652104198932647705078125" lon="8.254804350435733795166015625">
        <ele>1621.199951171875</ele>
        <time>2015-09-08T10:08:10.000Z</time>
        <extensions>
          <ns3:TrackPointExtension>
            <ns3:hr>107</ns3:hr>
          </ns3:TrackPointExtension>
        </extensions>
      </trkpt>
      <trkpt lat="46.495775096118450164794921875" lon="8.25480443425476551055908203125">
        <ele>1621.199951171875</ele>
        <time>2015-09-08T10:08:13.000Z</time>
        <extensions>
          <ns3:TrackPointExtension>
            <ns3:hr>104</ns3:hr>
          </ns3:TrackPointExtension>
        </extensions>
      </trkpt>
      <trkpt lat="46.49578087963163852691650390625" lon="8.254794292151927947998046875">
        <ele>1621.800048828125</ele>
        <time>2015-09-08T10:08:18.000Z</time>
        <extensions>
          <ns3:TrackPointExtension>
            <ns3:hr>107</ns3:hr>
          </ns3:TrackPointExtension>
        </extensions>
      </trkpt>
      <trkpt lat="46.49577182717621326446533203125" lon="8.25482756830751895904541015625">
        <ele>1624.4000244140625</ele>
        <time>2015-09-08T10:08:41.000Z</time>
        <extensions>
          <ns3:TrackPointExtension>
            <ns3:hr>104</ns3:hr>
          </ns3:TrackPointExtension>
        </extensions>
      </trkpt>
      <trkpt lat="46.49572773836553096771240234375" lon="8.25480661354959011077880859375">
        <ele>1628.5999755859375</ele>
        <time>2015-09-08T10:09:08.000Z</time>
        <extensions>
          <ns3:TrackPointExtension>
            <ns3:hr>101</ns3:hr>
          </ns3:TrackPointExtension>
        </extensions>
      </trkpt>
      <trkpt lat="46.4957303367555141448974609375" lon="8.25480828993022441864013671875">
        <ele>1628.4000244140625</ele>
        <time>2015-09-08T10:09:11.000Z</time>
        <extensions>
          <ns3:TrackPointExtension>
            <ns3:hr>101</ns3:hr>
          </ns3:TrackPointExtension>
        </extensions>
      </trkpt>
      <trkpt lat="46.4957350306212902069091796875" lon="8.254800327122211456298828125">
        <ele>1624.5999755859375</ele>
        <time>2015-09-08T10:13:23.000Z</time>
        <extensions>
          <ns3:TrackPointExtension>
            <ns3:hr>99</ns3:hr>
          </ns3:TrackPointExtension>
        </extensions>
      </trkpt>
      <trkpt lat="46.49572757072746753692626953125" lon="8.2548055239021778106689453125">
        <ele>1624.5999755859375</ele>
        <time>2015-09-08T10:13:27.000Z</time>
        <extensions>
          <ns3:TrackPointExtension>
            <ns3:hr>102</ns3:hr>
          </ns3:TrackPointExtension>
        </extensions>
      </trkpt>
      <trkpt lat="46.495655737817287445068359375" lon="8.254892192780971527099609375">
        <ele>1624.199951171875</ele>
        <time>2015-09-08T10:13:32.000Z</time>
        <extensions>
          <ns3:TrackPointExtension>
            <ns3:hr>103</ns3:hr>
          </ns3:TrackPointExtension>
        </extensions>
      </trkpt>
      <trkpt lat="46.495649702847003936767578125" lon="8.25490602292120456695556640625">
        <ele>1624</ele>
        <time>2015-09-08T10:13:36.000Z</time>
        <extensions>
          <ns3:TrackPointExtension>
            <ns3:hr>106</ns3:hr>
          </ns3:TrackPointExtension>
        </extensions>
      </trkpt>
      <trkpt lat="46.4956398122012615203857421875" lon="8.25492538511753082275390625">
        <ele>1624</ele>
        <time>2015-09-08T10:13:40.000Z</time>
        <extensions>
          <ns3:TrackPointExtension>
            <ns3:hr>109</ns3:hr>
          </ns3:TrackPointExtension>
        </extensions>
      </trkpt>
      <trkpt lat="46.49562765844166278839111328125" lon="8.25497366487979888916015625">
        <ele>1623.800048828125</ele>
        <time>2015-09-08T10:13:46.000Z</time>
        <extensions>
          <ns3:TrackPointExtension>
            <ns3:hr>112</ns3:hr>
          </ns3:TrackPointExtension>
        </extensions>
      </trkpt>
      <trkpt lat="46.49557954631745815277099609375" lon="8.25505689717829227447509765625">
        <ele>1623.800048828125</ele>
        <time>2015-09-08T10:13:53.000Z</time>
        <extensions>
          <ns3:TrackPointExtension>
            <ns3:hr>114</ns3:hr>
          </ns3:TrackPointExtension>
        </extensions>
      </trkpt>
      <trkpt lat="46.49550511501729488372802734375" lon="8.2552018202841281890869140625">
        <ele>1623.199951171875</ele>
        <time>2015-09-08T10:14:01.000Z</time>
        <extensions>
          <ns3:TrackPointExtension>
            <ns3:hr>117</ns3:hr>
          </ns3:TrackPointExtension>
        </extensions>
      </trkpt>
      <trkpt lat="46.49549270980060100555419921875" lon="8.2552256248891353607177734375">
        <ele>1623.199951171875</ele>
        <time>2015-09-08T10:14:02.000Z</time>
        <extensions>
          <ns3:TrackPointExtension>
            <ns3:hr>117</ns3:hr>
          </ns3:TrackPointExtension>
        </extensions>
      </trkpt>
      <trkpt lat="46.4954480342566967010498046875" lon="8.25529846362769603729248046875">
        <ele>1623</ele>
        <time>2015-09-08T10:14:05.000Z</time>
        <extensions>
          <ns3:TrackPointExtension>
            <ns3:hr>118</ns3:hr>
          </ns3:TrackPointExtension>
        </extensions>
      </trkpt>
      <trkpt lat="46.49536279030144214630126953125" lon="8.25534137897193431854248046875">
        <ele>1622.800048828125</ele>
        <time>2015-09-08T10:14:09.000Z</time>
        <extensions>
          <ns3:TrackPointExtension>
            <ns3:hr>119</ns3:hr>
          </ns3:TrackPointExtension>
        </extensions>
      </trkpt>
      <trkpt lat="46.4953216351568698883056640625" lon="8.255474232137203216552734375">
        <ele>1621</ele>
        <time>2015-09-08T10:14:18.000Z</time>
        <extensions>
          <ns3:TrackPointExtension>
            <ns3:hr>121</ns3:hr>
          </ns3:TrackPointExtension>
        </extensions>
      </trkpt>
      <trkpt lat="46.4951892010867595672607421875" lon="8.25558814220130443572998046875">
        <ele>1619.4000244140625</ele>
        <time>2015-09-08T10:14:23.000Z</time>
        <extensions>
          <ns3:TrackPointExtension>
            <ns3:hr>122</ns3:hr>
          </ns3:TrackPointExtension>
        </extensions>
      </trkpt>
      <trkpt lat="46.4951335452497005462646484375" lon="8.2556480728089809417724609375">
        <ele>1618</ele>
        <time>2015-09-08T10:14:27.000Z</time>
        <extensions>
          <ns3:TrackPointExtension>
            <ns3:hr>122</ns3:hr>
          </ns3:TrackPointExtension>
        </extensions>
      </trkpt>
      <trkpt lat="46.49492852389812469482421875" lon="8.2558421976864337921142578125">
        <ele>1615.4000244140625</ele>
        <time>2015-09-08T10:14:35.000Z</time>
        <extensions>
          <ns3:TrackPointExtension>
            <ns3:hr>119</ns3:hr>
          </ns3:TrackPointExtension>
        </extensions>
      </trkpt>
      <trkpt lat="46.49470665492117404937744140625" lon="8.256062306463718414306640625">
        <ele>1611.199951171875</ele>
        <time>2015-09-08T10:15:00.000Z</time>
        <extensions>
          <ns3:TrackPointExtension>
            <ns3:hr>116</ns3:hr>
          </ns3:TrackPointExtension>
        </extensions>
      </trkpt>
      <trkpt lat="46.49458847008645534515380859375" lon="8.25627051293849945068359375">
        <ele>1610.199951171875</ele>
        <time>2015-09-08T10:15:08.000Z</time>
        <extensions>
          <ns3:TrackPointExtension>
            <ns3:hr>115</ns3:hr>
          </ns3:TrackPointExtension>
        </extensions>
      </trkpt>
      <trkpt lat="46.494493670761585235595703125" lon="8.25643655844032764434814453125">
        <ele>1609.5999755859375</ele>
        <time>2015-09-08T10:15:13.000Z</time>
        <extensions>
          <ns3:TrackPointExtension>
            <ns3:hr>115</ns3:hr>
          </ns3:TrackPointExtension>
        </extensions>
      </trkpt>
      <trkpt lat="46.49447095580399036407470703125" lon="8.25649489648640155792236328125">
        <ele>1609.4000244140625</ele>
        <time>2015-09-08T10:15:15.000Z</time>
        <extensions>
          <ns3:TrackPointExtension>
            <ns3:hr>114</ns3:hr>
          </ns3:TrackPointExtension>
        </extensions>
      </trkpt>
      <trkpt lat="46.49439417757093906402587890625" lon="8.256666474044322967529296875">
        <ele>1608.5999755859375</ele>
        <time>2015-09-08T10:15:21.000Z</time>
        <extensions>
          <ns3:TrackPointExtension>
            <ns3:hr>112</ns3:hr>
          </ns3:TrackPointExtension>
        </extensions>
      </trkpt>
      <trkpt lat="46.49435184895992279052734375" lon="8.25674115680158138275146484375">
        <ele>1607.800048828125</ele>
        <time>2015-09-08T10:15:25.000Z</time>
        <extensions>
          <ns3:TrackPointExtension>
            <ns3:hr>112</ns3:hr>
          </ns3:TrackPointExtension>
        </extensions>
      </trkpt>
      <trkpt lat="46.49425704963505268096923828125" lon="8.25687878765165805816650390625">
        <ele>1606.800048828125</ele>
        <time>2015-09-08T10:15:30.000Z</time>
        <extensions>
          <ns3:TrackPointExtension>
            <ns3:hr>111</ns3:hr>
          </ns3:TrackPointExtension>
        </extensions>
      </trkpt>
      <trkpt lat="46.494146324694156646728515625" lon="8.25708188116550445556640625">
        <ele>1605.5999755859375</ele>
        <time>2015-09-08T10:15:36.000Z</time>
        <extensions>
          <ns3:TrackPointExtension>
            <ns3:hr>108</ns3:hr>
          </ns3:TrackPointExtension>
        </extensions>
      </trkpt>
      <trkpt lat="46.49374206550419330596923828125" lon="8.25761069543659687042236328125">
        <ele>1606.4000244140625</ele>
        <time>2015-09-08T10:15:55.000Z</time>
        <extensions>
          <ns3:TrackPointExtension>
            <ns3:hr>108</ns3:hr>
          </ns3:TrackPointExtension>
        </extensions>
      </trkpt>
      <trkpt lat="46.49370669387280941009521484375" lon="8.2576860487461090087890625">
        <ele>1606</ele>
        <time>2015-09-08T10:15:58.000Z</time>
        <extensions>
          <ns3:TrackPointExtension>
            <ns3:hr>109</ns3:hr>
          </ns3:TrackPointExtension>
        </extensions>
      </trkpt>
      <trkpt lat="46.4936559833586215972900390625" lon="8.25781052000820636749267578125">
        <ele>1604.800048828125</ele>
        <time>2015-09-08T10:16:02.000Z</time>
        <extensions>
          <ns3:TrackPointExtension>
            <ns3:hr>112</ns3:hr>
          </ns3:TrackPointExtension>
        </extensions>
      </trkpt>
      <trkpt lat="46.49354316294193267822265625" lon="8.25801193714141845703125">
        <ele>1602.4000244140625</ele>
        <time>2015-09-08T10:16:09.000Z</time>
        <extensions>
          <ns3:TrackPointExtension>
            <ns3:hr>113</ns3:hr>
          </ns3:TrackPointExtension>
        </extensions>
      </trkpt>
      <trkpt lat="46.4934561587870121002197265625" lon="8.25846481136977672576904296875">
        <ele>1598.4000244140625</ele>
        <time>2015-09-08T10:16:18.000Z</time>
        <extensions>
          <ns3:TrackPointExtension>
            <ns3:hr>114</ns3:hr>
          </ns3:TrackPointExtension>
        </extensions>
      </trkpt>
      <trkpt lat="46.4934434182941913604736328125" lon="8.25853555463254451751708984375">
        <ele>1597.800048828125</ele>
        <time>2015-09-08T10:16:19.000Z</time>
        <extensions>
          <ns3:TrackPointExtension>
            <ns3:hr>113</ns3:hr>
          </ns3:TrackPointExtension>
        </extensions>
      </trkpt>
      <trkpt lat="46.4934048615396022796630859375" lon="8.25890720821917057037353515625">
        <ele>1594.199951171875</ele>
        <time>2015-09-08T10:16:37.000Z</time>
        <extensions>
          <ns3:TrackPointExtension>
            <ns3:hr>113</ns3:hr>
          </ns3:TrackPointExtension>
        </extensions>
      </trkpt>
      <trkpt lat="46.493420116603374481201171875" lon="8.2592291571199893951416015625">
        <ele>1592.5999755859375</ele>
        <time>2015-09-08T10:16:43.000Z</time>
        <extensions>
          <ns3:TrackPointExtension>
            <ns3:hr>111</ns3:hr>
          </ns3:TrackPointExtension>
        </extensions>
      </trkpt>
      <trkpt lat="46.4934088848531246185302734375" lon="8.2594581507146358489990234375">
        <ele>1591.4000244140625</ele>
        <time>2015-09-08T10:16:48.000Z</time>
        <extensions>
          <ns3:TrackPointExtension>
            <ns3:hr>108</ns3:hr>
          </ns3:TrackPointExtension>
        </extensions>
      </trkpt>
      <trkpt lat="46.4933941327035427093505859375" lon="8.259570300579071044921875">
        <ele>1590.5999755859375</ele>
        <time>2015-09-08T10:16:50.000Z</time>
        <extensions>
          <ns3:TrackPointExtension>
            <ns3:hr>107</ns3:hr>
          </ns3:TrackPointExtension>
        </extensions>
      </trkpt>
      <trkpt lat="46.4933917857706546783447265625" lon="8.25970047153532505035400390625">
        <ele>1589.800048828125</ele>
        <time>2015-09-08T10:16:52.000Z</time>
        <extensions>
          <ns3:TrackPointExtension>
            <ns3:hr>105</ns3:hr>
          </ns3:TrackPointExtension>
        </extensions>
      </trkpt>
      <trkpt lat="46.49338382296264171600341796875" lon="8.25985922478139400482177734375">
        <ele>1589</ele>
        <time>2015-09-08T10:16:56.000Z</time>
        <extensions>
          <ns3:TrackPointExtension>
            <ns3:hr>104</ns3:hr>
          </ns3:TrackPointExtension>
        </extensions>
      </trkpt>
      <trkpt lat="46.4933254010975360870361328125" lon="8.260099031031131744384765625">
        <ele>1586</ele>
        <time>2015-09-08T10:17:02.000Z</time>
        <extensions>
          <ns3:TrackPointExtension>
            <ns3:hr>101</ns3:hr>
          </ns3:TrackPointExtension>
        </extensions>
      </trkpt>
      <trkpt lat="46.49324267171323299407958984375" lon="8.26062700711190700531005859375">
        <ele>1577.199951171875</ele>
        <time>2015-09-08T10:17:15.000Z</time>
        <extensions>
          <ns3:TrackPointExtension>
            <ns3:hr>104</ns3:hr>
          </ns3:TrackPointExtension>
        </extensions>
      </trkpt>
      <trkpt lat="46.49324736557900905609130859375" lon="8.26071199961006641387939453125">
        <ele>1575.199951171875</ele>
        <time>2015-09-08T10:17:31.000Z</time>
        <extensions>
          <ns3:TrackPointExtension>
            <ns3:hr>101</ns3:hr>
          </ns3:TrackPointExtension>
        </extensions>
      </trkpt>
      <trkpt lat="46.4932563342154026031494140625" lon="8.26076321303844451904296875">
        <ele>1575.5999755859375</ele>
        <time>2015-09-08T10:17:36.000Z</time>
        <extensions>
          <ns3:TrackPointExtension>
            <ns3:hr>104</ns3:hr>
          </ns3:TrackPointExtension>
        </extensions>
      </trkpt>
      <trkpt lat="46.49326530285179615020751953125" lon="8.2609518058598041534423828125">
        <ele>1573</ele>
        <time>2015-09-08T10:17:49.000Z</time>
        <extensions>
          <ns3:TrackPointExtension>
            <ns3:hr>107</ns3:hr>
          </ns3:TrackPointExtension>
        </extensions>
      </trkpt>
      <trkpt lat="46.49327234365046024322509765625" lon="8.26141658239066600799560546875">
        <ele>1570.199951171875</ele>
        <time>2015-09-08T10:18:02.000Z</time>
        <extensions>
          <ns3:TrackPointExtension>
            <ns3:hr>108</ns3:hr>
          </ns3:TrackPointExtension>
        </extensions>
      </trkpt>
      <trkpt lat="46.4932281710207462310791015625" lon="8.2616713084280490875244140625">
        <ele>1568</ele>
        <time>2015-09-08T10:18:08.000Z</time>
        <extensions>
          <ns3:TrackPointExtension>
            <ns3:hr>106</ns3:hr>
          </ns3:TrackPointExtension>
        </extensions>
      </trkpt>
      <trkpt lat="46.49323496036231517791748046875" lon="8.262118063867092132568359375">
        <ele>1562.5999755859375</ele>
        <time>2015-09-08T10:18:18.000Z</time>
        <extensions>
          <ns3:TrackPointExtension>
            <ns3:hr>103</ns3:hr>
          </ns3:TrackPointExtension>
        </extensions>
      </trkpt>
      <trkpt lat="46.4932583458721637725830078125" lon="8.262368850409984588623046875">
        <ele>1561</ele>
        <time>2015-09-08T10:18:26.000Z</time>
        <extensions>
          <ns3:TrackPointExtension>
            <ns3:hr>107</ns3:hr>
          </ns3:TrackPointExtension>
        </extensions>
      </trkpt>
      <trkpt lat="46.4935277402400970458984375" lon="8.2629758678376674652099609375">
        <ele>1556.5999755859375</ele>
        <time>2015-09-08T10:18:46.000Z</time>
        <extensions>
          <ns3:TrackPointExtension>
            <ns3:hr>109</ns3:hr>
          </ns3:TrackPointExtension>
        </extensions>
      </trkpt>
      <trkpt lat="46.49348390288650989532470703125" lon="8.26314191333949565887451171875">
        <ele>1556.199951171875</ele>
        <time>2015-09-08T10:18:50.000Z</time>
        <extensions>
          <ns3:TrackPointExtension>
            <ns3:hr>112</ns3:hr>
          </ns3:TrackPointExtension>
        </extensions>
      </trkpt>
      <trkpt lat="46.49341885931789875030517578125" lon="8.2633654586970806121826171875">
        <ele>1552.800048828125</ele>
        <time>2015-09-08T10:18:55.000Z</time>
        <extensions>
          <ns3:TrackPointExtension>
            <ns3:hr>111</ns3:hr>
          </ns3:TrackPointExtension>
        </extensions>
      </trkpt>
      <trkpt lat="46.4932989142835140228271484375" lon="8.26377457939088344573974609375">
        <ele>1551.5999755859375</ele>
        <time>2015-09-08T10:19:07.000Z</time>
        <extensions>
          <ns3:TrackPointExtension>
            <ns3:hr>111</ns3:hr>
          </ns3:TrackPointExtension>
        </extensions>
      </trkpt>
      <trkpt lat="46.4932422526180744171142578125" lon="8.2639141380786895751953125">
        <ele>1549.5999755859375</ele>
        <time>2015-09-08T10:19:13.000Z</time>
        <extensions>
          <ns3:TrackPointExtension>
            <ns3:hr>112</ns3:hr>
          </ns3:TrackPointExtension>
        </extensions>
      </trkpt>
      <trkpt lat="46.4932355470955371856689453125" lon="8.26396308839321136474609375">
        <ele>1549.199951171875</ele>
        <time>2015-09-08T10:19:15.000Z</time>
        <extensions>
          <ns3:TrackPointExtension>
            <ns3:hr>112</ns3:hr>
          </ns3:TrackPointExtension>
        </extensions>
      </trkpt>
      <trkpt lat="46.49319891817867755889892578125" lon="8.264342285692691802978515625">
        <ele>1546.800048828125</ele>
        <time>2015-09-08T10:19:32.000Z</time>
        <extensions>
          <ns3:TrackPointExtension>
            <ns3:hr>109</ns3:hr>
          </ns3:TrackPointExtension>
        </extensions>
      </trkpt>
      <trkpt lat="46.4932546578347682952880859375" lon="8.26451906003057956695556640625">
        <ele>1547</ele>
        <time>2015-09-08T10:19:38.000Z</time>
        <extensions>
          <ns3:TrackPointExtension>
            <ns3:hr>106</ns3:hr>
          </ns3:TrackPointExtension>
        </extensions>
      </trkpt>
      <trkpt lat="46.49335398338735103607177734375" lon="8.26484461314976215362548828125">
        <ele>1546.4000244140625</ele>
        <time>2015-09-08T10:19:46.000Z</time>
        <extensions>
          <ns3:TrackPointExtension>
            <ns3:hr>103</ns3:hr>
          </ns3:TrackPointExtension>
        </extensions>
      </trkpt>
      <trkpt lat="46.49336705915629863739013671875" lon="8.26516966335475444793701171875">
        <ele>1544.4000244140625</ele>
        <time>2015-09-08T10:20:01.000Z</time>
        <extensions>
          <ns3:TrackPointExtension>
            <ns3:hr>106</ns3:hr>
          </ns3:TrackPointExtension>
        </extensions>
      </trkpt>
      <trkpt lat="46.49371725507080554962158203125" lon="8.2657891698181629180908203125">
        <ele>1541.800048828125</ele>
        <time>2015-09-08T10:20:19.000Z</time>
        <extensions>
          <ns3:TrackPointExtension>
            <ns3:hr>104</ns3:hr>
          </ns3:TrackPointExtension>
        </extensions>
      </trkpt>
      <trkpt lat="46.49377307854592800140380859375" lon="8.2659016549587249755859375">
        <ele>1540.5999755859375</ele>
        <time>2015-09-08T10:20:22.000Z</time>
        <extensions>
          <ns3:TrackPointExtension>
            <ns3:hr>105</ns3:hr>
          </ns3:TrackPointExtension>
        </extensions>
      </trkpt>
      <trkpt lat="46.49380744434893131256103515625" lon="8.26607935130596160888671875">
        <ele>1539.4000244140625</ele>
        <time>2015-09-08T10:20:26.000Z</time>
        <extensions>
          <ns3:TrackPointExtension>
            <ns3:hr>105</ns3:hr>
          </ns3:TrackPointExtension>
        </extensions>
      </trkpt>
      <trkpt lat="46.49393803440034389495849609375" lon="8.26645846478641033172607421875">
        <ele>1540.4000244140625</ele>
        <time>2015-09-08T10:20:51.000Z</time>
        <extensions>
          <ns3:TrackPointExtension>
            <ns3:hr>108</ns3:hr>
          </ns3:TrackPointExtension>
        </extensions>
      </trkpt>
      <trkpt lat="46.49393367581069469451904296875" lon="8.26645427383482456207275390625">
        <ele>1541.199951171875</ele>
        <time>2015-09-08T10:21:04.000Z</time>
        <extensions>
          <ns3:TrackPointExtension>
            <ns3:hr>105</ns3:hr>
          </ns3:TrackPointExtension>
        </extensions>
      </trkpt>
      <trkpt lat="46.4939966239035129547119140625" lon="8.26657933183014392852783203125">
        <ele>1541.199951171875</ele>
        <time>2015-09-08T10:21:17.000Z</time>
        <extensions>
          <ns3:TrackPointExtension>
            <ns3:hr>108</ns3:hr>
          </ns3:TrackPointExtension>
        </extensions>
      </trkpt>
      <trkpt lat="46.49400207214057445526123046875" lon="8.26659358106553554534912109375">
        <ele>1541.199951171875</ele>
        <time>2015-09-08T10:21:18.000Z</time>
        <extensions>
          <ns3:TrackPointExtension>
            <ns3:hr>109</ns3:hr>
          </ns3:TrackPointExtension>
        </extensions>
      </trkpt>
      <trkpt lat="46.494021601974964141845703125" lon="8.26662559993565082550048828125">
        <ele>1540</ele>
        <time>2015-09-08T10:21:28.000Z</time>
        <extensions>
          <ns3:TrackPointExtension>
            <ns3:hr>106</ns3:hr>
          </ns3:TrackPointExtension>
        </extensions>
      </trkpt>
      <trkpt lat="46.49402772076427936553955078125" lon="8.26663213782012462615966796875">
        <ele>1540</ele>
        <time>2015-09-08T10:21:31.000Z</time>
        <extensions>
          <ns3:TrackPointExtension>
            <ns3:hr>103</ns3:hr>
          </ns3:TrackPointExtension>
        </extensions>
      </trkpt>
      <trkpt lat="46.494033001363277435302734375" lon="8.26665376313030719757080078125">
        <ele>1539.800048828125</ele>
        <time>2015-09-08T10:21:36.000Z</time>
        <extensions>
          <ns3:TrackPointExtension>
            <ns3:hr>100</ns3:hr>
          </ns3:TrackPointExtension>
        </extensions>
      </trkpt>
      <trkpt lat="46.494043059647083282470703125" lon="8.2666645757853984832763671875">
        <ele>1540</ele>
        <time>2015-09-08T10:21:37.000Z</time>
        <extensions>
          <ns3:TrackPointExtension>
            <ns3:hr>100</ns3:hr>
          </ns3:TrackPointExtension>
        </extensions>
      </trkpt>
      <trkpt lat="46.49406041018664836883544921875" lon="8.266694582998752593994140625">
        <ele>1540</ele>
        <time>2015-09-08T10:21:39.000Z</time>
        <extensions>
          <ns3:TrackPointExtension>
            <ns3:hr>101</ns3:hr>
          </ns3:TrackPointExtension>
        </extensions>
      </trkpt>
      <trkpt lat="46.49425554089248180389404296875" lon="8.2670169509947299957275390625">
        <ele>1539.800048828125</ele>
        <time>2015-09-08T10:21:52.000Z</time>
        <extensions>
          <ns3:TrackPointExtension>
            <ns3:hr>104</ns3:hr>
          </ns3:TrackPointExtension>
        </extensions>
      </trkpt>
      <trkpt lat="46.49436769075691699981689453125" lon="8.26712801121175289154052734375">
        <ele>1540.4000244140625</ele>
        <time>2015-09-08T10:22:00.000Z</time>
        <extensions>
          <ns3:TrackPointExtension>
            <ns3:hr>107</ns3:hr>
          </ns3:TrackPointExtension>
        </extensions>
      </trkpt>
      <trkpt lat="46.49440524168312549591064453125" lon="8.2672573439776897430419921875">
        <ele>1540.800048828125</ele>
        <time>2015-09-08T10:22:10.000Z</time>
        <extensions>
          <ns3:TrackPointExtension>
            <ns3:hr>110</ns3:hr>
          </ns3:TrackPointExtension>
        </extensions>
      </trkpt>
      <trkpt lat="46.49441982619464397430419921875" lon="8.26733605004847049713134765625">
        <ele>1541.800048828125</ele>
        <time>2015-09-08T10:22:22.000Z</time>
        <extensions>
          <ns3:TrackPointExtension>
            <ns3:hr>113</ns3:hr>
          </ns3:TrackPointExtension>
        </extensions>
      </trkpt>
      <trkpt lat="46.494411863386631011962890625" lon="8.2673983275890350341796875">
        <ele>1542</ele>
        <time>2015-09-08T10:22:28.000Z</time>
        <extensions>
          <ns3:TrackPointExtension>
            <ns3:hr>116</ns3:hr>
          </ns3:TrackPointExtension>
        </extensions>
      </trkpt>
      <trkpt lat="46.4943798445165157318115234375" lon="8.26754190959036350250244140625">
        <ele>1542.4000244140625</ele>
        <time>2015-09-08T10:22:34.000Z</time>
        <extensions>
          <ns3:TrackPointExtension>
            <ns3:hr>119</ns3:hr>
          </ns3:TrackPointExtension>
        </extensions>
      </trkpt>
      <trkpt lat="46.49438328109681606292724609375" lon="8.26756152324378490447998046875">
        <ele>1542.4000244140625</ele>
        <time>2015-09-08T10:22:35.000Z</time>
        <extensions>
          <ns3:TrackPointExtension>
            <ns3:hr>119</ns3:hr>
          </ns3:TrackPointExtension>
        </extensions>
      </trkpt>
      <trkpt lat="46.49439551867544651031494140625" lon="8.2676040194928646087646484375">
        <ele>1542.199951171875</ele>
        <time>2015-09-08T10:22:41.000Z</time>
        <extensions>
          <ns3:TrackPointExtension>
            <ns3:hr>122</ns3:hr>
          </ns3:TrackPointExtension>
        </extensions>
      </trkpt>
      <trkpt lat="46.4944217540323734283447265625" lon="8.26772195287048816680908203125">
        <ele>1541.800048828125</ele>
        <time>2015-09-08T10:22:46.000Z</time>
        <extensions>
          <ns3:TrackPointExtension>
            <ns3:hr>123</ns3:hr>
          </ns3:TrackPointExtension>
        </extensions>
      </trkpt>
      <trkpt lat="46.49443189613521099090576171875" lon="8.26771591790020465850830078125">
        <ele>1542</ele>
        <time>2015-09-08T10:22:50.000Z</time>
        <extensions>
          <ns3:TrackPointExtension>
            <ns3:hr>126</ns3:hr>
          </ns3:TrackPointExtension>
        </extensions>
      </trkpt>
      <trkpt lat="46.4944810979068279266357421875" lon="8.267780877649784088134765625">
        <ele>1541.800048828125</ele>
        <time>2015-09-08T10:23:07.000Z</time>
        <extensions>
          <ns3:TrackPointExtension>
            <ns3:hr>126</ns3:hr>
          </ns3:TrackPointExtension>
        </extensions>
      </trkpt>
      <trkpt lat="46.4947878755629062652587890625" lon="8.268347494304180145263671875">
        <ele>1541.5999755859375</ele>
        <time>2015-09-08T10:23:33.000Z</time>
        <extensions>
          <ns3:TrackPointExtension>
            <ns3:hr>129</ns3:hr>
          </ns3:TrackPointExtension>
        </extensions>
      </trkpt>
      <trkpt lat="46.49501762352883815765380859375" lon="8.269080407917499542236328125">
        <ele>1541.199951171875</ele>
        <time>2015-09-08T10:23:48.000Z</time>
        <extensions>
          <ns3:TrackPointExtension>
            <ns3:hr>128</ns3:hr>
          </ns3:TrackPointExtension>
        </extensions>
      </trkpt>
      <trkpt lat="46.4950594492256641387939453125" lon="8.26920353807508945465087890625">
        <ele>1540.5999755859375</ele>
        <time>2015-09-08T10:23:50.000Z</time>
        <extensions>
          <ns3:TrackPointExtension>
            <ns3:hr>127</ns3:hr>
          </ns3:TrackPointExtension>
        </extensions>
      </trkpt>
      <trkpt lat="46.495310403406620025634765625" lon="8.269699327647686004638671875">
        <ele>1538.5999755859375</ele>
        <time>2015-09-08T10:23:57.000Z</time>
        <extensions>
          <ns3:TrackPointExtension>
            <ns3:hr>126</ns3:hr>
          </ns3:TrackPointExtension>
        </extensions>
      </trkpt>
      <trkpt lat="46.4955231361091136932373046875" lon="8.26997014693915843963623046875">
        <ele>1536.800048828125</ele>
        <time>2015-09-08T10:24:08.000Z</time>
        <extensions>
          <ns3:TrackPointExtension>
            <ns3:hr>123</ns3:hr>
          </ns3:TrackPointExtension>
        </extensions>
      </trkpt>
      <trkpt lat="46.495866291224956512451171875" lon="8.2705822773277759552001953125">
        <ele>1541.199951171875</ele>
        <time>2015-09-08T10:24:32.000Z</time>
        <extensions>
          <ns3:TrackPointExtension>
            <ns3:hr>125</ns3:hr>
          </ns3:TrackPointExtension>
        </extensions>
      </trkpt>
      <trkpt lat="46.49597533978521823883056640625" lon="8.27069803141057491302490234375">
        <ele>1543.800048828125</ele>
        <time>2015-09-08T10:24:44.000Z</time>
        <extensions>
          <ns3:TrackPointExtension>
            <ns3:hr>128</ns3:hr>
          </ns3:TrackPointExtension>
        </extensions>
      </trkpt>
      <trkpt lat="46.49602496065199375152587890625" lon="8.27084555290639400482177734375">
        <ele>1544.4000244140625</ele>
        <time>2015-09-08T10:24:51.000Z</time>
        <extensions>
          <ns3:TrackPointExtension>
            <ns3:hr>127</ns3:hr>
          </ns3:TrackPointExtension>
        </extensions>
      </trkpt>
      <trkpt lat="46.4961839653551578521728515625" lon="8.27117831446230411529541015625">
        <ele>1545</ele>
        <time>2015-09-08T10:25:00.000Z</time>
        <extensions>
          <ns3:TrackPointExtension>
            <ns3:hr>124</ns3:hr>
          </ns3:TrackPointExtension>
        </extensions>
      </trkpt>
      <trkpt lat="46.49628840386867523193359375" lon="8.27138752676546573638916015625">
        <ele>1546</ele>
        <time>2015-09-08T10:25:09.000Z</time>
        <extensions>
          <ns3:TrackPointExtension>
            <ns3:hr>121</ns3:hr>
          </ns3:TrackPointExtension>
        </extensions>
      </trkpt>
      <trkpt lat="46.49641002528369426727294921875" lon="8.271667398512363433837890625">
        <ele>1545.5999755859375</ele>
        <time>2015-09-08T10:25:17.000Z</time>
        <extensions>
          <ns3:TrackPointExtension>
            <ns3:hr>118</ns3:hr>
          </ns3:TrackPointExtension>
        </extensions>
      </trkpt>
      <trkpt lat="46.49677379988133907318115234375" lon="8.27224181033670902252197265625">
        <ele>1543.4000244140625</ele>
        <time>2015-09-08T10:25:36.000Z</time>
        <extensions>
          <ns3:TrackPointExtension>
            <ns3:hr>116</ns3:hr>
          </ns3:TrackPointExtension>
        </extensions>
      </trkpt>
      <trkpt lat="46.49686935357749462127685546875" lon="8.27236938290297985076904296875">
        <ele>1543</ele>
        <time>2015-09-08T10:25:41.000Z</time>
        <extensions>
          <ns3:TrackPointExtension>
            <ns3:hr>116</ns3:hr>
          </ns3:TrackPointExtension>
        </extensions>
      </trkpt>
      <trkpt lat="46.497019641101360321044921875" lon="8.27264732681214809417724609375">
        <ele>1542.4000244140625</ele>
        <time>2015-09-08T10:25:49.000Z</time>
        <extensions>
          <ns3:TrackPointExtension>
            <ns3:hr>117</ns3:hr>
          </ns3:TrackPointExtension>
        </extensions>
      </trkpt>
      <trkpt lat="46.49713170714676380157470703125" lon="8.272860981523990631103515625">
        <ele>1542.5999755859375</ele>
        <time>2015-09-08T10:25:56.000Z</time>
        <extensions>
          <ns3:TrackPointExtension>
            <ns3:hr>117</ns3:hr>
          </ns3:TrackPointExtension>
        </extensions>
      </trkpt>
      <trkpt lat="46.4972477965056896209716796875" lon="8.27304060570895671844482421875">
        <ele>1542</ele>
        <time>2015-09-08T10:26:02.000Z</time>
        <extensions>
          <ns3:TrackPointExtension>
            <ns3:hr>117</ns3:hr>
          </ns3:TrackPointExtension>
        </extensions>
      </trkpt>
      <trkpt lat="46.4973721839487552642822265625" lon="8.273184187710285186767578125">
        <ele>1541.4000244140625</ele>
        <time>2015-09-08T10:26:09.000Z</time>
        <extensions>
          <ns3:TrackPointExtension>
            <ns3:hr>118</ns3:hr>
          </ns3:TrackPointExtension>
        </extensions>
      </trkpt>
      <trkpt lat="46.4974952302873134613037109375" lon="8.27338996343314647674560546875">
        <ele>1540.4000244140625</ele>
        <time>2015-09-08T10:26:14.000Z</time>
        <extensions>
          <ns3:TrackPointExtension>
            <ns3:hr>119</ns3:hr>
          </ns3:TrackPointExtension>
        </extensions>
      </trkpt>
      <trkpt lat="46.4976182766258716583251953125" lon="8.2735722698271274566650390625">
        <ele>1540.4000244140625</ele>
        <time>2015-09-08T10:26:21.000Z</time>
        <extensions>
          <ns3:TrackPointExtension>
            <ns3:hr>119</ns3:hr>
          </ns3:TrackPointExtension>
        </extensions>
      </trkpt>
      <trkpt lat="46.497859172523021697998046875" lon="8.2739618606865406036376953125">
        <ele>1538</ele>
        <time>2015-09-08T10:26:31.000Z</time>
        <extensions>
          <ns3:TrackPointExtension>
            <ns3:hr>116</ns3:hr>
          </ns3:TrackPointExtension>
        </extensions>
      </trkpt>
      <trkpt lat="46.49796084500849246978759765625" lon="8.2741452567279338836669921875">
        <ele>1536.800048828125</ele>
        <time>2015-09-08T10:26:34.000Z</time>
        <extensions>
          <ns3:TrackPointExtension>
            <ns3:hr>114</ns3:hr>
          </ns3:TrackPointExtension>
        </extensions>
      </trkpt>
      <trkpt lat="46.49805271066725254058837890625" lon="8.27436410821974277496337890625">
        <ele>1535.800048828125</ele>
        <time>2015-09-08T10:26:38.000Z</time>
        <extensions>
          <ns3:TrackPointExtension>
            <ns3:hr>111</ns3:hr>
          </ns3:TrackPointExtension>
        </extensions>
      </trkpt>
      <trkpt lat="46.49812630377709865570068359375" lon="8.27455018647015094757080078125">
        <ele>1534</ele>
        <time>2015-09-08T10:26:42.000Z</time>
        <extensions>
          <ns3:TrackPointExtension>
            <ns3:hr>108</ns3:hr>
          </ns3:TrackPointExtension>
        </extensions>
      </trkpt>
      <trkpt lat="46.49827701039612293243408203125" lon="8.27482662163674831390380859375">
        <ele>1531.4000244140625</ele>
        <time>2015-09-08T10:26:49.000Z</time>
        <extensions>
          <ns3:TrackPointExtension>
            <ns3:hr>105</ns3:hr>
          </ns3:TrackPointExtension>
        </extensions>
      </trkpt>
      <trkpt lat="46.498450934886932373046875" lon="8.2752201519906520843505859375">
        <ele>1529.199951171875</ele>
        <time>2015-09-08T10:27:03.000Z</time>
        <extensions>
          <ns3:TrackPointExtension>
            <ns3:hr>107</ns3:hr>
          </ns3:TrackPointExtension>
        </extensions>
      </trkpt>
      <trkpt lat="46.498485468327999114990234375" lon="8.2753100059926509857177734375">
        <ele>1528.4000244140625</ele>
        <time>2015-09-08T10:27:07.000Z</time>
        <extensions>
          <ns3:TrackPointExtension>
            <ns3:hr>110</ns3:hr>
          </ns3:TrackPointExtension>
        </extensions>
      </trkpt>
      <trkpt lat="46.4986324869096279144287109375" lon="8.27558417804539203643798828125">
        <ele>1527.4000244140625</ele>
        <time>2015-09-08T10:27:26.000Z</time>
        <extensions>
          <ns3:TrackPointExtension>
            <ns3:hr>109</ns3:hr>
          </ns3:TrackPointExtension>
        </extensions>
      </trkpt>
      <trkpt lat="46.4987461455166339874267578125" lon="8.2758789695799350738525390625">
        <ele>1525.199951171875</ele>
        <time>2015-09-08T10:27:33.000Z</time>
        <extensions>
          <ns3:TrackPointExtension>
            <ns3:hr>106</ns3:hr>
          </ns3:TrackPointExtension>
        </extensions>
      </trkpt>
      <trkpt lat="46.4988921582698822021484375" lon="8.27614040113985538482666015625">
        <ele>1521.5999755859375</ele>
        <time>2015-09-08T10:27:40.000Z</time>
        <extensions>
          <ns3:TrackPointExtension>
            <ns3:hr>103</ns3:hr>
          </ns3:TrackPointExtension>
        </extensions>
      </trkpt>
      <trkpt lat="46.498926691710948944091796875" lon="8.276242911815643310546875">
        <ele>1520.800048828125</ele>
        <time>2015-09-08T10:27:42.000Z</time>
        <extensions>
          <ns3:TrackPointExtension>
            <ns3:hr>102</ns3:hr>
          </ns3:TrackPointExtension>
        </extensions>
      </trkpt>
      <trkpt lat="46.498964242637157440185546875" lon="8.2763667963445186614990234375">
        <ele>1520.199951171875</ele>
        <time>2015-09-08T10:27:44.000Z</time>
        <extensions>
          <ns3:TrackPointExtension>
            <ns3:hr>101</ns3:hr>
          </ns3:TrackPointExtension>
        </extensions>
      </trkpt>
      <trkpt lat="46.49884832091629505157470703125" lon="8.27661800198256969451904296875">
        <ele>1518.4000244140625</ele>
        <time>2015-09-08T10:27:51.000Z</time>
        <extensions>
          <ns3:TrackPointExtension>
            <ns3:hr>100</ns3:hr>
          </ns3:TrackPointExtension>
        </extensions>
      </trkpt>
      <trkpt lat="46.4987836964428424835205078125" lon="8.2766477577388286590576171875">
        <ele>1517.800048828125</ele>
        <time>2015-09-08T10:27:54.000Z</time>
        <extensions>
          <ns3:TrackPointExtension>
            <ns3:hr>103</ns3:hr>
          </ns3:TrackPointExtension>
        </extensions>
      </trkpt>
      <trkpt lat="46.49870985187590122222900390625" lon="8.2766816206276416778564453125">
        <ele>1517.800048828125</ele>
        <time>2015-09-08T10:27:57.000Z</time>
        <extensions>
          <ns3:TrackPointExtension>
            <ns3:hr>106</ns3:hr>
          </ns3:TrackPointExtension>
        </extensions>
      </trkpt>
      <trkpt lat="46.49845437146723270416259765625" lon="8.2768633402884006500244140625">
        <ele>1520</ele>
        <time>2015-09-08T10:28:06.000Z</time>
        <extensions>
          <ns3:TrackPointExtension>
            <ns3:hr>109</ns3:hr>
          </ns3:TrackPointExtension>
        </extensions>
      </trkpt>
      <trkpt lat="46.4982231147587299346923828125" lon="8.27701882459223270416259765625">
        <ele>1522.4000244140625</ele>
        <time>2015-09-08T10:28:15.000Z</time>
        <extensions>
          <ns3:TrackPointExtension>
            <ns3:hr>109</ns3:hr>
          </ns3:TrackPointExtension>
        </extensions>
      </trkpt>
      <trkpt lat="46.49822085164487361907958984375" lon="8.27708118595182895660400390625">
        <ele>1522.199951171875</ele>
        <time>2015-09-08T10:28:19.000Z</time>
        <extensions>
          <ns3:TrackPointExtension>
            <ns3:hr>112</ns3:hr>
          </ns3:TrackPointExtension>
        </extensions>
      </trkpt>
      <trkpt lat="46.4982100389897823333740234375" lon="8.27710180543363094329833984375">
        <ele>1523.199951171875</ele>
        <time>2015-09-08T10:28:23.000Z</time>
        <extensions>
          <ns3:TrackPointExtension>
            <ns3:hr>115</ns3:hr>
          </ns3:TrackPointExtension>
        </extensions>
      </trkpt>
      <trkpt lat="46.49819956161081790924072265625" lon="8.27714840881526470184326171875">
        <ele>1526</ele>
        <time>2015-09-08T10:28:31.000Z</time>
        <extensions>
          <ns3:TrackPointExtension>
            <ns3:hr>118</ns3:hr>
          </ns3:TrackPointExtension>
        </extensions>
      </trkpt>
      <trkpt lat="46.4983002282679080963134765625" lon="8.27729609794914722442626953125">
        <ele>1527.4000244140625</ele>
        <time>2015-09-08T10:28:48.000Z</time>
        <extensions>
          <ns3:TrackPointExtension>
            <ns3:hr>120</ns3:hr>
          </ns3:TrackPointExtension>
        </extensions>
      </trkpt>
      <trkpt lat="46.498360745608806610107421875" lon="8.2773642428219318389892578125">
        <ele>1528</ele>
        <time>2015-09-08T10:28:58.000Z</time>
        <extensions>
          <ns3:TrackPointExtension>
            <ns3:hr>123</ns3:hr>
          </ns3:TrackPointExtension>
        </extensions>
      </trkpt>
      <trkpt lat="46.49845437146723270416259765625" lon="8.2773964293301105499267578125">
        <ele>1528.800048828125</ele>
        <time>2015-09-08T10:29:17.000Z</time>
        <extensions>
          <ns3:TrackPointExtension>
            <ns3:hr>126</ns3:hr>
          </ns3:TrackPointExtension>
        </extensions>
      </trkpt>
      <trkpt lat="46.4985238574445247650146484375" lon="8.27741461805999279022216796875">
        <ele>1531</ele>
        <time>2015-09-08T10:29:29.000Z</time>
        <extensions>
          <ns3:TrackPointExtension>
            <ns3:hr>129</ns3:hr>
          </ns3:TrackPointExtension>
        </extensions>
      </trkpt>
      <trkpt lat="46.4989318884909152984619140625" lon="8.277880735695362091064453125">
        <ele>1540</ele>
        <time>2015-09-08T10:30:43.000Z</time>
        <extensions>
          <ns3:TrackPointExtension>
            <ns3:hr>128</ns3:hr>
          </ns3:TrackPointExtension>
        </extensions>
      </trkpt>
      <trkpt lat="46.4990123547613620758056640625" lon="8.27809271402657032012939453125">
        <ele>1539.4000244140625</ele>
        <time>2015-09-08T10:30:49.000Z</time>
        <extensions>
          <ns3:TrackPointExtension>
            <ns3:hr>125</ns3:hr>
          </ns3:TrackPointExtension>
        </extensions>
      </trkpt>
      <trkpt lat="46.49912576191127300262451171875" lon="8.2782800495624542236328125">
        <ele>1539.4000244140625</ele>
        <time>2015-09-08T10:30:56.000Z</time>
        <extensions>
          <ns3:TrackPointExtension>
            <ns3:hr>122</ns3:hr>
          </ns3:TrackPointExtension>
        </extensions>
      </trkpt>
      <trkpt lat="46.49914654903113842010498046875" lon="8.27829857356846332550048828125">
        <ele>1539.4000244140625</ele>
        <time>2015-09-08T10:30:57.000Z</time>
        <extensions>
          <ns3:TrackPointExtension>
            <ns3:hr>121</ns3:hr>
          </ns3:TrackPointExtension>
        </extensions>
      </trkpt>
      <trkpt lat="46.4992805756628513336181640625" lon="8.27834484167397022247314453125">
        <ele>1540</ele>
        <time>2015-09-08T10:31:04.000Z</time>
        <extensions>
          <ns3:TrackPointExtension>
            <ns3:hr>118</ns3:hr>
          </ns3:TrackPointExtension>
        </extensions>
      </trkpt>
      <trkpt lat="46.49937906302511692047119140625" lon="8.27828206121921539306640625">
        <ele>1540.4000244140625</ele>
        <time>2015-09-08T10:31:11.000Z</time>
        <extensions>
          <ns3:TrackPointExtension>
            <ns3:hr>117</ns3:hr>
          </ns3:TrackPointExtension>
        </extensions>
      </trkpt>
      <trkpt lat="46.4996104873716831207275390625" lon="8.27822950668632984161376953125">
        <ele>1539.199951171875</ele>
        <time>2015-09-08T10:31:23.000Z</time>
        <extensions>
          <ns3:TrackPointExtension>
            <ns3:hr>114</ns3:hr>
          </ns3:TrackPointExtension>
        </extensions>
      </trkpt>
      <trkpt lat="46.49981894530355930328369140625" lon="8.27817049808800220489501953125">
        <ele>1537.5999755859375</ele>
        <time>2015-09-08T10:31:30.000Z</time>
        <extensions>
          <ns3:TrackPointExtension>
            <ns3:hr>114</ns3:hr>
          </ns3:TrackPointExtension>
        </extensions>
      </trkpt>
      <trkpt lat="46.50004928000271320343017578125" lon="8.27815063297748565673828125">
        <ele>1535.4000244140625</ele>
        <time>2015-09-08T10:31:38.000Z</time>
        <extensions>
          <ns3:TrackPointExtension>
            <ns3:hr>113</ns3:hr>
          </ns3:TrackPointExtension>
        </extensions>
      </trkpt>
      <trkpt lat="46.5001662075519561767578125" lon="8.27815390191972255706787109375">
        <ele>1533.800048828125</ele>
        <time>2015-09-08T10:31:42.000Z</time>
        <extensions>
          <ns3:TrackPointExtension>
            <ns3:hr>114</ns3:hr>
          </ns3:TrackPointExtension>
        </extensions>
      </trkpt>
      <trkpt lat="46.5005254559218883514404296875" lon="8.2784850709140300750732421875">
        <ele>1532.800048828125</ele>
        <time>2015-09-08T10:31:58.000Z</time>
        <extensions>
          <ns3:TrackPointExtension>
            <ns3:hr>111</ns3:hr>
          </ns3:TrackPointExtension>
        </extensions>
      </trkpt>
      <trkpt lat="46.5005636774003505706787109375" lon="8.27851382084190845489501953125">
        <ele>1533.4000244140625</ele>
        <time>2015-09-08T10:32:00.000Z</time>
        <extensions>
          <ns3:TrackPointExtension>
            <ns3:hr>111</ns3:hr>
          </ns3:TrackPointExtension>
        </extensions>
      </trkpt>
      <trkpt lat="46.5006468258798122406005859375" lon="8.27850040979683399200439453125">
        <ele>1533</ele>
        <time>2015-09-08T10:32:04.000Z</time>
        <extensions>
          <ns3:TrackPointExtension>
            <ns3:hr>110</ns3:hr>
          </ns3:TrackPointExtension>
        </extensions>
      </trkpt>
      <trkpt lat="46.5006570518016815185546875" lon="8.278493620455265045166015625">
        <ele>1532.800048828125</ele>
        <time>2015-09-08T10:32:05.000Z</time>
        <extensions>
          <ns3:TrackPointExtension>
            <ns3:hr>110</ns3:hr>
          </ns3:TrackPointExtension>
        </extensions>
      </trkpt>
      <trkpt lat="46.50075168348848819732666015625" lon="8.27839865349233150482177734375">
        <ele>1531.800048828125</ele>
        <time>2015-09-08T10:32:11.000Z</time>
        <extensions>
          <ns3:TrackPointExtension>
            <ns3:hr>108</ns3:hr>
          </ns3:TrackPointExtension>
        </extensions>
      </trkpt>
      <trkpt lat="46.500918567180633544921875" lon="8.27845598571002483367919921875">
        <ele>1532.199951171875</ele>
        <time>2015-09-08T10:32:15.000Z</time>
        <extensions>
          <ns3:TrackPointExtension>
            <ns3:hr>105</ns3:hr>
          </ns3:TrackPointExtension>
        </extensions>
      </trkpt>
      <trkpt lat="46.50113926269114017486572265625" lon="8.278489597141742706298828125">
        <ele>1533.199951171875</ele>
        <time>2015-09-08T10:32:22.000Z</time>
        <extensions>
          <ns3:TrackPointExtension>
            <ns3:hr>103</ns3:hr>
          </ns3:TrackPointExtension>
        </extensions>
      </trkpt>
      <trkpt lat="46.50125241838395595550537109375" lon="8.2783238030970096588134765625">
        <ele>1532.800048828125</ele>
        <time>2015-09-08T10:32:30.000Z</time>
        <extensions>
          <ns3:TrackPointExtension>
            <ns3:hr>105</ns3:hr>
          </ns3:TrackPointExtension>
        </extensions>
      </trkpt>
      <trkpt lat="46.50131612084805965423583984375" lon="8.278309889137744903564453125">
        <ele>1532.4000244140625</ele>
        <time>2015-09-08T10:32:35.000Z</time>
        <extensions>
          <ns3:TrackPointExtension>
            <ns3:hr>106</ns3:hr>
          </ns3:TrackPointExtension>
        </extensions>
      </trkpt>
      <trkpt lat="46.5014917217195034027099609375" lon="8.2782839052379131317138671875">
        <ele>1530</ele>
        <time>2015-09-08T10:33:01.000Z</time>
        <extensions>
          <ns3:TrackPointExtension>
            <ns3:hr>105</ns3:hr>
          </ns3:TrackPointExtension>
        </extensions>
      </trkpt>
      <trkpt lat="46.5015353076159954071044921875" lon="8.27827669680118560791015625">
        <ele>1529.800048828125</ele>
        <time>2015-09-08T10:33:03.000Z</time>
        <extensions>
          <ns3:TrackPointExtension>
            <ns3:hr>105</ns3:hr>
          </ns3:TrackPointExtension>
        </extensions>
      </trkpt>
      <trkpt lat="46.50182439945638179779052734375" lon="8.27811886556446552276611328125">
        <ele>1530</ele>
        <time>2015-09-08T10:33:16.000Z</time>
        <extensions>
          <ns3:TrackPointExtension>
            <ns3:hr>108</ns3:hr>
          </ns3:TrackPointExtension>
        </extensions>
      </trkpt>
      <trkpt lat="46.50192867033183574676513671875" lon="8.27807293273508548736572265625">
        <ele>1531.199951171875</ele>
        <time>2015-09-08T10:33:27.000Z</time>
        <extensions>
          <ns3:TrackPointExtension>
            <ns3:hr>111</ns3:hr>
          </ns3:TrackPointExtension>
        </extensions>
      </trkpt>
      <trkpt lat="46.50201760232448577880859375" lon="8.27798827551305294036865234375">
        <ele>1529</ele>
        <time>2015-09-08T10:33:43.000Z</time>
        <extensions>
          <ns3:TrackPointExtension>
            <ns3:hr>114</ns3:hr>
          </ns3:TrackPointExtension>
        </extensions>
      </trkpt>
      <trkpt lat="46.50216110050678253173828125" lon="8.27797804959118366241455078125">
        <ele>1523</ele>
        <time>2015-09-08T10:34:11.000Z</time>
        <extensions>
          <ns3:TrackPointExtension>
            <ns3:hr>111</ns3:hr>
          </ns3:TrackPointExtension>
        </extensions>
      </trkpt>
      <trkpt lat="46.50226059369742870330810546875" lon="8.27788635157048702239990234375">
        <ele>1521.199951171875</ele>
        <time>2015-09-08T10:34:24.000Z</time>
        <extensions>
          <ns3:TrackPointExtension>
            <ns3:hr>110</ns3:hr>
          </ns3:TrackPointExtension>
        </extensions>
      </trkpt>
      <trkpt lat="46.50227601639926433563232421875" lon="8.2778715156018733978271484375">
        <ele>1521.199951171875</ele>
        <time>2015-09-08T10:34:26.000Z</time>
        <extensions>
          <ns3:TrackPointExtension>
            <ns3:hr>109</ns3:hr>
          </ns3:TrackPointExtension>
        </extensions>
      </trkpt>
      <trkpt lat="46.502406857907772064208984375" lon="8.2777575217187404632568359375">
        <ele>1519.800048828125</ele>
        <time>2015-09-08T10:34:41.000Z</time>
        <extensions>
          <ns3:TrackPointExtension>
            <ns3:hr>112</ns3:hr>
          </ns3:TrackPointExtension>
        </extensions>
      </trkpt>
      <trkpt lat="46.50248103775084018707275390625" lon="8.27770614065229892730712890625">
        <ele>1519.199951171875</ele>
        <time>2015-09-08T10:34:50.000Z</time>
        <extensions>
          <ns3:TrackPointExtension>
            <ns3:hr>115</ns3:hr>
          </ns3:TrackPointExtension>
        </extensions>
      </trkpt>
      <trkpt lat="46.50256074965000152587890625" lon="8.27758929692208766937255859375">
        <ele>1518.800048828125</ele>
        <time>2015-09-08T10:35:02.000Z</time>
        <extensions>
          <ns3:TrackPointExtension>
            <ns3:hr>118</ns3:hr>
          </ns3:TrackPointExtension>
        </extensions>
      </trkpt>
      <trkpt lat="46.5025719814002513885498046875" lon="8.2775853574275970458984375">
        <ele>1518.800048828125</ele>
        <time>2015-09-08T10:35:03.000Z</time>
        <extensions>
          <ns3:TrackPointExtension>
            <ns3:hr>118</ns3:hr>
          </ns3:TrackPointExtension>
        </extensions>
      </trkpt>
      <trkpt lat="46.50263258256018161773681640625" lon="8.2775479741394519805908203125">
        <ele>1518</ele>
        <time>2015-09-08T10:35:11.000Z</time>
        <extensions>
          <ns3:TrackPointExtension>
            <ns3:hr>121</ns3:hr>
          </ns3:TrackPointExtension>
        </extensions>
      </trkpt>
      <trkpt lat="46.50284246541559696197509765625" lon="8.27742350287735462188720703125">
        <ele>1516.199951171875</ele>
        <time>2015-09-08T10:35:30.000Z</time>
        <extensions>
          <ns3:TrackPointExtension>
            <ns3:hr>119</ns3:hr>
          </ns3:TrackPointExtension>
        </extensions>
      </trkpt>
      <trkpt lat="46.5028998814523220062255859375" lon="8.2774430327117443084716796875">
        <ele>1515</ele>
        <time>2015-09-08T10:35:36.000Z</time>
        <extensions>
          <ns3:TrackPointExtension>
            <ns3:hr>118</ns3:hr>
          </ns3:TrackPointExtension>
        </extensions>
      </trkpt>
      <trkpt lat="46.50293282233178615570068359375" lon="8.27749374322593212127685546875">
        <ele>1514.4000244140625</ele>
        <time>2015-09-08T10:35:41.000Z</time>
        <extensions>
          <ns3:TrackPointExtension>
            <ns3:hr>117</ns3:hr>
          </ns3:TrackPointExtension>
        </extensions>
      </trkpt>
      <trkpt lat="46.5029126219451427459716796875" lon="8.27753774821758270263671875">
        <ele>1514</ele>
        <time>2015-09-08T10:35:46.000Z</time>
        <extensions>
          <ns3:TrackPointExtension>
            <ns3:hr>116</ns3:hr>
          </ns3:TrackPointExtension>
        </extensions>
      </trkpt>
      <trkpt lat="46.50289158336818218231201171875" lon="8.2776106707751750946044921875">
        <ele>1512.800048828125</ele>
        <time>2015-09-08T10:35:51.000Z</time>
        <extensions>
          <ns3:TrackPointExtension>
            <ns3:hr>116</ns3:hr>
          </ns3:TrackPointExtension>
        </extensions>
      </trkpt>
      <trkpt lat="46.50277507491409778594970703125" lon="8.27756230719387531280517578125">
        <ele>1513</ele>
        <time>2015-09-08T10:36:03.000Z</time>
        <extensions>
          <ns3:TrackPointExtension>
            <ns3:hr>113</ns3:hr>
          </ns3:TrackPointExtension>
        </extensions>
      </trkpt>
      <trkpt lat="46.50266644544899463653564453125" lon="8.27744663693010807037353515625">
        <ele>1513.5999755859375</ele>
        <time>2015-09-08T10:36:09.000Z</time>
        <extensions>
          <ns3:TrackPointExtension>
            <ns3:hr>111</ns3:hr>
          </ns3:TrackPointExtension>
        </extensions>
      </trkpt>
      <trkpt lat="46.502245925366878509521484375" lon="8.27712242491543292999267578125">
        <ele>1517.5999755859375</ele>
        <time>2015-09-08T10:36:18.000Z</time>
        <extensions>
          <ns3:TrackPointExtension>
            <ns3:hr>113</ns3:hr>
          </ns3:TrackPointExtension>
        </extensions>
      </trkpt>
      <trkpt lat="46.5021797083318233489990234375" lon="8.27715612016618251800537109375">
        <ele>1519.199951171875</ele>
        <time>2015-09-08T10:36:33.000Z</time>
        <extensions>
          <ns3:TrackPointExtension>
            <ns3:hr>116</ns3:hr>
          </ns3:TrackPointExtension>
        </extensions>
      </trkpt>
      <trkpt lat="46.50205389596521854400634765625" lon="8.2770470716059207916259765625">
        <ele>1521.199951171875</ele>
        <time>2015-09-08T10:36:40.000Z</time>
        <extensions>
          <ns3:TrackPointExtension>
            <ns3:hr>119</ns3:hr>
          </ns3:TrackPointExtension>
        </extensions>
      </trkpt>
      <trkpt lat="46.502040065824985504150390625" lon="8.2770789228379726409912109375">
        <ele>1525.199951171875</ele>
        <time>2015-09-08T10:36:45.000Z</time>
        <extensions>
          <ns3:TrackPointExtension>
            <ns3:hr>122</ns3:hr>
          </ns3:TrackPointExtension>
        </extensions>
      </trkpt>
      <trkpt lat="46.502036042511463165283203125" lon="8.2771372608840465545654296875">
        <ele>1527.5999755859375</ele>
        <time>2015-09-08T10:36:50.000Z</time>
        <extensions>
          <ns3:TrackPointExtension>
            <ns3:hr>125</ns3:hr>
          </ns3:TrackPointExtension>
        </extensions>
      </trkpt>
      <trkpt lat="46.50200461037456989288330078125" lon="8.27719601802527904510498046875">
        <ele>1525.199951171875</ele>
        <time>2015-09-08T10:36:58.000Z</time>
        <extensions>
          <ns3:TrackPointExtension>
            <ns3:hr>128</ns3:hr>
          </ns3:TrackPointExtension>
        </extensions>
      </trkpt>
      <trkpt lat="46.50191592983901500701904296875" lon="8.27749944292008876800537109375">
        <ele>1538.5999755859375</ele>
        <time>2015-09-08T10:37:23.000Z</time>
        <extensions>
          <ns3:TrackPointExtension>
            <ns3:hr>130</ns3:hr>
          </ns3:TrackPointExtension>
        </extensions>
      </trkpt>
      <trkpt lat="46.5021559037268161773681640625" lon="8.27825582586228847503662109375">
        <ele>1542</ele>
        <time>2015-09-08T10:37:54.000Z</time>
        <extensions>
          <ns3:TrackPointExtension>
            <ns3:hr>128</ns3:hr>
          </ns3:TrackPointExtension>
        </extensions>
      </trkpt>
      <trkpt lat="46.502163112163543701171875" lon="8.27828533016145229339599609375">
        <ele>1542</ele>
        <time>2015-09-08T10:37:55.000Z</time>
        <extensions>
          <ns3:TrackPointExtension>
            <ns3:hr>128</ns3:hr>
          </ns3:TrackPointExtension>
        </extensions>
      </trkpt>
      <trkpt lat="46.5020893514156341552734375" lon="8.2786798663437366485595703125">
        <ele>1544</ele>
        <time>2015-09-08T10:38:05.000Z</time>
        <extensions>
          <ns3:TrackPointExtension>
            <ns3:hr>125</ns3:hr>
          </ns3:TrackPointExtension>
        </extensions>
      </trkpt>
      <trkpt lat="46.50207954458892345428466796875" lon="8.27883233316242694854736328125">
        <ele>1543.199951171875</ele>
        <time>2015-09-08T10:38:08.000Z</time>
        <extensions>
          <ns3:TrackPointExtension>
            <ns3:hr>123</ns3:hr>
          </ns3:TrackPointExtension>
        </extensions>
      </trkpt>
      <trkpt lat="46.50218029506504535675048828125" lon="8.27913290821015834808349609375">
        <ele>1541.5999755859375</ele>
        <time>2015-09-08T10:38:12.000Z</time>
        <extensions>
          <ns3:TrackPointExtension>
            <ns3:hr>120</ns3:hr>
          </ns3:TrackPointExtension>
        </extensions>
      </trkpt>
      <trkpt lat="46.5022346936166286468505859375" lon="8.2795690186321735382080078125">
        <ele>1537</ele>
        <time>2015-09-08T10:38:52.000Z</time>
        <extensions>
          <ns3:TrackPointExtension>
            <ns3:hr>123</ns3:hr>
          </ns3:TrackPointExtension>
        </extensions>
      </trkpt>
      <trkpt lat="46.502196304500102996826171875" lon="8.2796541787683963775634765625">
        <ele>1537.4000244140625</ele>
        <time>2015-09-08T10:39:03.000Z</time>
        <extensions>
          <ns3:TrackPointExtension>
            <ns3:hr>126</ns3:hr>
          </ns3:TrackPointExtension>
        </extensions>
      </trkpt>
      <trkpt lat="46.5020797960460186004638671875" lon="8.28004427254199981689453125">
        <ele>1536.199951171875</ele>
        <time>2015-09-08T10:39:22.000Z</time>
        <extensions>
          <ns3:TrackPointExtension>
            <ns3:hr>129</ns3:hr>
          </ns3:TrackPointExtension>
        </extensions>
      </trkpt>
      <trkpt lat="46.50203897617757320404052734375" lon="8.2803954742848873138427734375">
        <ele>1535.800048828125</ele>
        <time>2015-09-08T10:40:01.000Z</time>
        <extensions>
          <ns3:TrackPointExtension>
            <ns3:hr>132</ns3:hr>
          </ns3:TrackPointExtension>
        </extensions>
      </trkpt>
      <trkpt lat="46.50202875025570392608642578125" lon="8.2807113043963909149169921875">
        <ele>1537.800048828125</ele>
        <time>2015-09-08T10:40:13.000Z</time>
        <extensions>
          <ns3:TrackPointExtension>
            <ns3:hr>132</ns3:hr>
          </ns3:TrackPointExtension>
        </extensions>
      </trkpt>
      <trkpt lat="46.5020006708800792694091796875" lon="8.28079051338136196136474609375">
        <ele>1538.5999755859375</ele>
        <time>2015-09-08T10:40:16.000Z</time>
        <extensions>
          <ns3:TrackPointExtension>
            <ns3:hr>131</ns3:hr>
          </ns3:TrackPointExtension>
        </extensions>
      </trkpt>
      <trkpt lat="46.5020067058503627777099609375" lon="8.28115068376064300537109375">
        <ele>1541.4000244140625</ele>
        <time>2015-09-08T10:40:32.000Z</time>
        <extensions>
          <ns3:TrackPointExtension>
            <ns3:hr>130</ns3:hr>
          </ns3:TrackPointExtension>
        </extensions>
      </trkpt>
      <trkpt lat="46.5020673908293247222900390625" lon="8.2812081836163997650146484375">
        <ele>1541.800048828125</ele>
        <time>2015-09-08T10:40:36.000Z</time>
        <extensions>
          <ns3:TrackPointExtension>
            <ns3:hr>129</ns3:hr>
          </ns3:TrackPointExtension>
        </extensions>
      </trkpt>
      <trkpt lat="46.50221516378223896026611328125" lon="8.2813563756644725799560546875">
        <ele>1541.4000244140625</ele>
        <time>2015-09-08T10:40:43.000Z</time>
        <extensions>
          <ns3:TrackPointExtension>
            <ns3:hr>126</ns3:hr>
          </ns3:TrackPointExtension>
        </extensions>
      </trkpt>
      <trkpt lat="46.50243594311177730560302734375" lon="8.2814502529799938201904296875">
        <ele>1539.199951171875</ele>
        <time>2015-09-08T10:40:49.000Z</time>
        <extensions>
          <ns3:TrackPointExtension>
            <ns3:hr>123</ns3:hr>
          </ns3:TrackPointExtension>
        </extensions>
      </trkpt>
      <trkpt lat="46.5025238692760467529296875" lon="8.28148419968783855438232421875">
        <ele>1537.4000244140625</ele>
        <time>2015-09-08T10:40:53.000Z</time>
        <extensions>
          <ns3:TrackPointExtension>
            <ns3:hr>119</ns3:hr>
          </ns3:TrackPointExtension>
        </extensions>
      </trkpt>
      <trkpt lat="46.502597630023956298828125" lon="8.28151278197765350341796875">
        <ele>1536.199951171875</ele>
        <time>2015-09-08T10:40:56.000Z</time>
        <extensions>
          <ns3:TrackPointExtension>
            <ns3:hr>115</ns3:hr>
          </ns3:TrackPointExtension>
        </extensions>
      </trkpt>
      <trkpt lat="46.502663008868694305419921875" lon="8.2815528474748134613037109375">
        <ele>1536</ele>
        <time>2015-09-08T10:40:59.000Z</time>
        <extensions>
          <ns3:TrackPointExtension>
            <ns3:hr>113</ns3:hr>
          </ns3:TrackPointExtension>
        </extensions>
      </trkpt>
      <trkpt lat="46.5026651881635189056396484375" lon="8.2816728763282299041748046875">
        <ele>1535.5999755859375</ele>
        <time>2015-09-08T10:41:04.000Z</time>
        <extensions>
          <ns3:TrackPointExtension>
            <ns3:hr>112</ns3:hr>
          </ns3:TrackPointExtension>
        </extensions>
      </trkpt>
      <trkpt lat="46.502669043838977813720703125" lon="8.281694836914539337158203125">
        <ele>1535.5999755859375</ele>
        <time>2015-09-08T10:41:05.000Z</time>
        <extensions>
          <ns3:TrackPointExtension>
            <ns3:hr>113</ns3:hr>
          </ns3:TrackPointExtension>
        </extensions>
      </trkpt>
      <trkpt lat="46.50271229445934295654296875" lon="8.2817722856998443603515625">
        <ele>1534.5999755859375</ele>
        <time>2015-09-08T10:41:09.000Z</time>
        <extensions>
          <ns3:TrackPointExtension>
            <ns3:hr>115</ns3:hr>
          </ns3:TrackPointExtension>
        </extensions>
      </trkpt>
      <trkpt lat="46.50284967385232448577880859375" lon="8.28187697567045688629150390625">
        <ele>1533.4000244140625</ele>
        <time>2015-09-08T10:41:18.000Z</time>
        <extensions>
          <ns3:TrackPointExtension>
            <ns3:hr>118</ns3:hr>
          </ns3:TrackPointExtension>
        </extensions>
      </trkpt>
      <trkpt lat="46.5029919147491455078125" lon="8.2819360680878162384033203125">
        <ele>1532.800048828125</ele>
        <time>2015-09-08T10:41:26.000Z</time>
        <extensions>
          <ns3:TrackPointExtension>
            <ns3:hr>121</ns3:hr>
          </ns3:TrackPointExtension>
        </extensions>
      </trkpt>
      <trkpt lat="46.5031327307224273681640625" lon="8.28196129761636257171630859375">
        <ele>1534</ele>
        <time>2015-09-08T10:41:35.000Z</time>
        <extensions>
          <ns3:TrackPointExtension>
            <ns3:hr>124</ns3:hr>
          </ns3:TrackPointExtension>
        </extensions>
      </trkpt>
      <trkpt lat="46.50316986255347728729248046875" lon="8.28198074363172054290771484375">
        <ele>1534.199951171875</ele>
        <time>2015-09-08T10:41:38.000Z</time>
        <extensions>
          <ns3:TrackPointExtension>
            <ns3:hr>125</ns3:hr>
          </ns3:TrackPointExtension>
        </extensions>
      </trkpt>
      <trkpt lat="46.50317899882793426513671875" lon="8.28232239000499248504638671875">
        <ele>1539.4000244140625</ele>
        <time>2015-09-08T10:41:58.000Z</time>
        <extensions>
          <ns3:TrackPointExtension>
            <ns3:hr>128</ns3:hr>
          </ns3:TrackPointExtension>
        </extensions>
      </trkpt>
      <trkpt lat="46.503588370978832244873046875" lon="8.282733857631683349609375">
        <ele>1542</ele>
        <time>2015-09-08T10:42:48.000Z</time>
        <extensions>
          <ns3:TrackPointExtension>
            <ns3:hr>130</ns3:hr>
          </ns3:TrackPointExtension>
        </extensions>
      </trkpt>
      <trkpt lat="46.5036207251250743865966796875" lon="8.2828047685325145721435546875">
        <ele>1543</ele>
        <time>2015-09-08T10:42:52.000Z</time>
        <extensions>
          <ns3:TrackPointExtension>
            <ns3:hr>130</ns3:hr>
          </ns3:TrackPointExtension>
        </extensions>
      </trkpt>
      <trkpt lat="46.50363522581756114959716796875" lon="8.28286386094987392425537109375">
        <ele>1543.800048828125</ele>
        <time>2015-09-08T10:42:55.000Z</time>
        <extensions>
          <ns3:TrackPointExtension>
            <ns3:hr>129</ns3:hr>
          </ns3:TrackPointExtension>
        </extensions>
      </trkpt>
      <trkpt lat="46.5036361478269100189208984375" lon="8.28294583596289157867431640625">
        <ele>1545</ele>
        <time>2015-09-08T10:42:59.000Z</time>
        <extensions>
          <ns3:TrackPointExtension>
            <ns3:hr>130</ns3:hr>
          </ns3:TrackPointExtension>
        </extensions>
      </trkpt>
      <trkpt lat="46.50363765656948089599609375" lon="8.28297131694853305816650390625">
        <ele>1545.199951171875</ele>
        <time>2015-09-08T10:43:00.000Z</time>
        <extensions>
          <ns3:TrackPointExtension>
            <ns3:hr>129</ns3:hr>
          </ns3:TrackPointExtension>
        </extensions>
      </trkpt>
      <trkpt lat="46.5037551708519458770751953125" lon="8.28311582095921039581298828125">
        <ele>1545.199951171875</ele>
        <time>2015-09-08T10:43:07.000Z</time>
        <extensions>
          <ns3:TrackPointExtension>
            <ns3:hr>130</ns3:hr>
          </ns3:TrackPointExtension>
        </extensions>
      </trkpt>
      <trkpt lat="46.50388316251337528228759765625" lon="8.283296786248683929443359375">
        <ele>1545.199951171875</ele>
        <time>2015-09-08T10:43:16.000Z</time>
        <extensions>
          <ns3:TrackPointExtension>
            <ns3:hr>130</ns3:hr>
          </ns3:TrackPointExtension>
        </extensions>
      </trkpt>
      <trkpt lat="46.5039667300879955291748046875" lon="8.28361270017921924591064453125">
        <ele>1548.199951171875</ele>
        <time>2015-09-08T10:43:26.000Z</time>
        <extensions>
          <ns3:TrackPointExtension>
            <ns3:hr>128</ns3:hr>
          </ns3:TrackPointExtension>
        </extensions>
      </trkpt>
      <trkpt lat="46.50405599735677242279052734375" lon="8.2838038913905620574951171875">
        <ele>1548.5999755859375</ele>
        <time>2015-09-08T10:43:31.000Z</time>
        <extensions>
          <ns3:TrackPointExtension>
            <ns3:hr>125</ns3:hr>
          </ns3:TrackPointExtension>
        </extensions>
      </trkpt>
      <trkpt lat="46.50413294322788715362548828125" lon="8.2840315438807010650634765625">
        <ele>1548.800048828125</ele>
        <time>2015-09-08T10:43:35.000Z</time>
        <extensions>
          <ns3:TrackPointExtension>
            <ns3:hr>122</ns3:hr>
          </ns3:TrackPointExtension>
        </extensions>
      </trkpt>
      <trkpt lat="46.5041642077267169952392578125" lon="8.284167163074016571044921875">
        <ele>1549.4000244140625</ele>
        <time>2015-09-08T10:43:37.000Z</time>
        <extensions>
          <ns3:TrackPointExtension>
            <ns3:hr>121</ns3:hr>
          </ns3:TrackPointExtension>
        </extensions>
      </trkpt>
      <trkpt lat="46.50421977974474430084228515625" lon="8.2843859307467937469482421875">
        <ele>1549.4000244140625</ele>
        <time>2015-09-08T10:43:41.000Z</time>
        <extensions>
          <ns3:TrackPointExtension>
            <ns3:hr>118</ns3:hr>
          </ns3:TrackPointExtension>
        </extensions>
      </trkpt>
      <trkpt lat="46.504260599613189697265625" lon="8.28458391129970550537109375">
        <ele>1549.800048828125</ele>
        <time>2015-09-08T10:43:45.000Z</time>
        <extensions>
          <ns3:TrackPointExtension>
            <ns3:hr>115</ns3:hr>
          </ns3:TrackPointExtension>
        </extensions>
      </trkpt>
      <trkpt lat="46.50436009280383586883544921875" lon="8.2851409725844860076904296875">
        <ele>1550.199951171875</ele>
        <time>2015-09-08T10:43:58.000Z</time>
        <extensions>
          <ns3:TrackPointExtension>
            <ns3:hr>113</ns3:hr>
          </ns3:TrackPointExtension>
        </extensions>
      </trkpt>
      <trkpt lat="46.504572741687297821044921875" lon="8.28539871610701084136962890625">
        <ele>1547</ele>
        <time>2015-09-08T10:44:05.000Z</time>
        <extensions>
          <ns3:TrackPointExtension>
            <ns3:hr>110</ns3:hr>
          </ns3:TrackPointExtension>
        </extensions>
      </trkpt>
      <trkpt lat="46.50459025986492633819580078125" lon="8.28544934280216693878173828125">
        <ele>1546.800048828125</ele>
        <time>2015-09-08T10:44:06.000Z</time>
        <extensions>
          <ns3:TrackPointExtension>
            <ns3:hr>110</ns3:hr>
          </ns3:TrackPointExtension>
        </extensions>
      </trkpt>
      <trkpt lat="46.504739038646221160888671875" lon="8.28618250787258148193359375">
        <ele>1546.4000244140625</ele>
        <time>2015-09-08T10:44:23.000Z</time>
        <extensions>
          <ns3:TrackPointExtension>
            <ns3:hr>110</ns3:hr>
          </ns3:TrackPointExtension>
        </extensions>
      </trkpt>
      <trkpt lat="46.504916064441204071044921875" lon="8.286370933055877685546875">
        <ele>1544.5999755859375</ele>
        <time>2015-09-08T10:44:30.000Z</time>
        <extensions>
          <ns3:TrackPointExtension>
            <ns3:hr>107</ns3:hr>
          </ns3:TrackPointExtension>
        </extensions>
      </trkpt>
      <trkpt lat="46.5049698762595653533935546875" lon="8.286666981875896453857421875">
        <ele>1542</ele>
        <time>2015-09-08T10:44:40.000Z</time>
        <extensions>
          <ns3:TrackPointExtension>
            <ns3:hr>110</ns3:hr>
          </ns3:TrackPointExtension>
        </extensions>
      </trkpt>
      <trkpt lat="46.50494950823485851287841796875" lon="8.28675893135368824005126953125">
        <ele>1542</ele>
        <time>2015-09-08T10:44:46.000Z</time>
        <extensions>
          <ns3:TrackPointExtension>
            <ns3:hr>111</ns3:hr>
          </ns3:TrackPointExtension>
        </extensions>
      </trkpt>
      <trkpt lat="46.50494967587292194366455078125" lon="8.28681123442947864532470703125">
        <ele>1543.5999755859375</ele>
        <time>2015-09-08T10:46:01.000Z</time>
        <extensions>
          <ns3:TrackPointExtension>
            <ns3:hr>99</ns3:hr>
          </ns3:TrackPointExtension>
        </extensions>
      </trkpt>
      <trkpt lat="46.50500499643385410308837890625" lon="8.2867415808141231536865234375">
        <ele>1542.800048828125</ele>
        <time>2015-09-08T10:46:09.000Z</time>
        <extensions>
          <ns3:TrackPointExtension>
            <ns3:hr>102</ns3:hr>
          </ns3:TrackPointExtension>
        </extensions>
      </trkpt>
      <trkpt lat="46.50504522956907749176025390625" lon="8.28668651171028614044189453125">
        <ele>1542.800048828125</ele>
        <time>2015-09-08T10:46:13.000Z</time>
        <extensions>
          <ns3:TrackPointExtension>
            <ns3:hr>105</ns3:hr>
          </ns3:TrackPointExtension>
        </extensions>
      </trkpt>
      <trkpt lat="46.50510205887258052825927734375" lon="8.2865332067012786865234375">
        <ele>1543.199951171875</ele>
        <time>2015-09-08T10:46:21.000Z</time>
        <extensions>
          <ns3:TrackPointExtension>
            <ns3:hr>108</ns3:hr>
          </ns3:TrackPointExtension>
        </extensions>
      </trkpt>
      <trkpt lat="46.50510155595839023590087890625" lon="8.28651501797139644622802734375">
        <ele>1543.199951171875</ele>
        <time>2015-09-08T10:46:22.000Z</time>
        <extensions>
          <ns3:TrackPointExtension>
            <ns3:hr>108</ns3:hr>
          </ns3:TrackPointExtension>
        </extensions>
      </trkpt>
      <trkpt lat="46.50508713908493518829345703125" lon="8.28638593666255474090576171875">
        <ele>1543.199951171875</ele>
        <time>2015-09-08T10:46:27.000Z</time>
        <extensions>
          <ns3:TrackPointExtension>
            <ns3:hr>111</ns3:hr>
          </ns3:TrackPointExtension>
        </extensions>
      </trkpt>
      <trkpt lat="46.5050674416124820709228515625" lon="8.28635257668793201446533203125">
        <ele>1543.199951171875</ele>
        <time>2015-09-08T10:46:29.000Z</time>
        <extensions>
          <ns3:TrackPointExtension>
            <ns3:hr>113</ns3:hr>
          </ns3:TrackPointExtension>
        </extensions>
      </trkpt>
      <trkpt lat="46.50501220487058162689208984375" lon="8.28629440627992153167724609375">
        <ele>1543.5999755859375</ele>
        <time>2015-09-08T10:46:33.000Z</time>
        <extensions>
          <ns3:TrackPointExtension>
            <ns3:hr>116</ns3:hr>
          </ns3:TrackPointExtension>
        </extensions>
      </trkpt>
      <trkpt lat="46.50495990179479122161865234375" lon="8.28621746040880680084228515625">
        <ele>1544.199951171875</ele>
        <time>2015-09-08T10:46:37.000Z</time>
        <extensions>
          <ns3:TrackPointExtension>
            <ns3:hr>119</ns3:hr>
          </ns3:TrackPointExtension>
        </extensions>
      </trkpt>
      <trkpt lat="46.50491480715572834014892578125" lon="8.2860911451280117034912109375">
        <ele>1545</ele>
        <time>2015-09-08T10:46:43.000Z</time>
        <extensions>
          <ns3:TrackPointExtension>
            <ns3:hr>122</ns3:hr>
          </ns3:TrackPointExtension>
        </extensions>
      </trkpt>
      <trkpt lat="46.5048790164291858673095703125" lon="8.28597958199679851531982421875">
        <ele>1545.5999755859375</ele>
        <time>2015-09-08T10:46:49.000Z</time>
        <extensions>
          <ns3:TrackPointExtension>
            <ns3:hr>125</ns3:hr>
          </ns3:TrackPointExtension>
        </extensions>
      </trkpt>
      <trkpt lat="46.50485537946224212646484375" lon="8.28576718457043170928955078125">
        <ele>1547.199951171875</ele>
        <time>2015-09-08T10:47:00.000Z</time>
        <extensions>
          <ns3:TrackPointExtension>
            <ns3:hr>127</ns3:hr>
          </ns3:TrackPointExtension>
        </extensions>
      </trkpt>
      <trkpt lat="46.50490458123385906219482421875" lon="8.2855396158993244171142578125">
        <ele>1548.800048828125</ele>
        <time>2015-09-08T10:47:11.000Z</time>
        <extensions>
          <ns3:TrackPointExtension>
            <ns3:hr>129</ns3:hr>
          </ns3:TrackPointExtension>
        </extensions>
      </trkpt>
      <trkpt lat="46.50479502975940704345703125" lon="8.2850829698145389556884765625">
        <ele>1554.4000244140625</ele>
        <time>2015-09-08T10:47:34.000Z</time>
        <extensions>
          <ns3:TrackPointExtension>
            <ns3:hr>130</ns3:hr>
          </ns3:TrackPointExtension>
        </extensions>
      </trkpt>
      <trkpt lat="46.5046895854175090789794921875" lon="8.28487493097782135009765625">
        <ele>1557.800048828125</ele>
        <time>2015-09-08T10:47:47.000Z</time>
        <extensions>
          <ns3:TrackPointExtension>
            <ns3:hr>130</ns3:hr>
          </ns3:TrackPointExtension>
        </extensions>
      </trkpt>
      <trkpt lat="46.50468598119914531707763671875" lon="8.28485456295311450958251953125">
        <ele>1558</ele>
        <time>2015-09-08T10:47:48.000Z</time>
        <extensions>
          <ns3:TrackPointExtension>
            <ns3:hr>130</ns3:hr>
          </ns3:TrackPointExtension>
        </extensions>
      </trkpt>
      <trkpt lat="46.50467826984822750091552734375" lon="8.28480678610503673553466796875">
        <ele>1558.5999755859375</ele>
        <time>2015-09-08T10:47:51.000Z</time>
        <extensions>
          <ns3:TrackPointExtension>
            <ns3:hr>130</ns3:hr>
          </ns3:TrackPointExtension>
        </extensions>
      </trkpt>
      <trkpt lat="46.504667960107326507568359375" lon="8.284322731196880340576171875">
        <ele>1561.5999755859375</ele>
        <time>2015-09-08T10:48:15.000Z</time>
        <extensions>
          <ns3:TrackPointExtension>
            <ns3:hr>130</ns3:hr>
          </ns3:TrackPointExtension>
        </extensions>
      </trkpt>
      <trkpt lat="46.50465882383286952972412109375" lon="8.28411008231341838836669921875">
        <ele>1563.4000244140625</ele>
        <time>2015-09-08T10:48:23.000Z</time>
        <extensions>
          <ns3:TrackPointExtension>
            <ns3:hr>130</ns3:hr>
          </ns3:TrackPointExtension>
        </extensions>
      </trkpt>
      <trkpt lat="46.504596211016178131103515625" lon="8.28399810008704662322998046875">
        <ele>1565.199951171875</ele>
        <time>2015-09-08T10:48:29.000Z</time>
        <extensions>
          <ns3:TrackPointExtension>
            <ns3:hr>131</ns3:hr>
          </ns3:TrackPointExtension>
        </extensions>
      </trkpt>
      <trkpt lat="46.50442681275308132171630859375" lon="8.28344170935451984405517578125">
        <ele>1573</ele>
        <time>2015-09-08T10:48:58.000Z</time>
        <extensions>
          <ns3:TrackPointExtension>
            <ns3:hr>130</ns3:hr>
          </ns3:TrackPointExtension>
        </extensions>
      </trkpt>
      <trkpt lat="46.504395045340061187744140625" lon="8.2833415456116199493408203125">
        <ele>1574.5999755859375</ele>
        <time>2015-09-08T10:49:03.000Z</time>
        <extensions>
          <ns3:TrackPointExtension>
            <ns3:hr>130</ns3:hr>
          </ns3:TrackPointExtension>
        </extensions>
      </trkpt>
      <trkpt lat="46.5043435804545879364013671875" lon="8.283164687454700469970703125">
        <ele>1577.800048828125</ele>
        <time>2015-09-08T10:49:12.000Z</time>
        <extensions>
          <ns3:TrackPointExtension>
            <ns3:hr>130</ns3:hr>
          </ns3:TrackPointExtension>
        </extensions>
      </trkpt>
      <trkpt lat="46.504292450845241546630859375" lon="8.28289101831614971160888671875">
        <ele>1580.4000244140625</ele>
        <time>2015-09-08T10:49:26.000Z</time>
        <extensions>
          <ns3:TrackPointExtension>
            <ns3:hr>129</ns3:hr>
          </ns3:TrackPointExtension>
        </extensions>
      </trkpt>
      <trkpt lat="46.50428197346627712249755859375" lon="8.28281524591147899627685546875">
        <ele>1580.5999755859375</ele>
        <time>2015-09-08T10:49:30.000Z</time>
        <extensions>
          <ns3:TrackPointExtension>
            <ns3:hr>129</ns3:hr>
          </ns3:TrackPointExtension>
        </extensions>
      </trkpt>
      <trkpt lat="46.50426554493606090545654296875" lon="8.28277702443301677703857421875">
        <ele>1581.199951171875</ele>
        <time>2015-09-08T10:49:32.000Z</time>
        <extensions>
          <ns3:TrackPointExtension>
            <ns3:hr>128</ns3:hr>
          </ns3:TrackPointExtension>
        </extensions>
      </trkpt>
      <trkpt lat="46.5042406506836414337158203125" lon="8.2827243022620677947998046875">
        <ele>1581.5999755859375</ele>
        <time>2015-09-08T10:49:35.000Z</time>
        <extensions>
          <ns3:TrackPointExtension>
            <ns3:hr>128</ns3:hr>
          </ns3:TrackPointExtension>
        </extensions>
      </trkpt>
      <trkpt lat="46.50420586578547954559326171875" lon="8.28254652209579944610595703125">
        <ele>1583.199951171875</ele>
        <time>2015-09-08T10:49:44.000Z</time>
        <extensions>
          <ns3:TrackPointExtension>
            <ns3:hr>128</ns3:hr>
          </ns3:TrackPointExtension>
        </extensions>
      </trkpt>
      <trkpt lat="46.50414618663489818572998046875" lon="8.282449878752231597900390625">
        <ele>1584.199951171875</ele>
        <time>2015-09-08T10:49:50.000Z</time>
        <extensions>
          <ns3:TrackPointExtension>
            <ns3:hr>128</ns3:hr>
          </ns3:TrackPointExtension>
        </extensions>
      </trkpt>
      <trkpt lat="46.504105366766452789306640625" lon="8.28233622014522552490234375">
        <ele>1585.4000244140625</ele>
        <time>2015-09-08T10:49:56.000Z</time>
        <extensions>
          <ns3:TrackPointExtension>
            <ns3:hr>128</ns3:hr>
          </ns3:TrackPointExtension>
        </extensions>
      </trkpt>
      <trkpt lat="46.5040314383804798126220703125" lon="8.28218526206910610198974609375">
        <ele>1585.5999755859375</ele>
        <time>2015-09-08T10:50:04.000Z</time>
        <extensions>
          <ns3:TrackPointExtension>
            <ns3:hr>129</ns3:hr>
          </ns3:TrackPointExtension>
        </extensions>
      </trkpt>
      <trkpt lat="46.5039975754916667938232421875" lon="8.28210546635091304779052734375">
        <ele>1585.800048828125</ele>
        <time>2015-09-08T10:50:08.000Z</time>
        <extensions>
          <ns3:TrackPointExtension>
            <ns3:hr>129</ns3:hr>
          </ns3:TrackPointExtension>
        </extensions>
      </trkpt>
      <trkpt lat="46.50397201068699359893798828125" lon="8.28199264593422412872314453125">
        <ele>1586.800048828125</ele>
        <time>2015-09-08T10:50:13.000Z</time>
        <extensions>
          <ns3:TrackPointExtension>
            <ns3:hr>129</ns3:hr>
          </ns3:TrackPointExtension>
        </extensions>
      </trkpt>
      <trkpt lat="46.50398441590368747711181640625" lon="8.28190212137997150421142578125">
        <ele>1587.4000244140625</ele>
        <time>2015-09-08T10:50:17.000Z</time>
        <extensions>
          <ns3:TrackPointExtension>
            <ns3:hr>129</ns3:hr>
          </ns3:TrackPointExtension>
        </extensions>
      </trkpt>
      <trkpt lat="46.5040133334696292877197265625" lon="8.2817845232784748077392578125">
        <ele>1587.4000244140625</ele>
        <time>2015-09-08T10:50:22.000Z</time>
        <extensions>
          <ns3:TrackPointExtension>
            <ns3:hr>129</ns3:hr>
          </ns3:TrackPointExtension>
        </extensions>
      </trkpt>
      <trkpt lat="46.504006125032901763916015625" lon="8.28161629848182201385498046875">
        <ele>1588.4000244140625</ele>
        <time>2015-09-08T10:50:29.000Z</time>
        <extensions>
          <ns3:TrackPointExtension>
            <ns3:hr>128</ns3:hr>
          </ns3:TrackPointExtension>
        </extensions>
      </trkpt>
      <trkpt lat="46.50387729518115520477294921875" lon="8.28153734095394611358642578125">
        <ele>1590.5999755859375</ele>
        <time>2015-09-08T10:50:38.000Z</time>
        <extensions>
          <ns3:TrackPointExtension>
            <ns3:hr>129</ns3:hr>
          </ns3:TrackPointExtension>
        </extensions>
      </trkpt>
      <trkpt lat="46.50380822829902172088623046875" lon="8.28134790994226932525634765625">
        <ele>1592</ele>
        <time>2015-09-08T10:50:48.000Z</time>
        <extensions>
          <ns3:TrackPointExtension>
            <ns3:hr>129</ns3:hr>
          </ns3:TrackPointExtension>
        </extensions>
      </trkpt>
      <trkpt lat="46.50377403013408184051513671875" lon="8.28120625577867031097412109375">
        <ele>1592.800048828125</ele>
        <time>2015-09-08T10:50:55.000Z</time>
        <extensions>
          <ns3:TrackPointExtension>
            <ns3:hr>129</ns3:hr>
          </ns3:TrackPointExtension>
        </extensions>
      </trkpt>
      <trkpt lat="46.503766737878322601318359375" lon="8.28119150362908840179443359375">
        <ele>1593</ele>
        <time>2015-09-08T10:50:56.000Z</time>
        <extensions>
          <ns3:TrackPointExtension>
            <ns3:hr>130</ns3:hr>
          </ns3:TrackPointExtension>
        </extensions>
      </trkpt>
      <trkpt lat="46.503750979900360107421875" lon="8.2810536213219165802001953125">
        <ele>1594.199951171875</ele>
        <time>2015-09-08T10:51:03.000Z</time>
        <extensions>
          <ns3:TrackPointExtension>
            <ns3:hr>129</ns3:hr>
          </ns3:TrackPointExtension>
        </extensions>
      </trkpt>
      <trkpt lat="46.50373212061822414398193359375" lon="8.28083611093461513519287109375">
        <ele>1597.199951171875</ele>
        <time>2015-09-08T10:51:15.000Z</time>
        <extensions>
          <ns3:TrackPointExtension>
            <ns3:hr>130</ns3:hr>
          </ns3:TrackPointExtension>
        </extensions>
      </trkpt>
      <trkpt lat="46.50369088165462017059326171875" lon="8.280713148415088653564453125">
        <ele>1598.800048828125</ele>
        <time>2015-09-08T10:51:21.000Z</time>
        <extensions>
          <ns3:TrackPointExtension>
            <ns3:hr>131</ns3:hr>
          </ns3:TrackPointExtension>
        </extensions>
      </trkpt>
      <trkpt lat="46.50339164771139621734619140625" lon="8.280156590044498443603515625">
        <ele>1603.800048828125</ele>
        <time>2015-09-08T10:51:53.000Z</time>
        <extensions>
          <ns3:TrackPointExtension>
            <ns3:hr>133</ns3:hr>
          </ns3:TrackPointExtension>
        </extensions>
      </trkpt>
      <trkpt lat="46.50353799574077129364013671875" lon="8.2802378945052623748779296875">
        <ele>1609</ele>
        <time>2015-09-08T10:52:13.000Z</time>
        <extensions>
          <ns3:TrackPointExtension>
            <ns3:hr>133</ns3:hr>
          </ns3:TrackPointExtension>
        </extensions>
      </trkpt>
      <trkpt lat="46.50364360772073268890380859375" lon="8.2802985794842243194580078125">
        <ele>1611</ele>
        <time>2015-09-08T10:52:21.000Z</time>
        <extensions>
          <ns3:TrackPointExtension>
            <ns3:hr>132</ns3:hr>
          </ns3:TrackPointExtension>
        </extensions>
      </trkpt>
      <trkpt lat="46.5036877803504467010498046875" lon="8.28033604659140110015869140625">
        <ele>1612.199951171875</ele>
        <time>2015-09-08T10:52:25.000Z</time>
        <extensions>
          <ns3:TrackPointExtension>
            <ns3:hr>132</ns3:hr>
          </ns3:TrackPointExtension>
        </extensions>
      </trkpt>
      <trkpt lat="46.50375139899551868438720703125" lon="8.2804068736732006072998046875">
        <ele>1613.800048828125</ele>
        <time>2015-09-08T10:52:31.000Z</time>
        <extensions>
          <ns3:TrackPointExtension>
            <ns3:hr>132</ns3:hr>
          </ns3:TrackPointExtension>
        </extensions>
      </trkpt>
      <trkpt lat="46.50381325744092464447021484375" lon="8.2805087976157665252685546875">
        <ele>1616.199951171875</ele>
        <time>2015-09-08T10:52:39.000Z</time>
        <extensions>
          <ns3:TrackPointExtension>
            <ns3:hr>132</ns3:hr>
          </ns3:TrackPointExtension>
        </extensions>
      </trkpt>
      <trkpt lat="46.50402196682989597320556640625" lon="8.280997462570667266845703125">
        <ele>1623.800048828125</ele>
        <time>2015-09-08T10:53:08.000Z</time>
        <extensions>
          <ns3:TrackPointExtension>
            <ns3:hr>133</ns3:hr>
          </ns3:TrackPointExtension>
        </extensions>
      </trkpt>
      <trkpt lat="46.50442890822887420654296875" lon="8.28116300515830516815185546875">
        <ele>1627.800048828125</ele>
        <time>2015-09-08T10:53:37.000Z</time>
        <extensions>
          <ns3:TrackPointExtension>
            <ns3:hr>132</ns3:hr>
          </ns3:TrackPointExtension>
        </extensions>
      </trkpt>
      <trkpt lat="46.5044550597667694091796875" lon="8.28164747916162014007568359375">
        <ele>1636.199951171875</ele>
        <time>2015-09-08T10:54:01.000Z</time>
        <extensions>
          <ns3:TrackPointExtension>
            <ns3:hr>130</ns3:hr>
          </ns3:TrackPointExtension>
        </extensions>
      </trkpt>
      <trkpt lat="46.504573412239551544189453125" lon="8.28181193210184574127197265625">
        <ele>1637.199951171875</ele>
        <time>2015-09-08T10:54:11.000Z</time>
        <extensions>
          <ns3:TrackPointExtension>
            <ns3:hr>129</ns3:hr>
          </ns3:TrackPointExtension>
        </extensions>
      </trkpt>
      <trkpt lat="46.50459746830165386199951171875" lon="8.28183464705944061279296875">
        <ele>1637.199951171875</ele>
        <time>2015-09-08T10:54:13.000Z</time>
        <extensions>
          <ns3:TrackPointExtension>
            <ns3:hr>129</ns3:hr>
          </ns3:TrackPointExtension>
        </extensions>
      </trkpt>
      <trkpt lat="46.504628397524356842041015625" lon="8.28188602812588214874267578125">
        <ele>1637.4000244140625</ele>
        <time>2015-09-08T10:54:16.000Z</time>
        <extensions>
          <ns3:TrackPointExtension>
            <ns3:hr>128</ns3:hr>
          </ns3:TrackPointExtension>
        </extensions>
      </trkpt>
      <trkpt lat="46.50466904975473880767822265625" lon="8.28200630843639373779296875">
        <ele>1638.5999755859375</ele>
        <time>2015-09-08T10:54:23.000Z</time>
        <extensions>
          <ns3:TrackPointExtension>
            <ns3:hr>129</ns3:hr>
          </ns3:TrackPointExtension>
        </extensions>
      </trkpt>
      <trkpt lat="46.5047127194702625274658203125" lon="8.2821489684283733367919921875">
        <ele>1640.5999755859375</ele>
        <time>2015-09-08T10:54:30.000Z</time>
        <extensions>
          <ns3:TrackPointExtension>
            <ns3:hr>129</ns3:hr>
          </ns3:TrackPointExtension>
        </extensions>
      </trkpt>
      <trkpt lat="46.50475722737610340118408203125" lon="8.28226673416793346405029296875">
        <ele>1641.800048828125</ele>
        <time>2015-09-08T10:54:37.000Z</time>
        <extensions>
          <ns3:TrackPointExtension>
            <ns3:hr>130</ns3:hr>
          </ns3:TrackPointExtension>
        </extensions>
      </trkpt>
      <trkpt lat="46.50483299978077411651611328125" lon="8.282408975064754486083984375">
        <ele>1643.199951171875</ele>
        <time>2015-09-08T10:54:45.000Z</time>
        <extensions>
          <ns3:TrackPointExtension>
            <ns3:hr>130</ns3:hr>
          </ns3:TrackPointExtension>
        </extensions>
      </trkpt>
      <trkpt lat="46.50502075441181659698486328125" lon="8.28270561061799526214599609375">
        <ele>1644.800048828125</ele>
        <time>2015-09-08T10:55:02.000Z</time>
        <extensions>
          <ns3:TrackPointExtension>
            <ns3:hr>132</ns3:hr>
          </ns3:TrackPointExtension>
        </extensions>
      </trkpt>
      <trkpt lat="46.50508127175271511077880859375" lon="8.2827484421432018280029296875">
        <ele>1645.199951171875</ele>
        <time>2015-09-08T10:55:06.000Z</time>
        <extensions>
          <ns3:TrackPointExtension>
            <ns3:hr>131</ns3:hr>
          </ns3:TrackPointExtension>
        </extensions>
      </trkpt>
      <trkpt lat="46.50526064448058605194091796875" lon="8.28302462585270404815673828125">
        <ele>1647.5999755859375</ele>
        <time>2015-09-08T10:55:24.000Z</time>
        <extensions>
          <ns3:TrackPointExtension>
            <ns3:hr>132</ns3:hr>
          </ns3:TrackPointExtension>
        </extensions>
      </trkpt>
      <trkpt lat="46.5053805895149707794189453125" lon="8.28300937078893184661865234375">
        <ele>1648</ele>
        <time>2015-09-08T10:55:31.000Z</time>
        <extensions>
          <ns3:TrackPointExtension>
            <ns3:hr>131</ns3:hr>
          </ns3:TrackPointExtension>
        </extensions>
      </trkpt>
      <trkpt lat="46.505610756576061248779296875" lon="8.28320399858057498931884765625">
        <ele>1650</ele>
        <time>2015-09-08T10:55:49.000Z</time>
        <extensions>
          <ns3:TrackPointExtension>
            <ns3:hr>131</ns3:hr>
          </ns3:TrackPointExtension>
        </extensions>
      </trkpt>
      <trkpt lat="46.50560245849192142486572265625" lon="8.28346232883632183074951171875">
        <ele>1652.199951171875</ele>
        <time>2015-09-08T10:56:00.000Z</time>
        <extensions>
          <ns3:TrackPointExtension>
            <ns3:hr>132</ns3:hr>
          </ns3:TrackPointExtension>
        </extensions>
      </trkpt>
      <trkpt lat="46.50592583231627941131591796875" lon="8.28407219611108303070068359375">
        <ele>1657.199951171875</ele>
        <time>2015-09-08T10:56:33.000Z</time>
        <extensions>
          <ns3:TrackPointExtension>
            <ns3:hr>130</ns3:hr>
          </ns3:TrackPointExtension>
        </extensions>
      </trkpt>
      <trkpt lat="46.50594142265617847442626953125" lon="8.2840883731842041015625">
        <ele>1657.5999755859375</ele>
        <time>2015-09-08T10:56:35.000Z</time>
        <extensions>
          <ns3:TrackPointExtension>
            <ns3:hr>129</ns3:hr>
          </ns3:TrackPointExtension>
        </extensions>
      </trkpt>
      <trkpt lat="46.5060571767389774322509765625" lon="8.284309990704059600830078125">
        <ele>1660.5999755859375</ele>
        <time>2015-09-08T10:56:47.000Z</time>
        <extensions>
          <ns3:TrackPointExtension>
            <ns3:hr>130</ns3:hr>
          </ns3:TrackPointExtension>
        </extensions>
      </trkpt>
      <trkpt lat="46.50610939599573612213134765625" lon="8.284422643482685089111328125">
        <ele>1662</ele>
        <time>2015-09-08T10:56:53.000Z</time>
        <extensions>
          <ns3:TrackPointExtension>
            <ns3:hr>129</ns3:hr>
          </ns3:TrackPointExtension>
        </extensions>
      </trkpt>
      <trkpt lat="46.506428159773349761962890625" lon="8.2849263958632946014404296875">
        <ele>1668.5999755859375</ele>
        <time>2015-09-08T10:57:24.000Z</time>
        <extensions>
          <ns3:TrackPointExtension>
            <ns3:hr>132</ns3:hr>
          </ns3:TrackPointExtension>
        </extensions>
      </trkpt>
      <trkpt lat="46.506434194743633270263671875" lon="8.284948356449604034423828125">
        <ele>1668.800048828125</ele>
        <time>2015-09-08T10:57:25.000Z</time>
        <extensions>
          <ns3:TrackPointExtension>
            <ns3:hr>132</ns3:hr>
          </ns3:TrackPointExtension>
        </extensions>
      </trkpt>
      <trkpt lat="46.50682202540338039398193359375" lon="8.28552125953137874603271484375">
        <ele>1674</ele>
        <time>2015-09-08T10:58:02.000Z</time>
        <extensions>
          <ns3:TrackPointExtension>
            <ns3:hr>132</ns3:hr>
          </ns3:TrackPointExtension>
        </extensions>
      </trkpt>
      <trkpt lat="46.50685890577733516693115234375" lon="8.28556819818913936614990234375">
        <ele>1674.4000244140625</ele>
        <time>2015-09-08T10:58:05.000Z</time>
        <extensions>
          <ns3:TrackPointExtension>
            <ns3:hr>133</ns3:hr>
          </ns3:TrackPointExtension>
        </extensions>
      </trkpt>
      <trkpt lat="46.50698773562908172607421875" lon="8.28573533333837985992431640625">
        <ele>1676.5999755859375</ele>
        <time>2015-09-08T10:58:16.000Z</time>
        <extensions>
          <ns3:TrackPointExtension>
            <ns3:hr>132</ns3:hr>
          </ns3:TrackPointExtension>
        </extensions>
      </trkpt>
      <trkpt lat="46.50708136148750782012939453125" lon="8.28589241020381450653076171875">
        <ele>1677.199951171875</ele>
        <time>2015-09-08T10:58:23.000Z</time>
        <extensions>
          <ns3:TrackPointExtension>
            <ns3:hr>131</ns3:hr>
          </ns3:TrackPointExtension>
        </extensions>
      </trkpt>
      <trkpt lat="46.5071506798267364501953125" lon="8.28601445071399211883544921875">
        <ele>1677.199951171875</ele>
        <time>2015-09-08T10:58:29.000Z</time>
        <extensions>
          <ns3:TrackPointExtension>
            <ns3:hr>131</ns3:hr>
          </ns3:TrackPointExtension>
        </extensions>
      </trkpt>
      <trkpt lat="46.50720977224409580230712890625" lon="8.28608058393001556396484375">
        <ele>1677.4000244140625</ele>
        <time>2015-09-08T10:58:34.000Z</time>
        <extensions>
          <ns3:TrackPointExtension>
            <ns3:hr>131</ns3:hr>
          </ns3:TrackPointExtension>
        </extensions>
      </trkpt>
      <trkpt lat="46.5072296373546123504638671875" lon="8.28610044904053211212158203125">
        <ele>1677.800048828125</ele>
        <time>2015-09-08T10:58:36.000Z</time>
        <extensions>
          <ns3:TrackPointExtension>
            <ns3:hr>131</ns3:hr>
          </ns3:TrackPointExtension>
        </extensions>
      </trkpt>
      <trkpt lat="46.50731119327247142791748046875" lon="8.28623338602483272552490234375">
        <ele>1678.4000244140625</ele>
        <time>2015-09-08T10:58:46.000Z</time>
        <extensions>
          <ns3:TrackPointExtension>
            <ns3:hr>131</ns3:hr>
          </ns3:TrackPointExtension>
        </extensions>
      </trkpt>
      <trkpt lat="46.5073868818581104278564453125" lon="8.28634318895637989044189453125">
        <ele>1678.800048828125</ele>
        <time>2015-09-08T10:58:52.000Z</time>
        <extensions>
          <ns3:TrackPointExtension>
            <ns3:hr>131</ns3:hr>
          </ns3:TrackPointExtension>
        </extensions>
      </trkpt>
      <trkpt lat="46.5076316334307193756103515625" lon="8.28664007596671581268310546875">
        <ele>1680.800048828125</ele>
        <time>2015-09-08T10:59:13.000Z</time>
        <extensions>
          <ns3:TrackPointExtension>
            <ns3:hr>132</ns3:hr>
          </ns3:TrackPointExtension>
        </extensions>
      </trkpt>
      <trkpt lat="46.507650576531887054443359375" lon="8.28666069544851779937744140625">
        <ele>1681.199951171875</ele>
        <time>2015-09-08T10:59:15.000Z</time>
        <extensions>
          <ns3:TrackPointExtension>
            <ns3:hr>132</ns3:hr>
          </ns3:TrackPointExtension>
        </extensions>
      </trkpt>
      <trkpt lat="46.50768167339265346527099609375" lon="8.286714591085910797119140625">
        <ele>1682.199951171875</ele>
        <time>2015-09-08T10:59:19.000Z</time>
        <extensions>
          <ns3:TrackPointExtension>
            <ns3:hr>132</ns3:hr>
          </ns3:TrackPointExtension>
        </extensions>
      </trkpt>
      <trkpt lat="46.50770011357963085174560546875" lon="8.28674174845218658447265625">
        <ele>1682.800048828125</ele>
        <time>2015-09-08T10:59:21.000Z</time>
        <extensions>
          <ns3:TrackPointExtension>
            <ns3:hr>133</ns3:hr>
          </ns3:TrackPointExtension>
        </extensions>
      </trkpt>
      <trkpt lat="46.5079075656831264495849609375" lon="8.28705229796469211578369140625">
        <ele>1685</ele>
        <time>2015-09-08T10:59:39.000Z</time>
        <extensions>
          <ns3:TrackPointExtension>
            <ns3:hr>132</ns3:hr>
          </ns3:TrackPointExtension>
        </extensions>
      </trkpt>
      <trkpt lat="46.50795693509280681610107421875" lon="8.2871375419199466705322265625">
        <ele>1685</ele>
        <time>2015-09-08T10:59:45.000Z</time>
        <extensions>
          <ns3:TrackPointExtension>
            <ns3:hr>132</ns3:hr>
          </ns3:TrackPointExtension>
        </extensions>
      </trkpt>
      <trkpt lat="46.50800839997828006744384765625" lon="8.287203423678874969482421875">
        <ele>1685.4000244140625</ele>
        <time>2015-09-08T10:59:49.000Z</time>
        <extensions>
          <ns3:TrackPointExtension>
            <ns3:hr>131</ns3:hr>
          </ns3:TrackPointExtension>
        </extensions>
      </trkpt>
      <trkpt lat="46.50804293341934680938720703125" lon="8.287169225513935089111328125">
        <ele>1685.5999755859375</ele>
        <time>2015-09-08T10:59:53.000Z</time>
        <extensions>
          <ns3:TrackPointExtension>
            <ns3:hr>131</ns3:hr>
          </ns3:TrackPointExtension>
        </extensions>
      </trkpt>
      <trkpt lat="46.50803471915423870086669921875" lon="8.2871420681476593017578125">
        <ele>1686.199951171875</ele>
        <time>2015-09-08T10:59:57.000Z</time>
        <extensions>
          <ns3:TrackPointExtension>
            <ns3:hr>131</ns3:hr>
          </ns3:TrackPointExtension>
        </extensions>
      </trkpt>
      <trkpt lat="46.50802818126976490020751953125" lon="8.28700116835534572601318359375">
        <ele>1689.199951171875</ele>
        <time>2015-09-08T11:00:10.000Z</time>
        <extensions>
          <ns3:TrackPointExtension>
            <ns3:hr>130</ns3:hr>
          </ns3:TrackPointExtension>
        </extensions>
      </trkpt>
      <trkpt lat="46.508017368614673614501953125" lon="8.2869301736354827880859375">
        <ele>1690</ele>
        <time>2015-09-08T11:00:14.000Z</time>
        <extensions>
          <ns3:TrackPointExtension>
            <ns3:hr>130</ns3:hr>
          </ns3:TrackPointExtension>
        </extensions>
      </trkpt>
      <trkpt lat="46.5077459625899791717529296875" lon="8.28624428249895572662353515625">
        <ele>1699</ele>
        <time>2015-09-08T11:00:54.000Z</time>
        <extensions>
          <ns3:TrackPointExtension>
            <ns3:hr>130</ns3:hr>
          </ns3:TrackPointExtension>
        </extensions>
      </trkpt>
      <trkpt lat="46.5074753947556018829345703125" lon="8.2855560444295406341552734375">
        <ele>1702.800048828125</ele>
        <time>2015-09-08T11:01:28.000Z</time>
        <extensions>
          <ns3:TrackPointExtension>
            <ns3:hr>130</ns3:hr>
          </ns3:TrackPointExtension>
        </extensions>
      </trkpt>
      <trkpt lat="46.50742895901203155517578125" lon="8.28539838083088397979736328125">
        <ele>1704</ele>
        <time>2015-09-08T11:01:36.000Z</time>
        <extensions>
          <ns3:TrackPointExtension>
            <ns3:hr>131</ns3:hr>
          </ns3:TrackPointExtension>
        </extensions>
      </trkpt>
      <trkpt lat="46.507403142750263214111328125" lon="8.2852814532816410064697265625">
        <ele>1704.4000244140625</ele>
        <time>2015-09-08T11:01:41.000Z</time>
        <extensions>
          <ns3:TrackPointExtension>
            <ns3:hr>131</ns3:hr>
          </ns3:TrackPointExtension>
        </extensions>
      </trkpt>
      <trkpt lat="46.50732628069818019866943359375" lon="8.28499889932572841644287109375">
        <ele>1705.4000244140625</ele>
        <time>2015-09-08T11:01:55.000Z</time>
        <extensions>
          <ns3:TrackPointExtension>
            <ns3:hr>131</ns3:hr>
          </ns3:TrackPointExtension>
        </extensions>
      </trkpt>
      <trkpt lat="46.5072826109826564788818359375" lon="8.2848905213177204132080078125">
        <ele>1705.800048828125</ele>
        <time>2015-09-08T11:02:00.000Z</time>
        <extensions>
          <ns3:TrackPointExtension>
            <ns3:hr>131</ns3:hr>
          </ns3:TrackPointExtension>
        </extensions>
      </trkpt>
      <trkpt lat="46.50703065097332000732421875" lon="8.28420178033411502838134765625">
        <ele>1711.800048828125</ele>
        <time>2015-09-08T11:02:35.000Z</time>
        <extensions>
          <ns3:TrackPointExtension>
            <ns3:hr>132</ns3:hr>
          </ns3:TrackPointExtension>
        </extensions>
      </trkpt>
      <trkpt lat="46.50688287802040576934814453125" lon="8.2835065014660358428955078125">
        <ele>1716</ele>
        <time>2015-09-08T11:03:06.000Z</time>
        <extensions>
          <ns3:TrackPointExtension>
            <ns3:hr>132</ns3:hr>
          </ns3:TrackPointExtension>
        </extensions>
      </trkpt>
      <trkpt lat="46.50679989717900753021240234375" lon="8.2832915894687175750732421875">
        <ele>1718</ele>
        <time>2015-09-08T11:03:18.000Z</time>
        <extensions>
          <ns3:TrackPointExtension>
            <ns3:hr>132</ns3:hr>
          </ns3:TrackPointExtension>
        </extensions>
      </trkpt>
      <trkpt lat="46.50677843950688838958740234375" lon="8.2831775955855846405029296875">
        <ele>1718.800048828125</ele>
        <time>2015-09-08T11:03:23.000Z</time>
        <extensions>
          <ns3:TrackPointExtension>
            <ns3:hr>131</ns3:hr>
          </ns3:TrackPointExtension>
        </extensions>
      </trkpt>
      <trkpt lat="46.50676704011857509613037109375" lon="8.28313459642231464385986328125">
        <ele>1719</ele>
        <time>2015-09-08T11:03:25.000Z</time>
        <extensions>
          <ns3:TrackPointExtension>
            <ns3:hr>131</ns3:hr>
          </ns3:TrackPointExtension>
        </extensions>
      </trkpt>
      <trkpt lat="46.5067136473953723907470703125" lon="8.2829884998500347137451171875">
        <ele>1721</ele>
        <time>2015-09-08T11:03:32.000Z</time>
        <extensions>
          <ns3:TrackPointExtension>
            <ns3:hr>131</ns3:hr>
          </ns3:TrackPointExtension>
        </extensions>
      </trkpt>
      <trkpt lat="46.506650112569332122802734375" lon="8.2828557305037975311279296875">
        <ele>1722.800048828125</ele>
        <time>2015-09-08T11:03:39.000Z</time>
        <extensions>
          <ns3:TrackPointExtension>
            <ns3:hr>131</ns3:hr>
          </ns3:TrackPointExtension>
        </extensions>
      </trkpt>
      <trkpt lat="46.5066274814307689666748046875" lon="8.28277668915688991546630859375">
        <ele>1723.4000244140625</ele>
        <time>2015-09-08T11:03:43.000Z</time>
        <extensions>
          <ns3:TrackPointExtension>
            <ns3:hr>131</ns3:hr>
          </ns3:TrackPointExtension>
        </extensions>
      </trkpt>
      <trkpt lat="46.50656788609921932220458984375" lon="8.2825033552944660186767578125">
        <ele>1725.5999755859375</ele>
        <time>2015-09-08T11:03:55.000Z</time>
        <extensions>
          <ns3:TrackPointExtension>
            <ns3:hr>132</ns3:hr>
          </ns3:TrackPointExtension>
        </extensions>
      </trkpt>
      <trkpt lat="46.506376527249813079833984375" lon="8.28176432289183139801025390625">
        <ele>1730.199951171875</ele>
        <time>2015-09-08T11:04:32.000Z</time>
        <extensions>
          <ns3:TrackPointExtension>
            <ns3:hr>132</ns3:hr>
          </ns3:TrackPointExtension>
        </extensions>
      </trkpt>
      <trkpt lat="46.5062440931797027587890625" lon="8.281106092035770416259765625">
        <ele>1734.800048828125</ele>
        <time>2015-09-08T11:05:05.000Z</time>
        <extensions>
          <ns3:TrackPointExtension>
            <ns3:hr>133</ns3:hr>
          </ns3:TrackPointExtension>
        </extensions>
      </trkpt>
      <trkpt lat="46.50622372515499591827392578125" lon="8.2809573970735073089599609375">
        <ele>1736</ele>
        <time>2015-09-08T11:05:12.000Z</time>
        <extensions>
          <ns3:TrackPointExtension>
            <ns3:hr>133</ns3:hr>
          </ns3:TrackPointExtension>
        </extensions>
      </trkpt>
      <trkpt lat="46.5061904489994049072265625" lon="8.28083577565848827362060546875">
        <ele>1737.5999755859375</ele>
        <time>2015-09-08T11:05:18.000Z</time>
        <extensions>
          <ns3:TrackPointExtension>
            <ns3:hr>133</ns3:hr>
          </ns3:TrackPointExtension>
        </extensions>
      </trkpt>
      <trkpt lat="46.5061708353459835052490234375" lon="8.28074776567518711090087890625">
        <ele>1738.5999755859375</ele>
        <time>2015-09-08T11:05:22.000Z</time>
        <extensions>
          <ns3:TrackPointExtension>
            <ns3:hr>133</ns3:hr>
          </ns3:TrackPointExtension>
        </extensions>
      </trkpt>
      <trkpt lat="46.50613018311560153961181640625" lon="8.280524723231792449951171875">
        <ele>1739.199951171875</ele>
        <time>2015-09-08T11:05:32.000Z</time>
        <extensions>
          <ns3:TrackPointExtension>
            <ns3:hr>132</ns3:hr>
          </ns3:TrackPointExtension>
        </extensions>
      </trkpt>
      <trkpt lat="46.505979560315608978271484375" lon="8.27979658730328083038330078125">
        <ele>1745</ele>
        <time>2015-09-08T11:06:06.000Z</time>
        <extensions>
          <ns3:TrackPointExtension>
            <ns3:hr>134</ns3:hr>
          </ns3:TrackPointExtension>
        </extensions>
      </trkpt>
      <trkpt lat="46.5058952383697032928466796875" lon="8.2795361615717411041259765625">
        <ele>1748</ele>
        <time>2015-09-08T11:06:19.000Z</time>
        <extensions>
          <ns3:TrackPointExtension>
            <ns3:hr>133</ns3:hr>
          </ns3:TrackPointExtension>
        </extensions>
      </trkpt>
      <trkpt lat="46.50582994334399700164794921875" lon="8.27929065562784671783447265625">
        <ele>1750.4000244140625</ele>
        <time>2015-09-08T11:06:32.000Z</time>
        <extensions>
          <ns3:TrackPointExtension>
            <ns3:hr>132</ns3:hr>
          </ns3:TrackPointExtension>
        </extensions>
      </trkpt>
      <trkpt lat="46.5057299472391605377197265625" lon="8.2786369509994983673095703125">
        <ele>1756.199951171875</ele>
        <time>2015-09-08T11:07:04.000Z</time>
        <extensions>
          <ns3:TrackPointExtension>
            <ns3:hr>132</ns3:hr>
          </ns3:TrackPointExtension>
        </extensions>
      </trkpt>
      <trkpt lat="46.5057312883436679840087890625" lon="8.27853444032371044158935546875">
        <ele>1757</ele>
        <time>2015-09-08T11:07:09.000Z</time>
        <extensions>
          <ns3:TrackPointExtension>
            <ns3:hr>132</ns3:hr>
          </ns3:TrackPointExtension>
        </extensions>
      </trkpt>
      <trkpt lat="46.5057349763810634613037109375" lon="8.2784119807183742523193359375">
        <ele>1758</ele>
        <time>2015-09-08T11:07:15.000Z</time>
        <extensions>
          <ns3:TrackPointExtension>
            <ns3:hr>132</ns3:hr>
          </ns3:TrackPointExtension>
        </extensions>
      </trkpt>
      <trkpt lat="46.5056444518268108367919921875" lon="8.27763841487467288970947265625">
        <ele>1762.4000244140625</ele>
        <time>2015-09-08T11:07:53.000Z</time>
        <extensions>
          <ns3:TrackPointExtension>
            <ns3:hr>132</ns3:hr>
          </ns3:TrackPointExtension>
        </extensions>
      </trkpt>
      <trkpt lat="46.505650319159030914306640625" lon="8.27760974876582622528076171875">
        <ele>1762.800048828125</ele>
        <time>2015-09-08T11:07:55.000Z</time>
        <extensions>
          <ns3:TrackPointExtension>
            <ns3:hr>132</ns3:hr>
          </ns3:TrackPointExtension>
        </extensions>
      </trkpt>
      <trkpt lat="46.505762971937656402587890625" lon="8.27789993025362491607666015625">
        <ele>1765.4000244140625</ele>
        <time>2015-09-08T11:08:19.000Z</time>
        <extensions>
          <ns3:TrackPointExtension>
            <ns3:hr>131</ns3:hr>
          </ns3:TrackPointExtension>
        </extensions>
      </trkpt>
      <trkpt lat="46.50591393001377582550048828125" lon="8.27833570539951324462890625">
        <ele>1769.800048828125</ele>
        <time>2015-09-08T11:08:45.000Z</time>
        <extensions>
          <ns3:TrackPointExtension>
            <ns3:hr>131</ns3:hr>
          </ns3:TrackPointExtension>
        </extensions>
      </trkpt>
      <trkpt lat="46.5059223957359790802001953125" lon="8.2783616892993450164794921875">
        <ele>1770.4000244140625</ele>
        <time>2015-09-08T11:08:50.000Z</time>
        <extensions>
          <ns3:TrackPointExtension>
            <ns3:hr>131</ns3:hr>
          </ns3:TrackPointExtension>
        </extensions>
      </trkpt>
      <trkpt lat="46.50589196942746639251708984375" lon="8.27849655412137508392333984375">
        <ele>1777.800048828125</ele>
        <time>2015-09-08T11:11:58.000Z</time>
        <extensions>
          <ns3:TrackPointExtension>
            <ns3:hr>105</ns3:hr>
          </ns3:TrackPointExtension>
        </extensions>
      </trkpt>
      <trkpt lat="46.5058895386755466461181640625" lon="8.2784961350262165069580078125">
        <ele>1777.800048828125</ele>
        <time>2015-09-08T11:11:59.000Z</time>
        <extensions>
          <ns3:TrackPointExtension>
            <ns3:hr>105</ns3:hr>
          </ns3:TrackPointExtension>
        </extensions>
      </trkpt>
      <trkpt lat="46.50592482648789882659912109375" lon="8.2792552001774311065673828125">
        <ele>1772.5999755859375</ele>
        <time>2015-09-08T11:12:27.000Z</time>
        <extensions>
          <ns3:TrackPointExtension>
            <ns3:hr>104</ns3:hr>
          </ns3:TrackPointExtension>
        </extensions>
      </trkpt>
      <trkpt lat="46.5059569291770458221435546875" lon="8.27940699644386768341064453125">
        <ele>1770</ele>
        <time>2015-09-08T11:12:31.000Z</time>
        <extensions>
          <ns3:TrackPointExtension>
            <ns3:hr>102</ns3:hr>
          </ns3:TrackPointExtension>
        </extensions>
      </trkpt>
      <trkpt lat="46.5060028620064258575439453125" lon="8.27953238971531391143798828125">
        <ele>1766.199951171875</ele>
        <time>2015-09-08T11:12:37.000Z</time>
        <extensions>
          <ns3:TrackPointExtension>
            <ns3:hr>105</ns3:hr>
          </ns3:TrackPointExtension>
        </extensions>
      </trkpt>
      <trkpt lat="46.506008394062519073486328125" lon="8.27956642024219036102294921875">
        <ele>1763.800048828125</ele>
        <time>2015-09-08T11:12:42.000Z</time>
        <extensions>
          <ns3:TrackPointExtension>
            <ns3:hr>108</ns3:hr>
          </ns3:TrackPointExtension>
        </extensions>
      </trkpt>
      <trkpt lat="46.50601518340408802032470703125" lon="8.28008048236370086669921875">
        <ele>1758.4000244140625</ele>
        <time>2015-09-08T11:13:12.000Z</time>
        <extensions>
          <ns3:TrackPointExtension>
            <ns3:hr>108</ns3:hr>
          </ns3:TrackPointExtension>
        </extensions>
      </trkpt>
      <trkpt lat="46.50609414093196392059326171875" lon="8.2807837240397930145263671875">
        <ele>1753</ele>
        <time>2015-09-08T11:13:36.000Z</time>
        <extensions>
          <ns3:TrackPointExtension>
            <ns3:hr>105</ns3:hr>
          </ns3:TrackPointExtension>
        </extensions>
      </trkpt>
      <trkpt lat="46.5061969868838787078857421875" lon="8.2812920026481151580810546875">
        <ele>1751.4000244140625</ele>
        <time>2015-09-08T11:13:57.000Z</time>
        <extensions>
          <ns3:TrackPointExtension>
            <ns3:hr>102</ns3:hr>
          </ns3:TrackPointExtension>
        </extensions>
      </trkpt>
      <trkpt lat="46.50629648007452487945556640625" lon="8.2816232554614543914794921875">
        <ele>1750</ele>
        <time>2015-09-08T11:14:06.000Z</time>
        <extensions>
          <ns3:TrackPointExtension>
            <ns3:hr>99</ns3:hr>
          </ns3:TrackPointExtension>
        </extensions>
      </trkpt>
      <trkpt lat="46.50639354251325130462646484375" lon="8.281961381435394287109375">
        <ele>1746.4000244140625</ele>
        <time>2015-09-08T11:14:11.000Z</time>
        <extensions>
          <ns3:TrackPointExtension>
            <ns3:hr>98</ns3:hr>
          </ns3:TrackPointExtension>
        </extensions>
      </trkpt>
      <trkpt lat="46.5064551495015621185302734375" lon="8.2821700908243656158447265625">
        <ele>1743.800048828125</ele>
        <time>2015-09-08T11:14:14.000Z</time>
        <extensions>
          <ns3:TrackPointExtension>
            <ns3:hr>97</ns3:hr>
          </ns3:TrackPointExtension>
        </extensions>
      </trkpt>
      <trkpt lat="46.5065657906234264373779296875" lon="8.282618857920169830322265625">
        <ele>1740.4000244140625</ele>
        <time>2015-09-08T11:14:20.000Z</time>
        <extensions>
          <ns3:TrackPointExtension>
            <ns3:hr>97</ns3:hr>
          </ns3:TrackPointExtension>
        </extensions>
      </trkpt>
      <trkpt lat="46.50663661770522594451904296875" lon="8.28286855481564998626708984375">
        <ele>1738.4000244140625</ele>
        <time>2015-09-08T11:14:24.000Z</time>
        <extensions>
          <ns3:TrackPointExtension>
            <ns3:hr>99</ns3:hr>
          </ns3:TrackPointExtension>
        </extensions>
      </trkpt>
      <trkpt lat="46.5066786110401153564453125" lon="8.28299696557223796844482421875">
        <ele>1737</ele>
        <time>2015-09-08T11:14:26.000Z</time>
        <extensions>
          <ns3:TrackPointExtension>
            <ns3:hr>100</ns3:hr>
          </ns3:TrackPointExtension>
        </extensions>
      </trkpt>
      <trkpt lat="46.506712473928928375244140625" lon="8.28312269411981105804443359375">
        <ele>1736</ele>
        <time>2015-09-08T11:14:28.000Z</time>
        <extensions>
          <ns3:TrackPointExtension>
            <ns3:hr>99</ns3:hr>
          </ns3:TrackPointExtension>
        </extensions>
      </trkpt>
      <trkpt lat="46.50688237510621547698974609375" lon="8.28377380035817623138427734375">
        <ele>1729.4000244140625</ele>
        <time>2015-09-08T11:14:39.000Z</time>
        <extensions>
          <ns3:TrackPointExtension>
            <ns3:hr>99</ns3:hr>
          </ns3:TrackPointExtension>
        </extensions>
      </trkpt>
      <trkpt lat="46.5069521963596343994140625" lon="8.2840690948069095611572265625">
        <ele>1725.4000244140625</ele>
        <time>2015-09-08T11:14:44.000Z</time>
        <extensions>
          <ns3:TrackPointExtension>
            <ns3:hr>98</ns3:hr>
          </ns3:TrackPointExtension>
        </extensions>
      </trkpt>
      <trkpt lat="46.50712092407047748565673828125" lon="8.28453538008034229278564453125">
        <ele>1719</ele>
        <time>2015-09-08T11:14:53.000Z</time>
        <extensions>
          <ns3:TrackPointExtension>
            <ns3:hr>98</ns3:hr>
          </ns3:TrackPointExtension>
        </extensions>
      </trkpt>
      <trkpt lat="46.5071910806000232696533203125" lon="8.28476320020854473114013671875">
        <ele>1716.800048828125</ele>
        <time>2015-09-08T11:14:57.000Z</time>
        <extensions>
          <ns3:TrackPointExtension>
            <ns3:hr>99</ns3:hr>
          </ns3:TrackPointExtension>
        </extensions>
      </trkpt>
      <trkpt lat="46.50741311721503734588623046875" lon="8.28547767363488674163818359375">
        <ele>1709</ele>
        <time>2015-09-08T11:15:09.000Z</time>
        <extensions>
          <ns3:TrackPointExtension>
            <ns3:hr>100</ns3:hr>
          </ns3:TrackPointExtension>
        </extensions>
      </trkpt>
      <trkpt lat="46.5076011233031749725341796875" lon="8.285974301397800445556640625">
        <ele>1704.800048828125</ele>
        <time>2015-09-08T11:15:18.000Z</time>
        <extensions>
          <ns3:TrackPointExtension>
            <ns3:hr>103</ns3:hr>
          </ns3:TrackPointExtension>
        </extensions>
      </trkpt>
      <trkpt lat="46.507669351994991302490234375" lon="8.28615375794470310211181640625">
        <ele>1703.4000244140625</ele>
        <time>2015-09-08T11:15:21.000Z</time>
        <extensions>
          <ns3:TrackPointExtension>
            <ns3:hr>103</ns3:hr>
          </ns3:TrackPointExtension>
        </extensions>
      </trkpt>
      <trkpt lat="46.5078234113752841949462890625" lon="8.2864525727927684783935546875">
        <ele>1699</ele>
        <time>2015-09-08T11:15:26.000Z</time>
        <extensions>
          <ns3:TrackPointExtension>
            <ns3:hr>102</ns3:hr>
          </ns3:TrackPointExtension>
        </extensions>
      </trkpt>
      <trkpt lat="46.50790932588279247283935546875" lon="8.28665197826921939849853515625">
        <ele>1696.5999755859375</ele>
        <time>2015-09-08T11:15:29.000Z</time>
        <extensions>
          <ns3:TrackPointExtension>
            <ns3:hr>101</ns3:hr>
          </ns3:TrackPointExtension>
        </extensions>
      </trkpt>
      <trkpt lat="46.50803019292652606964111328125" lon="8.287016339600086212158203125">
        <ele>1691.800048828125</ele>
        <time>2015-09-08T11:15:35.000Z</time>
        <extensions>
          <ns3:TrackPointExtension>
            <ns3:hr>102</ns3:hr>
          </ns3:TrackPointExtension>
        </extensions>
      </trkpt>
      <trkpt lat="46.50805986486375331878662109375" lon="8.28727408312261104583740234375">
        <ele>1691</ele>
        <time>2015-09-08T11:15:59.000Z</time>
        <extensions>
          <ns3:TrackPointExtension>
            <ns3:hr>104</ns3:hr>
          </ns3:TrackPointExtension>
        </extensions>
      </trkpt>
      <trkpt lat="46.5077969245612621307373046875" lon="8.2868877612054347991943359375">
        <ele>1691.4000244140625</ele>
        <time>2015-09-08T11:16:11.000Z</time>
        <extensions>
          <ns3:TrackPointExtension>
            <ns3:hr>101</ns3:hr>
          </ns3:TrackPointExtension>
        </extensions>
      </trkpt>
      <trkpt lat="46.507755853235721588134765625" lon="8.286841325461864471435546875">
        <ele>1691.4000244140625</ele>
        <time>2015-09-08T11:16:12.000Z</time>
        <extensions>
          <ns3:TrackPointExtension>
            <ns3:hr>100</ns3:hr>
          </ns3:TrackPointExtension>
        </extensions>
      </trkpt>
      <trkpt lat="46.507660634815692901611328125" lon="8.286703862249851226806640625">
        <ele>1690.800048828125</ele>
        <time>2015-09-08T11:16:15.000Z</time>
        <extensions>
          <ns3:TrackPointExtension>
            <ns3:hr>99</ns3:hr>
          </ns3:TrackPointExtension>
        </extensions>
      </trkpt>
      <trkpt lat="46.50758880190551280975341796875" lon="8.2866249047219753265380859375">
        <ele>1691</ele>
        <time>2015-09-08T11:16:17.000Z</time>
        <extensions>
          <ns3:TrackPointExtension>
            <ns3:hr>99</ns3:hr>
          </ns3:TrackPointExtension>
        </extensions>
      </trkpt>
      <trkpt lat="46.50733910501003265380859375" lon="8.28631619922816753387451171875">
        <ele>1691.199951171875</ele>
        <time>2015-09-08T11:16:24.000Z</time>
        <extensions>
          <ns3:TrackPointExtension>
            <ns3:hr>98</ns3:hr>
          </ns3:TrackPointExtension>
        </extensions>
      </trkpt>
      <trkpt lat="46.507196612656116485595703125" lon="8.2860851101577281951904296875">
        <ele>1691.4000244140625</ele>
        <time>2015-09-08T11:16:28.000Z</time>
        <extensions>
          <ns3:TrackPointExtension>
            <ns3:hr>97</ns3:hr>
          </ns3:TrackPointExtension>
        </extensions>
      </trkpt>
      <trkpt lat="46.50704615749418735504150390625" lon="8.28592660836875438690185546875">
        <ele>1690.5999755859375</ele>
        <time>2015-09-08T11:16:34.000Z</time>
        <extensions>
          <ns3:TrackPointExtension>
            <ns3:hr>100</ns3:hr>
          </ns3:TrackPointExtension>
        </extensions>
      </trkpt>
      <trkpt lat="46.5070435591042041778564453125" lon="8.285960890352725982666015625">
        <ele>1690</ele>
        <time>2015-09-08T11:16:38.000Z</time>
        <extensions>
          <ns3:TrackPointExtension>
            <ns3:hr>103</ns3:hr>
          </ns3:TrackPointExtension>
        </extensions>
      </trkpt>
      <trkpt lat="46.5071052499115467071533203125" lon="8.2862504012882709503173828125">
        <ele>1686.4000244140625</ele>
        <time>2015-09-08T11:16:46.000Z</time>
        <extensions>
          <ns3:TrackPointExtension>
            <ns3:hr>100</ns3:hr>
          </ns3:TrackPointExtension>
        </extensions>
      </trkpt>
      <trkpt lat="46.50721262209117412567138671875" lon="8.2868146710097789764404296875">
        <ele>1674.199951171875</ele>
        <time>2015-09-08T11:17:01.000Z</time>
        <extensions>
          <ns3:TrackPointExtension>
            <ns3:hr>97</ns3:hr>
          </ns3:TrackPointExtension>
        </extensions>
      </trkpt>
      <trkpt lat="46.5074076689779758453369140625" lon="8.28755672089755535125732421875">
        <ele>1660.800048828125</ele>
        <time>2015-09-08T11:17:17.000Z</time>
        <extensions>
          <ns3:TrackPointExtension>
            <ns3:hr>98</ns3:hr>
          </ns3:TrackPointExtension>
        </extensions>
      </trkpt>
      <trkpt lat="46.50732208974659442901611328125" lon="8.28757901675999164581298828125">
        <ele>1656.5999755859375</ele>
        <time>2015-09-08T11:17:22.000Z</time>
        <extensions>
          <ns3:TrackPointExtension>
            <ns3:hr>96</ns3:hr>
          </ns3:TrackPointExtension>
        </extensions>
      </trkpt>
      <trkpt lat="46.506864018738269805908203125" lon="8.2871455885469913482666015625">
        <ele>1638.199951171875</ele>
        <time>2015-09-08T11:17:41.000Z</time>
        <extensions>
          <ns3:TrackPointExtension>
            <ns3:hr>97</ns3:hr>
          </ns3:TrackPointExtension>
        </extensions>
      </trkpt>
      <trkpt lat="46.50653972290456295013427734375" lon="8.2866943068802356719970703125">
        <ele>1627.4000244140625</ele>
        <time>2015-09-08T11:17:58.000Z</time>
        <extensions>
          <ns3:TrackPointExtension>
            <ns3:hr>99</ns3:hr>
          </ns3:TrackPointExtension>
        </extensions>
      </trkpt>
      <trkpt lat="46.50634467601776123046875" lon="8.28649724833667278289794921875">
        <ele>1618.800048828125</ele>
        <time>2015-09-08T11:18:07.000Z</time>
        <extensions>
          <ns3:TrackPointExtension>
            <ns3:hr>97</ns3:hr>
          </ns3:TrackPointExtension>
        </extensions>
      </trkpt>
      <trkpt lat="46.50628441013395786285400390625" lon="8.28645383007824420928955078125">
        <ele>1616.4000244140625</ele>
        <time>2015-09-08T11:18:10.000Z</time>
        <extensions>
          <ns3:TrackPointExtension>
            <ns3:hr>98</ns3:hr>
          </ns3:TrackPointExtension>
        </extensions>
      </trkpt>
      <trkpt lat="46.5061949752271175384521484375" lon="8.286282755434513092041015625">
        <ele>1613.4000244140625</ele>
        <time>2015-09-08T11:18:16.000Z</time>
        <extensions>
          <ns3:TrackPointExtension>
            <ns3:hr>95</ns3:hr>
          </ns3:TrackPointExtension>
        </extensions>
      </trkpt>
      <trkpt lat="46.50616153143346309661865234375" lon="8.286231793463230133056640625">
        <ele>1611.5999755859375</ele>
        <time>2015-09-08T11:18:20.000Z</time>
        <extensions>
          <ns3:TrackPointExtension>
            <ns3:hr>98</ns3:hr>
          </ns3:TrackPointExtension>
        </extensions>
      </trkpt>
      <trkpt lat="46.5061396546661853790283203125" lon="8.28620807267725467681884765625">
        <ele>1612.5999755859375</ele>
        <time>2015-09-08T11:18:26.000Z</time>
        <extensions>
          <ns3:TrackPointExtension>
            <ns3:hr>101</ns3:hr>
          </ns3:TrackPointExtension>
        </extensions>
      </trkpt>
      <trkpt lat="46.5060937218368053436279296875" lon="8.286184184253215789794921875">
        <ele>1613</ele>
        <time>2015-09-08T11:18:33.000Z</time>
        <extensions>
          <ns3:TrackPointExtension>
            <ns3:hr>104</ns3:hr>
          </ns3:TrackPointExtension>
        </extensions>
      </trkpt>
      <trkpt lat="46.50586481206119060516357421875" lon="8.285889811813831329345703125">
        <ele>1610.5999755859375</ele>
        <time>2015-09-08T11:18:54.000Z</time>
        <extensions>
          <ns3:TrackPointExtension>
            <ns3:hr>101</ns3:hr>
          </ns3:TrackPointExtension>
        </extensions>
      </trkpt>
      <trkpt lat="46.5058389119803905487060546875" lon="8.2858331501483917236328125">
        <ele>1610.5999755859375</ele>
        <time>2015-09-08T11:18:56.000Z</time>
        <extensions>
          <ns3:TrackPointExtension>
            <ns3:hr>101</ns3:hr>
          </ns3:TrackPointExtension>
        </extensions>
      </trkpt>
      <trkpt lat="46.50573019869625568389892578125" lon="8.28576601110398769378662109375">
        <ele>1609.5999755859375</ele>
        <time>2015-09-08T11:19:04.000Z</time>
        <extensions>
          <ns3:TrackPointExtension>
            <ns3:hr>104</ns3:hr>
          </ns3:TrackPointExtension>
        </extensions>
      </trkpt>
      <trkpt lat="46.50549969635903835296630859375" lon="8.28568764030933380126953125">
        <ele>1605.4000244140625</ele>
        <time>2015-09-08T11:19:15.000Z</time>
        <extensions>
          <ns3:TrackPointExtension>
            <ns3:hr>103</ns3:hr>
          </ns3:TrackPointExtension>
        </extensions>
      </trkpt>
      <trkpt lat="46.5053765662014484405517578125" lon="8.28536351211369037628173828125">
        <ele>1598</ele>
        <time>2015-09-08T11:19:26.000Z</time>
        <extensions>
          <ns3:TrackPointExtension>
            <ns3:hr>101</ns3:hr>
          </ns3:TrackPointExtension>
        </extensions>
      </trkpt>
      <trkpt lat="46.505301631987094879150390625" lon="8.285245411098003387451171875">
        <ele>1595.800048828125</ele>
        <time>2015-09-08T11:19:30.000Z</time>
        <extensions>
          <ns3:TrackPointExtension>
            <ns3:hr>99</ns3:hr>
          </ns3:TrackPointExtension>
        </extensions>
      </trkpt>
      <trkpt lat="46.50518537499010562896728515625" lon="8.28503787517547607421875">
        <ele>1591.800048828125</ele>
        <time>2015-09-08T11:19:36.000Z</time>
        <extensions>
          <ns3:TrackPointExtension>
            <ns3:hr>98</ns3:hr>
          </ns3:TrackPointExtension>
        </extensions>
      </trkpt>
      <trkpt lat="46.504924111068248748779296875" lon="8.284707963466644287109375">
        <ele>1584</ele>
        <time>2015-09-08T11:19:47.000Z</time>
        <extensions>
          <ns3:TrackPointExtension>
            <ns3:hr>97</ns3:hr>
          </ns3:TrackPointExtension>
        </extensions>
      </trkpt>
      <trkpt lat="46.504881866276264190673828125" lon="8.28474626876413822174072265625">
        <ele>1581.5999755859375</ele>
        <time>2015-09-08T11:19:58.000Z</time>
        <extensions>
          <ns3:TrackPointExtension>
            <ns3:hr>100</ns3:hr>
          </ns3:TrackPointExtension>
        </extensions>
      </trkpt>
      <trkpt lat="46.50489603169262409210205078125" lon="8.28481282107532024383544921875">
        <ele>1580.800048828125</ele>
        <time>2015-09-08T11:20:01.000Z</time>
        <extensions>
          <ns3:TrackPointExtension>
            <ns3:hr>102</ns3:hr>
          </ns3:TrackPointExtension>
        </extensions>
      </trkpt>
      <trkpt lat="46.50497046299278736114501953125" lon="8.28497559763491153717041015625">
        <ele>1579.5999755859375</ele>
        <time>2015-09-08T11:20:07.000Z</time>
        <extensions>
          <ns3:TrackPointExtension>
            <ns3:hr>99</ns3:hr>
          </ns3:TrackPointExtension>
        </extensions>
      </trkpt>
      <trkpt lat="46.50499879382550716400146484375" lon="8.28509143553674221038818359375">
        <ele>1577.800048828125</ele>
        <time>2015-09-08T11:20:14.000Z</time>
        <extensions>
          <ns3:TrackPointExtension>
            <ns3:hr>99</ns3:hr>
          </ns3:TrackPointExtension>
        </extensions>
      </trkpt>
      <trkpt lat="46.50502159260213375091552734375" lon="8.28525848686695098876953125">
        <ele>1576.4000244140625</ele>
        <time>2015-09-08T11:20:19.000Z</time>
        <extensions>
          <ns3:TrackPointExtension>
            <ns3:hr>98</ns3:hr>
          </ns3:TrackPointExtension>
        </extensions>
      </trkpt>
      <trkpt lat="46.505000889301300048828125" lon="8.28540408052504062652587890625">
        <ele>1574.5999755859375</ele>
        <time>2015-09-08T11:20:23.000Z</time>
        <extensions>
          <ns3:TrackPointExtension>
            <ns3:hr>98</ns3:hr>
          </ns3:TrackPointExtension>
        </extensions>
      </trkpt>
      <trkpt lat="46.5048974566161632537841796875" lon="8.285683952271938323974609375">
        <ele>1569.800048828125</ele>
        <time>2015-09-08T11:20:30.000Z</time>
        <extensions>
          <ns3:TrackPointExtension>
            <ns3:hr>95</ns3:hr>
          </ns3:TrackPointExtension>
        </extensions>
      </trkpt>
      <trkpt lat="46.50511932559311389923095703125" lon="8.28614906407892704010009765625">
        <ele>1561.800048828125</ele>
        <time>2015-09-08T11:20:41.000Z</time>
        <extensions>
          <ns3:TrackPointExtension>
            <ns3:hr>94</ns3:hr>
          </ns3:TrackPointExtension>
        </extensions>
      </trkpt>
      <trkpt lat="46.50507909245789051055908203125" lon="8.28648333437740802764892578125">
        <ele>1557.5999755859375</ele>
        <time>2015-09-08T11:20:49.000Z</time>
        <extensions>
          <ns3:TrackPointExtension>
            <ns3:hr>94</ns3:hr>
          </ns3:TrackPointExtension>
        </extensions>
      </trkpt>
      <trkpt lat="46.5049239434301853179931640625" lon="8.2866979949176311492919921875">
        <ele>1549</ele>
        <time>2015-09-08T11:21:03.000Z</time>
        <extensions>
          <ns3:TrackPointExtension>
            <ns3:hr>96</ns3:hr>
          </ns3:TrackPointExtension>
        </extensions>
      </trkpt>
      <trkpt lat="46.50494464673101902008056640625" lon="8.28677552752196788787841796875">
        <ele>1542.800048828125</ele>
        <time>2015-09-08T11:21:37.000Z</time>
        <extensions>
          <ns3:TrackPointExtension>
            <ns3:hr>94</ns3:hr>
          </ns3:TrackPointExtension>
        </extensions>
      </trkpt>
      <trkpt lat="46.50484339334070682525634765625" lon="8.28692992217838764190673828125">
        <ele>1542.4000244140625</ele>
        <time>2015-09-08T11:21:44.000Z</time>
        <extensions>
          <ns3:TrackPointExtension>
            <ns3:hr>96</ns3:hr>
          </ns3:TrackPointExtension>
        </extensions>
      </trkpt>
      <trkpt lat="46.5047848038375377655029296875" lon="8.28704358078539371490478515625">
        <ele>1542</ele>
        <time>2015-09-08T11:21:46.000Z</time>
        <extensions>
          <ns3:TrackPointExtension>
            <ns3:hr>97</ns3:hr>
          </ns3:TrackPointExtension>
        </extensions>
      </trkpt>
      <trkpt lat="46.50470039807260036468505859375" lon="8.28719780780375003814697265625">
        <ele>1541.4000244140625</ele>
        <time>2015-09-08T11:21:50.000Z</time>
        <extensions>
          <ns3:TrackPointExtension>
            <ns3:hr>94</ns3:hr>
          </ns3:TrackPointExtension>
        </extensions>
      </trkpt>
      <trkpt lat="46.50467173196375370025634765625" lon="8.2872478477656841278076171875">
        <ele>1540.800048828125</ele>
        <time>2015-09-08T11:21:53.000Z</time>
        <extensions>
          <ns3:TrackPointExtension>
            <ns3:hr>91</ns3:hr>
          </ns3:TrackPointExtension>
        </extensions>
      </trkpt>
      <trkpt lat="46.50464893318712711334228515625" lon="8.287364356219768524169921875">
        <ele>1540.199951171875</ele>
        <time>2015-09-08T11:21:59.000Z</time>
        <extensions>
          <ns3:TrackPointExtension>
            <ns3:hr>94</ns3:hr>
          </ns3:TrackPointExtension>
        </extensions>
      </trkpt>
      <trkpt lat="46.5046439878642559051513671875" lon="8.28743551857769489288330078125">
        <ele>1539.800048828125</ele>
        <time>2015-09-08T11:22:02.000Z</time>
        <extensions>
          <ns3:TrackPointExtension>
            <ns3:hr>98</ns3:hr>
          </ns3:TrackPointExtension>
        </extensions>
      </trkpt>
      <trkpt lat="46.50463812053203582763671875" lon="8.2874557189643383026123046875">
        <ele>1539.5999755859375</ele>
        <time>2015-09-08T11:22:03.000Z</time>
        <extensions>
          <ns3:TrackPointExtension>
            <ns3:hr>99</ns3:hr>
          </ns3:TrackPointExtension>
        </extensions>
      </trkpt>
      <trkpt lat="46.5046215243637561798095703125" lon="8.28748681582510471343994140625">
        <ele>1539.199951171875</ele>
        <time>2015-09-08T11:22:05.000Z</time>
        <extensions>
          <ns3:TrackPointExtension>
            <ns3:hr>102</ns3:hr>
          </ns3:TrackPointExtension>
        </extensions>
      </trkpt>
      <trkpt lat="46.50461037643253803253173828125" lon="8.28755353577435016632080078125">
        <ele>1538.800048828125</ele>
        <time>2015-09-08T11:22:08.000Z</time>
        <extensions>
          <ns3:TrackPointExtension>
            <ns3:hr>105</ns3:hr>
          </ns3:TrackPointExtension>
        </extensions>
      </trkpt>
      <trkpt lat="46.50461724959313869476318359375" lon="8.2876079343259334564208984375">
        <ele>1538.5999755859375</ele>
        <time>2015-09-08T11:22:10.000Z</time>
        <extensions>
          <ns3:TrackPointExtension>
            <ns3:hr>105</ns3:hr>
          </ns3:TrackPointExtension>
        </extensions>
      </trkpt>
      <trkpt lat="46.5046401321887969970703125" lon="8.28769921325147151947021484375">
        <ele>1538.5999755859375</ele>
        <time>2015-09-08T11:22:14.000Z</time>
        <extensions>
          <ns3:TrackPointExtension>
            <ns3:hr>107</ns3:hr>
          </ns3:TrackPointExtension>
        </extensions>
      </trkpt>
      <trkpt lat="46.50467055849730968475341796875" lon="8.28774497844278812408447265625">
        <ele>1539.199951171875</ele>
        <time>2015-09-08T11:22:19.000Z</time>
        <extensions>
          <ns3:TrackPointExtension>
            <ns3:hr>110</ns3:hr>
          </ns3:TrackPointExtension>
        </extensions>
      </trkpt>
      <trkpt lat="46.5046775154769420623779296875" lon="8.28778780996799468994140625">
        <ele>1540</ele>
        <time>2015-09-08T11:22:26.000Z</time>
        <extensions>
          <ns3:TrackPointExtension>
            <ns3:hr>113</ns3:hr>
          </ns3:TrackPointExtension>
        </extensions>
      </trkpt>
      <trkpt lat="46.50469771586358547210693359375" lon="8.28779828734695911407470703125">
        <ele>1539.800048828125</ele>
        <time>2015-09-08T11:22:35.000Z</time>
        <extensions>
          <ns3:TrackPointExtension>
            <ns3:hr>116</ns3:hr>
          </ns3:TrackPointExtension>
        </extensions>
      </trkpt>
      <trkpt lat="46.5047227777540683746337890625" lon="8.2878845371305942535400390625">
        <ele>1541.5999755859375</ele>
        <time>2015-09-08T11:22:51.000Z</time>
        <extensions>
          <ns3:TrackPointExtension>
            <ns3:hr>119</ns3:hr>
          </ns3:TrackPointExtension>
        </extensions>
      </trkpt>
      <trkpt lat="46.504857055842876434326171875" lon="8.288103975355625152587890625">
        <ele>1546.4000244140625</ele>
        <time>2015-09-08T11:23:32.000Z</time>
        <extensions>
          <ns3:TrackPointExtension>
            <ns3:hr>122</ns3:hr>
          </ns3:TrackPointExtension>
        </extensions>
      </trkpt>
      <trkpt lat="46.505145728588104248046875" lon="8.28861602582037448883056640625">
        <ele>1559.4000244140625</ele>
        <time>2015-09-08T11:24:54.000Z</time>
        <extensions>
          <ns3:TrackPointExtension>
            <ns3:hr>121</ns3:hr>
          </ns3:TrackPointExtension>
        </extensions>
      </trkpt>
      <trkpt lat="46.50534949265420436859130859375" lon="8.28839340247213840484619140625">
        <ele>1565</ele>
        <time>2015-09-08T11:25:24.000Z</time>
        <extensions>
          <ns3:TrackPointExtension>
            <ns3:hr>118</ns3:hr>
          </ns3:TrackPointExtension>
        </extensions>
      </trkpt>
      <trkpt lat="46.50557245127856731414794921875" lon="8.28815652988851070404052734375">
        <ele>1572.4000244140625</ele>
        <time>2015-09-08T11:26:07.000Z</time>
        <extensions>
          <ns3:TrackPointExtension>
            <ns3:hr>121</ns3:hr>
          </ns3:TrackPointExtension>
        </extensions>
      </trkpt>
      <trkpt lat="46.505663059651851654052734375" lon="8.28803348354995250701904296875">
        <ele>1577.199951171875</ele>
        <time>2015-09-08T11:26:29.000Z</time>
        <extensions>
          <ns3:TrackPointExtension>
            <ns3:hr>124</ns3:hr>
          </ns3:TrackPointExtension>
        </extensions>
      </trkpt>
      <trkpt lat="46.50587839074432849884033203125" lon="8.28787640668451786041259765625">
        <ele>1583.800048828125</ele>
        <time>2015-09-08T11:27:04.000Z</time>
        <extensions>
          <ns3:TrackPointExtension>
            <ns3:hr>121</ns3:hr>
          </ns3:TrackPointExtension>
        </extensions>
      </trkpt>
      <trkpt lat="46.5059150196611881256103515625" lon="8.287890739738941192626953125">
        <ele>1585.800048828125</ele>
        <time>2015-09-08T11:27:17.000Z</time>
        <extensions>
          <ns3:TrackPointExtension>
            <ns3:hr>118</ns3:hr>
          </ns3:TrackPointExtension>
        </extensions>
      </trkpt>
      <trkpt lat="46.506222970783710479736328125" lon="8.2880320586264133453369140625">
        <ele>1588</ele>
        <time>2015-09-08T11:27:37.000Z</time>
        <extensions>
          <ns3:TrackPointExtension>
            <ns3:hr>115</ns3:hr>
          </ns3:TrackPointExtension>
        </extensions>
      </trkpt>
      <trkpt lat="46.5063552372157573699951171875" lon="8.28805561177432537078857421875">
        <ele>1588.199951171875</ele>
        <time>2015-09-08T11:27:42.000Z</time>
        <extensions>
          <ns3:TrackPointExtension>
            <ns3:hr>112</ns3:hr>
          </ns3:TrackPointExtension>
        </extensions>
      </trkpt>
      <trkpt lat="46.50637476705014705657958984375" lon="8.2880593836307525634765625">
        <ele>1588</ele>
        <time>2015-09-08T11:27:43.000Z</time>
        <extensions>
          <ns3:TrackPointExtension>
            <ns3:hr>111</ns3:hr>
          </ns3:TrackPointExtension>
        </extensions>
      </trkpt>
      <trkpt lat="46.5067176707088947296142578125" lon="8.28827354125678539276123046875">
        <ele>1591.199951171875</ele>
        <time>2015-09-08T11:28:11.000Z</time>
        <extensions>
          <ns3:TrackPointExtension>
            <ns3:hr>114</ns3:hr>
          </ns3:TrackPointExtension>
        </extensions>
      </trkpt>
      <trkpt lat="46.506841219961643218994140625" lon="8.28833187930285930633544921875">
        <ele>1592.4000244140625</ele>
        <time>2015-09-08T11:28:33.000Z</time>
        <extensions>
          <ns3:TrackPointExtension>
            <ns3:hr>117</ns3:hr>
          </ns3:TrackPointExtension>
        </extensions>
      </trkpt>
      <trkpt lat="46.50685471482574939727783203125" lon="8.2883566059172153472900390625">
        <ele>1592.5999755859375</ele>
        <time>2015-09-08T11:28:41.000Z</time>
        <extensions>
          <ns3:TrackPointExtension>
            <ns3:hr>114</ns3:hr>
          </ns3:TrackPointExtension>
        </extensions>
      </trkpt>
      <trkpt lat="46.50699284859001636505126953125" lon="8.28850395977497100830078125">
        <ele>1592.5999755859375</ele>
        <time>2015-09-08T11:28:54.000Z</time>
        <extensions>
          <ns3:TrackPointExtension>
            <ns3:hr>111</ns3:hr>
          </ns3:TrackPointExtension>
        </extensions>
      </trkpt>
      <trkpt lat="46.50719703175127506256103515625" lon="8.288552574813365936279296875">
        <ele>1592.4000244140625</ele>
        <time>2015-09-08T11:29:26.000Z</time>
        <extensions>
          <ns3:TrackPointExtension>
            <ns3:hr>114</ns3:hr>
          </ns3:TrackPointExtension>
        </extensions>
      </trkpt>
      <trkpt lat="46.50738897733390331268310546875" lon="8.28843380324542522430419921875">
        <ele>1593.800048828125</ele>
        <time>2015-09-08T11:29:51.000Z</time>
        <extensions>
          <ns3:TrackPointExtension>
            <ns3:hr>117</ns3:hr>
          </ns3:TrackPointExtension>
        </extensions>
      </trkpt>
      <trkpt lat="46.507426612079143524169921875" lon="8.2884333841502666473388671875">
        <ele>1594.5999755859375</ele>
        <time>2015-09-08T11:30:05.000Z</time>
        <extensions>
          <ns3:TrackPointExtension>
            <ns3:hr>120</ns3:hr>
          </ns3:TrackPointExtension>
        </extensions>
      </trkpt>
      <trkpt lat="46.5075878798961639404296875" lon="8.288618959486484527587890625">
        <ele>1595.4000244140625</ele>
        <time>2015-09-08T11:30:21.000Z</time>
        <extensions>
          <ns3:TrackPointExtension>
            <ns3:hr>122</ns3:hr>
          </ns3:TrackPointExtension>
        </extensions>
      </trkpt>
      <trkpt lat="46.50762082077562808990478515625" lon="8.28867402859032154083251953125">
        <ele>1595.4000244140625</ele>
        <time>2015-09-08T11:30:25.000Z</time>
        <extensions>
          <ns3:TrackPointExtension>
            <ns3:hr>123</ns3:hr>
          </ns3:TrackPointExtension>
        </extensions>
      </trkpt>
      <trkpt lat="46.5077023766934871673583984375" lon="8.28882775269448757171630859375">
        <ele>1596.4000244140625</ele>
        <time>2015-09-08T11:30:34.000Z</time>
        <extensions>
          <ns3:TrackPointExtension>
            <ns3:hr>124</ns3:hr>
          </ns3:TrackPointExtension>
        </extensions>
      </trkpt>
      <trkpt lat="46.507986523211002349853515625" lon="8.28918515704572200775146484375">
        <ele>1599.199951171875</ele>
        <time>2015-09-08T11:30:59.000Z</time>
        <extensions>
          <ns3:TrackPointExtension>
            <ns3:hr>127</ns3:hr>
          </ns3:TrackPointExtension>
        </extensions>
      </trkpt>
      <trkpt lat="46.5084255672991275787353515625" lon="8.28894996084272861480712890625">
        <ele>1598.199951171875</ele>
        <time>2015-09-08T11:31:19.000Z</time>
        <extensions>
          <ns3:TrackPointExtension>
            <ns3:hr>124</ns3:hr>
          </ns3:TrackPointExtension>
        </extensions>
      </trkpt>
      <trkpt lat="46.50854400359094142913818359375" lon="8.28890352509915828704833984375">
        <ele>1596.4000244140625</ele>
        <time>2015-09-08T11:31:25.000Z</time>
        <extensions>
          <ns3:TrackPointExtension>
            <ns3:hr>121</ns3:hr>
          </ns3:TrackPointExtension>
        </extensions>
      </trkpt>
      <trkpt lat="46.5086072869598865509033203125" lon="8.28888743184506893157958984375">
        <ele>1595.800048828125</ele>
        <time>2015-09-08T11:31:28.000Z</time>
        <extensions>
          <ns3:TrackPointExtension>
            <ns3:hr>117</ns3:hr>
          </ns3:TrackPointExtension>
        </extensions>
      </trkpt>
      <trkpt lat="46.50867895223200321197509765625" lon="8.28885910101234912872314453125">
        <ele>1595</ele>
        <time>2015-09-08T11:31:31.000Z</time>
        <extensions>
          <ns3:TrackPointExtension>
            <ns3:hr>114</ns3:hr>
          </ns3:TrackPointExtension>
        </extensions>
      </trkpt>
      <trkpt lat="46.50876897387206554412841796875" lon="8.2888484559953212738037109375">
        <ele>1594.199951171875</ele>
        <time>2015-09-08T11:31:35.000Z</time>
        <extensions>
          <ns3:TrackPointExtension>
            <ns3:hr>111</ns3:hr>
          </ns3:TrackPointExtension>
        </extensions>
      </trkpt>
      <trkpt lat="46.5088285692036151885986328125" lon="8.2888601906597614288330078125">
        <ele>1593.199951171875</ele>
        <time>2015-09-08T11:31:38.000Z</time>
        <extensions>
          <ns3:TrackPointExtension>
            <ns3:hr>108</ns3:hr>
          </ns3:TrackPointExtension>
        </extensions>
      </trkpt>
      <trkpt lat="46.50907985866069793701171875" lon="8.2889369688928127288818359375">
        <ele>1588.5999755859375</ele>
        <time>2015-09-08T11:32:06.000Z</time>
        <extensions>
          <ns3:TrackPointExtension>
            <ns3:hr>111</ns3:hr>
          </ns3:TrackPointExtension>
        </extensions>
      </trkpt>
      <trkpt lat="46.50907181203365325927734375" lon="8.2890751026570796966552734375">
        <ele>1586.4000244140625</ele>
        <time>2015-09-08T11:32:18.000Z</time>
        <extensions>
          <ns3:TrackPointExtension>
            <ns3:hr>108</ns3:hr>
          </ns3:TrackPointExtension>
        </extensions>
      </trkpt>
      <trkpt lat="46.50899545289576053619384765625" lon="8.2891823910176753997802734375">
        <ele>1587</ele>
        <time>2015-09-08T11:32:32.000Z</time>
        <extensions>
          <ns3:TrackPointExtension>
            <ns3:hr>111</ns3:hr>
          </ns3:TrackPointExtension>
        </extensions>
      </trkpt>
      <trkpt lat="46.50895773433148860931396484375" lon="8.28921482898294925689697265625">
        <ele>1590.199951171875</ele>
        <time>2015-09-08T11:32:38.000Z</time>
        <extensions>
          <ns3:TrackPointExtension>
            <ns3:hr>114</ns3:hr>
          </ns3:TrackPointExtension>
        </extensions>
      </trkpt>
      <trkpt lat="46.508924625813961029052734375" lon="8.2892534695565700531005859375">
        <ele>1593.800048828125</ele>
        <time>2015-09-08T11:32:44.000Z</time>
        <extensions>
          <ns3:TrackPointExtension>
            <ns3:hr>117</ns3:hr>
          </ns3:TrackPointExtension>
        </extensions>
      </trkpt>
      <trkpt lat="46.50889235548675060272216796875" lon="8.28932597301900386810302734375">
        <ele>1594.4000244140625</ele>
        <time>2015-09-08T11:32:53.000Z</time>
        <extensions>
          <ns3:TrackPointExtension>
            <ns3:hr>120</ns3:hr>
          </ns3:TrackPointExtension>
        </extensions>
      </trkpt>
      <trkpt lat="46.50886301882565021514892578125" lon="8.28941063024103641510009765625">
        <ele>1594.4000244140625</ele>
        <time>2015-09-08T11:33:03.000Z</time>
        <extensions>
          <ns3:TrackPointExtension>
            <ns3:hr>123</ns3:hr>
          </ns3:TrackPointExtension>
        </extensions>
      </trkpt>
      <trkpt lat="46.50884449481964111328125" lon="8.2894928567111492156982421875">
        <ele>1594.5999755859375</ele>
        <time>2015-09-08T11:33:12.000Z</time>
        <extensions>
          <ns3:TrackPointExtension>
            <ns3:hr>126</ns3:hr>
          </ns3:TrackPointExtension>
        </extensions>
      </trkpt>
      <trkpt lat="46.508676521480083465576171875" lon="8.29003709368407726287841796875">
        <ele>1603.199951171875</ele>
        <time>2015-09-08T11:34:29.000Z</time>
        <extensions>
          <ns3:TrackPointExtension>
            <ns3:hr>129</ns3:hr>
          </ns3:TrackPointExtension>
        </extensions>
      </trkpt>
      <trkpt lat="46.50859932415187358856201171875" lon="8.29015628434717655181884765625">
        <ele>1612.199951171875</ele>
        <time>2015-09-08T11:34:53.000Z</time>
        <extensions>
          <ns3:TrackPointExtension>
            <ns3:hr>132</ns3:hr>
          </ns3:TrackPointExtension>
        </extensions>
      </trkpt>
      <trkpt lat="46.50869403965771198272705078125" lon="8.29050279222428798675537109375">
        <ele>1616.4000244140625</ele>
        <time>2015-09-08T11:35:28.000Z</time>
        <extensions>
          <ns3:TrackPointExtension>
            <ns3:hr>129</ns3:hr>
          </ns3:TrackPointExtension>
        </extensions>
      </trkpt>
      <trkpt lat="46.5087370388209819793701171875" lon="8.29099967144429683685302734375">
        <ele>1627.199951171875</ele>
        <time>2015-09-08T11:36:40.000Z</time>
        <extensions>
          <ns3:TrackPointExtension>
            <ns3:hr>126</ns3:hr>
          </ns3:TrackPointExtension>
        </extensions>
      </trkpt>
      <trkpt lat="46.5087323449552059173583984375" lon="8.2910062931478023529052734375">
        <ele>1627.4000244140625</ele>
        <time>2015-09-08T11:36:45.000Z</time>
        <extensions>
          <ns3:TrackPointExtension>
            <ns3:hr>123</ns3:hr>
          </ns3:TrackPointExtension>
        </extensions>
      </trkpt>
      <trkpt lat="46.5087343566119670867919921875" lon="8.2910046167671680450439453125">
        <ele>1627.199951171875</ele>
        <time>2015-09-08T11:36:50.000Z</time>
        <extensions>
          <ns3:TrackPointExtension>
            <ns3:hr>120</ns3:hr>
          </ns3:TrackPointExtension>
        </extensions>
      </trkpt>
      <trkpt lat="46.508736871182918548583984375" lon="8.29100050963461399078369140625">
        <ele>1627.4000244140625</ele>
        <time>2015-09-08T11:36:53.000Z</time>
        <extensions>
          <ns3:TrackPointExtension>
            <ns3:hr>116</ns3:hr>
          </ns3:TrackPointExtension>
        </extensions>
      </trkpt>
      <trkpt lat="46.5087367035448551177978515625" lon="8.290998078882694244384765625">
        <ele>1627.4000244140625</ele>
        <time>2015-09-08T11:36:54.000Z</time>
        <extensions>
          <ns3:TrackPointExtension>
            <ns3:hr>113</ns3:hr>
          </ns3:TrackPointExtension>
        </extensions>
      </trkpt>
      <trkpt lat="46.5087385475635528564453125" lon="8.29099237918853759765625">
        <ele>1627.4000244140625</ele>
        <time>2015-09-08T11:36:56.000Z</time>
        <extensions>
          <ns3:TrackPointExtension>
            <ns3:hr>109</ns3:hr>
          </ns3:TrackPointExtension>
        </extensions>
      </trkpt>
      <trkpt lat="46.508740894496440887451171875" lon="8.2909878529608249664306640625">
        <ele>1627.4000244140625</ele>
        <time>2015-09-08T11:36:58.000Z</time>
        <extensions>
          <ns3:TrackPointExtension>
            <ns3:hr>106</ns3:hr>
          </ns3:TrackPointExtension>
        </extensions>
      </trkpt>
      <trkpt lat="46.50875774212181568145751953125" lon="8.29099615104496479034423828125">
        <ele>1627.199951171875</ele>
        <time>2015-09-08T11:37:05.000Z</time>
        <extensions>
          <ns3:TrackPointExtension>
            <ns3:hr>109</ns3:hr>
          </ns3:TrackPointExtension>
        </extensions>
      </trkpt>
      <trkpt lat="46.50897122919559478759765625" lon="8.2913747616112232208251953125">
        <ele>1628.5999755859375</ele>
        <time>2015-09-08T11:37:27.000Z</time>
        <extensions>
          <ns3:TrackPointExtension>
            <ns3:hr>112</ns3:hr>
          </ns3:TrackPointExtension>
        </extensions>
      </trkpt>
      <trkpt lat="46.50906954891979694366455078125" lon="8.29142211936414241790771484375">
        <ele>1630</ele>
        <time>2015-09-08T11:37:33.000Z</time>
        <extensions>
          <ns3:TrackPointExtension>
            <ns3:hr>115</ns3:hr>
          </ns3:TrackPointExtension>
        </extensions>
      </trkpt>
      <trkpt lat="46.5091531164944171905517578125" lon="8.29147450625896453857421875">
        <ele>1631.199951171875</ele>
        <time>2015-09-08T11:37:39.000Z</time>
        <extensions>
          <ns3:TrackPointExtension>
            <ns3:hr>118</ns3:hr>
          </ns3:TrackPointExtension>
        </extensions>
      </trkpt>
      <trkpt lat="46.5092312358319759368896484375" lon="8.291615657508373260498046875">
        <ele>1632.199951171875</ele>
        <time>2015-09-08T11:37:46.000Z</time>
        <extensions>
          <ns3:TrackPointExtension>
            <ns3:hr>121</ns3:hr>
          </ns3:TrackPointExtension>
        </extensions>
      </trkpt>
      <trkpt lat="46.509271301329135894775390625" lon="8.2916657812893390655517578125">
        <ele>1632.800048828125</ele>
        <time>2015-09-08T11:37:49.000Z</time>
        <extensions>
          <ns3:TrackPointExtension>
            <ns3:hr>122</ns3:hr>
          </ns3:TrackPointExtension>
        </extensions>
      </trkpt>
      <trkpt lat="46.5093408711254596710205078125" lon="8.2916895858943462371826171875">
        <ele>1633.199951171875</ele>
        <time>2015-09-08T11:37:53.000Z</time>
        <extensions>
          <ns3:TrackPointExtension>
            <ns3:hr>124</ns3:hr>
          </ns3:TrackPointExtension>
        </extensions>
      </trkpt>
      <trkpt lat="46.50952032767236232757568359375" lon="8.2918213494122028350830078125">
        <ele>1636.199951171875</ele>
        <time>2015-09-08T11:38:07.000Z</time>
        <extensions>
          <ns3:TrackPointExtension>
            <ns3:hr>127</ns3:hr>
          </ns3:TrackPointExtension>
        </extensions>
      </trkpt>
      <trkpt lat="46.50968763045966625213623046875" lon="8.2921978645026683807373046875">
        <ele>1638.800048828125</ele>
        <time>2015-09-08T11:38:28.000Z</time>
        <extensions>
          <ns3:TrackPointExtension>
            <ns3:hr>127</ns3:hr>
          </ns3:TrackPointExtension>
        </extensions>
      </trkpt>
      <trkpt lat="46.509729959070682525634765625" lon="8.29225477762520313262939453125">
        <ele>1639.4000244140625</ele>
        <time>2015-09-08T11:38:32.000Z</time>
        <extensions>
          <ns3:TrackPointExtension>
            <ns3:hr>127</ns3:hr>
          </ns3:TrackPointExtension>
        </extensions>
      </trkpt>
      <trkpt lat="46.50986147113144397735595703125" lon="8.292624168097972869873046875">
        <ele>1642.800048828125</ele>
        <time>2015-09-08T11:38:51.000Z</time>
        <extensions>
          <ns3:TrackPointExtension>
            <ns3:hr>130</ns3:hr>
          </ns3:TrackPointExtension>
        </extensions>
      </trkpt>
      <trkpt lat="46.5101628005504608154296875" lon="8.29325004480779170989990234375">
        <ele>1649.5999755859375</ele>
        <time>2015-09-08T11:39:24.000Z</time>
        <extensions>
          <ns3:TrackPointExtension>
            <ns3:hr>131</ns3:hr>
          </ns3:TrackPointExtension>
        </extensions>
      </trkpt>
      <trkpt lat="46.51047100313007831573486328125" lon="8.2938903383910655975341796875">
        <ele>1653.4000244140625</ele>
        <time>2015-09-08T11:39:57.000Z</time>
        <extensions>
          <ns3:TrackPointExtension>
            <ns3:hr>130</ns3:hr>
          </ns3:TrackPointExtension>
        </extensions>
      </trkpt>
      <trkpt lat="46.51077694259583950042724609375" lon="8.2945541851222515106201171875">
        <ele>1660.199951171875</ele>
        <time>2015-09-08T11:40:31.000Z</time>
        <extensions>
          <ns3:TrackPointExtension>
            <ns3:hr>132</ns3:hr>
          </ns3:TrackPointExtension>
        </extensions>
      </trkpt>
      <trkpt lat="46.5111141465604305267333984375" lon="8.29517855308949947357177734375">
        <ele>1665.5999755859375</ele>
        <time>2015-09-08T11:41:04.000Z</time>
        <extensions>
          <ns3:TrackPointExtension>
            <ns3:hr>130</ns3:hr>
          </ns3:TrackPointExtension>
        </extensions>
      </trkpt>
      <trkpt lat="46.51144824922084808349609375" lon="8.29579177312552928924560546875">
        <ele>1670.5999755859375</ele>
        <time>2015-09-08T11:41:37.000Z</time>
        <extensions>
          <ns3:TrackPointExtension>
            <ns3:hr>130</ns3:hr>
          </ns3:TrackPointExtension>
        </extensions>
      </trkpt>
      <trkpt lat="46.51178964413702487945556640625" lon="8.29641488380730152130126953125">
        <ele>1678.4000244140625</ele>
        <time>2015-09-08T11:42:10.000Z</time>
        <extensions>
          <ns3:TrackPointExtension>
            <ns3:hr>132</ns3:hr>
          </ns3:TrackPointExtension>
        </extensions>
      </trkpt>
      <trkpt lat="46.51214671321213245391845703125" lon="8.29701134003698825836181640625">
        <ele>1683</ele>
        <time>2015-09-08T11:42:42.000Z</time>
        <extensions>
          <ns3:TrackPointExtension>
            <ns3:hr>131</ns3:hr>
          </ns3:TrackPointExtension>
        </extensions>
      </trkpt>
      <trkpt lat="46.5124934725463390350341796875" lon="8.2976212911307811737060546875">
        <ele>1689.199951171875</ele>
        <time>2015-09-08T11:43:13.000Z</time>
        <extensions>
          <ns3:TrackPointExtension>
            <ns3:hr>131</ns3:hr>
          </ns3:TrackPointExtension>
        </extensions>
      </trkpt>
      <trkpt lat="46.51283972896635532379150390625" lon="8.298240713775157928466796875">
        <ele>1693.199951171875</ele>
        <time>2015-09-08T11:43:46.000Z</time>
        <extensions>
          <ns3:TrackPointExtension>
            <ns3:hr>132</ns3:hr>
          </ns3:TrackPointExtension>
        </extensions>
      </trkpt>
      <trkpt lat="46.5131891705095767974853515625" lon="8.29885636456310749053955078125">
        <ele>1696</ele>
        <time>2015-09-08T11:44:21.000Z</time>
        <extensions>
          <ns3:TrackPointExtension>
            <ns3:hr>132</ns3:hr>
          </ns3:TrackPointExtension>
        </extensions>
      </trkpt>
      <trkpt lat="46.5135397017002105712890625" lon="8.2994542457163333892822265625">
        <ele>1703.199951171875</ele>
        <time>2015-09-08T11:44:54.000Z</time>
        <extensions>
          <ns3:TrackPointExtension>
            <ns3:hr>133</ns3:hr>
          </ns3:TrackPointExtension>
        </extensions>
      </trkpt>
      <trkpt lat="46.51387807913124561309814453125" lon="8.2999353669583797454833984375">
        <ele>1711</ele>
        <time>2015-09-08T11:45:23.000Z</time>
        <extensions>
          <ns3:TrackPointExtension>
            <ns3:hr>132</ns3:hr>
          </ns3:TrackPointExtension>
        </extensions>
      </trkpt>
      <trkpt lat="46.51379090733826160430908203125" lon="8.29973327927291393280029296875">
        <ele>1713.199951171875</ele>
        <time>2015-09-08T11:45:35.000Z</time>
        <extensions>
          <ns3:TrackPointExtension>
            <ns3:hr>132</ns3:hr>
          </ns3:TrackPointExtension>
        </extensions>
      </trkpt>
      <trkpt lat="46.513615809381008148193359375" lon="8.29898980446159839630126953125">
        <ele>1717.4000244140625</ele>
        <time>2015-09-08T11:46:09.000Z</time>
        <extensions>
          <ns3:TrackPointExtension>
            <ns3:hr>132</ns3:hr>
          </ns3:TrackPointExtension>
        </extensions>
      </trkpt>
      <trkpt lat="46.51358731091022491455078125" lon="8.2989349029958248138427734375">
        <ele>1717.5999755859375</ele>
        <time>2015-09-08T11:46:12.000Z</time>
        <extensions>
          <ns3:TrackPointExtension>
            <ns3:hr>133</ns3:hr>
          </ns3:TrackPointExtension>
        </extensions>
      </trkpt>
      <trkpt lat="46.51338840834796428680419921875" lon="8.29819855280220508575439453125">
        <ele>1719.800048828125</ele>
        <time>2015-09-08T11:46:49.000Z</time>
        <extensions>
          <ns3:TrackPointExtension>
            <ns3:hr>134</ns3:hr>
          </ns3:TrackPointExtension>
        </extensions>
      </trkpt>
      <trkpt lat="46.51322387158870697021484375" lon="8.29745742492377758026123046875">
        <ele>1723</ele>
        <time>2015-09-08T11:47:26.000Z</time>
        <extensions>
          <ns3:TrackPointExtension>
            <ns3:hr>134</ns3:hr>
          </ns3:TrackPointExtension>
        </extensions>
      </trkpt>
      <trkpt lat="46.51303905062377452850341796875" lon="8.29692148603498935699462890625">
        <ele>1725.5999755859375</ele>
        <time>2015-09-08T11:47:54.000Z</time>
        <extensions>
          <ns3:TrackPointExtension>
            <ns3:hr>133</ns3:hr>
          </ns3:TrackPointExtension>
        </extensions>
      </trkpt>
      <trkpt lat="46.51302245445549488067626953125" lon="8.29682257957756519317626953125">
        <ele>1726.199951171875</ele>
        <time>2015-09-08T11:47:59.000Z</time>
        <extensions>
          <ns3:TrackPointExtension>
            <ns3:hr>133</ns3:hr>
          </ns3:TrackPointExtension>
        </extensions>
      </trkpt>
      <trkpt lat="46.513000912964344024658203125" lon="8.2966818474233150482177734375">
        <ele>1727.199951171875</ele>
        <time>2015-09-08T11:48:07.000Z</time>
        <extensions>
          <ns3:TrackPointExtension>
            <ns3:hr>133</ns3:hr>
          </ns3:TrackPointExtension>
        </extensions>
      </trkpt>
      <trkpt lat="46.51293327100574970245361328125" lon="8.29651932232081890106201171875">
        <ele>1729.199951171875</ele>
        <time>2015-09-08T11:48:15.000Z</time>
        <extensions>
          <ns3:TrackPointExtension>
            <ns3:hr>133</ns3:hr>
          </ns3:TrackPointExtension>
        </extensions>
      </trkpt>
      <trkpt lat="46.5127982385456562042236328125" lon="8.2960133068263530731201171875">
        <ele>1733.800048828125</ele>
        <time>2015-09-08T11:48:40.000Z</time>
        <extensions>
          <ns3:TrackPointExtension>
            <ns3:hr>133</ns3:hr>
          </ns3:TrackPointExtension>
        </extensions>
      </trkpt>
      <trkpt lat="46.5127281658351421356201171875" lon="8.295799903571605682373046875">
        <ele>1735.199951171875</ele>
        <time>2015-09-08T11:48:52.000Z</time>
        <extensions>
          <ns3:TrackPointExtension>
            <ns3:hr>133</ns3:hr>
          </ns3:TrackPointExtension>
        </extensions>
      </trkpt>
      <trkpt lat="46.51270310394465923309326171875" lon="8.2957035116851329803466796875">
        <ele>1735.800048828125</ele>
        <time>2015-09-08T11:48:57.000Z</time>
        <extensions>
          <ns3:TrackPointExtension>
            <ns3:hr>133</ns3:hr>
          </ns3:TrackPointExtension>
        </extensions>
      </trkpt>
      <trkpt lat="46.51256044395267963409423828125" lon="8.295200765132904052734375">
        <ele>1739</ele>
        <time>2015-09-08T11:49:22.000Z</time>
        <extensions>
          <ns3:TrackPointExtension>
            <ns3:hr>134</ns3:hr>
          </ns3:TrackPointExtension>
        </extensions>
      </trkpt>
      <trkpt lat="46.51251333765685558319091796875" lon="8.295091800391674041748046875">
        <ele>1739.800048828125</ele>
        <time>2015-09-08T11:49:28.000Z</time>
        <extensions>
          <ns3:TrackPointExtension>
            <ns3:hr>134</ns3:hr>
          </ns3:TrackPointExtension>
        </extensions>
      </trkpt>
      <trkpt lat="46.5123553387820720672607421875" lon="8.29433332197368144989013671875">
        <ele>1752.5999755859375</ele>
        <time>2015-09-08T11:50:05.000Z</time>
        <extensions>
          <ns3:TrackPointExtension>
            <ns3:hr>135</ns3:hr>
          </ns3:TrackPointExtension>
        </extensions>
      </trkpt>
      <trkpt lat="46.51234276592731475830078125" lon="8.2942718826234340667724609375">
        <ele>1753.4000244140625</ele>
        <time>2015-09-08T11:50:08.000Z</time>
        <extensions>
          <ns3:TrackPointExtension>
            <ns3:hr>135</ns3:hr>
          </ns3:TrackPointExtension>
        </extensions>
      </trkpt>
      <trkpt lat="46.5122788958251476287841796875" lon="8.29389385879039764404296875">
        <ele>1758</ele>
        <time>2015-09-08T11:50:28.000Z</time>
        <extensions>
          <ns3:TrackPointExtension>
            <ns3:hr>136</ns3:hr>
          </ns3:TrackPointExtension>
        </extensions>
      </trkpt>
      <trkpt lat="46.51226255111396312713623046875" lon="8.29372177831828594207763671875">
        <ele>1760.199951171875</ele>
        <time>2015-09-08T11:50:37.000Z</time>
        <extensions>
          <ns3:TrackPointExtension>
            <ns3:hr>136</ns3:hr>
          </ns3:TrackPointExtension>
        </extensions>
      </trkpt>
      <trkpt lat="46.51214788667857646942138671875" lon="8.2929569296538829803466796875">
        <ele>1767.5999755859375</ele>
        <time>2015-09-08T11:51:16.000Z</time>
        <extensions>
          <ns3:TrackPointExtension>
            <ns3:hr>136</ns3:hr>
          </ns3:TrackPointExtension>
        </extensions>
      </trkpt>
      <trkpt lat="46.51211821474134922027587890625" lon="8.29284016974270343780517578125">
        <ele>1769.199951171875</ele>
        <time>2015-09-08T11:51:23.000Z</time>
        <extensions>
          <ns3:TrackPointExtension>
            <ns3:hr>136</ns3:hr>
          </ns3:TrackPointExtension>
        </extensions>
      </trkpt>
      <trkpt lat="46.51211502961814403533935546875" lon="8.2927158661186695098876953125">
        <ele>1770.800048828125</ele>
        <time>2015-09-08T11:51:29.000Z</time>
        <extensions>
          <ns3:TrackPointExtension>
            <ns3:hr>136</ns3:hr>
          </ns3:TrackPointExtension>
        </extensions>
      </trkpt>
      <trkpt lat="46.51199298910796642303466796875" lon="8.29194531776010990142822265625">
        <ele>1780.5999755859375</ele>
        <time>2015-09-08T11:52:11.000Z</time>
        <extensions>
          <ns3:TrackPointExtension>
            <ns3:hr>136</ns3:hr>
          </ns3:TrackPointExtension>
        </extensions>
      </trkpt>
      <trkpt lat="46.5118319727480411529541015625" lon="8.2911853305995464324951171875">
        <ele>1793.800048828125</ele>
        <time>2015-09-08T11:52:50.000Z</time>
        <extensions>
          <ns3:TrackPointExtension>
            <ns3:hr>136</ns3:hr>
          </ns3:TrackPointExtension>
        </extensions>
      </trkpt>
      <trkpt lat="46.5118192322552204132080078125" lon="8.29112942330539226531982421875">
        <ele>1794.800048828125</ele>
        <time>2015-09-08T11:52:53.000Z</time>
        <extensions>
          <ns3:TrackPointExtension>
            <ns3:hr>136</ns3:hr>
          </ns3:TrackPointExtension>
        </extensions>
      </trkpt>
      <trkpt lat="46.5117920748889446258544921875" lon="8.29090579412877559661865234375">
        <ele>1798</ele>
        <time>2015-09-08T11:53:04.000Z</time>
        <extensions>
          <ns3:TrackPointExtension>
            <ns3:hr>137</ns3:hr>
          </ns3:TrackPointExtension>
        </extensions>
      </trkpt>
      <trkpt lat="46.5117873810231685638427734375" lon="8.29072809778153896331787109375">
        <ele>1799.800048828125</ele>
        <time>2015-09-08T11:53:12.000Z</time>
        <extensions>
          <ns3:TrackPointExtension>
            <ns3:hr>137</ns3:hr>
          </ns3:TrackPointExtension>
        </extensions>
      </trkpt>
      <trkpt lat="46.51179425418376922607421875" lon="8.29061058349907398223876953125">
        <ele>1801.5999755859375</ele>
        <time>2015-09-08T11:53:18.000Z</time>
        <extensions>
          <ns3:TrackPointExtension>
            <ns3:hr>137</ns3:hr>
          </ns3:TrackPointExtension>
        </extensions>
      </trkpt>
      <trkpt lat="46.51179634965956211090087890625" lon="8.29033917747437953948974609375">
        <ele>1805.5999755859375</ele>
        <time>2015-09-08T11:53:33.000Z</time>
        <extensions>
          <ns3:TrackPointExtension>
            <ns3:hr>138</ns3:hr>
          </ns3:TrackPointExtension>
        </extensions>
      </trkpt>
      <trkpt lat="46.5117823518812656402587890625" lon="8.29022417776286602020263671875">
        <ele>1807.199951171875</ele>
        <time>2015-09-08T11:53:39.000Z</time>
        <extensions>
          <ns3:TrackPointExtension>
            <ns3:hr>138</ns3:hr>
          </ns3:TrackPointExtension>
        </extensions>
      </trkpt>
      <trkpt lat="46.5117763169109821319580078125" lon="8.2901888899505138397216796875">
        <ele>1807.800048828125</ele>
        <time>2015-09-08T11:53:41.000Z</time>
        <extensions>
          <ns3:TrackPointExtension>
            <ns3:hr>138</ns3:hr>
          </ns3:TrackPointExtension>
        </extensions>
      </trkpt>
      <trkpt lat="46.51185586117208003997802734375" lon="8.29029073007404804229736328125">
        <ele>1812.5999755859375</ele>
        <time>2015-09-08T11:53:58.000Z</time>
        <extensions>
          <ns3:TrackPointExtension>
            <ns3:hr>138</ns3:hr>
          </ns3:TrackPointExtension>
        </extensions>
      </trkpt>
      <trkpt lat="46.5119169652462005615234375" lon="8.290469683706760406494140625">
        <ele>1814.199951171875</ele>
        <time>2015-09-08T11:54:11.000Z</time>
        <extensions>
          <ns3:TrackPointExtension>
            <ns3:hr>135</ns3:hr>
          </ns3:TrackPointExtension>
        </extensions>
      </trkpt>
      <trkpt lat="46.512043364346027374267578125" lon="8.29091903753578662872314453125">
        <ele>1815.199951171875</ele>
        <time>2015-09-08T11:54:35.000Z</time>
        <extensions>
          <ns3:TrackPointExtension>
            <ns3:hr>134</ns3:hr>
          </ns3:TrackPointExtension>
        </extensions>
      </trkpt>
      <trkpt lat="46.512089632451534271240234375" lon="8.29099816270172595977783203125">
        <ele>1816.199951171875</ele>
        <time>2015-09-08T11:54:40.000Z</time>
        <extensions>
          <ns3:TrackPointExtension>
            <ns3:hr>134</ns3:hr>
          </ns3:TrackPointExtension>
        </extensions>
      </trkpt>
      <trkpt lat="46.5121690928936004638671875" lon="8.291150964796543121337890625">
        <ele>1818</ele>
        <time>2015-09-08T11:54:50.000Z</time>
        <extensions>
          <ns3:TrackPointExtension>
            <ns3:hr>133</ns3:hr>
          </ns3:TrackPointExtension>
        </extensions>
      </trkpt>
      <trkpt lat="46.5122051350772380828857421875" lon="8.2912379689514636993408203125">
        <ele>1818.800048828125</ele>
        <time>2015-09-08T11:54:55.000Z</time>
        <extensions>
          <ns3:TrackPointExtension>
            <ns3:hr>134</ns3:hr>
          </ns3:TrackPointExtension>
        </extensions>
      </trkpt>
      <trkpt lat="46.5122252516448497772216796875" lon="8.29126906581223011016845703125">
        <ele>1819</ele>
        <time>2015-09-08T11:54:57.000Z</time>
        <extensions>
          <ns3:TrackPointExtension>
            <ns3:hr>134</ns3:hr>
          </ns3:TrackPointExtension>
        </extensions>
      </trkpt>
      <trkpt lat="46.512363888323307037353515625" lon="8.2916121371090412139892578125">
        <ele>1822.5999755859375</ele>
        <time>2015-09-08T11:55:16.000Z</time>
        <extensions>
          <ns3:TrackPointExtension>
            <ns3:hr>136</ns3:hr>
          </ns3:TrackPointExtension>
        </extensions>
      </trkpt>
      <trkpt lat="46.51240303181111812591552734375" lon="8.29171967692673206329345703125">
        <ele>1823.800048828125</ele>
        <time>2015-09-08T11:55:22.000Z</time>
        <extensions>
          <ns3:TrackPointExtension>
            <ns3:hr>136</ns3:hr>
          </ns3:TrackPointExtension>
        </extensions>
      </trkpt>
      <trkpt lat="46.51247360743582248687744140625" lon="8.291873820126056671142578125">
        <ele>1825.800048828125</ele>
        <time>2015-09-08T11:55:31.000Z</time>
        <extensions>
          <ns3:TrackPointExtension>
            <ns3:hr>137</ns3:hr>
          </ns3:TrackPointExtension>
        </extensions>
      </trkpt>
      <trkpt lat="46.51251719333231449127197265625" lon="8.2919531129300594329833984375">
        <ele>1827.5999755859375</ele>
        <time>2015-09-08T11:55:37.000Z</time>
        <extensions>
          <ns3:TrackPointExtension>
            <ns3:hr>137</ns3:hr>
          </ns3:TrackPointExtension>
        </extensions>
      </trkpt>
      <trkpt lat="46.51272070594131946563720703125" lon="8.29244303517043590545654296875">
        <ele>1836.199951171875</ele>
        <time>2015-09-08T11:56:04.000Z</time>
        <extensions>
          <ns3:TrackPointExtension>
            <ns3:hr>139</ns3:hr>
          </ns3:TrackPointExtension>
        </extensions>
      </trkpt>
      <trkpt lat="46.51273109950125217437744140625" lon="8.2924635708332061767578125">
        <ele>1836.800048828125</ele>
        <time>2015-09-08T11:56:06.000Z</time>
        <extensions>
          <ns3:TrackPointExtension>
            <ns3:hr>139</ns3:hr>
          </ns3:TrackPointExtension>
        </extensions>
      </trkpt>
      <trkpt lat="46.51302798651158809661865234375" lon="8.293119035661220550537109375">
        <ele>1849.4000244140625</ele>
        <time>2015-09-08T11:56:47.000Z</time>
        <extensions>
          <ns3:TrackPointExtension>
            <ns3:hr>139</ns3:hr>
          </ns3:TrackPointExtension>
        </extensions>
      </trkpt>
      <trkpt lat="46.51326008141040802001953125" lon="8.29383627511560916900634765625">
        <ele>1860.5999755859375</ele>
        <time>2015-09-08T11:57:27.000Z</time>
        <extensions>
          <ns3:TrackPointExtension>
            <ns3:hr>140</ns3:hr>
          </ns3:TrackPointExtension>
        </extensions>
      </trkpt>
      <trkpt lat="46.513345576822757720947265625" lon="8.2940056733787059783935546875">
        <ele>1863</ele>
        <time>2015-09-08T11:57:38.000Z</time>
        <extensions>
          <ns3:TrackPointExtension>
            <ns3:hr>138</ns3:hr>
          </ns3:TrackPointExtension>
        </extensions>
      </trkpt>
      <trkpt lat="46.51337197981774806976318359375" lon="8.2940834574401378631591796875">
        <ele>1864.4000244140625</ele>
        <time>2015-09-08T11:57:43.000Z</time>
        <extensions>
          <ns3:TrackPointExtension>
            <ns3:hr>138</ns3:hr>
          </ns3:TrackPointExtension>
        </extensions>
      </trkpt>
      <trkpt lat="46.51362896896898746490478515625" lon="8.294651918113231658935546875">
        <ele>1873.199951171875</ele>
        <time>2015-09-08T11:58:17.000Z</time>
        <extensions>
          <ns3:TrackPointExtension>
            <ns3:hr>138</ns3:hr>
          </ns3:TrackPointExtension>
        </extensions>
      </trkpt>
      <trkpt lat="46.51366568170487880706787109375" lon="8.29471302218735218048095703125">
        <ele>1874</ele>
        <time>2015-09-08T11:58:21.000Z</time>
        <extensions>
          <ns3:TrackPointExtension>
            <ns3:hr>138</ns3:hr>
          </ns3:TrackPointExtension>
        </extensions>
      </trkpt>
      <trkpt lat="46.513771377503871917724609375" lon="8.2949246652424335479736328125">
        <ele>1876.5999755859375</ele>
        <time>2015-09-08T11:58:34.000Z</time>
        <extensions>
          <ns3:TrackPointExtension>
            <ns3:hr>138</ns3:hr>
          </ns3:TrackPointExtension>
        </extensions>
      </trkpt>
      <trkpt lat="46.5140337310731410980224609375" lon="8.29529372043907642364501953125">
        <ele>1882.800048828125</ele>
        <time>2015-09-08T11:59:01.000Z</time>
        <extensions>
          <ns3:TrackPointExtension>
            <ns3:hr>138</ns3:hr>
          </ns3:TrackPointExtension>
        </extensions>
      </trkpt>
      <trkpt lat="46.514112688601016998291015625" lon="8.29554517753422260284423828125">
        <ele>1886</ele>
        <time>2015-09-08T11:59:15.000Z</time>
        <extensions>
          <ns3:TrackPointExtension>
            <ns3:hr>136</ns3:hr>
          </ns3:TrackPointExtension>
        </extensions>
      </trkpt>
      <trkpt lat="46.5141735412180423736572265625" lon="8.295639641582965850830078125">
        <ele>1886.199951171875</ele>
        <time>2015-09-08T11:59:22.000Z</time>
        <extensions>
          <ns3:TrackPointExtension>
            <ns3:hr>135</ns3:hr>
          </ns3:TrackPointExtension>
        </extensions>
      </trkpt>
      <trkpt lat="46.5142650716006755828857421875" lon="8.29579495824873447418212890625">
        <ele>1885.800048828125</ele>
        <time>2015-09-08T11:59:31.000Z</time>
        <extensions>
          <ns3:TrackPointExtension>
            <ns3:hr>135</ns3:hr>
          </ns3:TrackPointExtension>
        </extensions>
      </trkpt>
      <trkpt lat="46.51435567997395992279052734375" lon="8.29596561379730701446533203125">
        <ele>1884.800048828125</ele>
        <time>2015-09-08T11:59:41.000Z</time>
        <extensions>
          <ns3:TrackPointExtension>
            <ns3:hr>136</ns3:hr>
          </ns3:TrackPointExtension>
        </extensions>
      </trkpt>
      <trkpt lat="46.51439960114657878875732421875" lon="8.29602344892919063568115234375">
        <ele>1884.4000244140625</ele>
        <time>2015-09-08T11:59:45.000Z</time>
        <extensions>
          <ns3:TrackPointExtension>
            <ns3:hr>136</ns3:hr>
          </ns3:TrackPointExtension>
        </extensions>
      </trkpt>
      <trkpt lat="46.51445140130817890167236328125" lon="8.29608027823269367218017578125">
        <ele>1884.4000244140625</ele>
        <time>2015-09-08T11:59:50.000Z</time>
        <extensions>
          <ns3:TrackPointExtension>
            <ns3:hr>136</ns3:hr>
          </ns3:TrackPointExtension>
        </extensions>
      </trkpt>
      <trkpt lat="46.51487301103770732879638671875" lon="8.29656936228275299072265625">
        <ele>1883.4000244140625</ele>
        <time>2015-09-08T12:00:30.000Z</time>
        <extensions>
          <ns3:TrackPointExtension>
            <ns3:hr>138</ns3:hr>
          </ns3:TrackPointExtension>
        </extensions>
      </trkpt>
      <trkpt lat="46.51519127190113067626953125" lon="8.29692970030009746551513671875">
        <ele>1888.4000244140625</ele>
        <time>2015-09-08T12:01:00.000Z</time>
        <extensions>
          <ns3:TrackPointExtension>
            <ns3:hr>138</ns3:hr>
          </ns3:TrackPointExtension>
        </extensions>
      </trkpt>
      <trkpt lat="46.51525891385972499847412109375" lon="8.29697345383465290069580078125">
        <ele>1889.5999755859375</ele>
        <time>2015-09-08T12:01:06.000Z</time>
        <extensions>
          <ns3:TrackPointExtension>
            <ns3:hr>138</ns3:hr>
          </ns3:TrackPointExtension>
        </extensions>
      </trkpt>
      <trkpt lat="46.51527106761932373046875" lon="8.29697144217789173126220703125">
        <ele>1889.5999755859375</ele>
        <time>2015-09-08T12:01:07.000Z</time>
        <extensions>
          <ns3:TrackPointExtension>
            <ns3:hr>138</ns3:hr>
          </ns3:TrackPointExtension>
        </extensions>
      </trkpt>
      <trkpt lat="46.51526813395321369171142578125" lon="8.2969168759882450103759765625">
        <ele>1890.4000244140625</ele>
        <time>2015-09-08T12:01:12.000Z</time>
        <extensions>
          <ns3:TrackPointExtension>
            <ns3:hr>138</ns3:hr>
          </ns3:TrackPointExtension>
        </extensions>
      </trkpt>
      <trkpt lat="46.51505037210881710052490234375" lon="8.29652644693851470947265625">
        <ele>1893.800048828125</ele>
        <time>2015-09-08T12:01:40.000Z</time>
        <extensions>
          <ns3:TrackPointExtension>
            <ns3:hr>135</ns3:hr>
          </ns3:TrackPointExtension>
        </extensions>
      </trkpt>
      <trkpt lat="46.514888517558574676513671875" lon="8.2960994727909564971923828125">
        <ele>1896.800048828125</ele>
        <time>2015-09-08T12:02:03.000Z</time>
        <extensions>
          <ns3:TrackPointExtension>
            <ns3:hr>135</ns3:hr>
          </ns3:TrackPointExtension>
        </extensions>
      </trkpt>
      <trkpt lat="46.51460629887878894805908203125" lon="8.29542732797563076019287109375">
        <ele>1905</ele>
        <time>2015-09-08T12:02:45.000Z</time>
        <extensions>
          <ns3:TrackPointExtension>
            <ns3:hr>136</ns3:hr>
          </ns3:TrackPointExtension>
        </extensions>
      </trkpt>
      <trkpt lat="46.5145161934196949005126953125" lon="8.29520353116095066070556640625">
        <ele>1907.4000244140625</ele>
        <time>2015-09-08T12:02:58.000Z</time>
        <extensions>
          <ns3:TrackPointExtension>
            <ns3:hr>138</ns3:hr>
          </ns3:TrackPointExtension>
        </extensions>
      </trkpt>
      <trkpt lat="46.5144729427993297576904296875" lon="8.2951080612838268280029296875">
        <ele>1908.4000244140625</ele>
        <time>2015-09-08T12:03:04.000Z</time>
        <extensions>
          <ns3:TrackPointExtension>
            <ns3:hr>138</ns3:hr>
          </ns3:TrackPointExtension>
        </extensions>
      </trkpt>
      <trkpt lat="46.5143773891031742095947265625" lon="8.2948453724384307861328125">
        <ele>1911.4000244140625</ele>
        <time>2015-09-08T12:03:19.000Z</time>
        <extensions>
          <ns3:TrackPointExtension>
            <ns3:hr>139</ns3:hr>
          </ns3:TrackPointExtension>
        </extensions>
      </trkpt>
      <trkpt lat="46.5143291093409061431884765625" lon="8.29473800025880336761474609375">
        <ele>1912.4000244140625</ele>
        <time>2015-09-08T12:03:25.000Z</time>
        <extensions>
          <ns3:TrackPointExtension>
            <ns3:hr>139</ns3:hr>
          </ns3:TrackPointExtension>
        </extensions>
      </trkpt>
      <trkpt lat="46.51430974714457988739013671875" lon="8.2946939952671527862548828125">
        <ele>1912.5999755859375</ele>
        <time>2015-09-08T12:03:28.000Z</time>
        <extensions>
          <ns3:TrackPointExtension>
            <ns3:hr>138</ns3:hr>
          </ns3:TrackPointExtension>
        </extensions>
      </trkpt>
      <trkpt lat="46.5142861939966678619384765625" lon="8.2946229167282581329345703125">
        <ele>1913</ele>
        <time>2015-09-08T12:03:32.000Z</time>
        <extensions>
          <ns3:TrackPointExtension>
            <ns3:hr>139</ns3:hr>
          </ns3:TrackPointExtension>
        </extensions>
      </trkpt>
      <trkpt lat="46.5142570249736309051513671875" lon="8.294457457959651947021484375">
        <ele>1914.199951171875</ele>
        <time>2015-09-08T12:03:41.000Z</time>
        <extensions>
          <ns3:TrackPointExtension>
            <ns3:hr>138</ns3:hr>
          </ns3:TrackPointExtension>
        </extensions>
      </trkpt>
      <trkpt lat="46.51415585540235042572021484375" lon="8.29390131868422031402587890625">
        <ele>1919</ele>
        <time>2015-09-08T12:04:11.000Z</time>
        <extensions>
          <ns3:TrackPointExtension>
            <ns3:hr>139</ns3:hr>
          </ns3:TrackPointExtension>
        </extensions>
      </trkpt>
      <trkpt lat="46.5141369961202144622802734375" lon="8.293791599571704864501953125">
        <ele>1920.4000244140625</ele>
        <time>2015-09-08T12:04:17.000Z</time>
        <extensions>
          <ns3:TrackPointExtension>
            <ns3:hr>140</ns3:hr>
          </ns3:TrackPointExtension>
        </extensions>
      </trkpt>
      <trkpt lat="46.514096595346927642822265625" lon="8.2935795374214649200439453125">
        <ele>1923</ele>
        <time>2015-09-08T12:04:28.000Z</time>
        <extensions>
          <ns3:TrackPointExtension>
            <ns3:hr>138</ns3:hr>
          </ns3:TrackPointExtension>
        </extensions>
      </trkpt>
      <trkpt lat="46.5140555240213871002197265625" lon="8.29340108670294284820556640625">
        <ele>1925.5999755859375</ele>
        <time>2015-09-08T12:04:38.000Z</time>
        <extensions>
          <ns3:TrackPointExtension>
            <ns3:hr>138</ns3:hr>
          </ns3:TrackPointExtension>
        </extensions>
      </trkpt>
      <trkpt lat="46.51402224786579608917236328125" lon="8.2932331971824169158935546875">
        <ele>1927.199951171875</ele>
        <time>2015-09-08T12:04:47.000Z</time>
        <extensions>
          <ns3:TrackPointExtension>
            <ns3:hr>138</ns3:hr>
          </ns3:TrackPointExtension>
        </extensions>
      </trkpt>
      <trkpt lat="46.51394672691822052001953125" lon="8.29293320886790752410888671875">
        <ele>1930.5999755859375</ele>
        <time>2015-09-08T12:05:07.000Z</time>
        <extensions>
          <ns3:TrackPointExtension>
            <ns3:hr>137</ns3:hr>
          </ns3:TrackPointExtension>
        </extensions>
      </trkpt>
      <trkpt lat="46.51387103833258152008056640625" lon="8.292510174214839935302734375">
        <ele>1936</ele>
        <time>2015-09-08T12:05:31.000Z</time>
        <extensions>
          <ns3:TrackPointExtension>
            <ns3:hr>137</ns3:hr>
          </ns3:TrackPointExtension>
        </extensions>
      </trkpt>
      <trkpt lat="46.5138567052781581878662109375" lon="8.29241151921451091766357421875">
        <ele>1937.4000244140625</ele>
        <time>2015-09-08T12:05:37.000Z</time>
        <extensions>
          <ns3:TrackPointExtension>
            <ns3:hr>137</ns3:hr>
          </ns3:TrackPointExtension>
        </extensions>
      </trkpt>
      <trkpt lat="46.51385813020169734954833984375" lon="8.292368352413177490234375">
        <ele>1938.4000244140625</ele>
        <time>2015-09-08T12:05:40.000Z</time>
        <extensions>
          <ns3:TrackPointExtension>
            <ns3:hr>136</ns3:hr>
          </ns3:TrackPointExtension>
        </extensions>
      </trkpt>
      <trkpt lat="46.51384371332824230194091796875" lon="8.292228542268276214599609375">
        <ele>1940</ele>
        <time>2015-09-08T12:05:47.000Z</time>
        <extensions>
          <ns3:TrackPointExtension>
            <ns3:hr>136</ns3:hr>
          </ns3:TrackPointExtension>
        </extensions>
      </trkpt>
      <trkpt lat="46.51379895396530628204345703125" lon="8.29187281429767608642578125">
        <ele>1944.5999755859375</ele>
        <time>2015-09-08T12:06:05.000Z</time>
        <extensions>
          <ns3:TrackPointExtension>
            <ns3:hr>134</ns3:hr>
          </ns3:TrackPointExtension>
        </extensions>
      </trkpt>
      <trkpt lat="46.5137883089482784271240234375" lon="8.29177265055477619171142578125">
        <ele>1946.199951171875</ele>
        <time>2015-09-08T12:06:11.000Z</time>
        <extensions>
          <ns3:TrackPointExtension>
            <ns3:hr>135</ns3:hr>
          </ns3:TrackPointExtension>
        </extensions>
      </trkpt>
      <trkpt lat="46.51376710273325443267822265625" lon="8.2916454970836639404296875">
        <ele>1948.199951171875</ele>
        <time>2015-09-08T12:06:18.000Z</time>
        <extensions>
          <ns3:TrackPointExtension>
            <ns3:hr>135</ns3:hr>
          </ns3:TrackPointExtension>
        </extensions>
      </trkpt>
      <trkpt lat="46.51371463201940059661865234375" lon="8.29133645631372928619384765625">
        <ele>1954.4000244140625</ele>
        <time>2015-09-08T12:06:37.000Z</time>
        <extensions>
          <ns3:TrackPointExtension>
            <ns3:hr>136</ns3:hr>
          </ns3:TrackPointExtension>
        </extensions>
      </trkpt>
      <trkpt lat="46.5137065015733242034912109375" lon="8.29121793620288372039794921875">
        <ele>1956.4000244140625</ele>
        <time>2015-09-08T12:06:43.000Z</time>
        <extensions>
          <ns3:TrackPointExtension>
            <ns3:hr>136</ns3:hr>
          </ns3:TrackPointExtension>
        </extensions>
      </trkpt>
      <trkpt lat="46.51369728147983551025390625" lon="8.291127495467662811279296875">
        <ele>1957.800048828125</ele>
        <time>2015-09-08T12:06:48.000Z</time>
        <extensions>
          <ns3:TrackPointExtension>
            <ns3:hr>136</ns3:hr>
          </ns3:TrackPointExtension>
        </extensions>
      </trkpt>
      <trkpt lat="46.51366048492491245269775390625" lon="8.2905721105635166168212890625">
        <ele>1965.4000244140625</ele>
        <time>2015-09-08T12:07:19.000Z</time>
        <extensions>
          <ns3:TrackPointExtension>
            <ns3:hr>134</ns3:hr>
          </ns3:TrackPointExtension>
        </extensions>
      </trkpt>
      <trkpt lat="46.51365377940237522125244140625" lon="8.29048301093280315399169921875">
        <ele>1966.800048828125</ele>
        <time>2015-09-08T12:07:24.000Z</time>
        <extensions>
          <ns3:TrackPointExtension>
            <ns3:hr>135</ns3:hr>
          </ns3:TrackPointExtension>
        </extensions>
      </trkpt>
      <trkpt lat="46.51366417296230792999267578125" lon="8.290237002074718475341796875">
        <ele>1971.199951171875</ele>
        <time>2015-09-08T12:07:38.000Z</time>
        <extensions>
          <ns3:TrackPointExtension>
            <ns3:hr>135</ns3:hr>
          </ns3:TrackPointExtension>
        </extensions>
      </trkpt>
      <trkpt lat="46.513694934546947479248046875" lon="8.290057294070720672607421875">
        <ele>1975.5999755859375</ele>
        <time>2015-09-08T12:07:50.000Z</time>
        <extensions>
          <ns3:TrackPointExtension>
            <ns3:hr>134</ns3:hr>
          </ns3:TrackPointExtension>
        </extensions>
      </trkpt>
      <trkpt lat="46.51381990872323513031005859375" lon="8.2893101312220096588134765625">
        <ele>1985.4000244140625</ele>
        <time>2015-09-08T12:08:34.000Z</time>
        <extensions>
          <ns3:TrackPointExtension>
            <ns3:hr>134</ns3:hr>
          </ns3:TrackPointExtension>
        </extensions>
      </trkpt>
      <trkpt lat="46.51382527314126491546630859375" lon="8.2894167490303516387939453125">
        <ele>1986.4000244140625</ele>
        <time>2015-09-08T12:08:41.000Z</time>
        <extensions>
          <ns3:TrackPointExtension>
            <ns3:hr>135</ns3:hr>
          </ns3:TrackPointExtension>
        </extensions>
      </trkpt>
      <trkpt lat="46.51385025121271610260009765625" lon="8.28974724747240543365478515625">
        <ele>1988.800048828125</ele>
        <time>2015-09-08T12:09:01.000Z</time>
        <extensions>
          <ns3:TrackPointExtension>
            <ns3:hr>134</ns3:hr>
          </ns3:TrackPointExtension>
        </extensions>
      </trkpt>
      <trkpt lat="46.5139425359666347503662109375" lon="8.29052726738154888153076171875">
        <ele>1993.5999755859375</ele>
        <time>2015-09-08T12:09:44.000Z</time>
        <extensions>
          <ns3:TrackPointExtension>
            <ns3:hr>134</ns3:hr>
          </ns3:TrackPointExtension>
        </extensions>
      </trkpt>
      <trkpt lat="46.51396910659968852996826171875" lon="8.29064662568271160125732421875">
        <ele>1994.4000244140625</ele>
        <time>2015-09-08T12:09:52.000Z</time>
        <extensions>
          <ns3:TrackPointExtension>
            <ns3:hr>135</ns3:hr>
          </ns3:TrackPointExtension>
        </extensions>
      </trkpt>
      <trkpt lat="46.51404320262372493743896484375" lon="8.29105281271040439605712890625">
        <ele>1996.5999755859375</ele>
        <time>2015-09-08T12:10:16.000Z</time>
        <extensions>
          <ns3:TrackPointExtension>
            <ns3:hr>138</ns3:hr>
          </ns3:TrackPointExtension>
        </extensions>
      </trkpt>
      <trkpt lat="46.51404940523207187652587890625" lon="8.2910666428506374359130859375">
        <ele>1997</ele>
        <time>2015-09-08T12:10:17.000Z</time>
        <extensions>
          <ns3:TrackPointExtension>
            <ns3:hr>138</ns3:hr>
          </ns3:TrackPointExtension>
        </extensions>
      </trkpt>
      <trkpt lat="46.5140742994844913482666015625" lon="8.2911450974643230438232421875">
        <ele>1997.800048828125</ele>
        <time>2015-09-08T12:10:21.000Z</time>
        <extensions>
          <ns3:TrackPointExtension>
            <ns3:hr>138</ns3:hr>
          </ns3:TrackPointExtension>
        </extensions>
      </trkpt>
      <trkpt lat="46.51412148959934711456298828125" lon="8.29128331504762172698974609375">
        <ele>1998.5999755859375</ele>
        <time>2015-09-08T12:10:29.000Z</time>
        <extensions>
          <ns3:TrackPointExtension>
            <ns3:hr>139</ns3:hr>
          </ns3:TrackPointExtension>
        </extensions>
      </trkpt>
      <trkpt lat="46.51438401080667972564697265625" lon="8.29196878708899021148681640625">
        <ele>2005</ele>
        <time>2015-09-08T12:11:14.000Z</time>
        <extensions>
          <ns3:TrackPointExtension>
            <ns3:hr>138</ns3:hr>
          </ns3:TrackPointExtension>
        </extensions>
      </trkpt>
      <trkpt lat="46.51441502384841442108154296875" lon="8.29204455949366092681884765625">
        <ele>2005.5999755859375</ele>
        <time>2015-09-08T12:11:19.000Z</time>
        <extensions>
          <ns3:TrackPointExtension>
            <ns3:hr>137</ns3:hr>
          </ns3:TrackPointExtension>
        </extensions>
      </trkpt>
      <trkpt lat="46.51446062140166759490966796875" lon="8.29213164746761322021484375">
        <ele>2006.800048828125</ele>
        <time>2015-09-08T12:11:26.000Z</time>
        <extensions>
          <ns3:TrackPointExtension>
            <ns3:hr>136</ns3:hr>
          </ns3:TrackPointExtension>
        </extensions>
      </trkpt>
      <trkpt lat="46.5145114995539188385009765625" lon="8.29225896857678890228271484375">
        <ele>2008.4000244140625</ele>
        <time>2015-09-08T12:11:35.000Z</time>
        <extensions>
          <ns3:TrackPointExtension>
            <ns3:hr>135</ns3:hr>
          </ns3:TrackPointExtension>
        </extensions>
      </trkpt>
      <trkpt lat="46.514545865356922149658203125" lon="8.29234178178012371063232421875">
        <ele>2009.4000244140625</ele>
        <time>2015-09-08T12:11:40.000Z</time>
        <extensions>
          <ns3:TrackPointExtension>
            <ns3:hr>135</ns3:hr>
          </ns3:TrackPointExtension>
        </extensions>
      </trkpt>
      <trkpt lat="46.514624319970607757568359375" lon="8.292502798140048980712890625">
        <ele>2010.5999755859375</ele>
        <time>2015-09-08T12:11:51.000Z</time>
        <extensions>
          <ns3:TrackPointExtension>
            <ns3:hr>135</ns3:hr>
          </ns3:TrackPointExtension>
        </extensions>
      </trkpt>
      <trkpt lat="46.5146541595458984375" lon="8.2925727032124996185302734375">
        <ele>2011.199951171875</ele>
        <time>2015-09-08T12:11:56.000Z</time>
        <extensions>
          <ns3:TrackPointExtension>
            <ns3:hr>135</ns3:hr>
          </ns3:TrackPointExtension>
        </extensions>
      </trkpt>
      <trkpt lat="46.514683328568935394287109375" lon="8.29264017753303050994873046875">
        <ele>2011.5999755859375</ele>
        <time>2015-09-08T12:12:00.000Z</time>
        <extensions>
          <ns3:TrackPointExtension>
            <ns3:hr>134</ns3:hr>
          </ns3:TrackPointExtension>
        </extensions>
      </trkpt>
      <trkpt lat="46.5150122344493865966796875" lon="8.29327468760311603546142578125">
        <ele>2018.5999755859375</ele>
        <time>2015-09-08T12:12:43.000Z</time>
        <extensions>
          <ns3:TrackPointExtension>
            <ns3:hr>134</ns3:hr>
          </ns3:TrackPointExtension>
        </extensions>
      </trkpt>
      <trkpt lat="46.5152853168547153472900390625" lon="8.2937511987984180450439453125">
        <ele>2022.199951171875</ele>
        <time>2015-09-08T12:13:16.000Z</time>
        <extensions>
          <ns3:TrackPointExtension>
            <ns3:hr>131</ns3:hr>
          </ns3:TrackPointExtension>
        </extensions>
      </trkpt>
      <trkpt lat="46.51539235375821590423583984375" lon="8.2939361035823822021484375">
        <ele>2022</ele>
        <time>2015-09-08T12:13:28.000Z</time>
        <extensions>
          <ns3:TrackPointExtension>
            <ns3:hr>133</ns3:hr>
          </ns3:TrackPointExtension>
        </extensions>
      </trkpt>
      <trkpt lat="46.51543476618826389312744140625" lon="8.29400290735065937042236328125">
        <ele>2021.5999755859375</ele>
        <time>2015-09-08T12:13:33.000Z</time>
        <extensions>
          <ns3:TrackPointExtension>
            <ns3:hr>134</ns3:hr>
          </ns3:TrackPointExtension>
        </extensions>
      </trkpt>
      <trkpt lat="46.515485309064388275146484375" lon="8.29405822791159152984619140625">
        <ele>2020.800048828125</ele>
        <time>2015-09-08T12:13:38.000Z</time>
        <extensions>
          <ns3:TrackPointExtension>
            <ns3:hr>134</ns3:hr>
          </ns3:TrackPointExtension>
        </extensions>
      </trkpt>
      <trkpt lat="46.515626125037670135498046875" lon="8.29428336583077907562255859375">
        <ele>2023.4000244140625</ele>
        <time>2015-09-08T12:13:55.000Z</time>
        <extensions>
          <ns3:TrackPointExtension>
            <ns3:hr>134</ns3:hr>
          </ns3:TrackPointExtension>
        </extensions>
      </trkpt>
      <trkpt lat="46.51568152941763401031494140625" lon="8.294220082461833953857421875">
        <ele>2024.199951171875</ele>
        <time>2015-09-08T12:14:04.000Z</time>
        <extensions>
          <ns3:TrackPointExtension>
            <ns3:hr>134</ns3:hr>
          </ns3:TrackPointExtension>
        </extensions>
      </trkpt>
      <trkpt lat="46.515603326261043548583984375" lon="8.29408940859138965606689453125">
        <ele>2025.199951171875</ele>
        <time>2015-09-08T12:14:14.000Z</time>
        <extensions>
          <ns3:TrackPointExtension>
            <ns3:hr>134</ns3:hr>
          </ns3:TrackPointExtension>
        </extensions>
      </trkpt>
      <trkpt lat="46.51556418277323246002197265625" lon="8.29395915381610393524169921875">
        <ele>2026.4000244140625</ele>
        <time>2015-09-08T12:14:22.000Z</time>
        <extensions>
          <ns3:TrackPointExtension>
            <ns3:hr>135</ns3:hr>
          </ns3:TrackPointExtension>
        </extensions>
      </trkpt>
      <trkpt lat="46.51551808230578899383544921875" lon="8.29378682188689708709716796875">
        <ele>2028</ele>
        <time>2015-09-08T12:14:32.000Z</time>
        <extensions>
          <ns3:TrackPointExtension>
            <ns3:hr>136</ns3:hr>
          </ns3:TrackPointExtension>
        </extensions>
      </trkpt>
      <trkpt lat="46.51536435820162296295166015625" lon="8.29328860156238079071044921875">
        <ele>2032</ele>
        <time>2015-09-08T12:15:03.000Z</time>
        <extensions>
          <ns3:TrackPointExtension>
            <ns3:hr>136</ns3:hr>
          </ns3:TrackPointExtension>
        </extensions>
      </trkpt>
      <trkpt lat="46.51533099822700023651123046875" lon="8.293145187199115753173828125">
        <ele>2033.800048828125</ele>
        <time>2015-09-08T12:15:12.000Z</time>
        <extensions>
          <ns3:TrackPointExtension>
            <ns3:hr>135</ns3:hr>
          </ns3:TrackPointExtension>
        </extensions>
      </trkpt>
      <trkpt lat="46.51523058302700519561767578125" lon="8.2926786504685878753662109375">
        <ele>2037.4000244140625</ele>
        <time>2015-09-08T12:15:37.000Z</time>
        <extensions>
          <ns3:TrackPointExtension>
            <ns3:hr>132</ns3:hr>
          </ns3:TrackPointExtension>
        </extensions>
      </trkpt>
      <trkpt lat="46.51514123193919658660888671875" lon="8.29224287532269954681396484375">
        <ele>2042</ele>
        <time>2015-09-08T12:16:01.000Z</time>
        <extensions>
          <ns3:TrackPointExtension>
            <ns3:hr>133</ns3:hr>
          </ns3:TrackPointExtension>
        </extensions>
      </trkpt>
      <trkpt lat="46.51508490554988384246826171875" lon="8.29190659336745738983154296875">
        <ele>2048.199951171875</ele>
        <time>2015-09-08T12:16:20.000Z</time>
        <extensions>
          <ns3:TrackPointExtension>
            <ns3:hr>134</ns3:hr>
          </ns3:TrackPointExtension>
        </extensions>
      </trkpt>
      <trkpt lat="46.515077613294124603271484375" lon="8.29181657172739505767822265625">
        <ele>2049.60009765625</ele>
        <time>2015-09-08T12:16:25.000Z</time>
        <extensions>
          <ns3:TrackPointExtension>
            <ns3:hr>134</ns3:hr>
          </ns3:TrackPointExtension>
        </extensions>
      </trkpt>
      <trkpt lat="46.5150466002523899078369140625" lon="8.2916133105754852294921875">
        <ele>2052.39990234375</ele>
        <time>2015-09-08T12:16:35.000Z</time>
        <extensions>
          <ns3:TrackPointExtension>
            <ns3:hr>134</ns3:hr>
          </ns3:TrackPointExtension>
        </extensions>
      </trkpt>
      <trkpt lat="46.51503310538828372955322265625" lon="8.29151800833642482757568359375">
        <ele>2054</ele>
        <time>2015-09-08T12:16:40.000Z</time>
        <extensions>
          <ns3:TrackPointExtension>
            <ns3:hr>134</ns3:hr>
          </ns3:TrackPointExtension>
        </extensions>
      </trkpt>
      <trkpt lat="46.51500946842133998870849609375" lon="8.2913821376860141754150390625">
        <ele>2057</ele>
        <time>2015-09-08T12:16:48.000Z</time>
        <extensions>
          <ns3:TrackPointExtension>
            <ns3:hr>134</ns3:hr>
          </ns3:TrackPointExtension>
        </extensions>
      </trkpt>
      <trkpt lat="46.5149745158851146697998046875" lon="8.29119681380689144134521484375">
        <ele>2060</ele>
        <time>2015-09-08T12:16:58.000Z</time>
        <extensions>
          <ns3:TrackPointExtension>
            <ns3:hr>132</ns3:hr>
          </ns3:TrackPointExtension>
        </extensions>
      </trkpt>
      <trkpt lat="46.514968313276767730712890625" lon="8.29112104140222072601318359375">
        <ele>2061.199951171875</ele>
        <time>2015-09-08T12:17:02.000Z</time>
        <extensions>
          <ns3:TrackPointExtension>
            <ns3:hr>132</ns3:hr>
          </ns3:TrackPointExtension>
        </extensions>
      </trkpt>
      <trkpt lat="46.51500259526073932647705078125" lon="8.29048418439924716949462890625">
        <ele>2067.39990234375</ele>
        <time>2015-09-08T12:17:35.000Z</time>
        <extensions>
          <ns3:TrackPointExtension>
            <ns3:hr>132</ns3:hr>
          </ns3:TrackPointExtension>
        </extensions>
      </trkpt>
      <trkpt lat="46.51500477455556392669677734375" lon="8.290283270180225372314453125">
        <ele>2069.199951171875</ele>
        <time>2015-09-08T12:17:44.000Z</time>
        <extensions>
          <ns3:TrackPointExtension>
            <ns3:hr>131</ns3:hr>
          </ns3:TrackPointExtension>
        </extensions>
      </trkpt>
      <trkpt lat="46.515067555010318756103515625" lon="8.29019987024366855621337890625">
        <ele>2070.39990234375</ele>
        <time>2015-09-08T12:17:54.000Z</time>
        <extensions>
          <ns3:TrackPointExtension>
            <ns3:hr>131</ns3:hr>
          </ns3:TrackPointExtension>
        </extensions>
      </trkpt>
      <trkpt lat="46.51506311260163784027099609375" lon="8.29039265401661396026611328125">
        <ele>2071</ele>
        <time>2015-09-08T12:18:05.000Z</time>
        <extensions>
          <ns3:TrackPointExtension>
            <ns3:hr>131</ns3:hr>
          </ns3:TrackPointExtension>
        </extensions>
      </trkpt>
      <trkpt lat="46.5150858275592327117919921875" lon="8.29050832428038120269775390625">
        <ele>2071.199951171875</ele>
        <time>2015-09-08T12:18:11.000Z</time>
        <extensions>
          <ns3:TrackPointExtension>
            <ns3:hr>131</ns3:hr>
          </ns3:TrackPointExtension>
        </extensions>
      </trkpt>
      <trkpt lat="46.51509764604270458221435546875" lon="8.29056951217353343963623046875">
        <ele>2072</ele>
        <time>2015-09-08T12:18:15.000Z</time>
        <extensions>
          <ns3:TrackPointExtension>
            <ns3:hr>131</ns3:hr>
          </ns3:TrackPointExtension>
        </extensions>
      </trkpt>
      <trkpt lat="46.515107117593288421630859375" lon="8.290605135262012481689453125">
        <ele>2072.199951171875</ele>
        <time>2015-09-08T12:18:17.000Z</time>
        <extensions>
          <ns3:TrackPointExtension>
            <ns3:hr>131</ns3:hr>
          </ns3:TrackPointExtension>
        </extensions>
      </trkpt>
      <trkpt lat="46.5151337720453739166259765625" lon="8.290714435279369354248046875">
        <ele>2073.199951171875</ele>
        <time>2015-09-08T12:18:23.000Z</time>
        <extensions>
          <ns3:TrackPointExtension>
            <ns3:hr>132</ns3:hr>
          </ns3:TrackPointExtension>
        </extensions>
      </trkpt>
      <trkpt lat="46.51533074676990509033203125" lon="8.29144994728267192840576171875">
        <ele>2077.800048828125</ele>
        <time>2015-09-08T12:19:03.000Z</time>
        <extensions>
          <ns3:TrackPointExtension>
            <ns3:hr>132</ns3:hr>
          </ns3:TrackPointExtension>
        </extensions>
      </trkpt>
      <trkpt lat="46.51541917584836483001708984375" lon="8.2917056791484355926513671875">
        <ele>2078.199951171875</ele>
        <time>2015-09-08T12:19:19.000Z</time>
        <extensions>
          <ns3:TrackPointExtension>
            <ns3:hr>132</ns3:hr>
          </ns3:TrackPointExtension>
        </extensions>
      </trkpt>
      <trkpt lat="46.5155699662864208221435546875" lon="8.29202963970601558685302734375">
        <ele>2076.60009765625</ele>
        <time>2015-09-08T12:19:40.000Z</time>
        <extensions>
          <ns3:TrackPointExtension>
            <ns3:hr>135</ns3:hr>
          </ns3:TrackPointExtension>
        </extensions>
      </trkpt>
      <trkpt lat="46.5157862193882465362548828125" lon="8.29237380065023899078369140625">
        <ele>2075.39990234375</ele>
        <time>2015-09-08T12:20:07.000Z</time>
        <extensions>
          <ns3:TrackPointExtension>
            <ns3:hr>138</ns3:hr>
          </ns3:TrackPointExtension>
        </extensions>
      </trkpt>
      <trkpt lat="46.5159612335264682769775390625" lon="8.29264394938945770263671875">
        <ele>2076.39990234375</ele>
        <time>2015-09-08T12:20:28.000Z</time>
        <extensions>
          <ns3:TrackPointExtension>
            <ns3:hr>141</ns3:hr>
          </ns3:TrackPointExtension>
        </extensions>
      </trkpt>
      <trkpt lat="46.51612560264766216278076171875" lon="8.2928536646068096160888671875">
        <ele>2077.800048828125</ele>
        <time>2015-09-08T12:20:49.000Z</time>
        <extensions>
          <ns3:TrackPointExtension>
            <ns3:hr>144</ns3:hr>
          </ns3:TrackPointExtension>
        </extensions>
      </trkpt>
      <trkpt lat="46.5161372534930706024169921875" lon="8.29286254942417144775390625">
        <ele>2078</ele>
        <time>2015-09-08T12:20:50.000Z</time>
        <extensions>
          <ns3:TrackPointExtension>
            <ns3:hr>144</ns3:hr>
          </ns3:TrackPointExtension>
        </extensions>
      </trkpt>
      <trkpt lat="46.51624940335750579833984375" lon="8.29297545365989208221435546875">
        <ele>2079.39990234375</ele>
        <time>2015-09-08T12:21:02.000Z</time>
        <extensions>
          <ns3:TrackPointExtension>
            <ns3:hr>144</ns3:hr>
          </ns3:TrackPointExtension>
        </extensions>
      </trkpt>
      <trkpt lat="46.51645115576684474945068359375" lon="8.29313018359243869781494140625">
        <ele>2081.199951171875</ele>
        <time>2015-09-08T12:21:22.000Z</time>
        <extensions>
          <ns3:TrackPointExtension>
            <ns3:hr>146</ns3:hr>
          </ns3:TrackPointExtension>
        </extensions>
      </trkpt>
      <trkpt lat="46.51649977080523967742919921875" lon="8.2931453548371791839599609375">
        <ele>2081.39990234375</ele>
        <time>2015-09-08T12:21:27.000Z</time>
        <extensions>
          <ns3:TrackPointExtension>
            <ns3:hr>146</ns3:hr>
          </ns3:TrackPointExtension>
        </extensions>
      </trkpt>
      <trkpt lat="46.51693345047533512115478515625" lon="8.29305030405521392822265625">
        <ele>2086</ele>
        <time>2015-09-08T12:22:13.000Z</time>
        <extensions>
          <ns3:TrackPointExtension>
            <ns3:hr>143</ns3:hr>
          </ns3:TrackPointExtension>
        </extensions>
      </trkpt>
      <trkpt lat="46.51694468222558498382568359375" lon="8.2930444367229938507080078125">
        <ele>2086</ele>
        <time>2015-09-08T12:22:14.000Z</time>
        <extensions>
          <ns3:TrackPointExtension>
            <ns3:hr>143</ns3:hr>
          </ns3:TrackPointExtension>
        </extensions>
      </trkpt>
      <trkpt lat="46.51701089926064014434814453125" lon="8.2929928041994571685791015625">
        <ele>2087.199951171875</ele>
        <time>2015-09-08T12:22:21.000Z</time>
        <extensions>
          <ns3:TrackPointExtension>
            <ns3:hr>142</ns3:hr>
          </ns3:TrackPointExtension>
        </extensions>
      </trkpt>
      <trkpt lat="46.5169979073107242584228515625" lon="8.29293496906757354736328125">
        <ele>2087.800048828125</ele>
        <time>2015-09-08T12:22:25.000Z</time>
        <extensions>
          <ns3:TrackPointExtension>
            <ns3:hr>141</ns3:hr>
          </ns3:TrackPointExtension>
        </extensions>
      </trkpt>
      <trkpt lat="46.5169667266309261322021484375" lon="8.29291996546089649200439453125">
        <ele>2088.39990234375</ele>
        <time>2015-09-08T12:22:28.000Z</time>
        <extensions>
          <ns3:TrackPointExtension>
            <ns3:hr>140</ns3:hr>
          </ns3:TrackPointExtension>
        </extensions>
      </trkpt>
      <trkpt lat="46.51691551320254802703857421875" lon="8.29294393770396709442138671875">
        <ele>2089</ele>
        <time>2015-09-08T12:22:33.000Z</time>
        <extensions>
          <ns3:TrackPointExtension>
            <ns3:hr>139</ns3:hr>
          </ns3:TrackPointExtension>
        </extensions>
      </trkpt>
      <trkpt lat="46.5166891179978847503662109375" lon="8.29284016974270343780517578125">
        <ele>2092.800048828125</ele>
        <time>2015-09-08T12:22:55.000Z</time>
        <extensions>
          <ns3:TrackPointExtension>
            <ns3:hr>136</ns3:hr>
          </ns3:TrackPointExtension>
        </extensions>
      </trkpt>
      <trkpt lat="46.516511924564838409423828125" lon="8.2920868881046772003173828125">
        <ele>2101.199951171875</ele>
        <time>2015-09-08T12:23:40.000Z</time>
        <extensions>
          <ns3:TrackPointExtension>
            <ns3:hr>135</ns3:hr>
          </ns3:TrackPointExtension>
        </extensions>
      </trkpt>
      <trkpt lat="46.51642248965799808502197265625" lon="8.2917100377380847930908203125">
        <ele>2104</ele>
        <time>2015-09-08T12:23:59.000Z</time>
        <extensions>
          <ns3:TrackPointExtension>
            <ns3:hr>132</ns3:hr>
          </ns3:TrackPointExtension>
        </extensions>
      </trkpt>
      <trkpt lat="46.51624177582561969757080078125" lon="8.290971256792545318603515625">
        <ele>2108.39990234375</ele>
        <time>2015-09-08T12:24:37.000Z</time>
        <extensions>
          <ns3:TrackPointExtension>
            <ns3:hr>131</ns3:hr>
          </ns3:TrackPointExtension>
        </extensions>
      </trkpt>
      <trkpt lat="46.51619852520525455474853515625" lon="8.29068970866501331329345703125">
        <ele>2109</ele>
        <time>2015-09-08T12:24:50.000Z</time>
        <extensions>
          <ns3:TrackPointExtension>
            <ns3:hr>129</ns3:hr>
          </ns3:TrackPointExtension>
        </extensions>
      </trkpt>
      <trkpt lat="46.51629726402461528778076171875" lon="8.29079054296016693115234375">
        <ele>2111.199951171875</ele>
        <time>2015-09-08T12:25:02.000Z</time>
        <extensions>
          <ns3:TrackPointExtension>
            <ns3:hr>127</ns3:hr>
          </ns3:TrackPointExtension>
        </extensions>
      </trkpt>
      <trkpt lat="46.51635694317519664764404296875" lon="8.29094502143561840057373046875">
        <ele>2111.60009765625</ele>
        <time>2015-09-08T12:25:10.000Z</time>
        <extensions>
          <ns3:TrackPointExtension>
            <ns3:hr>128</ns3:hr>
          </ns3:TrackPointExtension>
        </extensions>
      </trkpt>
      <trkpt lat="46.51647663675248622894287109375" lon="8.29120418988168239593505859375">
        <ele>2112.800048828125</ele>
        <time>2015-09-08T12:25:23.000Z</time>
        <extensions>
          <ns3:TrackPointExtension>
            <ns3:hr>131</ns3:hr>
          </ns3:TrackPointExtension>
        </extensions>
      </trkpt>
      <trkpt lat="46.5168637968599796295166015625" lon="8.29176292754709720611572265625">
        <ele>2116.39990234375</ele>
        <time>2015-09-08T12:25:57.000Z</time>
        <extensions>
          <ns3:TrackPointExtension>
            <ns3:hr>129</ns3:hr>
          </ns3:TrackPointExtension>
        </extensions>
      </trkpt>
      <trkpt lat="46.5169938839972019195556640625" lon="8.29187390394508838653564453125">
        <ele>2118.39990234375</ele>
        <time>2015-09-08T12:26:08.000Z</time>
        <extensions>
          <ns3:TrackPointExtension>
            <ns3:hr>128</ns3:hr>
          </ns3:TrackPointExtension>
        </extensions>
      </trkpt>
      <trkpt lat="46.51709874160587787628173828125" lon="8.29197783954441547393798828125">
        <ele>2120</ele>
        <time>2015-09-08T12:26:18.000Z</time>
        <extensions>
          <ns3:TrackPointExtension>
            <ns3:hr>128</ns3:hr>
          </ns3:TrackPointExtension>
        </extensions>
      </trkpt>
      <trkpt lat="46.51711952872574329376220703125" lon="8.29187423922121524810791015625">
        <ele>2119.39990234375</ele>
        <time>2015-09-08T12:26:34.000Z</time>
        <extensions>
          <ns3:TrackPointExtension>
            <ns3:hr>130</ns3:hr>
          </ns3:TrackPointExtension>
        </extensions>
      </trkpt>
      <trkpt lat="46.51689288206398487091064453125" lon="8.29117552377283573150634765625">
        <ele>2124.199951171875</ele>
        <time>2015-09-08T12:27:11.000Z</time>
        <extensions>
          <ns3:TrackPointExtension>
            <ns3:hr>127</ns3:hr>
          </ns3:TrackPointExtension>
        </extensions>
      </trkpt>
      <trkpt lat="46.51686857454478740692138671875" lon="8.29107510857284069061279296875">
        <ele>2125.39990234375</ele>
        <time>2015-09-08T12:27:17.000Z</time>
        <extensions>
          <ns3:TrackPointExtension>
            <ns3:hr>128</ns3:hr>
          </ns3:TrackPointExtension>
        </extensions>
      </trkpt>
      <trkpt lat="46.51684661395847797393798828125" lon="8.291004784405231475830078125">
        <ele>2126</ele>
        <time>2015-09-08T12:27:21.000Z</time>
        <extensions>
          <ns3:TrackPointExtension>
            <ns3:hr>129</ns3:hr>
          </ns3:TrackPointExtension>
        </extensions>
      </trkpt>
      <trkpt lat="46.51680839248001575469970703125" lon="8.290837146341800689697265625">
        <ele>2127.199951171875</ele>
        <time>2015-09-08T12:27:29.000Z</time>
        <extensions>
          <ns3:TrackPointExtension>
            <ns3:hr>130</ns3:hr>
          </ns3:TrackPointExtension>
        </extensions>
      </trkpt>
      <trkpt lat="46.516748964786529541015625" lon="8.2906190492212772369384765625">
        <ele>2129</ele>
        <time>2015-09-08T12:27:40.000Z</time>
        <extensions>
          <ns3:TrackPointExtension>
            <ns3:hr>133</ns3:hr>
          </ns3:TrackPointExtension>
        </extensions>
      </trkpt>
      <trkpt lat="46.516742594540119171142578125" lon="8.29058392904698848724365234375">
        <ele>2129.39990234375</ele>
        <time>2015-09-08T12:27:42.000Z</time>
        <extensions>
          <ns3:TrackPointExtension>
            <ns3:hr>133</ns3:hr>
          </ns3:TrackPointExtension>
        </extensions>
      </trkpt>
      <trkpt lat="46.51658602058887481689453125" lon="8.29002670012414455413818359375">
        <ele>2134.199951171875</ele>
        <time>2015-09-08T12:28:14.000Z</time>
        <extensions>
          <ns3:TrackPointExtension>
            <ns3:hr>134</ns3:hr>
          </ns3:TrackPointExtension>
        </extensions>
      </trkpt>
      <trkpt lat="46.51656850241124629974365234375" lon="8.28994908370077610015869140625">
        <ele>2134.39990234375</ele>
        <time>2015-09-08T12:28:19.000Z</time>
        <extensions>
          <ns3:TrackPointExtension>
            <ns3:hr>134</ns3:hr>
          </ns3:TrackPointExtension>
        </extensions>
      </trkpt>
      <trkpt lat="46.51654100976884365081787109375" lon="8.2896132208406925201416015625">
        <ele>2136</ele>
        <time>2015-09-08T12:28:37.000Z</time>
        <extensions>
          <ns3:TrackPointExtension>
            <ns3:hr>131</ns3:hr>
          </ns3:TrackPointExtension>
        </extensions>
      </trkpt>
      <trkpt lat="46.5165788121521472930908203125" lon="8.28942303545773029327392578125">
        <ele>2138.60009765625</ele>
        <time>2015-09-08T12:28:50.000Z</time>
        <extensions>
          <ns3:TrackPointExtension>
            <ns3:hr>131</ns3:hr>
          </ns3:TrackPointExtension>
        </extensions>
      </trkpt>
      <trkpt lat="46.51660085655748844146728515625" lon="8.28945203684270381927490234375">
        <ele>2140.800048828125</ele>
        <time>2015-09-08T12:28:54.000Z</time>
        <extensions>
          <ns3:TrackPointExtension>
            <ns3:hr>131</ns3:hr>
          </ns3:TrackPointExtension>
        </extensions>
      </trkpt>
      <trkpt lat="46.5166690014302730560302734375" lon="8.28966795466840267181396484375">
        <ele>2144.199951171875</ele>
        <time>2015-09-08T12:29:07.000Z</time>
        <extensions>
          <ns3:TrackPointExtension>
            <ns3:hr>131</ns3:hr>
          </ns3:TrackPointExtension>
        </extensions>
      </trkpt>
      <trkpt lat="46.51677235029637813568115234375" lon="8.2898727245628833770751953125">
        <ele>2146.800048828125</ele>
        <time>2015-09-08T12:29:21.000Z</time>
        <extensions>
          <ns3:TrackPointExtension>
            <ns3:hr>131</ns3:hr>
          </ns3:TrackPointExtension>
        </extensions>
      </trkpt>
      <trkpt lat="46.5168530680239200592041015625" lon="8.29004497267305850982666015625">
        <ele>2148.39990234375</ele>
        <time>2015-09-08T12:29:32.000Z</time>
        <extensions>
          <ns3:TrackPointExtension>
            <ns3:hr>132</ns3:hr>
          </ns3:TrackPointExtension>
        </extensions>
      </trkpt>
      <trkpt lat="46.51693194173276424407958984375" lon="8.29025384970009326934814453125">
        <ele>2149.60009765625</ele>
        <time>2015-09-08T12:29:43.000Z</time>
        <extensions>
          <ns3:TrackPointExtension>
            <ns3:hr>132</ns3:hr>
          </ns3:TrackPointExtension>
        </extensions>
      </trkpt>
      <trkpt lat="46.51699732057750225067138671875" lon="8.29039265401661396026611328125">
        <ele>2150.39990234375</ele>
        <time>2015-09-08T12:29:51.000Z</time>
        <extensions>
          <ns3:TrackPointExtension>
            <ns3:hr>131</ns3:hr>
          </ns3:TrackPointExtension>
        </extensions>
      </trkpt>
      <trkpt lat="46.51699732057750225067138671875" lon="8.29020456410944461822509765625">
        <ele>2151.60009765625</ele>
        <time>2015-09-08T12:30:04.000Z</time>
        <extensions>
          <ns3:TrackPointExtension>
            <ns3:hr>130</ns3:hr>
          </ns3:TrackPointExtension>
        </extensions>
      </trkpt>
      <trkpt lat="46.51697519235312938690185546875" lon="8.29005829989910125732421875">
        <ele>2153.199951171875</ele>
        <time>2015-09-08T12:30:12.000Z</time>
        <extensions>
          <ns3:TrackPointExtension>
            <ns3:hr>130</ns3:hr>
          </ns3:TrackPointExtension>
        </extensions>
      </trkpt>
      <trkpt lat="46.5169675648212432861328125" lon="8.2899830304086208343505859375">
        <ele>2154</ele>
        <time>2015-09-08T12:30:16.000Z</time>
        <extensions>
          <ns3:TrackPointExtension>
            <ns3:hr>130</ns3:hr>
          </ns3:TrackPointExtension>
        </extensions>
      </trkpt>
      <trkpt lat="46.5169217996299266815185546875" lon="8.289722688496112823486328125">
        <ele>2155.800048828125</ele>
        <time>2015-09-08T12:30:31.000Z</time>
        <extensions>
          <ns3:TrackPointExtension>
            <ns3:hr>130</ns3:hr>
          </ns3:TrackPointExtension>
        </extensions>
      </trkpt>
      <trkpt lat="46.5169191174209117889404296875" lon="8.289691172540187835693359375">
        <ele>2156</ele>
        <time>2015-09-08T12:30:33.000Z</time>
        <extensions>
          <ns3:TrackPointExtension>
            <ns3:hr>130</ns3:hr>
          </ns3:TrackPointExtension>
        </extensions>
      </trkpt>
      <trkpt lat="46.51689573191106319427490234375" lon="8.2894217781722545623779296875">
        <ele>2158.800048828125</ele>
        <time>2015-09-08T12:30:48.000Z</time>
        <extensions>
          <ns3:TrackPointExtension>
            <ns3:hr>133</ns3:hr>
          </ns3:TrackPointExtension>
        </extensions>
      </trkpt>
      <trkpt lat="46.517035961151123046875" lon="8.28893755562603473663330078125">
        <ele>2164</ele>
        <time>2015-09-08T12:31:19.000Z</time>
        <extensions>
          <ns3:TrackPointExtension>
            <ns3:hr>136</ns3:hr>
          </ns3:TrackPointExtension>
        </extensions>
      </trkpt>
      <trkpt lat="46.51726537384092807769775390625" lon="8.2882261835038661956787109375">
        <ele>2169.800048828125</ele>
        <time>2015-09-08T12:32:05.000Z</time>
        <extensions>
          <ns3:TrackPointExtension>
            <ns3:hr>134</ns3:hr>
          </ns3:TrackPointExtension>
        </extensions>
      </trkpt>
      <trkpt lat="46.51764406822621822357177734375" lon="8.28765763901174068450927734375">
        <ele>2177</ele>
        <time>2015-09-08T12:32:48.000Z</time>
        <extensions>
          <ns3:TrackPointExtension>
            <ns3:hr>133</ns3:hr>
          </ns3:TrackPointExtension>
        </extensions>
      </trkpt>
      <trkpt lat="46.51792419143021106719970703125" lon="8.28742411918938159942626953125">
        <ele>2179.199951171875</ele>
        <time>2015-09-08T12:33:13.000Z</time>
        <extensions>
          <ns3:TrackPointExtension>
            <ns3:hr>130</ns3:hr>
          </ns3:TrackPointExtension>
        </extensions>
      </trkpt>
      <trkpt lat="46.517955958843231201171875" lon="8.2873879931867122650146484375">
        <ele>2179.60009765625</ele>
        <time>2015-09-08T12:33:16.000Z</time>
        <extensions>
          <ns3:TrackPointExtension>
            <ns3:hr>130</ns3:hr>
          </ns3:TrackPointExtension>
        </extensions>
      </trkpt>
      <trkpt lat="46.51799418032169342041015625" lon="8.2873527891933917999267578125">
        <ele>2180.199951171875</ele>
        <time>2015-09-08T12:33:20.000Z</time>
        <extensions>
          <ns3:TrackPointExtension>
            <ns3:hr>130</ns3:hr>
          </ns3:TrackPointExtension>
        </extensions>
      </trkpt>
      <trkpt lat="46.51803365908563137054443359375" lon="8.28745731152594089508056640625">
        <ele>2180.800048828125</ele>
        <time>2015-09-08T12:33:28.000Z</time>
        <extensions>
          <ns3:TrackPointExtension>
            <ns3:hr>128</ns3:hr>
          </ns3:TrackPointExtension>
        </extensions>
      </trkpt>
      <trkpt lat="46.51774968020617961883544921875" lon="8.2877842895686626434326171875">
        <ele>2184.60009765625</ele>
        <time>2015-09-08T12:33:56.000Z</time>
        <extensions>
          <ns3:TrackPointExtension>
            <ns3:hr>130</ns3:hr>
          </ns3:TrackPointExtension>
        </extensions>
      </trkpt>
      <trkpt lat="46.5176637656986713409423828125" lon="8.288118727505207061767578125">
        <ele>2188</ele>
        <time>2015-09-08T12:34:38.000Z</time>
        <extensions>
          <ns3:TrackPointExtension>
            <ns3:hr>127</ns3:hr>
          </ns3:TrackPointExtension>
        </extensions>
      </trkpt>
      <trkpt lat="46.51764540933072566986083984375" lon="8.2881638221442699432373046875">
        <ele>2189</ele>
        <time>2015-09-08T12:34:53.000Z</time>
        <extensions>
          <ns3:TrackPointExtension>
            <ns3:hr>124</ns3:hr>
          </ns3:TrackPointExtension>
        </extensions>
      </trkpt>
      <trkpt lat="46.517641805112361907958984375" lon="8.2881557755172252655029296875">
        <ele>2188.800048828125</ele>
        <time>2015-09-08T12:35:03.000Z</time>
        <extensions>
          <ns3:TrackPointExtension>
            <ns3:hr>121</ns3:hr>
          </ns3:TrackPointExtension>
        </extensions>
      </trkpt>
      <trkpt lat="46.51764188893139362335205078125" lon="8.28815460205078125">
        <ele>2188.800048828125</ele>
        <time>2015-09-08T12:35:08.000Z</time>
        <extensions>
          <ns3:TrackPointExtension>
            <ns3:hr>118</ns3:hr>
          </ns3:TrackPointExtension>
        </extensions>
      </trkpt>
      <trkpt lat="46.5176396258175373077392578125" lon="8.2881608046591281890869140625">
        <ele>2188.800048828125</ele>
        <time>2015-09-08T12:35:12.000Z</time>
        <extensions>
          <ns3:TrackPointExtension>
            <ns3:hr>115</ns3:hr>
          </ns3:TrackPointExtension>
        </extensions>
      </trkpt>
      <trkpt lat="46.51764012873172760009765625" lon="8.28817396424710750579833984375">
        <ele>2188.800048828125</ele>
        <time>2015-09-08T12:35:13.000Z</time>
        <extensions>
          <ns3:TrackPointExtension>
            <ns3:hr>116</ns3:hr>
          </ns3:TrackPointExtension>
        </extensions>
      </trkpt>
      <trkpt lat="46.51763878762722015380859375" lon="8.28822827897965908050537109375">
        <ele>2190.199951171875</ele>
        <time>2015-09-08T12:36:05.000Z</time>
        <extensions>
          <ns3:TrackPointExtension>
            <ns3:hr>113</ns3:hr>
          </ns3:TrackPointExtension>
        </extensions>
      </trkpt>
      <trkpt lat="46.517635099589824676513671875" lon="8.28824453987181186676025390625">
        <ele>2190.199951171875</ele>
        <time>2015-09-08T12:36:13.000Z</time>
        <extensions>
          <ns3:TrackPointExtension>
            <ns3:hr>112</ns3:hr>
          </ns3:TrackPointExtension>
        </extensions>
      </trkpt>
      <trkpt lat="46.51763216592371463775634765625" lon="8.2883452065289020538330078125">
        <ele>2190.800048828125</ele>
        <time>2015-09-08T12:36:18.000Z</time>
        <extensions>
          <ns3:TrackPointExtension>
            <ns3:hr>115</ns3:hr>
          </ns3:TrackPointExtension>
        </extensions>
      </trkpt>
      <trkpt lat="46.5176322497427463531494140625" lon="8.28836842440068721771240234375">
        <ele>2191</ele>
        <time>2015-09-08T12:36:19.000Z</time>
        <extensions>
          <ns3:TrackPointExtension>
            <ns3:hr>115</ns3:hr>
          </ns3:TrackPointExtension>
        </extensions>
      </trkpt>
      <trkpt lat="46.51763685978949069976806640625" lon="8.2885031215846538543701171875">
        <ele>2192.39990234375</ele>
        <time>2015-09-08T12:36:25.000Z</time>
        <extensions>
          <ns3:TrackPointExtension>
            <ns3:hr>116</ns3:hr>
          </ns3:TrackPointExtension>
        </extensions>
      </trkpt>
      <trkpt lat="46.51767323724925518035888671875" lon="8.28872649930417537689208984375">
        <ele>2193.800048828125</ele>
        <time>2015-09-08T12:36:35.000Z</time>
        <extensions>
          <ns3:TrackPointExtension>
            <ns3:hr>118</ns3:hr>
          </ns3:TrackPointExtension>
        </extensions>
      </trkpt>
      <trkpt lat="46.517740376293659210205078125" lon="8.28899321146309375762939453125">
        <ele>2195</ele>
        <time>2015-09-08T12:36:48.000Z</time>
        <extensions>
          <ns3:TrackPointExtension>
            <ns3:hr>121</ns3:hr>
          </ns3:TrackPointExtension>
        </extensions>
      </trkpt>
      <trkpt lat="46.51788563467562198638916015625" lon="8.28934625722467899322509765625">
        <ele>2195.800048828125</ele>
        <time>2015-09-08T12:37:09.000Z</time>
        <extensions>
          <ns3:TrackPointExtension>
            <ns3:hr>123</ns3:hr>
          </ns3:TrackPointExtension>
        </extensions>
      </trkpt>
      <trkpt lat="46.51798018254339694976806640625" lon="8.28940249979496002197265625">
        <ele>2194.60009765625</ele>
        <time>2015-09-08T12:37:16.000Z</time>
        <extensions>
          <ns3:TrackPointExtension>
            <ns3:hr>124</ns3:hr>
          </ns3:TrackPointExtension>
        </extensions>
      </trkpt>
      <trkpt lat="46.51850891299545764923095703125" lon="8.28940509818494319915771484375">
        <ele>2193.60009765625</ele>
        <time>2015-09-08T12:37:51.000Z</time>
        <extensions>
          <ns3:TrackPointExtension>
            <ns3:hr>124</ns3:hr>
          </ns3:TrackPointExtension>
        </extensions>
      </trkpt>
      <trkpt lat="46.518707312643527984619140625" lon="8.289416246116161346435546875">
        <ele>2195.800048828125</ele>
        <time>2015-09-08T12:38:05.000Z</time>
        <extensions>
          <ns3:TrackPointExtension>
            <ns3:hr>122</ns3:hr>
          </ns3:TrackPointExtension>
        </extensions>
      </trkpt>
      <trkpt lat="46.5192325226962566375732421875" lon="8.2894311659038066864013671875">
        <ele>2196.199951171875</ele>
        <time>2015-09-08T12:38:31.000Z</time>
        <extensions>
          <ns3:TrackPointExtension>
            <ns3:hr>122</ns3:hr>
          </ns3:TrackPointExtension>
        </extensions>
      </trkpt>
      <trkpt lat="46.51953368447721004486083984375" lon="8.2894529588520526885986328125">
        <ele>2197.800048828125</ele>
        <time>2015-09-08T12:38:45.000Z</time>
        <extensions>
          <ns3:TrackPointExtension>
            <ns3:hr>121</ns3:hr>
          </ns3:TrackPointExtension>
        </extensions>
      </trkpt>
      <trkpt lat="46.51984012685716152191162109375" lon="8.2893986441195011138916015625">
        <ele>2202.800048828125</ele>
        <time>2015-09-08T12:40:14.000Z</time>
        <extensions>
          <ns3:TrackPointExtension>
            <ns3:hr>124</ns3:hr>
          </ns3:TrackPointExtension>
        </extensions>
      </trkpt>
      <trkpt lat="46.52029174380004405975341796875" lon="8.28893101774156093597412109375">
        <ele>2205.800048828125</ele>
        <time>2015-09-08T12:40:43.000Z</time>
        <extensions>
          <ns3:TrackPointExtension>
            <ns3:hr>124</ns3:hr>
          </ns3:TrackPointExtension>
        </extensions>
      </trkpt>
      <trkpt lat="46.52040590532124042510986328125" lon="8.28882406465709209442138671875">
        <ele>2204.60009765625</ele>
        <time>2015-09-08T12:40:47.000Z</time>
        <extensions>
          <ns3:TrackPointExtension>
            <ns3:hr>123</ns3:hr>
          </ns3:TrackPointExtension>
        </extensions>
      </trkpt>
      <trkpt lat="46.52066272683441638946533203125" lon="8.2884930633008480072021484375">
        <ele>2207.39990234375</ele>
        <time>2015-09-08T12:41:01.000Z</time>
        <extensions>
          <ns3:TrackPointExtension>
            <ns3:hr>120</ns3:hr>
          </ns3:TrackPointExtension>
        </extensions>
      </trkpt>
      <trkpt lat="46.52092759497463703155517578125" lon="8.2883492298424243927001953125">
        <ele>2208</ele>
        <time>2015-09-08T12:41:13.000Z</time>
        <extensions>
          <ns3:TrackPointExtension>
            <ns3:hr>117</ns3:hr>
          </ns3:TrackPointExtension>
        </extensions>
      </trkpt>
      <trkpt lat="46.5211965702474117279052734375" lon="8.288169689476490020751953125">
        <ele>2207.199951171875</ele>
        <time>2015-09-08T12:41:21.000Z</time>
        <extensions>
          <ns3:TrackPointExtension>
            <ns3:hr>117</ns3:hr>
          </ns3:TrackPointExtension>
        </extensions>
      </trkpt>
      <trkpt lat="46.52166168205440044403076171875" lon="8.28793105669319629669189453125">
        <ele>2208.199951171875</ele>
        <time>2015-09-08T12:41:36.000Z</time>
        <extensions>
          <ns3:TrackPointExtension>
            <ns3:hr>114</ns3:hr>
          </ns3:TrackPointExtension>
        </extensions>
      </trkpt>
      <trkpt lat="46.5218050964176654815673828125" lon="8.28788034617900848388671875">
        <ele>2206.39990234375</ele>
        <time>2015-09-08T12:41:40.000Z</time>
        <extensions>
          <ns3:TrackPointExtension>
            <ns3:hr>113</ns3:hr>
          </ns3:TrackPointExtension>
        </extensions>
      </trkpt>
      <trkpt lat="46.52214489877223968505859375" lon="8.28770332038402557373046875">
        <ele>2203.800048828125</ele>
        <time>2015-09-08T12:41:50.000Z</time>
        <extensions>
          <ns3:TrackPointExtension>
            <ns3:hr>111</ns3:hr>
          </ns3:TrackPointExtension>
        </extensions>
      </trkpt>
      <trkpt lat="46.52249090373516082763671875" lon="8.28761204145848751068115234375">
        <ele>2204</ele>
        <time>2015-09-08T12:42:01.000Z</time>
        <extensions>
          <ns3:TrackPointExtension>
            <ns3:hr>114</ns3:hr>
          </ns3:TrackPointExtension>
        </extensions>
      </trkpt>
      <trkpt lat="46.5225859545171260833740234375" lon="8.28754917718470096588134765625">
        <ele>2204.39990234375</ele>
        <time>2015-09-08T12:42:06.000Z</time>
        <extensions>
          <ns3:TrackPointExtension>
            <ns3:hr>117</ns3:hr>
          </ns3:TrackPointExtension>
        </extensions>
      </trkpt>
      <trkpt lat="46.52291259728372097015380859375" lon="8.28736603260040283203125">
        <ele>2207.39990234375</ele>
        <time>2015-09-08T12:42:20.000Z</time>
        <extensions>
          <ns3:TrackPointExtension>
            <ns3:hr>120</ns3:hr>
          </ns3:TrackPointExtension>
        </extensions>
      </trkpt>
      <trkpt lat="46.52346588671207427978515625" lon="8.2872116379439830780029296875">
        <ele>2204.800048828125</ele>
        <time>2015-09-08T12:42:38.000Z</time>
        <extensions>
          <ns3:TrackPointExtension>
            <ns3:hr>119</ns3:hr>
          </ns3:TrackPointExtension>
        </extensions>
      </trkpt>
      <trkpt lat="46.5235666371881961822509765625" lon="8.2871982268989086151123046875">
        <ele>2203.39990234375</ele>
        <time>2015-09-08T12:42:42.000Z</time>
        <extensions>
          <ns3:TrackPointExtension>
            <ns3:hr>119</ns3:hr>
          </ns3:TrackPointExtension>
        </extensions>
      </trkpt>
      <trkpt lat="46.52383360080420970916748046875" lon="8.28713603317737579345703125">
        <ele>2201.199951171875</ele>
        <time>2015-09-08T12:42:52.000Z</time>
        <extensions>
          <ns3:TrackPointExtension>
            <ns3:hr>116</ns3:hr>
          </ns3:TrackPointExtension>
        </extensions>
      </trkpt>
      <trkpt lat="46.52418429963290691375732421875" lon="8.28696261160075664520263671875">
        <ele>2199.60009765625</ele>
        <time>2015-09-08T12:43:04.000Z</time>
        <extensions>
          <ns3:TrackPointExtension>
            <ns3:hr>113</ns3:hr>
          </ns3:TrackPointExtension>
        </extensions>
      </trkpt>
      <trkpt lat="46.52472652494907379150390625" lon="8.28699521720409393310546875">
        <ele>2199.199951171875</ele>
        <time>2015-09-08T12:43:25.000Z</time>
        <extensions>
          <ns3:TrackPointExtension>
            <ns3:hr>115</ns3:hr>
          </ns3:TrackPointExtension>
        </extensions>
      </trkpt>
      <trkpt lat="46.5249667502939701080322265625" lon="8.28701072372496128082275390625">
        <ele>2202.39990234375</ele>
        <time>2015-09-08T12:43:38.000Z</time>
        <extensions>
          <ns3:TrackPointExtension>
            <ns3:hr>118</ns3:hr>
          </ns3:TrackPointExtension>
        </extensions>
      </trkpt>
      <trkpt lat="46.52511988766491413116455078125" lon="8.2870161719620227813720703125">
        <ele>2203</ele>
        <time>2015-09-08T12:43:46.000Z</time>
        <extensions>
          <ns3:TrackPointExtension>
            <ns3:hr>121</ns3:hr>
          </ns3:TrackPointExtension>
        </extensions>
      </trkpt>
      <trkpt lat="46.52520940639078617095947265625" lon="8.287050537765026092529296875">
        <ele>2203.39990234375</ele>
        <time>2015-09-08T12:43:52.000Z</time>
        <extensions>
          <ns3:TrackPointExtension>
            <ns3:hr>124</ns3:hr>
          </ns3:TrackPointExtension>
        </extensions>
      </trkpt>
      <trkpt lat="46.525441668927669525146484375" lon="8.28715254552662372589111328125">
        <ele>2204.199951171875</ele>
        <time>2015-09-08T12:44:26.000Z</time>
        <extensions>
          <ns3:TrackPointExtension>
            <ns3:hr>124</ns3:hr>
          </ns3:TrackPointExtension>
        </extensions>
      </trkpt>
      <trkpt lat="46.52549355290830135345458984375" lon="8.2871663756668567657470703125">
        <ele>2204.60009765625</ele>
        <time>2015-09-08T12:44:30.000Z</time>
        <extensions>
          <ns3:TrackPointExtension>
            <ns3:hr>124</ns3:hr>
          </ns3:TrackPointExtension>
        </extensions>
      </trkpt>
      <trkpt lat="46.52579245157539844512939453125" lon="8.28736041672527790069580078125">
        <ele>2206.39990234375</ele>
        <time>2015-09-08T12:44:49.000Z</time>
        <extensions>
          <ns3:TrackPointExtension>
            <ns3:hr>125</ns3:hr>
          </ns3:TrackPointExtension>
        </extensions>
      </trkpt>
      <trkpt lat="46.52590208686888217926025390625" lon="8.28747256658971309661865234375">
        <ele>2208.60009765625</ele>
        <time>2015-09-08T12:45:13.000Z</time>
        <extensions>
          <ns3:TrackPointExtension>
            <ns3:hr>122</ns3:hr>
          </ns3:TrackPointExtension>
        </extensions>
      </trkpt>
      <trkpt lat="46.52594424784183502197265625" lon="8.28750274144113063812255859375">
        <ele>2208.199951171875</ele>
        <time>2015-09-08T12:45:24.000Z</time>
        <extensions>
          <ns3:TrackPointExtension>
            <ns3:hr>119</ns3:hr>
          </ns3:TrackPointExtension>
        </extensions>
      </trkpt>
      <trkpt lat="46.52600233443081378936767578125" lon="8.28752973116934299468994140625">
        <ele>2207.800048828125</ele>
        <time>2015-09-08T12:45:27.000Z</time>
        <extensions>
          <ns3:TrackPointExtension>
            <ns3:hr>118</ns3:hr>
          </ns3:TrackPointExtension>
        </extensions>
      </trkpt>
      <trkpt lat="46.52610559947788715362548828125" lon="8.28756426461040973663330078125">
        <ele>2206.199951171875</ele>
        <time>2015-09-08T12:45:42.000Z</time>
        <extensions>
          <ns3:TrackPointExtension>
            <ns3:hr>115</ns3:hr>
          </ns3:TrackPointExtension>
        </extensions>
      </trkpt>
      <trkpt lat="46.5261388756334781646728515625" lon="8.287585638463497161865234375">
        <ele>2206.39990234375</ele>
        <time>2015-09-08T12:45:57.000Z</time>
        <extensions>
          <ns3:TrackPointExtension>
            <ns3:hr>112</ns3:hr>
          </ns3:TrackPointExtension>
        </extensions>
      </trkpt>
      <trkpt lat="46.52616955339908599853515625" lon="8.28781404532492160797119140625">
        <ele>2207.60009765625</ele>
        <time>2015-09-08T12:46:50.000Z</time>
        <extensions>
          <ns3:TrackPointExtension>
            <ns3:hr>112</ns3:hr>
          </ns3:TrackPointExtension>
        </extensions>
      </trkpt>
      <trkpt lat="46.52617315761744976043701171875" lon="8.28781220130622386932373046875">
        <ele>2208.800048828125</ele>
        <time>2015-09-08T12:47:16.000Z</time>
        <extensions>
          <ns3:TrackPointExtension>
            <ns3:hr>116</ns3:hr>
          </ns3:TrackPointExtension>
        </extensions>
      </trkpt>
      <trkpt lat="46.52614080347120761871337890625" lon="8.288099281489849090576171875">
        <ele>2208.800048828125</ele>
        <time>2015-09-08T12:47:31.000Z</time>
        <extensions>
          <ns3:TrackPointExtension>
            <ns3:hr>112</ns3:hr>
          </ns3:TrackPointExtension>
        </extensions>
      </trkpt>
      <trkpt lat="46.52612102217972278594970703125" lon="8.2882791571319103240966796875">
        <ele>2208.60009765625</ele>
        <time>2015-09-08T12:47:35.000Z</time>
        <extensions>
          <ns3:TrackPointExtension>
            <ns3:hr>108</ns3:hr>
          </ns3:TrackPointExtension>
        </extensions>
      </trkpt>
      <trkpt lat="46.5261023305356502532958984375" lon="8.28841167502105236053466796875">
        <ele>2208.39990234375</ele>
        <time>2015-09-08T12:47:38.000Z</time>
        <extensions>
          <ns3:TrackPointExtension>
            <ns3:hr>105</ns3:hr>
          </ns3:TrackPointExtension>
        </extensions>
      </trkpt>
      <trkpt lat="46.52607458643615245819091796875" lon="8.2885896228253841400146484375">
        <ele>2209</ele>
        <time>2015-09-08T12:47:42.000Z</time>
        <extensions>
          <ns3:TrackPointExtension>
            <ns3:hr>102</ns3:hr>
          </ns3:TrackPointExtension>
        </extensions>
      </trkpt>
      <trkpt lat="46.52603066526353359222412109375" lon="8.288828171789646148681640625">
        <ele>2210</ele>
        <time>2015-09-08T12:47:49.000Z</time>
        <extensions>
          <ns3:TrackPointExtension>
            <ns3:hr>105</ns3:hr>
          </ns3:TrackPointExtension>
        </extensions>
      </trkpt>
      <trkpt lat="46.525891609489917755126953125" lon="8.28926503658294677734375">
        <ele>2210.199951171875</ele>
        <time>2015-09-08T12:48:05.000Z</time>
        <extensions>
          <ns3:TrackPointExtension>
            <ns3:hr>108</ns3:hr>
          </ns3:TrackPointExtension>
        </extensions>
      </trkpt>
      <trkpt lat="46.5258723311126232147216796875" lon="8.2892967201769351959228515625">
        <ele>2209.60009765625</ele>
        <time>2015-09-08T12:48:16.000Z</time>
        <extensions>
          <ns3:TrackPointExtension>
            <ns3:hr>111</ns3:hr>
          </ns3:TrackPointExtension>
        </extensions>
      </trkpt>
      <trkpt lat="46.52584928087890148162841796875" lon="8.28945555724203586578369140625">
        <ele>2210.199951171875</ele>
        <time>2015-09-08T12:48:42.000Z</time>
        <extensions>
          <ns3:TrackPointExtension>
            <ns3:hr>114</ns3:hr>
          </ns3:TrackPointExtension>
        </extensions>
      </trkpt>
      <trkpt lat="46.52572221122682094573974609375" lon="8.2897600717842578887939453125">
        <ele>2209.39990234375</ele>
        <time>2015-09-08T12:48:58.000Z</time>
        <extensions>
          <ns3:TrackPointExtension>
            <ns3:hr>117</ns3:hr>
          </ns3:TrackPointExtension>
        </extensions>
      </trkpt>
      <trkpt lat="46.5254874341189861297607421875" lon="8.29032576642930507659912109375">
        <ele>2207.60009765625</ele>
        <time>2015-09-08T12:49:27.000Z</time>
        <extensions>
          <ns3:TrackPointExtension>
            <ns3:hr>119</ns3:hr>
          </ns3:TrackPointExtension>
        </extensions>
      </trkpt>
      <trkpt lat="46.52545633725821971893310546875" lon="8.29048569314181804656982421875">
        <ele>2205.39990234375</ele>
        <time>2015-09-08T12:49:49.000Z</time>
        <extensions>
          <ns3:TrackPointExtension>
            <ns3:hr>118</ns3:hr>
          </ns3:TrackPointExtension>
        </extensions>
      </trkpt>
      <trkpt lat="46.52516598813235759735107421875" lon="8.29113210551440715789794921875">
        <ele>2203.800048828125</ele>
        <time>2015-09-08T12:50:27.000Z</time>
        <extensions>
          <ns3:TrackPointExtension>
            <ns3:hr>118</ns3:hr>
          </ns3:TrackPointExtension>
        </extensions>
      </trkpt>
      <trkpt lat="46.52506322599947452545166015625" lon="8.29135992564260959625244140625">
        <ele>2203</ele>
        <time>2015-09-08T12:50:33.000Z</time>
        <extensions>
          <ns3:TrackPointExtension>
            <ns3:hr>115</ns3:hr>
          </ns3:TrackPointExtension>
        </extensions>
      </trkpt>
      <trkpt lat="46.52489290572702884674072265625" lon="8.2917539589107036590576171875">
        <ele>2201.39990234375</ele>
        <time>2015-09-08T12:50:45.000Z</time>
        <extensions>
          <ns3:TrackPointExtension>
            <ns3:hr>112</ns3:hr>
          </ns3:TrackPointExtension>
        </extensions>
      </trkpt>
      <trkpt lat="46.52483574114739894866943359375" lon="8.29184356145560741424560546875">
        <ele>2200.199951171875</ele>
        <time>2015-09-08T12:50:48.000Z</time>
        <extensions>
          <ns3:TrackPointExtension>
            <ns3:hr>109</ns3:hr>
          </ns3:TrackPointExtension>
        </extensions>
      </trkpt>
      <trkpt lat="46.52471185661852359771728515625" lon="8.2920315675437450408935546875">
        <ele>2200.60009765625</ele>
        <time>2015-09-08T12:50:55.000Z</time>
        <extensions>
          <ns3:TrackPointExtension>
            <ns3:hr>106</ns3:hr>
          </ns3:TrackPointExtension>
        </extensions>
      </trkpt>
      <trkpt lat="46.52443139813840389251708984375" lon="8.292700946331024169921875">
        <ele>2188.199951171875</ele>
        <time>2015-09-08T12:51:19.000Z</time>
        <extensions>
          <ns3:TrackPointExtension>
            <ns3:hr>107</ns3:hr>
          </ns3:TrackPointExtension>
        </extensions>
      </trkpt>
      <trkpt lat="46.52414876036345958709716796875" lon="8.2933663018047809600830078125">
        <ele>2186.60009765625</ele>
        <time>2015-09-08T12:51:43.000Z</time>
        <extensions>
          <ns3:TrackPointExtension>
            <ns3:hr>108</ns3:hr>
          </ns3:TrackPointExtension>
        </extensions>
      </trkpt>
      <trkpt lat="46.5241248719394207000732421875" lon="8.29343293793499469757080078125">
        <ele>2186</ele>
        <time>2015-09-08T12:51:46.000Z</time>
        <extensions>
          <ns3:TrackPointExtension>
            <ns3:hr>111</ns3:hr>
          </ns3:TrackPointExtension>
        </extensions>
      </trkpt>
      <trkpt lat="46.5240809507668018341064453125" lon="8.2936100475490093231201171875">
        <ele>2186.39990234375</ele>
        <time>2015-09-08T12:51:53.000Z</time>
        <extensions>
          <ns3:TrackPointExtension>
            <ns3:hr>114</ns3:hr>
          </ns3:TrackPointExtension>
        </extensions>
      </trkpt>
      <trkpt lat="46.52401506900787353515625" lon="8.293802328407764434814453125">
        <ele>2187</ele>
        <time>2015-09-08T12:52:03.000Z</time>
        <extensions>
          <ns3:TrackPointExtension>
            <ns3:hr>117</ns3:hr>
          </ns3:TrackPointExtension>
        </extensions>
      </trkpt>
      <trkpt lat="46.52397642843425273895263671875" lon="8.29395110718905925750732421875">
        <ele>2188.39990234375</ele>
        <time>2015-09-08T12:52:11.000Z</time>
        <extensions>
          <ns3:TrackPointExtension>
            <ns3:hr>120</ns3:hr>
          </ns3:TrackPointExtension>
        </extensions>
      </trkpt>
      <trkpt lat="46.52395647950470447540283203125" lon="8.294003494083881378173828125">
        <ele>2188.39990234375</ele>
        <time>2015-09-08T12:52:14.000Z</time>
        <extensions>
          <ns3:TrackPointExtension>
            <ns3:hr>121</ns3:hr>
          </ns3:TrackPointExtension>
        </extensions>
      </trkpt>
      <trkpt lat="46.52393435128033161163330078125" lon="8.29410751350224018096923828125">
        <ele>2189.39990234375</ele>
        <time>2015-09-08T12:52:19.000Z</time>
        <extensions>
          <ns3:TrackPointExtension>
            <ns3:hr>124</ns3:hr>
          </ns3:TrackPointExtension>
        </extensions>
      </trkpt>
      <trkpt lat="46.52391725219786167144775390625" lon="8.2942648418247699737548828125">
        <ele>2190.39990234375</ele>
        <time>2015-09-08T12:52:27.000Z</time>
        <extensions>
          <ns3:TrackPointExtension>
            <ns3:hr>127</ns3:hr>
          </ns3:TrackPointExtension>
        </extensions>
      </trkpt>
      <trkpt lat="46.52383661828935146331787109375" lon="8.294635824859142303466796875">
        <ele>2192.199951171875</ele>
        <time>2015-09-08T12:52:46.000Z</time>
        <extensions>
          <ns3:TrackPointExtension>
            <ns3:hr>130</ns3:hr>
          </ns3:TrackPointExtension>
        </extensions>
      </trkpt>
      <trkpt lat="46.523692868649959564208984375" lon="8.29538893885910511016845703125">
        <ele>2197</ele>
        <time>2015-09-08T12:53:25.000Z</time>
        <extensions>
          <ns3:TrackPointExtension>
            <ns3:hr>129</ns3:hr>
          </ns3:TrackPointExtension>
        </extensions>
      </trkpt>
      <trkpt lat="46.523641236126422882080078125" lon="8.295804597437381744384765625">
        <ele>2200.39990234375</ele>
        <time>2015-09-08T12:53:46.000Z</time>
        <extensions>
          <ns3:TrackPointExtension>
            <ns3:hr>128</ns3:hr>
          </ns3:TrackPointExtension>
        </extensions>
      </trkpt>
      <trkpt lat="46.5236434154212474822998046875" lon="8.29657447524368762969970703125">
        <ele>2206.800048828125</ele>
        <time>2015-09-08T12:54:26.000Z</time>
        <extensions>
          <ns3:TrackPointExtension>
            <ns3:hr>129</ns3:hr>
          </ns3:TrackPointExtension>
        </extensions>
      </trkpt>
      <trkpt lat="46.523805521428585052490234375" lon="8.29690505750477313995361328125">
        <ele>2209.800048828125</ele>
        <time>2015-09-08T12:54:46.000Z</time>
        <extensions>
          <ns3:TrackPointExtension>
            <ns3:hr>129</ns3:hr>
          </ns3:TrackPointExtension>
        </extensions>
      </trkpt>
      <trkpt lat="46.5240926854312419891357421875" lon="8.2969765551388263702392578125">
        <ele>2214.60009765625</ele>
        <time>2015-09-08T12:55:08.000Z</time>
        <extensions>
          <ns3:TrackPointExtension>
            <ns3:hr>132</ns3:hr>
          </ns3:TrackPointExtension>
        </extensions>
      </trkpt>
      <trkpt lat="46.52434657327830791473388671875" lon="8.29728408716619014739990234375">
        <ele>2219.60009765625</ele>
        <time>2015-09-08T12:55:29.000Z</time>
        <extensions>
          <ns3:TrackPointExtension>
            <ns3:hr>135</ns3:hr>
          </ns3:TrackPointExtension>
        </extensions>
      </trkpt>
      <trkpt lat="46.52463709004223346710205078125" lon="8.29745122231543064117431640625">
        <ele>2223.60009765625</ele>
        <time>2015-09-08T12:56:14.000Z</time>
        <extensions>
          <ns3:TrackPointExtension>
            <ns3:hr>132</ns3:hr>
          </ns3:TrackPointExtension>
        </extensions>
      </trkpt>
      <trkpt lat="46.52479383163154125213623046875" lon="8.297613076865673065185546875">
        <ele>2228</ele>
        <time>2015-09-08T12:56:38.000Z</time>
        <extensions>
          <ns3:TrackPointExtension>
            <ns3:hr>131</ns3:hr>
          </ns3:TrackPointExtension>
        </extensions>
      </trkpt>
      <trkpt lat="46.52494152076542377471923828125" lon="8.297748863697052001953125">
        <ele>2228.800048828125</ele>
        <time>2015-09-08T12:57:02.000Z</time>
        <extensions>
          <ns3:TrackPointExtension>
            <ns3:hr>128</ns3:hr>
          </ns3:TrackPointExtension>
        </extensions>
      </trkpt>
      <trkpt lat="46.52513480745255947113037109375" lon="8.29787367023527622222900390625">
        <ele>2229</ele>
        <time>2015-09-08T12:57:12.000Z</time>
        <extensions>
          <ns3:TrackPointExtension>
            <ns3:hr>125</ns3:hr>
          </ns3:TrackPointExtension>
        </extensions>
      </trkpt>
      <trkpt lat="46.52517185546457767486572265625" lon="8.297900073230266571044921875">
        <ele>2228.800048828125</ele>
        <time>2015-09-08T12:57:13.000Z</time>
        <extensions>
          <ns3:TrackPointExtension>
            <ns3:hr>124</ns3:hr>
          </ns3:TrackPointExtension>
        </extensions>
      </trkpt>
      <trkpt lat="46.525419540703296661376953125" lon="8.29811506904661655426025390625">
        <ele>2229</ele>
        <time>2015-09-08T12:57:24.000Z</time>
        <extensions>
          <ns3:TrackPointExtension>
            <ns3:hr>122</ns3:hr>
          </ns3:TrackPointExtension>
        </extensions>
      </trkpt>
      <trkpt lat="46.52544477023184299468994140625" lon="8.29835127107799053192138671875">
        <ele>2231.199951171875</ele>
        <time>2015-09-08T12:57:32.000Z</time>
        <extensions>
          <ns3:TrackPointExtension>
            <ns3:hr>121</ns3:hr>
          </ns3:TrackPointExtension>
        </extensions>
      </trkpt>
      <trkpt lat="46.52549095451831817626953125" lon="8.29844280146062374114990234375">
        <ele>2232</ele>
        <time>2015-09-08T12:57:37.000Z</time>
        <extensions>
          <ns3:TrackPointExtension>
            <ns3:hr>122</ns3:hr>
          </ns3:TrackPointExtension>
        </extensions>
      </trkpt>
      <trkpt lat="46.5255689062178134918212890625" lon="8.2986207492649555206298828125">
        <ele>2233.800048828125</ele>
        <time>2015-09-08T12:57:46.000Z</time>
        <extensions>
          <ns3:TrackPointExtension>
            <ns3:hr>124</ns3:hr>
          </ns3:TrackPointExtension>
        </extensions>
      </trkpt>
      <trkpt lat="46.52553747408092021942138671875" lon="8.2988909818232059478759765625">
        <ele>2237</ele>
        <time>2015-09-08T12:57:59.000Z</time>
        <extensions>
          <ns3:TrackPointExtension>
            <ns3:hr>127</ns3:hr>
          </ns3:TrackPointExtension>
        </extensions>
      </trkpt>
      <trkpt lat="46.52552875690162181854248046875" lon="8.29921938478946685791015625">
        <ele>2238.199951171875</ele>
        <time>2015-09-08T12:58:12.000Z</time>
        <extensions>
          <ns3:TrackPointExtension>
            <ns3:hr>130</ns3:hr>
          </ns3:TrackPointExtension>
        </extensions>
      </trkpt>
      <trkpt lat="46.52569555677473545074462890625" lon="8.2999464310705661773681640625">
        <ele>2240.800048828125</ele>
        <time>2015-09-08T12:58:42.000Z</time>
        <extensions>
          <ns3:TrackPointExtension>
            <ns3:hr>131</ns3:hr>
          </ns3:TrackPointExtension>
        </extensions>
      </trkpt>
      <trkpt lat="46.52591046877205371856689453125" lon="8.30062176100909709930419921875">
        <ele>2244.199951171875</ele>
        <time>2015-09-08T12:59:10.000Z</time>
        <extensions>
          <ns3:TrackPointExtension>
            <ns3:hr>129</ns3:hr>
          </ns3:TrackPointExtension>
        </extensions>
      </trkpt>
      <trkpt lat="46.5255038626492023468017578125" lon="8.30114814452826976776123046875">
        <ele>2242.199951171875</ele>
        <time>2015-09-08T12:59:37.000Z</time>
        <extensions>
          <ns3:TrackPointExtension>
            <ns3:hr>126</ns3:hr>
          </ns3:TrackPointExtension>
        </extensions>
      </trkpt>
      <trkpt lat="46.525363884866237640380859375" lon="8.3012773096561431884765625">
        <ele>2240.39990234375</ele>
        <time>2015-09-08T12:59:42.000Z</time>
        <extensions>
          <ns3:TrackPointExtension>
            <ns3:hr>123</ns3:hr>
          </ns3:TrackPointExtension>
        </extensions>
      </trkpt>
      <trkpt lat="46.5252520702779293060302734375" lon="8.30147034488618373870849609375">
        <ele>2238.800048828125</ele>
        <time>2015-09-08T12:59:48.000Z</time>
        <extensions>
          <ns3:TrackPointExtension>
            <ns3:hr>120</ns3:hr>
          </ns3:TrackPointExtension>
        </extensions>
      </trkpt>
      <trkpt lat="46.5251092426478862762451171875" lon="8.3022356964647769927978515625">
        <ele>2239.39990234375</ele>
        <time>2015-09-08T13:00:09.000Z</time>
        <extensions>
          <ns3:TrackPointExtension>
            <ns3:hr>120</ns3:hr>
          </ns3:TrackPointExtension>
        </extensions>
      </trkpt>
      <trkpt lat="46.5249015390872955322265625" lon="8.30299886874854564666748046875">
        <ele>2237.39990234375</ele>
        <time>2015-09-08T13:00:26.000Z</time>
        <extensions>
          <ns3:TrackPointExtension>
            <ns3:hr>117</ns3:hr>
          </ns3:TrackPointExtension>
        </extensions>
      </trkpt>
      <trkpt lat="46.5248358249664306640625" lon="8.303321488201618194580078125">
        <ele>2236.60009765625</ele>
        <time>2015-09-08T13:00:32.000Z</time>
        <extensions>
          <ns3:TrackPointExtension>
            <ns3:hr>114</ns3:hr>
          </ns3:TrackPointExtension>
        </extensions>
      </trkpt>
      <trkpt lat="46.5247843600809574127197265625" lon="8.3039623685181140899658203125">
        <ele>2234.800048828125</ele>
        <time>2015-09-08T13:00:45.000Z</time>
        <extensions>
          <ns3:TrackPointExtension>
            <ns3:hr>114</ns3:hr>
          </ns3:TrackPointExtension>
        </extensions>
      </trkpt>
      <trkpt lat="46.52479550801217555999755859375" lon="8.3043583296239376068115234375">
        <ele>2232.60009765625</ele>
        <time>2015-09-08T13:00:51.000Z</time>
        <extensions>
          <ns3:TrackPointExtension>
            <ns3:hr>113</ns3:hr>
          </ns3:TrackPointExtension>
        </extensions>
      </trkpt>
      <trkpt lat="46.52477170340716838836669921875" lon="8.30458740703761577606201171875">
        <ele>2232</ele>
        <time>2015-09-08T13:00:55.000Z</time>
        <extensions>
          <ns3:TrackPointExtension>
            <ns3:hr>113</ns3:hr>
          </ns3:TrackPointExtension>
        </extensions>
      </trkpt>
      <trkpt lat="46.52475577779114246368408203125" lon="8.30482914112508296966552734375">
        <ele>2229.39990234375</ele>
        <time>2015-09-08T13:01:01.000Z</time>
        <extensions>
          <ns3:TrackPointExtension>
            <ns3:hr>112</ns3:hr>
          </ns3:TrackPointExtension>
        </extensions>
      </trkpt>
      <trkpt lat="46.52475544251501560211181640625" lon="8.3051747269928455352783203125">
        <ele>2227.39990234375</ele>
        <time>2015-09-08T13:01:13.000Z</time>
        <extensions>
          <ns3:TrackPointExtension>
            <ns3:hr>115</ns3:hr>
          </ns3:TrackPointExtension>
        </extensions>
      </trkpt>
      <trkpt lat="46.52490464039146900177001953125" lon="8.30592691898345947265625">
        <ele>2221.800048828125</ele>
        <time>2015-09-08T13:01:28.000Z</time>
        <extensions>
          <ns3:TrackPointExtension>
            <ns3:hr>115</ns3:hr>
          </ns3:TrackPointExtension>
        </extensions>
      </trkpt>
      <trkpt lat="46.52513497509062290191650390625" lon="8.30659269355237483978271484375">
        <ele>2217.60009765625</ele>
        <time>2015-09-08T13:01:42.000Z</time>
        <extensions>
          <ns3:TrackPointExtension>
            <ns3:hr>112</ns3:hr>
          </ns3:TrackPointExtension>
        </extensions>
      </trkpt>
      <trkpt lat="46.52519322931766510009765625" lon="8.30674993805587291717529296875">
        <ele>2215.800048828125</ele>
        <time>2015-09-08T13:01:45.000Z</time>
        <extensions>
          <ns3:TrackPointExtension>
            <ns3:hr>112</ns3:hr>
          </ns3:TrackPointExtension>
        </extensions>
      </trkpt>
      <trkpt lat="46.525546275079250335693359375" lon="8.3074143715202808380126953125">
        <ele>2205.39990234375</ele>
        <time>2015-09-08T13:01:59.000Z</time>
        <extensions>
          <ns3:TrackPointExtension>
            <ns3:hr>112</ns3:hr>
          </ns3:TrackPointExtension>
        </extensions>
      </trkpt>
      <trkpt lat="46.52590644545853137969970703125" lon="8.30800655297935009002685546875">
        <ele>2201</ele>
        <time>2015-09-08T13:02:16.000Z</time>
        <extensions>
          <ns3:TrackPointExtension>
            <ns3:hr>110</ns3:hr>
          </ns3:TrackPointExtension>
        </extensions>
      </trkpt>
      <trkpt lat="46.52628245763480663299560546875" lon="8.3085831440985202789306640625">
        <ele>2195.800048828125</ele>
        <time>2015-09-08T13:02:34.000Z</time>
        <extensions>
          <ns3:TrackPointExtension>
            <ns3:hr>111</ns3:hr>
          </ns3:TrackPointExtension>
        </extensions>
      </trkpt>
      <trkpt lat="46.5264771692454814910888671875" lon="8.3088687993586063385009765625">
        <ele>2194.39990234375</ele>
        <time>2015-09-08T13:02:42.000Z</time>
        <extensions>
          <ns3:TrackPointExtension>
            <ns3:hr>108</ns3:hr>
          </ns3:TrackPointExtension>
        </extensions>
      </trkpt>
      <trkpt lat="46.526798196136951446533203125" lon="8.309198208153247833251953125">
        <ele>2188.39990234375</ele>
        <time>2015-09-08T13:02:59.000Z</time>
        <extensions>
          <ns3:TrackPointExtension>
            <ns3:hr>111</ns3:hr>
          </ns3:TrackPointExtension>
        </extensions>
      </trkpt>
      <trkpt lat="46.52678243815898895263671875" lon="8.30919024534523487091064453125">
        <ele>2190.60009765625</ele>
        <time>2015-09-08T13:04:11.000Z</time>
        <extensions>
          <ns3:TrackPointExtension>
            <ns3:hr>110</ns3:hr>
          </ns3:TrackPointExtension>
        </extensions>
      </trkpt>
      <trkpt lat="46.5264057554304599761962890625" lon="8.30911816097795963287353515625">
        <ele>2188.199951171875</ele>
        <time>2015-09-08T13:04:28.000Z</time>
        <extensions>
          <ns3:TrackPointExtension>
            <ns3:hr>107</ns3:hr>
          </ns3:TrackPointExtension>
        </extensions>
      </trkpt>
      <trkpt lat="46.525900997221469879150390625" lon="8.308842480182647705078125">
        <ele>2184.60009765625</ele>
        <time>2015-09-08T13:04:43.000Z</time>
        <extensions>
          <ns3:TrackPointExtension>
            <ns3:hr>106</ns3:hr>
          </ns3:TrackPointExtension>
        </extensions>
      </trkpt>
      <trkpt lat="46.52564979158341884613037109375" lon="8.30865673720836639404296875">
        <ele>2181.199951171875</ele>
        <time>2015-09-08T13:04:57.000Z</time>
        <extensions>
          <ns3:TrackPointExtension>
            <ns3:hr>109</ns3:hr>
          </ns3:TrackPointExtension>
        </extensions>
      </trkpt>
      <trkpt lat="46.5257003344595432281494140625" lon="8.3087579905986785888671875">
        <ele>2180.199951171875</ele>
        <time>2015-09-08T13:05:03.000Z</time>
        <extensions>
          <ns3:TrackPointExtension>
            <ns3:hr>112</ns3:hr>
          </ns3:TrackPointExtension>
        </extensions>
      </trkpt>
      <trkpt lat="46.52595606632530689239501953125" lon="8.30922804772853851318359375">
        <ele>2174.800048828125</ele>
        <time>2015-09-08T13:05:18.000Z</time>
        <extensions>
          <ns3:TrackPointExtension>
            <ns3:hr>109</ns3:hr>
          </ns3:TrackPointExtension>
        </extensions>
      </trkpt>
      <trkpt lat="46.52622311376035213470458984375" lon="8.30967471934854984283447265625">
        <ele>2167.800048828125</ele>
        <time>2015-09-08T13:05:29.000Z</time>
        <extensions>
          <ns3:TrackPointExtension>
            <ns3:hr>108</ns3:hr>
          </ns3:TrackPointExtension>
        </extensions>
      </trkpt>
      <trkpt lat="46.52642025612294673919677734375" lon="8.30986800603568553924560546875">
        <ele>2165</ele>
        <time>2015-09-08T13:05:34.000Z</time>
        <extensions>
          <ns3:TrackPointExtension>
            <ns3:hr>108</ns3:hr>
          </ns3:TrackPointExtension>
        </extensions>
      </trkpt>
      <trkpt lat="46.52656123973429203033447265625" lon="8.30994025804102420806884765625">
        <ele>2165</ele>
        <time>2015-09-08T13:05:38.000Z</time>
        <extensions>
          <ns3:TrackPointExtension>
            <ns3:hr>107</ns3:hr>
          </ns3:TrackPointExtension>
        </extensions>
      </trkpt>
      <trkpt lat="46.52677849866449832916259765625" lon="8.31008744426071643829345703125">
        <ele>2163.39990234375</ele>
        <time>2015-09-08T13:05:44.000Z</time>
        <extensions>
          <ns3:TrackPointExtension>
            <ns3:hr>107</ns3:hr>
          </ns3:TrackPointExtension>
        </extensions>
      </trkpt>
      <trkpt lat="46.5269220806658267974853515625" lon="8.310115523636341094970703125">
        <ele>2162.39990234375</ele>
        <time>2015-09-08T13:05:48.000Z</time>
        <extensions>
          <ns3:TrackPointExtension>
            <ns3:hr>104</ns3:hr>
          </ns3:TrackPointExtension>
        </extensions>
      </trkpt>
      <trkpt lat="46.5269673429429531097412109375" lon="8.310136310756206512451171875">
        <ele>2161.800048828125</ele>
        <time>2015-09-08T13:05:50.000Z</time>
        <extensions>
          <ns3:TrackPointExtension>
            <ns3:hr>104</ns3:hr>
          </ns3:TrackPointExtension>
        </extensions>
      </trkpt>
      <trkpt lat="46.526968181133270263671875" lon="8.31019825302064418792724609375">
        <ele>2160.800048828125</ele>
        <time>2015-09-08T13:05:54.000Z</time>
        <extensions>
          <ns3:TrackPointExtension>
            <ns3:hr>104</ns3:hr>
          </ns3:TrackPointExtension>
        </extensions>
      </trkpt>
      <trkpt lat="46.526902131736278533935546875" lon="8.31024133600294589996337890625">
        <ele>2159</ele>
        <time>2015-09-08T13:05:58.000Z</time>
        <extensions>
          <ns3:TrackPointExtension>
            <ns3:hr>103</ns3:hr>
          </ns3:TrackPointExtension>
        </extensions>
      </trkpt>
      <trkpt lat="46.5267447195947170257568359375" lon="8.3102675713598728179931640625">
        <ele>2157</ele>
        <time>2015-09-08T13:06:06.000Z</time>
        <extensions>
          <ns3:TrackPointExtension>
            <ns3:hr>102</ns3:hr>
          </ns3:TrackPointExtension>
        </extensions>
      </trkpt>
      <trkpt lat="46.52669484727084636688232421875" lon="8.310391120612621307373046875">
        <ele>2155.39990234375</ele>
        <time>2015-09-08T13:06:13.000Z</time>
        <extensions>
          <ns3:TrackPointExtension>
            <ns3:hr>101</ns3:hr>
          </ns3:TrackPointExtension>
        </extensions>
      </trkpt>
      <trkpt lat="46.5268466435372829437255859375" lon="8.310448117554187774658203125">
        <ele>2152.60009765625</ele>
        <time>2015-09-08T13:06:19.000Z</time>
        <extensions>
          <ns3:TrackPointExtension>
            <ns3:hr>102</ns3:hr>
          </ns3:TrackPointExtension>
        </extensions>
      </trkpt>
      <trkpt lat="46.52694831602275371551513671875" lon="8.3104348741471767425537109375">
        <ele>2151.60009765625</ele>
        <time>2015-09-08T13:06:21.000Z</time>
        <extensions>
          <ns3:TrackPointExtension>
            <ns3:hr>102</ns3:hr>
          </ns3:TrackPointExtension>
        </extensions>
      </trkpt>
      <trkpt lat="46.52715082280337810516357421875" lon="8.310307972133159637451171875">
        <ele>2150.800048828125</ele>
        <time>2015-09-08T13:06:25.000Z</time>
        <extensions>
          <ns3:TrackPointExtension>
            <ns3:hr>102</ns3:hr>
          </ns3:TrackPointExtension>
        </extensions>
      </trkpt>
      <trkpt lat="46.52730186469852924346923828125" lon="8.310200683772563934326171875">
        <ele>2150.199951171875</ele>
        <time>2015-09-08T13:06:29.000Z</time>
        <extensions>
          <ns3:TrackPointExtension>
            <ns3:hr>105</ns3:hr>
          </ns3:TrackPointExtension>
        </extensions>
      </trkpt>
      <trkpt lat="46.52752616442739963531494140625" lon="8.31010605208575725555419921875">
        <ele>2148.60009765625</ele>
        <time>2015-09-08T13:06:35.000Z</time>
        <extensions>
          <ns3:TrackPointExtension>
            <ns3:hr>102</ns3:hr>
          </ns3:TrackPointExtension>
        </extensions>
      </trkpt>
      <trkpt lat="46.52801491320133209228515625" lon="8.30993841402232646942138671875">
        <ele>2146.39990234375</ele>
        <time>2015-09-08T13:06:46.000Z</time>
        <extensions>
          <ns3:TrackPointExtension>
            <ns3:hr>101</ns3:hr>
          </ns3:TrackPointExtension>
        </extensions>
      </trkpt>
      <trkpt lat="46.5285022370517253875732421875" lon="8.30978720448911190032958984375">
        <ele>2141.800048828125</ele>
        <time>2015-09-08T13:06:57.000Z</time>
        <extensions>
          <ns3:TrackPointExtension>
            <ns3:hr>104</ns3:hr>
          </ns3:TrackPointExtension>
        </extensions>
      </trkpt>
      <trkpt lat="46.52860156260430812835693359375" lon="8.30974613316357135772705078125">
        <ele>2141</ele>
        <time>2015-09-08T13:06:59.000Z</time>
        <extensions>
          <ns3:TrackPointExtension>
            <ns3:hr>104</ns3:hr>
          </ns3:TrackPointExtension>
        </extensions>
      </trkpt>
      <trkpt lat="46.52893960475921630859375" lon="8.30943985842168331146240234375">
        <ele>2137.39990234375</ele>
        <time>2015-09-08T13:07:06.000Z</time>
        <extensions>
          <ns3:TrackPointExtension>
            <ns3:hr>102</ns3:hr>
          </ns3:TrackPointExtension>
        </extensions>
      </trkpt>
      <trkpt lat="46.5293112583458423614501953125" lon="8.3089135587215423583984375">
        <ele>2134.60009765625</ele>
        <time>2015-09-08T13:07:14.000Z</time>
        <extensions>
          <ns3:TrackPointExtension>
            <ns3:hr>101</ns3:hr>
          </ns3:TrackPointExtension>
        </extensions>
      </trkpt>
      <trkpt lat="46.52972172014415264129638671875" lon="8.30879026092588901519775390625">
        <ele>2129.60009765625</ele>
        <time>2015-09-08T13:07:27.000Z</time>
        <extensions>
          <ns3:TrackPointExtension>
            <ns3:hr>99</ns3:hr>
          </ns3:TrackPointExtension>
        </extensions>
      </trkpt>
      <trkpt lat="46.530230753123760223388671875" lon="8.30867685377597808837890625">
        <ele>2124.199951171875</ele>
        <time>2015-09-08T13:07:39.000Z</time>
        <extensions>
          <ns3:TrackPointExtension>
            <ns3:hr>98</ns3:hr>
          </ns3:TrackPointExtension>
        </extensions>
      </trkpt>
      <trkpt lat="46.53030677698552608489990234375" lon="8.308643996715545654296875">
        <ele>2124</ele>
        <time>2015-09-08T13:07:41.000Z</time>
        <extensions>
          <ns3:TrackPointExtension>
            <ns3:hr>99</ns3:hr>
          </ns3:TrackPointExtension>
        </extensions>
      </trkpt>
      <trkpt lat="46.5304297395050525665283203125" lon="8.30849035643041133880615234375">
        <ele>2122.60009765625</ele>
        <time>2015-09-08T13:07:45.000Z</time>
        <extensions>
          <ns3:TrackPointExtension>
            <ns3:hr>99</ns3:hr>
          </ns3:TrackPointExtension>
        </extensions>
      </trkpt>
      <trkpt lat="46.53045530430972576141357421875" lon="8.30844207666814327239990234375">
        <ele>2122</ele>
        <time>2015-09-08T13:07:46.000Z</time>
        <extensions>
          <ns3:TrackPointExtension>
            <ns3:hr>99</ns3:hr>
          </ns3:TrackPointExtension>
        </extensions>
      </trkpt>
      <trkpt lat="46.5305078588426113128662109375" lon="8.308339230716228485107421875">
        <ele>2121.199951171875</ele>
        <time>2015-09-08T13:07:48.000Z</time>
        <extensions>
          <ns3:TrackPointExtension>
            <ns3:hr>99</ns3:hr>
          </ns3:TrackPointExtension>
        </extensions>
      </trkpt>
      <trkpt lat="46.5308935940265655517578125" lon="8.30784511752426624298095703125">
        <ele>2120</ele>
        <time>2015-09-08T13:07:58.000Z</time>
        <extensions>
          <ns3:TrackPointExtension>
            <ns3:hr>102</ns3:hr>
          </ns3:TrackPointExtension>
        </extensions>
      </trkpt>
      <trkpt lat="46.531082354485988616943359375" lon="8.307605646550655364990234375">
        <ele>2120.39990234375</ele>
        <time>2015-09-08T13:08:02.000Z</time>
        <extensions>
          <ns3:TrackPointExtension>
            <ns3:hr>102</ns3:hr>
          </ns3:TrackPointExtension>
        </extensions>
      </trkpt>
      <trkpt lat="46.5312783233821392059326171875" lon="8.3074130304157733917236328125">
        <ele>2118.800048828125</ele>
        <time>2015-09-08T13:08:07.000Z</time>
        <extensions>
          <ns3:TrackPointExtension>
            <ns3:hr>102</ns3:hr>
          </ns3:TrackPointExtension>
        </extensions>
      </trkpt>
      <trkpt lat="46.531454510986804962158203125" lon="8.30726425163447856903076171875">
        <ele>2117.39990234375</ele>
        <time>2015-09-08T13:08:11.000Z</time>
        <extensions>
          <ns3:TrackPointExtension>
            <ns3:hr>104</ns3:hr>
          </ns3:TrackPointExtension>
        </extensions>
      </trkpt>
      <trkpt lat="46.5315364859998226165771484375" lon="8.30718797631561756134033203125">
        <ele>2116</ele>
        <time>2015-09-08T13:08:13.000Z</time>
        <extensions>
          <ns3:TrackPointExtension>
            <ns3:hr>103</ns3:hr>
          </ns3:TrackPointExtension>
        </extensions>
      </trkpt>
      <trkpt lat="46.53171024285256862640380859375" lon="8.30707297660410404205322265625">
        <ele>2113.39990234375</ele>
        <time>2015-09-08T13:08:17.000Z</time>
        <extensions>
          <ns3:TrackPointExtension>
            <ns3:hr>102</ns3:hr>
          </ns3:TrackPointExtension>
        </extensions>
      </trkpt>
      <trkpt lat="46.5320657193660736083984375" lon="8.30684800632297992706298828125">
        <ele>2110.800048828125</ele>
        <time>2015-09-08T13:08:24.000Z</time>
        <extensions>
          <ns3:TrackPointExtension>
            <ns3:hr>105</ns3:hr>
          </ns3:TrackPointExtension>
        </extensions>
      </trkpt>
      <trkpt lat="46.53236386366188526153564453125" lon="8.306739293038845062255859375">
        <ele>2111.60009765625</ele>
        <time>2015-09-08T13:08:29.000Z</time>
        <extensions>
          <ns3:TrackPointExtension>
            <ns3:hr>102</ns3:hr>
          </ns3:TrackPointExtension>
        </extensions>
      </trkpt>
      <trkpt lat="46.53257441706955432891845703125" lon="8.30667986534535884857177734375">
        <ele>2111.39990234375</ele>
        <time>2015-09-08T13:08:34.000Z</time>
        <extensions>
          <ns3:TrackPointExtension>
            <ns3:hr>103</ns3:hr>
          </ns3:TrackPointExtension>
        </extensions>
      </trkpt>
      <trkpt lat="46.53296082280576229095458984375" lon="8.30690014176070690155029296875">
        <ele>2109.39990234375</ele>
        <time>2015-09-08T13:08:42.000Z</time>
        <extensions>
          <ns3:TrackPointExtension>
            <ns3:hr>103</ns3:hr>
          </ns3:TrackPointExtension>
        </extensions>
      </trkpt>
      <trkpt lat="46.53305419720709323883056640625" lon="8.3069600723683834075927734375">
        <ele>2109.800048828125</ele>
        <time>2015-09-08T13:08:44.000Z</time>
        <extensions>
          <ns3:TrackPointExtension>
            <ns3:hr>102</ns3:hr>
          </ns3:TrackPointExtension>
        </extensions>
      </trkpt>
      <trkpt lat="46.5331313945353031158447265625" lon="8.30716534517705440521240234375">
        <ele>2110.39990234375</ele>
        <time>2015-09-08T13:08:48.000Z</time>
        <extensions>
          <ns3:TrackPointExtension>
            <ns3:hr>102</ns3:hr>
          </ns3:TrackPointExtension>
        </extensions>
      </trkpt>
      <trkpt lat="46.533169783651828765869140625" lon="8.3075293712317943572998046875">
        <ele>2109.199951171875</ele>
        <time>2015-09-08T13:08:55.000Z</time>
        <extensions>
          <ns3:TrackPointExtension>
            <ns3:hr>105</ns3:hr>
          </ns3:TrackPointExtension>
        </extensions>
      </trkpt>
      <trkpt lat="46.53320088051259517669677734375" lon="8.30796380527317523956298828125">
        <ele>2112.800048828125</ele>
        <time>2015-09-08T13:09:05.000Z</time>
        <extensions>
          <ns3:TrackPointExtension>
            <ns3:hr>108</ns3:hr>
          </ns3:TrackPointExtension>
        </extensions>
      </trkpt>
      <trkpt lat="46.533215045928955078125" lon="8.30823034979403018951416015625">
        <ele>2114.800048828125</ele>
        <time>2015-09-08T13:09:11.000Z</time>
        <extensions>
          <ns3:TrackPointExtension>
            <ns3:hr>111</ns3:hr>
          </ns3:TrackPointExtension>
        </extensions>
      </trkpt>
      <trkpt lat="46.53320976532995700836181640625" lon="8.30867593176662921905517578125">
        <ele>2118.800048828125</ele>
        <time>2015-09-08T13:09:21.000Z</time>
        <extensions>
          <ns3:TrackPointExtension>
            <ns3:hr>114</ns3:hr>
          </ns3:TrackPointExtension>
        </extensions>
      </trkpt>
      <trkpt lat="46.5331870503723621368408203125" lon="8.30897717736661434173583984375">
        <ele>2119.199951171875</ele>
        <time>2015-09-08T13:09:29.000Z</time>
        <extensions>
          <ns3:TrackPointExtension>
            <ns3:hr>117</ns3:hr>
          </ns3:TrackPointExtension>
        </extensions>
      </trkpt>
      <trkpt lat="46.53315796516835689544677734375" lon="8.309416472911834716796875">
        <ele>2122.199951171875</ele>
        <time>2015-09-08T13:09:40.000Z</time>
        <extensions>
          <ns3:TrackPointExtension>
            <ns3:hr>120</ns3:hr>
          </ns3:TrackPointExtension>
        </extensions>
      </trkpt>
      <trkpt lat="46.5331427939236164093017578125" lon="8.31022473983466625213623046875">
        <ele>2126.39990234375</ele>
        <time>2015-09-08T13:09:59.000Z</time>
        <extensions>
          <ns3:TrackPointExtension>
            <ns3:hr>121</ns3:hr>
          </ns3:TrackPointExtension>
        </extensions>
      </trkpt>
      <trkpt lat="46.533144302666187286376953125" lon="8.31100878305733203887939453125">
        <ele>2126.39990234375</ele>
        <time>2015-09-08T13:10:22.000Z</time>
        <extensions>
          <ns3:TrackPointExtension>
            <ns3:hr>122</ns3:hr>
          </ns3:TrackPointExtension>
        </extensions>
      </trkpt>
      <trkpt lat="46.53308185748755931854248046875" lon="8.3113773353397846221923828125">
        <ele>2130.199951171875</ele>
        <time>2015-09-08T13:10:37.000Z</time>
        <extensions>
          <ns3:TrackPointExtension>
            <ns3:hr>125</ns3:hr>
          </ns3:TrackPointExtension>
        </extensions>
      </trkpt>
      <trkpt lat="46.5330179035663604736328125" lon="8.311834149062633514404296875">
        <ele>2132.800048828125</ele>
        <time>2015-09-08T13:10:57.000Z</time>
        <extensions>
          <ns3:TrackPointExtension>
            <ns3:hr>128</ns3:hr>
          </ns3:TrackPointExtension>
        </extensions>
      </trkpt>
      <trkpt lat="46.53289712034165859222412109375" lon="8.3125025220215320587158203125">
        <ele>2135.60009765625</ele>
        <time>2015-09-08T13:11:33.000Z</time>
        <extensions>
          <ns3:TrackPointExtension>
            <ns3:hr>131</ns3:hr>
          </ns3:TrackPointExtension>
        </extensions>
      </trkpt>
      <trkpt lat="46.5328641794621944427490234375" lon="8.31259916536509990692138671875">
        <ele>2136.39990234375</ele>
        <time>2015-09-08T13:11:39.000Z</time>
        <extensions>
          <ns3:TrackPointExtension>
            <ns3:hr>131</ns3:hr>
          </ns3:TrackPointExtension>
        </extensions>
      </trkpt>
      <trkpt lat="46.5328393690288066864013671875" lon="8.3126708306372165679931640625">
        <ele>2136.60009765625</ele>
        <time>2015-09-08T13:11:43.000Z</time>
        <extensions>
          <ns3:TrackPointExtension>
            <ns3:hr>131</ns3:hr>
          </ns3:TrackPointExtension>
        </extensions>
      </trkpt>
      <trkpt lat="46.53280860744416713714599609375" lon="8.3127558231353759765625">
        <ele>2137.199951171875</ele>
        <time>2015-09-08T13:11:48.000Z</time>
        <extensions>
          <ns3:TrackPointExtension>
            <ns3:hr>132</ns3:hr>
          </ns3:TrackPointExtension>
        </extensions>
      </trkpt>
      <trkpt lat="46.532785892486572265625" lon="8.312844336032867431640625">
        <ele>2138</ele>
        <time>2015-09-08T13:11:53.000Z</time>
        <extensions>
          <ns3:TrackPointExtension>
            <ns3:hr>132</ns3:hr>
          </ns3:TrackPointExtension>
        </extensions>
      </trkpt>
      <trkpt lat="46.53275747783482074737548828125" lon="8.312909044325351715087890625">
        <ele>2138.60009765625</ele>
        <time>2015-09-08T13:11:57.000Z</time>
        <extensions>
          <ns3:TrackPointExtension>
            <ns3:hr>132</ns3:hr>
          </ns3:TrackPointExtension>
        </extensions>
      </trkpt>
      <trkpt lat="46.532713808119297027587890625" lon="8.3130460046231746673583984375">
        <ele>2139.800048828125</ele>
        <time>2015-09-08T13:12:06.000Z</time>
        <extensions>
          <ns3:TrackPointExtension>
            <ns3:hr>132</ns3:hr>
          </ns3:TrackPointExtension>
        </extensions>
      </trkpt>
      <trkpt lat="46.53245036490261554718017578125" lon="8.31374094821512699127197265625">
        <ele>2149.60009765625</ele>
        <time>2015-09-08T13:12:50.000Z</time>
        <extensions>
          <ns3:TrackPointExtension>
            <ns3:hr>133</ns3:hr>
          </ns3:TrackPointExtension>
        </extensions>
      </trkpt>
      <trkpt lat="46.53243578039109706878662109375" lon="8.31385209225118160247802734375">
        <ele>2150.800048828125</ele>
        <time>2015-09-08T13:12:56.000Z</time>
        <extensions>
          <ns3:TrackPointExtension>
            <ns3:hr>133</ns3:hr>
          </ns3:TrackPointExtension>
        </extensions>
      </trkpt>
      <trkpt lat="46.5323956310749053955078125" lon="8.31411235034465789794921875">
        <ele>2153.60009765625</ele>
        <time>2015-09-08T13:13:10.000Z</time>
        <extensions>
          <ns3:TrackPointExtension>
            <ns3:hr>133</ns3:hr>
          </ns3:TrackPointExtension>
        </extensions>
      </trkpt>
      <trkpt lat="46.5323455072939395904541015625" lon="8.314286358654499053955078125">
        <ele>2155</ele>
        <time>2015-09-08T13:13:33.000Z</time>
        <extensions>
          <ns3:TrackPointExtension>
            <ns3:hr>130</ns3:hr>
          </ns3:TrackPointExtension>
        </extensions>
      </trkpt>
      <trkpt lat="46.53236419893801212310791015625" lon="8.31430706195533275604248046875">
        <ele>2156</ele>
        <time>2015-09-08T13:13:49.000Z</time>
        <extensions>
          <ns3:TrackPointExtension>
            <ns3:hr>127</ns3:hr>
          </ns3:TrackPointExtension>
        </extensions>
      </trkpt>
      <trkpt lat="46.53235112316906452178955078125" lon="8.31432600505650043487548828125">
        <ele>2156</ele>
        <time>2015-09-08T13:13:55.000Z</time>
        <extensions>
          <ns3:TrackPointExtension>
            <ns3:hr>124</ns3:hr>
          </ns3:TrackPointExtension>
        </extensions>
      </trkpt>
      <trkpt lat="46.53234223835170269012451171875" lon="8.3143651485443115234375">
        <ele>2156.60009765625</ele>
        <time>2015-09-08T13:14:04.000Z</time>
        <extensions>
          <ns3:TrackPointExtension>
            <ns3:hr>121</ns3:hr>
          </ns3:TrackPointExtension>
        </extensions>
      </trkpt>
      <trkpt lat="46.53216160833835601806640625" lon="8.3151216991245746612548828125">
        <ele>2160.39990234375</ele>
        <time>2015-09-08T13:14:51.000Z</time>
        <extensions>
          <ns3:TrackPointExtension>
            <ns3:hr>121</ns3:hr>
          </ns3:TrackPointExtension>
        </extensions>
      </trkpt>
      <trkpt lat="46.53212062083184719085693359375" lon="8.31551774404942989349365234375">
        <ele>2163</ele>
        <time>2015-09-08T13:15:08.000Z</time>
        <extensions>
          <ns3:TrackPointExtension>
            <ns3:hr>124</ns3:hr>
          </ns3:TrackPointExtension>
        </extensions>
      </trkpt>
      <trkpt lat="46.53220091946423053741455078125" lon="8.3162928186357021331787109375">
        <ele>2166</ele>
        <time>2015-09-08T13:15:38.000Z</time>
        <extensions>
          <ns3:TrackPointExtension>
            <ns3:hr>124</ns3:hr>
          </ns3:TrackPointExtension>
        </extensions>
      </trkpt>
      <trkpt lat="46.53248137794435024261474609375" lon="8.3169789612293243408203125">
        <ele>2169.800048828125</ele>
        <time>2015-09-08T13:16:07.000Z</time>
        <extensions>
          <ns3:TrackPointExtension>
            <ns3:hr>124</ns3:hr>
          </ns3:TrackPointExtension>
        </extensions>
      </trkpt>
      <trkpt lat="46.53273987583816051483154296875" lon="8.31768278963863849639892578125">
        <ele>2174.39990234375</ele>
        <time>2015-09-08T13:16:35.000Z</time>
        <extensions>
          <ns3:TrackPointExtension>
            <ns3:hr>123</ns3:hr>
          </ns3:TrackPointExtension>
        </extensions>
      </trkpt>
      <trkpt lat="46.53300382196903228759765625" lon="8.31816843710839748382568359375">
        <ele>2178.39990234375</ele>
        <time>2015-09-08T13:16:58.000Z</time>
        <extensions>
          <ns3:TrackPointExtension>
            <ns3:hr>126</ns3:hr>
          </ns3:TrackPointExtension>
        </extensions>
      </trkpt>
      <trkpt lat="46.533137597143650054931640625" lon="8.3185532502830028533935546875">
        <ele>2181.60009765625</ele>
        <time>2015-09-08T13:17:17.000Z</time>
        <extensions>
          <ns3:TrackPointExtension>
            <ns3:hr>129</ns3:hr>
          </ns3:TrackPointExtension>
        </extensions>
      </trkpt>
      <trkpt lat="46.533501707017421722412109375" lon="8.3191379718482494354248046875">
        <ele>2185</ele>
        <time>2015-09-08T13:17:49.000Z</time>
        <extensions>
          <ns3:TrackPointExtension>
            <ns3:hr>129</ns3:hr>
          </ns3:TrackPointExtension>
        </extensions>
      </trkpt>
      <trkpt lat="46.53380571864545345306396484375" lon="8.31951029598712921142578125">
        <ele>2187.199951171875</ele>
        <time>2015-09-08T13:18:12.000Z</time>
        <extensions>
          <ns3:TrackPointExtension>
            <ns3:hr>126</ns3:hr>
          </ns3:TrackPointExtension>
        </extensions>
      </trkpt>
      <trkpt lat="46.53381443582475185394287109375" lon="8.3195297420024871826171875">
        <ele>2187.39990234375</ele>
        <time>2015-09-08T13:18:13.000Z</time>
        <extensions>
          <ns3:TrackPointExtension>
            <ns3:hr>126</ns3:hr>
          </ns3:TrackPointExtension>
        </extensions>
      </trkpt>
      <trkpt lat="46.53397905640304088592529296875" lon="8.3199347555637359619140625">
        <ele>2185.199951171875</ele>
        <time>2015-09-08T13:18:24.000Z</time>
        <extensions>
          <ns3:TrackPointExtension>
            <ns3:hr>123</ns3:hr>
          </ns3:TrackPointExtension>
        </extensions>
      </trkpt>
      <trkpt lat="46.534050218760967254638671875" lon="8.32011169753968715667724609375">
        <ele>2183.800048828125</ele>
        <time>2015-09-08T13:18:27.000Z</time>
        <extensions>
          <ns3:TrackPointExtension>
            <ns3:hr>122</ns3:hr>
          </ns3:TrackPointExtension>
        </extensions>
      </trkpt>
      <trkpt lat="46.534161530435085296630859375" lon="8.32029827870428562164306640625">
        <ele>2181.199951171875</ele>
        <time>2015-09-08T13:18:31.000Z</time>
        <extensions>
          <ns3:TrackPointExtension>
            <ns3:hr>121</ns3:hr>
          </ns3:TrackPointExtension>
        </extensions>
      </trkpt>
      <trkpt lat="46.5342646278440952301025390625" lon="8.32045569084584712982177734375">
        <ele>2179</ele>
        <time>2015-09-08T13:18:35.000Z</time>
        <extensions>
          <ns3:TrackPointExtension>
            <ns3:hr>118</ns3:hr>
          </ns3:TrackPointExtension>
        </extensions>
      </trkpt>
      <trkpt lat="46.534366048872470855712890625" lon="8.32056105136871337890625">
        <ele>2176.800048828125</ele>
        <time>2015-09-08T13:18:39.000Z</time>
        <extensions>
          <ns3:TrackPointExtension>
            <ns3:hr>115</ns3:hr>
          </ns3:TrackPointExtension>
        </extensions>
      </trkpt>
      <trkpt lat="46.53445330448448657989501953125" lon="8.3206245861947536468505859375">
        <ele>2175.39990234375</ele>
        <time>2015-09-08T13:18:43.000Z</time>
        <extensions>
          <ns3:TrackPointExtension>
            <ns3:hr>112</ns3:hr>
          </ns3:TrackPointExtension>
        </extensions>
      </trkpt>
      <trkpt lat="46.53446973301470279693603515625" lon="8.3206316269934177398681640625">
        <ele>2175</ele>
        <time>2015-09-08T13:18:47.000Z</time>
        <extensions>
          <ns3:TrackPointExtension>
            <ns3:hr>112</ns3:hr>
          </ns3:TrackPointExtension>
        </extensions>
      </trkpt>
      <trkpt lat="46.5345298312604427337646484375" lon="8.32067512907087802886962890625">
        <ele>2174.39990234375</ele>
        <time>2015-09-08T13:22:57.000Z</time>
        <extensions>
          <ns3:TrackPointExtension>
            <ns3:hr>103</ns3:hr>
          </ns3:TrackPointExtension>
        </extensions>
      </trkpt>
      <trkpt lat="46.53452999889850616455078125" lon="8.32067429088056087493896484375">
        <ele>2174.39990234375</ele>
        <time>2015-09-08T13:22:58.000Z</time>
        <extensions>
          <ns3:TrackPointExtension>
            <ns3:hr>103</ns3:hr>
          </ns3:TrackPointExtension>
        </extensions>
      </trkpt>
      <trkpt lat="46.53486192226409912109375" lon="8.32093278877437114715576171875">
        <ele>2171</ele>
        <time>2015-09-08T13:23:10.000Z</time>
        <extensions>
          <ns3:TrackPointExtension>
            <ns3:hr>102</ns3:hr>
          </ns3:TrackPointExtension>
        </extensions>
      </trkpt>
      <trkpt lat="46.53506853617727756500244140625" lon="8.3211337029933929443359375">
        <ele>2168</ele>
        <time>2015-09-08T13:23:14.000Z</time>
        <extensions>
          <ns3:TrackPointExtension>
            <ns3:hr>101</ns3:hr>
          </ns3:TrackPointExtension>
        </extensions>
      </trkpt>
      <trkpt lat="46.535160653293132781982421875" lon="8.321243338286876678466796875">
        <ele>2166.39990234375</ele>
        <time>2015-09-08T13:23:16.000Z</time>
        <extensions>
          <ns3:TrackPointExtension>
            <ns3:hr>100</ns3:hr>
          </ns3:TrackPointExtension>
        </extensions>
      </trkpt>
      <trkpt lat="46.53566264547407627105712890625" lon="8.32150460220873355865478515625">
        <ele>2158</ele>
        <time>2015-09-08T13:23:24.000Z</time>
        <extensions>
          <ns3:TrackPointExtension>
            <ns3:hr>99</ns3:hr>
          </ns3:TrackPointExtension>
        </extensions>
      </trkpt>
      <trkpt lat="46.53587772510945796966552734375" lon="8.3217202685773372650146484375">
        <ele>2153.39990234375</ele>
        <time>2015-09-08T13:23:28.000Z</time>
        <extensions>
          <ns3:TrackPointExtension>
            <ns3:hr>99</ns3:hr>
          </ns3:TrackPointExtension>
        </extensions>
      </trkpt>
      <trkpt lat="46.53600328601896762847900390625" lon="8.32184658385813236236572265625">
        <ele>2150.39990234375</ele>
        <time>2015-09-08T13:23:30.000Z</time>
        <extensions>
          <ns3:TrackPointExtension>
            <ns3:hr>99</ns3:hr>
          </ns3:TrackPointExtension>
        </extensions>
      </trkpt>
      <trkpt lat="46.53630084358155727386474609375" lon="8.32208521664142608642578125">
        <ele>2145.199951171875</ele>
        <time>2015-09-08T13:23:35.000Z</time>
        <extensions>
          <ns3:TrackPointExtension>
            <ns3:hr>100</ns3:hr>
          </ns3:TrackPointExtension>
        </extensions>
      </trkpt>
      <trkpt lat="46.5363285876810550689697265625" lon="8.32215386442840099334716796875">
        <ele>2144.800048828125</ele>
        <time>2015-09-08T13:23:41.000Z</time>
        <extensions>
          <ns3:TrackPointExtension>
            <ns3:hr>103</ns3:hr>
          </ns3:TrackPointExtension>
        </extensions>
      </trkpt>
      <trkpt lat="46.53640218079090118408203125" lon="8.32220097072422504425048828125">
        <ele>2147.60009765625</ele>
        <time>2015-09-08T13:24:25.000Z</time>
        <extensions>
          <ns3:TrackPointExtension>
            <ns3:hr>106</ns3:hr>
          </ns3:TrackPointExtension>
        </extensions>
      </trkpt>
      <trkpt lat="46.5365331061184406280517578125" lon="8.322285376489162445068359375">
        <ele>2146.60009765625</ele>
        <time>2015-09-08T13:24:28.000Z</time>
        <extensions>
          <ns3:TrackPointExtension>
            <ns3:hr>63</ns3:hr>
          </ns3:TrackPointExtension>
        </extensions>
      </trkpt>
      <trkpt lat="46.5365914441645145416259765625" lon="8.32231211476027965545654296875">
        <ele>2146</ele>
        <time>2015-09-08T13:24:29.000Z</time>
        <extensions>
          <ns3:TrackPointExtension>
            <ns3:hr>107</ns3:hr>
          </ns3:TrackPointExtension>
        </extensions>
      </trkpt>
      <trkpt lat="46.53694675303995609283447265625" lon="8.3223341591656208038330078125">
        <ele>2141.800048828125</ele>
        <time>2015-09-08T13:24:34.000Z</time>
        <extensions>
          <ns3:TrackPointExtension>
            <ns3:hr>105</ns3:hr>
          </ns3:TrackPointExtension>
        </extensions>
      </trkpt>
      <trkpt lat="46.537493504583835601806640625" lon="8.32249224185943603515625">
        <ele>2134.39990234375</ele>
        <time>2015-09-08T13:24:42.000Z</time>
        <extensions>
          <ns3:TrackPointExtension>
            <ns3:hr>102</ns3:hr>
          </ns3:TrackPointExtension>
        </extensions>
      </trkpt>
      <trkpt lat="46.53759115375578403472900390625" lon="8.32256055437028408050537109375">
        <ele>2132.39990234375</ele>
        <time>2015-09-08T13:24:44.000Z</time>
        <extensions>
          <ns3:TrackPointExtension>
            <ns3:hr>102</ns3:hr>
          </ns3:TrackPointExtension>
        </extensions>
      </trkpt>
      <trkpt lat="46.5376354940235614776611328125" lon="8.32330956123769283294677734375">
        <ele>2125</ele>
        <time>2015-09-08T13:24:54.000Z</time>
        <extensions>
          <ns3:TrackPointExtension>
            <ns3:hr>99</ns3:hr>
          </ns3:TrackPointExtension>
        </extensions>
      </trkpt>
      <trkpt lat="46.53813027776777744293212890625" lon="8.32362321205437183380126953125">
        <ele>2118.800048828125</ele>
        <time>2015-09-08T13:25:02.000Z</time>
        <extensions>
          <ns3:TrackPointExtension>
            <ns3:hr>99</ns3:hr>
          </ns3:TrackPointExtension>
        </extensions>
      </trkpt>
      <trkpt lat="46.538190208375453948974609375" lon="8.3236709050834178924560546875">
        <ele>2117.800048828125</ele>
        <time>2015-09-08T13:25:03.000Z</time>
        <extensions>
          <ns3:TrackPointExtension>
            <ns3:hr>99</ns3:hr>
          </ns3:TrackPointExtension>
        </extensions>
      </trkpt>
      <trkpt lat="46.53835214674472808837890625" lon="8.32416183315217494964599609375">
        <ele>2110.800048828125</ele>
        <time>2015-09-08T13:25:09.000Z</time>
        <extensions>
          <ns3:TrackPointExtension>
            <ns3:hr>100</ns3:hr>
          </ns3:TrackPointExtension>
        </extensions>
      </trkpt>
      <trkpt lat="46.53837553225457668304443359375" lon="8.32424246706068515777587890625">
        <ele>2109.39990234375</ele>
        <time>2015-09-08T13:25:10.000Z</time>
        <extensions>
          <ns3:TrackPointExtension>
            <ns3:hr>100</ns3:hr>
          </ns3:TrackPointExtension>
        </extensions>
      </trkpt>
      <trkpt lat="46.53851970098912715911865234375" lon="8.32450926303863525390625">
        <ele>2105.199951171875</ele>
        <time>2015-09-08T13:25:14.000Z</time>
        <extensions>
          <ns3:TrackPointExtension>
            <ns3:hr>100</ns3:hr>
          </ns3:TrackPointExtension>
        </extensions>
      </trkpt>
      <trkpt lat="46.538768224418163299560546875" lon="8.32456014119088649749755859375">
        <ele>2101.60009765625</ele>
        <time>2015-09-08T13:25:19.000Z</time>
        <extensions>
          <ns3:TrackPointExtension>
            <ns3:hr>99</ns3:hr>
          </ns3:TrackPointExtension>
        </extensions>
      </trkpt>
      <trkpt lat="46.53878591023385524749755859375" lon="8.32485401071608066558837890625">
        <ele>2098.60009765625</ele>
        <time>2015-09-08T13:25:24.000Z</time>
        <extensions>
          <ns3:TrackPointExtension>
            <ns3:hr>99</ns3:hr>
          </ns3:TrackPointExtension>
        </extensions>
      </trkpt>
      <trkpt lat="46.53868784196674823760986328125" lon="8.3254237286746501922607421875">
        <ele>2095.199951171875</ele>
        <time>2015-09-08T13:25:31.000Z</time>
        <extensions>
          <ns3:TrackPointExtension>
            <ns3:hr>101</ns3:hr>
          </ns3:TrackPointExtension>
        </extensions>
      </trkpt>
      <trkpt lat="46.53870577923953533172607421875" lon="8.32576612941920757293701171875">
        <ele>2093.199951171875</ele>
        <time>2015-09-08T13:25:35.000Z</time>
        <extensions>
          <ns3:TrackPointExtension>
            <ns3:hr>102</ns3:hr>
          </ns3:TrackPointExtension>
        </extensions>
      </trkpt>
      <trkpt lat="46.538845002651214599609375" lon="8.32611531950533390045166015625">
        <ele>2089.800048828125</ele>
        <time>2015-09-08T13:25:40.000Z</time>
        <extensions>
          <ns3:TrackPointExtension>
            <ns3:hr>102</ns3:hr>
          </ns3:TrackPointExtension>
        </extensions>
      </trkpt>
      <trkpt lat="46.53887978754937648773193359375" lon="8.32645512185990810394287109375">
        <ele>2087</ele>
        <time>2015-09-08T13:25:44.000Z</time>
        <extensions>
          <ns3:TrackPointExtension>
            <ns3:hr>102</ns3:hr>
          </ns3:TrackPointExtension>
        </extensions>
      </trkpt>
      <trkpt lat="46.53888816945254802703857421875" lon="8.32654547877609729766845703125">
        <ele>2086</ele>
        <time>2015-09-08T13:25:45.000Z</time>
        <extensions>
          <ns3:TrackPointExtension>
            <ns3:hr>102</ns3:hr>
          </ns3:TrackPointExtension>
        </extensions>
      </trkpt>
      <trkpt lat="46.53889990411698818206787109375" lon="8.32707823254168033599853515625">
        <ele>2080.800048828125</ele>
        <time>2015-09-08T13:25:51.000Z</time>
        <extensions>
          <ns3:TrackPointExtension>
            <ns3:hr>101</ns3:hr>
          </ns3:TrackPointExtension>
        </extensions>
      </trkpt>
      <trkpt lat="46.5389132313430309295654296875" lon="8.3272590301930904388427734375">
        <ele>2078</ele>
        <time>2015-09-08T13:25:53.000Z</time>
        <extensions>
          <ns3:TrackPointExtension>
            <ns3:hr>101</ns3:hr>
          </ns3:TrackPointExtension>
        </extensions>
      </trkpt>
      <trkpt lat="46.539248339831829071044921875" lon="8.32765541039407253265380859375">
        <ele>2073</ele>
        <time>2015-09-08T13:26:01.000Z</time>
        <extensions>
          <ns3:TrackPointExtension>
            <ns3:hr>101</ns3:hr>
          </ns3:TrackPointExtension>
        </extensions>
      </trkpt>
      <trkpt lat="46.539306342601776123046875" lon="8.3276670612394809722900390625">
        <ele>2072.800048828125</ele>
        <time>2015-09-08T13:26:02.000Z</time>
        <extensions>
          <ns3:TrackPointExtension>
            <ns3:hr>101</ns3:hr>
          </ns3:TrackPointExtension>
        </extensions>
      </trkpt>
      <trkpt lat="46.53971135616302490234375" lon="8.32801231183111667633056640625">
        <ele>2066</ele>
        <time>2015-09-08T13:26:10.000Z</time>
        <extensions>
          <ns3:TrackPointExtension>
            <ns3:hr>100</ns3:hr>
          </ns3:TrackPointExtension>
        </extensions>
      </trkpt>
      <trkpt lat="46.54024042189121246337890625" lon="8.3281986415386199951171875">
        <ele>2058.199951171875</ele>
        <time>2015-09-08T13:26:17.000Z</time>
        <extensions>
          <ns3:TrackPointExtension>
            <ns3:hr>101</ns3:hr>
          </ns3:TrackPointExtension>
        </extensions>
      </trkpt>
      <trkpt lat="46.5404464490711688995361328125" lon="8.32827785052359104156494140625">
        <ele>2054.60009765625</ele>
        <time>2015-09-08T13:26:20.000Z</time>
        <extensions>
          <ns3:TrackPointExtension>
            <ns3:hr>102</ns3:hr>
          </ns3:TrackPointExtension>
        </extensions>
      </trkpt>
      <trkpt lat="46.54055583290755748748779296875" lon="8.32863659597933292388916015625">
        <ele>2050</ele>
        <time>2015-09-08T13:26:26.000Z</time>
        <extensions>
          <ns3:TrackPointExtension>
            <ns3:hr>99</ns3:hr>
          </ns3:TrackPointExtension>
        </extensions>
      </trkpt>
      <trkpt lat="46.540470756590366363525390625" lon="8.328761570155620574951171875">
        <ele>2048.39990234375</ele>
        <time>2015-09-08T13:26:28.000Z</time>
        <extensions>
          <ns3:TrackPointExtension>
            <ns3:hr>98</ns3:hr>
          </ns3:TrackPointExtension>
        </extensions>
      </trkpt>
      <trkpt lat="46.54015995562076568603515625" lon="8.329437486827373504638671875">
        <ele>2041.5999755859375</ele>
        <time>2015-09-08T13:26:37.000Z</time>
        <extensions>
          <ns3:TrackPointExtension>
            <ns3:hr>99</ns3:hr>
          </ns3:TrackPointExtension>
        </extensions>
      </trkpt>
      <trkpt lat="46.5402798168361186981201171875" lon="8.329660780727863311767578125">
        <ele>2038</ele>
        <time>2015-09-08T13:26:42.000Z</time>
        <extensions>
          <ns3:TrackPointExtension>
            <ns3:hr>100</ns3:hr>
          </ns3:TrackPointExtension>
        </extensions>
      </trkpt>
      <trkpt lat="46.5403260849416255950927734375" lon="8.3297082222998142242431640625">
        <ele>2037</ele>
        <time>2015-09-08T13:26:43.000Z</time>
        <extensions>
          <ns3:TrackPointExtension>
            <ns3:hr>100</ns3:hr>
          </ns3:TrackPointExtension>
        </extensions>
      </trkpt>
      <trkpt lat="46.54035399667918682098388671875" lon="8.32999479956924915313720703125">
        <ele>2034.800048828125</ele>
        <time>2015-09-08T13:26:47.000Z</time>
        <extensions>
          <ns3:TrackPointExtension>
            <ns3:hr>99</ns3:hr>
          </ns3:TrackPointExtension>
        </extensions>
      </trkpt>
      <trkpt lat="46.540350727736949920654296875" lon="8.3300679735839366912841796875">
        <ele>2034.4000244140625</ele>
        <time>2015-09-08T13:26:48.000Z</time>
        <extensions>
          <ns3:TrackPointExtension>
            <ns3:hr>98</ns3:hr>
          </ns3:TrackPointExtension>
        </extensions>
      </trkpt>
      <trkpt lat="46.54043379239737987518310546875" lon="8.3303687162697315216064453125">
        <ele>2031.5999755859375</ele>
        <time>2015-09-08T13:26:53.000Z</time>
        <extensions>
          <ns3:TrackPointExtension>
            <ns3:hr>97</ns3:hr>
          </ns3:TrackPointExtension>
        </extensions>
      </trkpt>
      <trkpt lat="46.54006339609622955322265625" lon="8.3303348533809185028076171875">
        <ele>2027.5999755859375</ele>
        <time>2015-09-08T13:27:05.000Z</time>
        <extensions>
          <ns3:TrackPointExtension>
            <ns3:hr>97</ns3:hr>
          </ns3:TrackPointExtension>
        </extensions>
      </trkpt>
      <trkpt lat="46.539916209876537322998046875" lon="8.3301823027431964874267578125">
        <ele>2025</ele>
        <time>2015-09-08T13:27:14.000Z</time>
        <extensions>
          <ns3:TrackPointExtension>
            <ns3:hr>99</ns3:hr>
          </ns3:TrackPointExtension>
        </extensions>
      </trkpt>
      <trkpt lat="46.5397443808615207672119140625" lon="8.330047689378261566162109375">
        <ele>2022.800048828125</ele>
        <time>2015-09-08T13:27:37.000Z</time>
        <extensions>
          <ns3:TrackPointExtension>
            <ns3:hr>101</ns3:hr>
          </ns3:TrackPointExtension>
        </extensions>
      </trkpt>
      <trkpt lat="46.5397936664521694183349609375" lon="8.330090939998626708984375">
        <ele>2023</ele>
        <time>2015-09-08T13:27:46.000Z</time>
        <extensions>
          <ns3:TrackPointExtension>
            <ns3:hr>104</ns3:hr>
          </ns3:TrackPointExtension>
        </extensions>
      </trkpt>
      <trkpt lat="46.53986650519073009490966796875" lon="8.3301365375518798828125">
        <ele>2022.800048828125</ele>
        <time>2015-09-08T13:27:51.000Z</time>
        <extensions>
          <ns3:TrackPointExtension>
            <ns3:hr>107</ns3:hr>
          </ns3:TrackPointExtension>
        </extensions>
      </trkpt>
      <trkpt lat="46.54001243412494659423828125" lon="8.33032219670712947845458984375">
        <ele>2025.4000244140625</ele>
        <time>2015-09-08T13:28:03.000Z</time>
        <extensions>
          <ns3:TrackPointExtension>
            <ns3:hr>110</ns3:hr>
          </ns3:TrackPointExtension>
        </extensions>
      </trkpt>
      <trkpt lat="46.540058366954326629638671875" lon="8.33033761940896511077880859375">
        <ele>2026.199951171875</ele>
        <time>2015-09-08T13:28:06.000Z</time>
        <extensions>
          <ns3:TrackPointExtension>
            <ns3:hr>111</ns3:hr>
          </ns3:TrackPointExtension>
        </extensions>
      </trkpt>
      <trkpt lat="46.5401168726384639739990234375" lon="8.330346085131168365478515625">
        <ele>2027.199951171875</ele>
        <time>2015-09-08T13:28:10.000Z</time>
        <extensions>
          <ns3:TrackPointExtension>
            <ns3:hr>114</ns3:hr>
          </ns3:TrackPointExtension>
        </extensions>
      </trkpt>
      <trkpt lat="46.54018417932093143463134765625" lon="8.3303432352840900421142578125">
        <ele>2028.199951171875</ele>
        <time>2015-09-08T13:28:15.000Z</time>
        <extensions>
          <ns3:TrackPointExtension>
            <ns3:hr>117</ns3:hr>
          </ns3:TrackPointExtension>
        </extensions>
      </trkpt>
      <trkpt lat="46.54024939052760601043701171875" lon="8.3303613401949405670166015625">
        <ele>2029.4000244140625</ele>
        <time>2015-09-08T13:28:20.000Z</time>
        <extensions>
          <ns3:TrackPointExtension>
            <ns3:hr>120</ns3:hr>
          </ns3:TrackPointExtension>
        </extensions>
      </trkpt>
      <trkpt lat="46.5402647294104099273681640625" lon="8.3303593285381793975830078125">
        <ele>2029.4000244140625</ele>
        <time>2015-09-08T13:28:26.000Z</time>
        <extensions>
          <ns3:TrackPointExtension>
            <ns3:hr>123</ns3:hr>
          </ns3:TrackPointExtension>
        </extensions>
      </trkpt>
      <trkpt lat="46.540256179869174957275390625" lon="8.3303650282323360443115234375">
        <ele>2029.5999755859375</ele>
        <time>2015-09-08T13:28:36.000Z</time>
        <extensions>
          <ns3:TrackPointExtension>
            <ns3:hr>126</ns3:hr>
          </ns3:TrackPointExtension>
        </extensions>
      </trkpt>
      <trkpt lat="46.54026950709521770477294921875" lon="8.3303765952587127685546875">
        <ele>2030.199951171875</ele>
        <time>2015-09-08T13:28:57.000Z</time>
        <extensions>
          <ns3:TrackPointExtension>
            <ns3:hr>123</ns3:hr>
          </ns3:TrackPointExtension>
        </extensions>
      </trkpt>
      <trkpt lat="46.540310494601726531982421875" lon="8.330380953848361968994140625">
        <ele>2030.199951171875</ele>
        <time>2015-09-08T13:29:03.000Z</time>
        <extensions>
          <ns3:TrackPointExtension>
            <ns3:hr>120</ns3:hr>
          </ns3:TrackPointExtension>
        </extensions>
      </trkpt>
      <trkpt lat="46.54037696309387683868408203125" lon="8.3304060995578765869140625">
        <ele>2031.4000244140625</ele>
        <time>2015-09-08T13:29:08.000Z</time>
        <extensions>
          <ns3:TrackPointExtension>
            <ns3:hr>118</ns3:hr>
          </ns3:TrackPointExtension>
        </extensions>
      </trkpt>
      <trkpt lat="46.54039196670055389404296875" lon="8.33040668629109859466552734375">
        <ele>2031.5999755859375</ele>
        <time>2015-09-08T13:29:09.000Z</time>
        <extensions>
          <ns3:TrackPointExtension>
            <ns3:hr>117</ns3:hr>
          </ns3:TrackPointExtension>
        </extensions>
      </trkpt>
      <trkpt lat="46.540397666394710540771484375" lon="8.33023301325738430023193359375">
        <ele>2032.5999755859375</ele>
        <time>2015-09-08T13:29:18.000Z</time>
        <extensions>
          <ns3:TrackPointExtension>
            <ns3:hr>114</ns3:hr>
          </ns3:TrackPointExtension>
        </extensions>
      </trkpt>
      <trkpt lat="46.5403545834124088287353515625" lon="8.32990846596658229827880859375">
        <ele>2035.5999755859375</ele>
        <time>2015-09-08T13:29:34.000Z</time>
        <extensions>
          <ns3:TrackPointExtension>
            <ns3:hr>116</ns3:hr>
          </ns3:TrackPointExtension>
        </extensions>
      </trkpt>
      <trkpt lat="46.54031644575297832489013671875" lon="8.329772092401981353759765625">
        <ele>2036.800048828125</ele>
        <time>2015-09-08T13:29:42.000Z</time>
        <extensions>
          <ns3:TrackPointExtension>
            <ns3:hr>119</ns3:hr>
          </ns3:TrackPointExtension>
        </extensions>
      </trkpt>
      <trkpt lat="46.54021033085882663726806640625" lon="8.32977033220231533050537109375">
        <ele>2037.199951171875</ele>
        <time>2015-09-08T13:29:48.000Z</time>
        <extensions>
          <ns3:TrackPointExtension>
            <ns3:hr>120</ns3:hr>
          </ns3:TrackPointExtension>
        </extensions>
      </trkpt>
      <trkpt lat="46.539767347276210784912109375" lon="8.3296264149248600006103515625">
        <ele>2033</ele>
        <time>2015-09-08T13:30:10.000Z</time>
        <extensions>
          <ns3:TrackPointExtension>
            <ns3:hr>117</ns3:hr>
          </ns3:TrackPointExtension>
        </extensions>
      </trkpt>
      <trkpt lat="46.53963080607354640960693359375" lon="8.32946875132620334625244140625">
        <ele>2029.199951171875</ele>
        <time>2015-09-08T13:30:17.000Z</time>
        <extensions>
          <ns3:TrackPointExtension>
            <ns3:hr>114</ns3:hr>
          </ns3:TrackPointExtension>
        </extensions>
      </trkpt>
      <trkpt lat="46.53961353935301303863525390625" lon="8.32944897003471851348876953125">
        <ele>2029</ele>
        <time>2015-09-08T13:30:18.000Z</time>
        <extensions>
          <ns3:TrackPointExtension>
            <ns3:hr>113</ns3:hr>
          </ns3:TrackPointExtension>
        </extensions>
      </trkpt>
      <trkpt lat="46.53953525237739086151123046875" lon="8.329456932842731475830078125">
        <ele>2028.800048828125</ele>
        <time>2015-09-08T13:30:22.000Z</time>
        <extensions>
          <ns3:TrackPointExtension>
            <ns3:hr>110</ns3:hr>
          </ns3:TrackPointExtension>
        </extensions>
      </trkpt>
      <trkpt lat="46.5394436381757259368896484375" lon="8.3295657299458980560302734375">
        <ele>2026.800048828125</ele>
        <time>2015-09-08T13:30:28.000Z</time>
        <extensions>
          <ns3:TrackPointExtension>
            <ns3:hr>109</ns3:hr>
          </ns3:TrackPointExtension>
        </extensions>
      </trkpt>
      <trkpt lat="46.5393812768161296844482421875" lon="8.3296579308807849884033203125">
        <ele>2024.5999755859375</ele>
        <time>2015-09-08T13:30:33.000Z</time>
        <extensions>
          <ns3:TrackPointExtension>
            <ns3:hr>108</ns3:hr>
          </ns3:TrackPointExtension>
        </extensions>
      </trkpt>
      <trkpt lat="46.53930206783115863800048828125" lon="8.32969120703637599945068359375">
        <ele>2021.800048828125</ele>
        <time>2015-09-08T13:31:02.000Z</time>
        <extensions>
          <ns3:TrackPointExtension>
            <ns3:hr>111</ns3:hr>
          </ns3:TrackPointExtension>
        </extensions>
      </trkpt>
      <trkpt lat="46.53914499096572399139404296875" lon="8.329608477652072906494140625">
        <ele>2019.199951171875</ele>
        <time>2015-09-08T13:31:18.000Z</time>
        <extensions>
          <ns3:TrackPointExtension>
            <ns3:hr>111</ns3:hr>
          </ns3:TrackPointExtension>
        </extensions>
      </trkpt>
      <trkpt lat="46.53897232376039028167724609375" lon="8.32956564612686634063720703125">
        <ele>2016</ele>
        <time>2015-09-08T13:31:26.000Z</time>
        <extensions>
          <ns3:TrackPointExtension>
            <ns3:hr>108</ns3:hr>
          </ns3:TrackPointExtension>
        </extensions>
      </trkpt>
      <trkpt lat="46.538897641003131866455078125" lon="8.32956061698496341705322265625">
        <ele>2014</ele>
        <time>2015-09-08T13:31:30.000Z</time>
        <extensions>
          <ns3:TrackPointExtension>
            <ns3:hr>107</ns3:hr>
          </ns3:TrackPointExtension>
        </extensions>
      </trkpt>
      <trkpt lat="46.538931168615818023681640625" lon="8.3296404965221881866455078125">
        <ele>2012.4000244140625</ele>
        <time>2015-09-08T13:31:56.000Z</time>
        <extensions>
          <ns3:TrackPointExtension>
            <ns3:hr>104</ns3:hr>
          </ns3:TrackPointExtension>
        </extensions>
      </trkpt>
      <trkpt lat="46.538422890007495880126953125" lon="8.32941192202270030975341796875">
        <ele>2004.5999755859375</ele>
        <time>2015-09-08T13:32:16.000Z</time>
        <extensions>
          <ns3:TrackPointExtension>
            <ns3:hr>101</ns3:hr>
          </ns3:TrackPointExtension>
        </extensions>
      </trkpt>
      <trkpt lat="46.53798862360417842864990234375" lon="8.32918074913322925567626953125">
        <ele>1999</ele>
        <time>2015-09-08T13:32:23.000Z</time>
        <extensions>
          <ns3:TrackPointExtension>
            <ns3:hr>98</ns3:hr>
          </ns3:TrackPointExtension>
        </extensions>
      </trkpt>
      <trkpt lat="46.5376680158078670501708984375" lon="8.3290641568601131439208984375">
        <ele>1994.4000244140625</ele>
        <time>2015-09-08T13:32:28.000Z</time>
        <extensions>
          <ns3:TrackPointExtension>
            <ns3:hr>96</ns3:hr>
          </ns3:TrackPointExtension>
        </extensions>
      </trkpt>
      <trkpt lat="46.53742938302457332611083984375" lon="8.32892593927681446075439453125">
        <ele>1991</ele>
        <time>2015-09-08T13:32:33.000Z</time>
        <extensions>
          <ns3:TrackPointExtension>
            <ns3:hr>97</ns3:hr>
          </ns3:TrackPointExtension>
        </extensions>
      </trkpt>
      <trkpt lat="46.53741471469402313232421875" lon="8.328940607607364654541015625">
        <ele>1991</ele>
        <time>2015-09-08T13:32:38.000Z</time>
        <extensions>
          <ns3:TrackPointExtension>
            <ns3:hr>100</ns3:hr>
          </ns3:TrackPointExtension>
        </extensions>
      </trkpt>
      <trkpt lat="46.53746391646564006805419921875" lon="8.32906289957463741302490234375">
        <ele>1990.5999755859375</ele>
        <time>2015-09-08T13:32:50.000Z</time>
        <extensions>
          <ns3:TrackPointExtension>
            <ns3:hr>102</ns3:hr>
          </ns3:TrackPointExtension>
        </extensions>
      </trkpt>
      <trkpt lat="46.53747665695846080780029296875" lon="8.3290748856961727142333984375">
        <ele>1990.4000244140625</ele>
        <time>2015-09-08T13:32:55.000Z</time>
        <extensions>
          <ns3:TrackPointExtension>
            <ns3:hr>105</ns3:hr>
          </ns3:TrackPointExtension>
        </extensions>
      </trkpt>
      <trkpt lat="46.5373550355434417724609375" lon="8.32906021736562252044677734375">
        <ele>1986.199951171875</ele>
        <time>2015-09-08T13:33:11.000Z</time>
        <extensions>
          <ns3:TrackPointExtension>
            <ns3:hr>107</ns3:hr>
          </ns3:TrackPointExtension>
        </extensions>
      </trkpt>
      <trkpt lat="46.53724975883960723876953125" lon="8.3289732970297336578369140625">
        <ele>1983.4000244140625</ele>
        <time>2015-09-08T13:33:17.000Z</time>
        <extensions>
          <ns3:TrackPointExtension>
            <ns3:hr>106</ns3:hr>
          </ns3:TrackPointExtension>
        </extensions>
      </trkpt>
      <trkpt lat="46.53719468973577022552490234375" lon="8.32894136197865009307861328125">
        <ele>1981.4000244140625</ele>
        <time>2015-09-08T13:33:21.000Z</time>
        <extensions>
          <ns3:TrackPointExtension>
            <ns3:hr>105</ns3:hr>
          </ns3:TrackPointExtension>
        </extensions>
      </trkpt>
      <trkpt lat="46.53718798421323299407958984375" lon="8.3291181363165378570556640625">
        <ele>1977.4000244140625</ele>
        <time>2015-09-08T13:33:30.000Z</time>
        <extensions>
          <ns3:TrackPointExtension>
            <ns3:hr>107</ns3:hr>
          </ns3:TrackPointExtension>
        </extensions>
      </trkpt>
      <trkpt lat="46.5371862240135669708251953125" lon="8.3293856866657733917236328125">
        <ele>1972.4000244140625</ele>
        <time>2015-09-08T13:33:39.000Z</time>
        <extensions>
          <ns3:TrackPointExtension>
            <ns3:hr>106</ns3:hr>
          </ns3:TrackPointExtension>
        </extensions>
      </trkpt>
      <trkpt lat="46.53699486516416072845458984375" lon="8.32924537360668182373046875">
        <ele>1965.4000244140625</ele>
        <time>2015-09-08T13:33:57.000Z</time>
        <extensions>
          <ns3:TrackPointExtension>
            <ns3:hr>109</ns3:hr>
          </ns3:TrackPointExtension>
        </extensions>
      </trkpt>
      <trkpt lat="46.5369806997478008270263671875" lon="8.329280912876129150390625">
        <ele>1964.800048828125</ele>
        <time>2015-09-08T13:34:04.000Z</time>
        <extensions>
          <ns3:TrackPointExtension>
            <ns3:hr>109</ns3:hr>
          </ns3:TrackPointExtension>
        </extensions>
      </trkpt>
      <trkpt lat="46.53695203363895416259765625" lon="8.3294118382036685943603515625">
        <ele>1962.800048828125</ele>
        <time>2015-09-08T13:34:13.000Z</time>
        <extensions>
          <ns3:TrackPointExtension>
            <ns3:hr>111</ns3:hr>
          </ns3:TrackPointExtension>
        </extensions>
      </trkpt>
      <trkpt lat="46.53699385933578014373779296875" lon="8.32960453815758228302001953125">
        <ele>1961</ele>
        <time>2015-09-08T13:34:24.000Z</time>
        <extensions>
          <ns3:TrackPointExtension>
            <ns3:hr>113</ns3:hr>
          </ns3:TrackPointExtension>
        </extensions>
      </trkpt>
      <trkpt lat="46.53692387044429779052734375" lon="8.32964837551116943359375">
        <ele>1959.199951171875</ele>
        <time>2015-09-08T13:34:29.000Z</time>
        <extensions>
          <ns3:TrackPointExtension>
            <ns3:hr>113</ns3:hr>
          </ns3:TrackPointExtension>
        </extensions>
      </trkpt>
      <trkpt lat="46.53677911497652530670166015625" lon="8.32958039827644824981689453125">
        <ele>1954.800048828125</ele>
        <time>2015-09-08T13:34:35.000Z</time>
        <extensions>
          <ns3:TrackPointExtension>
            <ns3:hr>111</ns3:hr>
          </ns3:TrackPointExtension>
        </extensions>
      </trkpt>
      <trkpt lat="46.53667300008237361907958984375" lon="8.3294956572353839874267578125">
        <ele>1950.199951171875</ele>
        <time>2015-09-08T13:34:45.000Z</time>
        <extensions>
          <ns3:TrackPointExtension>
            <ns3:hr>108</ns3:hr>
          </ns3:TrackPointExtension>
        </extensions>
      </trkpt>
      <trkpt lat="46.53655481524765491485595703125" lon="8.329586684703826904296875">
        <ele>1943</ele>
        <time>2015-09-08T13:34:59.000Z</time>
        <extensions>
          <ns3:TrackPointExtension>
            <ns3:hr>108</ns3:hr>
          </ns3:TrackPointExtension>
        </extensions>
      </trkpt>
      <trkpt lat="46.53649379499256610870361328125" lon="8.32948006689548492431640625">
        <ele>1939.4000244140625</ele>
        <time>2015-09-08T13:35:04.000Z</time>
        <extensions>
          <ns3:TrackPointExtension>
            <ns3:hr>107</ns3:hr>
          </ns3:TrackPointExtension>
        </extensions>
      </trkpt>
      <trkpt lat="46.5364388935267925262451171875" lon="8.32964946515858173370361328125">
        <ele>1937</ele>
        <time>2015-09-08T13:35:11.000Z</time>
        <extensions>
          <ns3:TrackPointExtension>
            <ns3:hr>105</ns3:hr>
          </ns3:TrackPointExtension>
        </extensions>
      </trkpt>
      <trkpt lat="46.53652899898588657379150390625" lon="8.3300434984266757965087890625">
        <ele>1931.4000244140625</ele>
        <time>2015-09-08T13:35:22.000Z</time>
        <extensions>
          <ns3:TrackPointExtension>
            <ns3:hr>104</ns3:hr>
          </ns3:TrackPointExtension>
        </extensions>
      </trkpt>
      <trkpt lat="46.53612633235752582550048828125" lon="8.3300253935158252716064453125">
        <ele>1920.800048828125</ele>
        <time>2015-09-08T13:35:38.000Z</time>
        <extensions>
          <ns3:TrackPointExtension>
            <ns3:hr>103</ns3:hr>
          </ns3:TrackPointExtension>
        </extensions>
      </trkpt>
      <trkpt lat="46.5360737778246402740478515625" lon="8.32991324365139007568359375">
        <ele>1915</ele>
        <time>2015-09-08T13:35:47.000Z</time>
        <extensions>
          <ns3:TrackPointExtension>
            <ns3:hr>103</ns3:hr>
          </ns3:TrackPointExtension>
        </extensions>
      </trkpt>
      <trkpt lat="46.53607386164367198944091796875" lon="8.32989471964538097381591796875">
        <ele>1915</ele>
        <time>2015-09-08T13:36:14.000Z</time>
        <extensions>
          <ns3:TrackPointExtension>
            <ns3:hr>105</ns3:hr>
          </ns3:TrackPointExtension>
        </extensions>
      </trkpt>
      <trkpt lat="46.53606883250176906585693359375" lon="8.32987368106842041015625">
        <ele>1915.199951171875</ele>
        <time>2015-09-08T13:36:18.000Z</time>
        <extensions>
          <ns3:TrackPointExtension>
            <ns3:hr>105</ns3:hr>
          </ns3:TrackPointExtension>
        </extensions>
      </trkpt>
      <trkpt lat="46.53603346087038516998291015625" lon="8.32930572330951690673828125">
        <ele>1912</ele>
        <time>2015-09-08T13:36:29.000Z</time>
        <extensions>
          <ns3:TrackPointExtension>
            <ns3:hr>105</ns3:hr>
          </ns3:TrackPointExtension>
        </extensions>
      </trkpt>
      <trkpt lat="46.53606581501662731170654296875" lon="8.32913129590451717376708984375">
        <ele>1911.5999755859375</ele>
        <time>2015-09-08T13:36:32.000Z</time>
        <extensions>
          <ns3:TrackPointExtension>
            <ns3:hr>102</ns3:hr>
          </ns3:TrackPointExtension>
        </extensions>
      </trkpt>
      <trkpt lat="46.536076962947845458984375" lon="8.3290913142263889312744140625">
        <ele>1911.4000244140625</ele>
        <time>2015-09-08T13:36:33.000Z</time>
        <extensions>
          <ns3:TrackPointExtension>
            <ns3:hr>102</ns3:hr>
          </ns3:TrackPointExtension>
        </extensions>
      </trkpt>
      <trkpt lat="46.53610043227672576904296875" lon="8.32896013744175434112548828125">
        <ele>1910.4000244140625</ele>
        <time>2015-09-08T13:36:37.000Z</time>
        <extensions>
          <ns3:TrackPointExtension>
            <ns3:hr>101</ns3:hr>
          </ns3:TrackPointExtension>
        </extensions>
      </trkpt>
      <trkpt lat="46.53604544699192047119140625" lon="8.3288710378110408782958984375">
        <ele>1909.199951171875</ele>
        <time>2015-09-08T13:36:50.000Z</time>
        <extensions>
          <ns3:TrackPointExtension>
            <ns3:hr>105</ns3:hr>
          </ns3:TrackPointExtension>
        </extensions>
      </trkpt>
      <trkpt lat="46.536000184714794158935546875" lon="8.3288502506911754608154296875">
        <ele>1908.4000244140625</ele>
        <time>2015-09-08T13:36:58.000Z</time>
        <extensions>
          <ns3:TrackPointExtension>
            <ns3:hr>108</ns3:hr>
          </ns3:TrackPointExtension>
        </extensions>
      </trkpt>
      <trkpt lat="46.5358823351562023162841796875" lon="8.328862152993679046630859375">
        <ele>1907.199951171875</ele>
        <time>2015-09-08T13:37:02.000Z</time>
        <extensions>
          <ns3:TrackPointExtension>
            <ns3:hr>109</ns3:hr>
          </ns3:TrackPointExtension>
        </extensions>
      </trkpt>
      <trkpt lat="46.53559190221130847930908203125" lon="8.32866668701171875">
        <ele>1902.4000244140625</ele>
        <time>2015-09-08T13:37:13.000Z</time>
        <extensions>
          <ns3:TrackPointExtension>
            <ns3:hr>107</ns3:hr>
          </ns3:TrackPointExtension>
        </extensions>
      </trkpt>
      <trkpt lat="46.53545712120831012725830078125" lon="8.32864992320537567138671875">
        <ele>1899.199951171875</ele>
        <time>2015-09-08T13:37:19.000Z</time>
        <extensions>
          <ns3:TrackPointExtension>
            <ns3:hr>107</ns3:hr>
          </ns3:TrackPointExtension>
        </extensions>
      </trkpt>
      <trkpt lat="46.5352956019341945648193359375" lon="8.32868588156998157501220703125">
        <ele>1895.199951171875</ele>
        <time>2015-09-08T13:37:25.000Z</time>
        <extensions>
          <ns3:TrackPointExtension>
            <ns3:hr>108</ns3:hr>
          </ns3:TrackPointExtension>
        </extensions>
      </trkpt>
      <trkpt lat="46.53517766855657100677490234375" lon="8.32873214967548847198486328125">
        <ele>1891.4000244140625</ele>
        <time>2015-09-08T13:37:32.000Z</time>
        <extensions>
          <ns3:TrackPointExtension>
            <ns3:hr>106</ns3:hr>
          </ns3:TrackPointExtension>
        </extensions>
      </trkpt>
      <trkpt lat="46.53521387837827205657958984375" lon="8.32878001034259796142578125">
        <ele>1889.4000244140625</ele>
        <time>2015-09-08T13:37:36.000Z</time>
        <extensions>
          <ns3:TrackPointExtension>
            <ns3:hr>107</ns3:hr>
          </ns3:TrackPointExtension>
        </extensions>
      </trkpt>
      <trkpt lat="46.53524640016257762908935546875" lon="8.3288046531379222869873046875">
        <ele>1887.199951171875</ele>
        <time>2015-09-08T13:37:39.000Z</time>
        <extensions>
          <ns3:TrackPointExtension>
            <ns3:hr>106</ns3:hr>
          </ns3:TrackPointExtension>
        </extensions>
      </trkpt>
      <trkpt lat="46.53519007377326488494873046875" lon="8.32886357791721820831298828125">
        <ele>1884.199951171875</ele>
        <time>2015-09-08T13:37:44.000Z</time>
        <extensions>
          <ns3:TrackPointExtension>
            <ns3:hr>106</ns3:hr>
          </ns3:TrackPointExtension>
        </extensions>
      </trkpt>
      <trkpt lat="46.53507406823337078094482421875" lon="8.3288650028407573699951171875">
        <ele>1881.800048828125</ele>
        <time>2015-09-08T13:37:49.000Z</time>
        <extensions>
          <ns3:TrackPointExtension>
            <ns3:hr>107</ns3:hr>
          </ns3:TrackPointExtension>
        </extensions>
      </trkpt>
      <trkpt lat="46.534866280853748321533203125" lon="8.3290038071572780609130859375">
        <ele>1877.199951171875</ele>
        <time>2015-09-08T13:38:16.000Z</time>
        <extensions>
          <ns3:TrackPointExtension>
            <ns3:hr>110</ns3:hr>
          </ns3:TrackPointExtension>
        </extensions>
      </trkpt>
      <trkpt lat="46.534778438508510589599609375" lon="8.328925855457782745361328125">
        <ele>1875.199951171875</ele>
        <time>2015-09-08T13:38:20.000Z</time>
        <extensions>
          <ns3:TrackPointExtension>
            <ns3:hr>109</ns3:hr>
          </ns3:TrackPointExtension>
        </extensions>
      </trkpt>
      <trkpt lat="46.5346736647188663482666015625" lon="8.32891705445945262908935546875">
        <ele>1873</ele>
        <time>2015-09-08T13:38:24.000Z</time>
        <extensions>
          <ns3:TrackPointExtension>
            <ns3:hr>109</ns3:hr>
          </ns3:TrackPointExtension>
        </extensions>
      </trkpt>
      <trkpt lat="46.53439454734325408935546875" lon="8.3289458043873310089111328125">
        <ele>1869.199951171875</ele>
        <time>2015-09-08T13:38:53.000Z</time>
        <extensions>
          <ns3:TrackPointExtension>
            <ns3:hr>112</ns3:hr>
          </ns3:TrackPointExtension>
        </extensions>
      </trkpt>
      <trkpt lat="46.534075029194355010986328125" lon="8.32893951795995235443115234375">
        <ele>1863.5999755859375</ele>
        <time>2015-09-08T13:39:04.000Z</time>
        <extensions>
          <ns3:TrackPointExtension>
            <ns3:hr>109</ns3:hr>
          </ns3:TrackPointExtension>
        </extensions>
      </trkpt>
      <trkpt lat="46.5338327921926975250244140625" lon="8.32880523987114429473876953125">
        <ele>1861.5999755859375</ele>
        <time>2015-09-08T13:39:20.000Z</time>
        <extensions>
          <ns3:TrackPointExtension>
            <ns3:hr>112</ns3:hr>
          </ns3:TrackPointExtension>
        </extensions>
      </trkpt>
      <trkpt lat="46.5337392501533031463623046875" lon="8.32874623127281665802001953125">
        <ele>1860.800048828125</ele>
        <time>2015-09-08T13:39:26.000Z</time>
        <extensions>
          <ns3:TrackPointExtension>
            <ns3:hr>113</ns3:hr>
          </ns3:TrackPointExtension>
        </extensions>
      </trkpt>
      <trkpt lat="46.53358963318169116973876953125" lon="8.3287473209202289581298828125">
        <ele>1860</ele>
        <time>2015-09-08T13:39:34.000Z</time>
        <extensions>
          <ns3:TrackPointExtension>
            <ns3:hr>113</ns3:hr>
          </ns3:TrackPointExtension>
        </extensions>
      </trkpt>
      <trkpt lat="46.5333268605172634124755859375" lon="8.3289558626711368560791015625">
        <ele>1856.199951171875</ele>
        <time>2015-09-08T13:39:45.000Z</time>
        <extensions>
          <ns3:TrackPointExtension>
            <ns3:hr>110</ns3:hr>
          </ns3:TrackPointExtension>
        </extensions>
      </trkpt>
      <trkpt lat="46.5329657681286334991455078125" lon="8.328954018652439117431640625">
        <ele>1848.4000244140625</ele>
        <time>2015-09-08T13:39:54.000Z</time>
        <extensions>
          <ns3:TrackPointExtension>
            <ns3:hr>107</ns3:hr>
          </ns3:TrackPointExtension>
        </extensions>
      </trkpt>
      <trkpt lat="46.53290868736803531646728515625" lon="8.3289563655853271484375">
        <ele>1848.199951171875</ele>
        <time>2015-09-08T13:39:55.000Z</time>
        <extensions>
          <ns3:TrackPointExtension>
            <ns3:hr>108</ns3:hr>
          </ns3:TrackPointExtension>
        </extensions>
      </trkpt>
      <trkpt lat="46.53276242315769195556640625" lon="8.32894152961671352386474609375">
        <ele>1845.5999755859375</ele>
        <time>2015-09-08T13:40:00.000Z</time>
        <extensions>
          <ns3:TrackPointExtension>
            <ns3:hr>105</ns3:hr>
          </ns3:TrackPointExtension>
        </extensions>
      </trkpt>
      <trkpt lat="46.53258145786821842193603515625" lon="8.3289979398250579833984375">
        <ele>1846</ele>
        <time>2015-09-08T13:40:37.000Z</time>
        <extensions>
          <ns3:TrackPointExtension>
            <ns3:hr>108</ns3:hr>
          </ns3:TrackPointExtension>
        </extensions>
      </trkpt>
      <trkpt lat="46.53250920586287975311279296875" lon="8.3289749734103679656982421875">
        <ele>1845.4000244140625</ele>
        <time>2015-09-08T13:40:39.000Z</time>
        <extensions>
          <ns3:TrackPointExtension>
            <ns3:hr>109</ns3:hr>
          </ns3:TrackPointExtension>
        </extensions>
      </trkpt>
      <trkpt lat="46.532393954694271087646484375" lon="8.3288837783038616180419921875">
        <ele>1844.4000244140625</ele>
        <time>2015-09-08T13:40:42.000Z</time>
        <extensions>
          <ns3:TrackPointExtension>
            <ns3:hr>109</ns3:hr>
          </ns3:TrackPointExtension>
        </extensions>
      </trkpt>
      <trkpt lat="46.53232388198375701904296875" lon="8.32881219685077667236328125">
        <ele>1844</ele>
        <time>2015-09-08T13:40:44.000Z</time>
        <extensions>
          <ns3:TrackPointExtension>
            <ns3:hr>110</ns3:hr>
          </ns3:TrackPointExtension>
        </extensions>
      </trkpt>
      <trkpt lat="46.5321865864098072052001953125" lon="8.32872594706714153289794921875">
        <ele>1842.4000244140625</ele>
        <time>2015-09-08T13:40:49.000Z</time>
        <extensions>
          <ns3:TrackPointExtension>
            <ns3:hr>110</ns3:hr>
          </ns3:TrackPointExtension>
        </extensions>
      </trkpt>
      <trkpt lat="46.532099246978759765625" lon="8.32871756516396999359130859375">
        <ele>1840.4000244140625</ele>
        <time>2015-09-08T13:40:53.000Z</time>
        <extensions>
          <ns3:TrackPointExtension>
            <ns3:hr>109</ns3:hr>
          </ns3:TrackPointExtension>
        </extensions>
      </trkpt>
      <trkpt lat="46.53195214457809925079345703125" lon="8.32866132259368896484375">
        <ele>1838.4000244140625</ele>
        <time>2015-09-08T13:40:57.000Z</time>
        <extensions>
          <ns3:TrackPointExtension>
            <ns3:hr>108</ns3:hr>
          </ns3:TrackPointExtension>
        </extensions>
      </trkpt>
      <trkpt lat="46.531797163188457489013671875" lon="8.328542970120906829833984375">
        <ele>1836.199951171875</ele>
        <time>2015-09-08T13:41:03.000Z</time>
        <extensions>
          <ns3:TrackPointExtension>
            <ns3:hr>107</ns3:hr>
          </ns3:TrackPointExtension>
        </extensions>
      </trkpt>
      <trkpt lat="46.5315817482769489288330078125" lon="8.32837558351457118988037109375">
        <ele>1832.800048828125</ele>
        <time>2015-09-08T13:41:13.000Z</time>
        <extensions>
          <ns3:TrackPointExtension>
            <ns3:hr>109</ns3:hr>
          </ns3:TrackPointExtension>
        </extensions>
      </trkpt>
      <trkpt lat="46.53134479187428951263427734375" lon="8.32836032845079898834228515625">
        <ele>1827.4000244140625</ele>
        <time>2015-09-08T13:41:21.000Z</time>
        <extensions>
          <ns3:TrackPointExtension>
            <ns3:hr>108</ns3:hr>
          </ns3:TrackPointExtension>
        </extensions>
      </trkpt>
      <trkpt lat="46.531153433024883270263671875" lon="8.32809336483478546142578125">
        <ele>1823.199951171875</ele>
        <time>2015-09-08T13:41:40.000Z</time>
        <extensions>
          <ns3:TrackPointExtension>
            <ns3:hr>111</ns3:hr>
          </ns3:TrackPointExtension>
        </extensions>
      </trkpt>
      <trkpt lat="46.531027369201183319091796875" lon="8.32801214419305324554443359375">
        <ele>1821</ele>
        <time>2015-09-08T13:41:46.000Z</time>
        <extensions>
          <ns3:TrackPointExtension>
            <ns3:hr>110</ns3:hr>
          </ns3:TrackPointExtension>
        </extensions>
      </trkpt>
      <trkpt lat="46.5310255251824855804443359375" lon="8.32809596322476863861083984375">
        <ele>1819.199951171875</ele>
        <time>2015-09-08T13:41:51.000Z</time>
        <extensions>
          <ns3:TrackPointExtension>
            <ns3:hr>110</ns3:hr>
          </ns3:TrackPointExtension>
        </extensions>
      </trkpt>
      <trkpt lat="46.531030721962451934814453125" lon="8.32812144421041011810302734375">
        <ele>1818.800048828125</ele>
        <time>2015-09-08T13:41:52.000Z</time>
        <extensions>
          <ns3:TrackPointExtension>
            <ns3:hr>110</ns3:hr>
          </ns3:TrackPointExtension>
        </extensions>
      </trkpt>
      <trkpt lat="46.5309997089207172393798828125" lon="8.32824666984379291534423828125">
        <ele>1814.199951171875</ele>
        <time>2015-09-08T13:41:58.000Z</time>
        <extensions>
          <ns3:TrackPointExtension>
            <ns3:hr>107</ns3:hr>
          </ns3:TrackPointExtension>
        </extensions>
      </trkpt>
      <trkpt lat="46.5308240242302417755126953125" lon="8.328056819736957550048828125">
        <ele>1808</ele>
        <time>2015-09-08T13:42:02.000Z</time>
        <extensions>
          <ns3:TrackPointExtension>
            <ns3:hr>106</ns3:hr>
          </ns3:TrackPointExtension>
        </extensions>
      </trkpt>
      <trkpt lat="46.53077758848667144775390625" lon="8.32800619304180145263671875">
        <ele>1807.5999755859375</ele>
        <time>2015-09-08T13:42:03.000Z</time>
        <extensions>
          <ns3:TrackPointExtension>
            <ns3:hr>107</ns3:hr>
          </ns3:TrackPointExtension>
        </extensions>
      </trkpt>
      <trkpt lat="46.53059394098818302154541015625" lon="8.32790686748921871185302734375">
        <ele>1803.800048828125</ele>
        <time>2015-09-08T13:42:08.000Z</time>
        <extensions>
          <ns3:TrackPointExtension>
            <ns3:hr>106</ns3:hr>
          </ns3:TrackPointExtension>
        </extensions>
      </trkpt>
      <trkpt lat="46.53051699511706829071044921875" lon="8.32779572345316410064697265625">
        <ele>1800.199951171875</ele>
        <time>2015-09-08T13:42:21.000Z</time>
        <extensions>
          <ns3:TrackPointExtension>
            <ns3:hr>109</ns3:hr>
          </ns3:TrackPointExtension>
        </extensions>
      </trkpt>
      <trkpt lat="46.53004492633044719696044921875" lon="8.3274917118251323699951171875">
        <ele>1796.5999755859375</ele>
        <time>2015-09-08T13:42:54.000Z</time>
        <extensions>
          <ns3:TrackPointExtension>
            <ns3:hr>107</ns3:hr>
          </ns3:TrackPointExtension>
        </extensions>
      </trkpt>
      <trkpt lat="46.53000787831842899322509765625" lon="8.32744820974767208099365234375">
        <ele>1795.199951171875</ele>
        <time>2015-09-08T13:42:55.000Z</time>
        <extensions>
          <ns3:TrackPointExtension>
            <ns3:hr>107</ns3:hr>
          </ns3:TrackPointExtension>
        </extensions>
      </trkpt>
      <trkpt lat="46.52990746311843395233154296875" lon="8.327333293855190277099609375">
        <ele>1795.5999755859375</ele>
        <time>2015-09-08T13:42:57.000Z</time>
        <extensions>
          <ns3:TrackPointExtension>
            <ns3:hr>107</ns3:hr>
          </ns3:TrackPointExtension>
        </extensions>
      </trkpt>
      <trkpt lat="46.5297189541161060333251953125" lon="8.3271604590117931365966796875">
        <ele>1795</ele>
        <time>2015-09-08T13:43:01.000Z</time>
        <extensions>
          <ns3:TrackPointExtension>
            <ns3:hr>106</ns3:hr>
          </ns3:TrackPointExtension>
        </extensions>
      </trkpt>
      <trkpt lat="46.52964946813881397247314453125" lon="8.32707286812365055084228515625">
        <ele>1794</ele>
        <time>2015-09-08T13:43:03.000Z</time>
        <extensions>
          <ns3:TrackPointExtension>
            <ns3:hr>105</ns3:hr>
          </ns3:TrackPointExtension>
        </extensions>
      </trkpt>
      <trkpt lat="46.52956011705100536346435546875" lon="8.32697144709527492523193359375">
        <ele>1792.800048828125</ele>
        <time>2015-09-08T13:43:05.000Z</time>
        <extensions>
          <ns3:TrackPointExtension>
            <ns3:hr>104</ns3:hr>
          </ns3:TrackPointExtension>
        </extensions>
      </trkpt>
      <trkpt lat="46.529329530894756317138671875" lon="8.326747231185436248779296875">
        <ele>1789.800048828125</ele>
        <time>2015-09-08T13:43:11.000Z</time>
        <extensions>
          <ns3:TrackPointExtension>
            <ns3:hr>103</ns3:hr>
          </ns3:TrackPointExtension>
        </extensions>
      </trkpt>
      <trkpt lat="46.52920237742364406585693359375" lon="8.326670117676258087158203125">
        <ele>1787.199951171875</ele>
        <time>2015-09-08T13:43:14.000Z</time>
        <extensions>
          <ns3:TrackPointExtension>
            <ns3:hr>102</ns3:hr>
          </ns3:TrackPointExtension>
        </extensions>
      </trkpt>
      <trkpt lat="46.52904714457690715789794921875" lon="8.326519243419170379638671875">
        <ele>1783</ele>
        <time>2015-09-08T13:43:18.000Z</time>
        <extensions>
          <ns3:TrackPointExtension>
            <ns3:hr>103</ns3:hr>
          </ns3:TrackPointExtension>
        </extensions>
      </trkpt>
      <trkpt lat="46.528754197061061859130859375" lon="8.32622193731367588043212890625">
        <ele>1777.5999755859375</ele>
        <time>2015-09-08T13:43:25.000Z</time>
        <extensions>
          <ns3:TrackPointExtension>
            <ns3:hr>104</ns3:hr>
          </ns3:TrackPointExtension>
        </extensions>
      </trkpt>
      <trkpt lat="46.52845588512718677520751953125" lon="8.3259348571300506591796875">
        <ele>1769.4000244140625</ele>
        <time>2015-09-08T13:43:36.000Z</time>
        <extensions>
          <ns3:TrackPointExtension>
            <ns3:hr>103</ns3:hr>
          </ns3:TrackPointExtension>
        </extensions>
      </trkpt>
      <trkpt lat="46.52832160703837871551513671875" lon="8.32587073557078838348388671875">
        <ele>1764.800048828125</ele>
        <time>2015-09-08T13:43:43.000Z</time>
        <extensions>
          <ns3:TrackPointExtension>
            <ns3:hr>104</ns3:hr>
          </ns3:TrackPointExtension>
        </extensions>
      </trkpt>
      <trkpt lat="46.5280576609075069427490234375" lon="8.32560653798282146453857421875">
        <ele>1758</ele>
        <time>2015-09-08T13:43:57.000Z</time>
        <extensions>
          <ns3:TrackPointExtension>
            <ns3:hr>105</ns3:hr>
          </ns3:TrackPointExtension>
        </extensions>
      </trkpt>
      <trkpt lat="46.528030335903167724609375" lon="8.3256000839173793792724609375">
        <ele>1757.5999755859375</ele>
        <time>2015-09-08T13:44:00.000Z</time>
        <extensions>
          <ns3:TrackPointExtension>
            <ns3:hr>106</ns3:hr>
          </ns3:TrackPointExtension>
        </extensions>
      </trkpt>
      <trkpt lat="46.52812396176159381866455078125" lon="8.3260989747941493988037109375">
        <ele>1752</ele>
        <time>2015-09-08T13:44:18.000Z</time>
        <extensions>
          <ns3:TrackPointExtension>
            <ns3:hr>109</ns3:hr>
          </ns3:TrackPointExtension>
        </extensions>
      </trkpt>
      <trkpt lat="46.528155393898487091064453125" lon="8.32626585848629474639892578125">
        <ele>1748.4000244140625</ele>
        <time>2015-09-08T13:44:23.000Z</time>
        <extensions>
          <ns3:TrackPointExtension>
            <ns3:hr>109</ns3:hr>
          </ns3:TrackPointExtension>
        </extensions>
      </trkpt>
      <trkpt lat="46.5283761732280254364013671875" lon="8.32700908184051513671875">
        <ele>1735.5999755859375</ele>
        <time>2015-09-08T13:44:43.000Z</time>
        <extensions>
          <ns3:TrackPointExtension>
            <ns3:hr>108</ns3:hr>
          </ns3:TrackPointExtension>
        </extensions>
      </trkpt>
      <trkpt lat="46.52856132946908473968505859375" lon="8.32759774290025234222412109375">
        <ele>1723.5999755859375</ele>
        <time>2015-09-08T13:44:58.000Z</time>
        <extensions>
          <ns3:TrackPointExtension>
            <ns3:hr>107</ns3:hr>
          </ns3:TrackPointExtension>
        </extensions>
      </trkpt>
      <trkpt lat="46.528717316687107086181640625" lon="8.32800711505115032196044921875">
        <ele>1715.800048828125</ele>
        <time>2015-09-08T13:45:07.000Z</time>
        <extensions>
          <ns3:TrackPointExtension>
            <ns3:hr>106</ns3:hr>
          </ns3:TrackPointExtension>
        </extensions>
      </trkpt>
      <trkpt lat="46.52880675159394741058349609375" lon="8.3282983861863613128662109375">
        <ele>1709.199951171875</ele>
        <time>2015-09-08T13:45:15.000Z</time>
        <extensions>
          <ns3:TrackPointExtension>
            <ns3:hr>107</ns3:hr>
          </ns3:TrackPointExtension>
        </extensions>
      </trkpt>
      <trkpt lat="46.5289652533829212188720703125" lon="8.32880859263241291046142578125">
        <ele>1699.199951171875</ele>
        <time>2015-09-08T13:45:31.000Z</time>
        <extensions>
          <ns3:TrackPointExtension>
            <ns3:hr>108</ns3:hr>
          </ns3:TrackPointExtension>
        </extensions>
      </trkpt>
      <trkpt lat="46.52919349260628223419189453125" lon="8.3291295357048511505126953125">
        <ele>1691.800048828125</ele>
        <time>2015-09-08T13:45:58.000Z</time>
        <extensions>
          <ns3:TrackPointExtension>
            <ns3:hr>108</ns3:hr>
          </ns3:TrackPointExtension>
        </extensions>
      </trkpt>
      <trkpt lat="46.5292100049555301666259765625" lon="8.32919231615960597991943359375">
        <ele>1691.800048828125</ele>
        <time>2015-09-08T13:46:02.000Z</time>
        <extensions>
          <ns3:TrackPointExtension>
            <ns3:hr>111</ns3:hr>
          </ns3:TrackPointExtension>
        </extensions>
      </trkpt>
      <trkpt lat="46.5293555147945880889892578125" lon="8.3297870121896266937255859375">
        <ele>1690.800048828125</ele>
        <time>2015-09-08T13:46:15.000Z</time>
        <extensions>
          <ns3:TrackPointExtension>
            <ns3:hr>109</ns3:hr>
          </ns3:TrackPointExtension>
        </extensions>
      </trkpt>
      <trkpt lat="46.52946473099291324615478515625" lon="8.33020535297691822052001953125">
        <ele>1687.800048828125</ele>
        <time>2015-09-08T13:46:25.000Z</time>
        <extensions>
          <ns3:TrackPointExtension>
            <ns3:hr>109</ns3:hr>
          </ns3:TrackPointExtension>
        </extensions>
      </trkpt>
      <trkpt lat="46.52940823696553707122802734375" lon="8.33028162829577922821044921875">
        <ele>1685</ele>
        <time>2015-09-08T13:46:32.000Z</time>
        <extensions>
          <ns3:TrackPointExtension>
            <ns3:hr>107</ns3:hr>
          </ns3:TrackPointExtension>
        </extensions>
      </trkpt>
      <trkpt lat="46.52926876209676265716552734375" lon="8.33017433993518352508544921875">
        <ele>1681.800048828125</ele>
        <time>2015-09-08T13:46:36.000Z</time>
        <extensions>
          <ns3:TrackPointExtension>
            <ns3:hr>106</ns3:hr>
          </ns3:TrackPointExtension>
        </extensions>
      </trkpt>
      <trkpt lat="46.529013030230998992919921875" lon="8.3299187757074832916259765625">
        <ele>1673.5999755859375</ele>
        <time>2015-09-08T13:46:46.000Z</time>
        <extensions>
          <ns3:TrackPointExtension>
            <ns3:hr>105</ns3:hr>
          </ns3:TrackPointExtension>
        </extensions>
      </trkpt>
      <trkpt lat="46.52900406159460544586181640625" lon="8.32961359061300754547119140625">
        <ele>1664.4000244140625</ele>
        <time>2015-09-08T13:46:56.000Z</time>
        <extensions>
          <ns3:TrackPointExtension>
            <ns3:hr>103</ns3:hr>
          </ns3:TrackPointExtension>
        </extensions>
      </trkpt>
      <trkpt lat="46.5289769880473613739013671875" lon="8.32960906438529491424560546875">
        <ele>1660.800048828125</ele>
        <time>2015-09-08T13:47:02.000Z</time>
        <extensions>
          <ns3:TrackPointExtension>
            <ns3:hr>106</ns3:hr>
          </ns3:TrackPointExtension>
        </extensions>
      </trkpt>
      <trkpt lat="46.528947651386260986328125" lon="8.32962901331484317779541015625">
        <ele>1661</ele>
        <time>2015-09-08T13:47:13.000Z</time>
        <extensions>
          <ns3:TrackPointExtension>
            <ns3:hr>109</ns3:hr>
          </ns3:TrackPointExtension>
        </extensions>
      </trkpt>
      <trkpt lat="46.5284070186316967010498046875" lon="8.32963454537093639373779296875">
        <ele>1655.4000244140625</ele>
        <time>2015-09-08T13:47:40.000Z</time>
        <extensions>
          <ns3:TrackPointExtension>
            <ns3:hr>109</ns3:hr>
          </ns3:TrackPointExtension>
        </extensions>
      </trkpt>
      <trkpt lat="46.5283186733722686767578125" lon="8.32956187427043914794921875">
        <ele>1652.5999755859375</ele>
        <time>2015-09-08T13:47:44.000Z</time>
        <extensions>
          <ns3:TrackPointExtension>
            <ns3:hr>109</ns3:hr>
          </ns3:TrackPointExtension>
        </extensions>
      </trkpt>
      <trkpt lat="46.5282363630831241607666015625" lon="8.329505212604999542236328125">
        <ele>1648.5999755859375</ele>
        <time>2015-09-08T13:47:48.000Z</time>
        <extensions>
          <ns3:TrackPointExtension>
            <ns3:hr>108</ns3:hr>
          </ns3:TrackPointExtension>
        </extensions>
      </trkpt>
      <trkpt lat="46.5277311019599437713623046875" lon="8.32916432060301303863525390625">
        <ele>1633.199951171875</ele>
        <time>2015-09-08T13:48:16.000Z</time>
        <extensions>
          <ns3:TrackPointExtension>
            <ns3:hr>108</ns3:hr>
          </ns3:TrackPointExtension>
        </extensions>
      </trkpt>
      <trkpt lat="46.5275220572948455810546875" lon="8.32894085906445980072021484375">
        <ele>1627.4000244140625</ele>
        <time>2015-09-08T13:48:57.000Z</time>
        <extensions>
          <ns3:TrackPointExtension>
            <ns3:hr>111</ns3:hr>
          </ns3:TrackPointExtension>
        </extensions>
      </trkpt>
      <trkpt lat="46.52740797959268093109130859375" lon="8.32880037836730480194091796875">
        <ele>1625.800048828125</ele>
        <time>2015-09-08T13:49:03.000Z</time>
        <extensions>
          <ns3:TrackPointExtension>
            <ns3:hr>112</ns3:hr>
          </ns3:TrackPointExtension>
        </extensions>
      </trkpt>
      <trkpt lat="46.52715199626982212066650390625" lon="8.32856166176497936248779296875">
        <ele>1619</ele>
        <time>2015-09-08T13:49:12.000Z</time>
        <extensions>
          <ns3:TrackPointExtension>
            <ns3:hr>109</ns3:hr>
          </ns3:TrackPointExtension>
        </extensions>
      </trkpt>
      <trkpt lat="46.52692350558936595916748046875" lon="8.32818455994129180908203125">
        <ele>1608.199951171875</ele>
        <time>2015-09-08T13:49:22.000Z</time>
        <extensions>
          <ns3:TrackPointExtension>
            <ns3:hr>106</ns3:hr>
          </ns3:TrackPointExtension>
        </extensions>
      </trkpt>
      <trkpt lat="46.52690925635397434234619140625" lon="8.32814298570156097412109375">
        <ele>1607</ele>
        <time>2015-09-08T13:49:23.000Z</time>
        <extensions>
          <ns3:TrackPointExtension>
            <ns3:hr>106</ns3:hr>
          </ns3:TrackPointExtension>
        </extensions>
      </trkpt>
      <trkpt lat="46.5267631597816944122314453125" lon="8.3280589990317821502685546875">
        <ele>1598.800048828125</ele>
        <time>2015-09-08T13:49:30.000Z</time>
        <extensions>
          <ns3:TrackPointExtension>
            <ns3:hr>104</ns3:hr>
          </ns3:TrackPointExtension>
        </extensions>
      </trkpt>
      <trkpt lat="46.52631514705717563629150390625" lon="8.327588774263858795166015625">
        <ele>1585.4000244140625</ele>
        <time>2015-09-08T13:49:47.000Z</time>
        <extensions>
          <ns3:TrackPointExtension>
            <ns3:hr>101</ns3:hr>
          </ns3:TrackPointExtension>
        </extensions>
      </trkpt>
      <trkpt lat="46.52630894444882869720458984375" lon="8.32757108844816684722900390625">
        <ele>1584.800048828125</ele>
        <time>2015-09-08T13:49:48.000Z</time>
        <extensions>
          <ns3:TrackPointExtension>
            <ns3:hr>101</ns3:hr>
          </ns3:TrackPointExtension>
        </extensions>
      </trkpt>
      <trkpt lat="46.52626099996268749237060546875" lon="8.32756823860108852386474609375">
        <ele>1584.800048828125</ele>
        <time>2015-09-08T13:50:07.000Z</time>
        <extensions>
          <ns3:TrackPointExtension>
            <ns3:hr>104</ns3:hr>
          </ns3:TrackPointExtension>
        </extensions>
      </trkpt>
      <trkpt lat="46.526261083781719207763671875" lon="8.327557928860187530517578125">
        <ele>1585.800048828125</ele>
        <time>2015-09-08T13:50:13.000Z</time>
        <extensions>
          <ns3:TrackPointExtension>
            <ns3:hr>101</ns3:hr>
          </ns3:TrackPointExtension>
        </extensions>
      </trkpt>
      <trkpt lat="46.526230908930301666259765625" lon="8.327545858919620513916015625">
        <ele>1587</ele>
        <time>2015-09-08T13:50:22.000Z</time>
        <extensions>
          <ns3:TrackPointExtension>
            <ns3:hr>104</ns3:hr>
          </ns3:TrackPointExtension>
        </extensions>
      </trkpt>
      <trkpt lat="46.5261120535433292388916015625" lon="8.3273894526064395904541015625">
        <ele>1586.800048828125</ele>
        <time>2015-09-08T13:50:27.000Z</time>
        <extensions>
          <ns3:TrackPointExtension>
            <ns3:hr>106</ns3:hr>
          </ns3:TrackPointExtension>
        </extensions>
      </trkpt>
      <trkpt lat="46.52594265528023242950439453125" lon="8.32709097303450107574462890625">
        <ele>1583.800048828125</ele>
        <time>2015-09-08T13:50:35.000Z</time>
        <extensions>
          <ns3:TrackPointExtension>
            <ns3:hr>103</ns3:hr>
          </ns3:TrackPointExtension>
        </extensions>
      </trkpt>
      <trkpt lat="46.52547293342649936676025390625" lon="8.326688893139362335205078125">
        <ele>1567.800048828125</ele>
        <time>2015-09-08T13:50:55.000Z</time>
        <extensions>
          <ns3:TrackPointExtension>
            <ns3:hr>103</ns3:hr>
          </ns3:TrackPointExtension>
        </extensions>
      </trkpt>
      <trkpt lat="46.52529758401215076446533203125" lon="8.32643835805356502532958984375">
        <ele>1563.5999755859375</ele>
        <time>2015-09-08T13:51:08.000Z</time>
        <extensions>
          <ns3:TrackPointExtension>
            <ns3:hr>106</ns3:hr>
          </ns3:TrackPointExtension>
        </extensions>
      </trkpt>
      <trkpt lat="46.5248081646859645843505859375" lon="8.32606561481952667236328125">
        <ele>1555</ele>
        <time>2015-09-08T13:51:27.000Z</time>
        <extensions>
          <ns3:TrackPointExtension>
            <ns3:hr>106</ns3:hr>
          </ns3:TrackPointExtension>
        </extensions>
      </trkpt>
      <trkpt lat="46.52473515830934047698974609375" lon="8.3260099589824676513671875">
        <ele>1553.199951171875</ele>
        <time>2015-09-08T13:51:29.000Z</time>
        <extensions>
          <ns3:TrackPointExtension>
            <ns3:hr>106</ns3:hr>
          </ns3:TrackPointExtension>
        </extensions>
      </trkpt>
      <trkpt lat="46.52460515499114990234375" lon="8.32592974416911602020263671875">
        <ele>1550.199951171875</ele>
        <time>2015-09-08T13:51:32.000Z</time>
        <extensions>
          <ns3:TrackPointExtension>
            <ns3:hr>106</ns3:hr>
          </ns3:TrackPointExtension>
        </extensions>
      </trkpt>
      <trkpt lat="46.52409176342189311981201171875" lon="8.32559580914676189422607421875">
        <ele>1537.800048828125</ele>
        <time>2015-09-08T13:51:46.000Z</time>
        <extensions>
          <ns3:TrackPointExtension>
            <ns3:hr>106</ns3:hr>
          </ns3:TrackPointExtension>
        </extensions>
      </trkpt>
      <trkpt lat="46.52384416200220584869384765625" lon="8.3253878541290760040283203125">
        <ele>1531.800048828125</ele>
        <time>2015-09-08T13:51:54.000Z</time>
        <extensions>
          <ns3:TrackPointExtension>
            <ns3:hr>107</ns3:hr>
          </ns3:TrackPointExtension>
        </extensions>
      </trkpt>
      <trkpt lat="46.52362053282558917999267578125" lon="8.325261957943439483642578125">
        <ele>1524.199951171875</ele>
        <time>2015-09-08T13:52:04.000Z</time>
        <extensions>
          <ns3:TrackPointExtension>
            <ns3:hr>107</ns3:hr>
          </ns3:TrackPointExtension>
        </extensions>
      </trkpt>
      <trkpt lat="46.52331794612109661102294921875" lon="8.32509197294712066650390625">
        <ele>1517</ele>
        <time>2015-09-08T13:52:15.000Z</time>
        <extensions>
          <ns3:TrackPointExtension>
            <ns3:hr>108</ns3:hr>
          </ns3:TrackPointExtension>
        </extensions>
      </trkpt>
      <trkpt lat="46.523213088512420654296875" lon="8.32509742118418216705322265625">
        <ele>1514.4000244140625</ele>
        <time>2015-09-08T13:52:18.000Z</time>
        <extensions>
          <ns3:TrackPointExtension>
            <ns3:hr>108</ns3:hr>
          </ns3:TrackPointExtension>
        </extensions>
      </trkpt>
      <trkpt lat="46.52293103747069835662841796875" lon="8.325530849397182464599609375">
        <ele>1505.199951171875</ele>
        <time>2015-09-08T13:52:33.000Z</time>
        <extensions>
          <ns3:TrackPointExtension>
            <ns3:hr>107</ns3:hr>
          </ns3:TrackPointExtension>
        </extensions>
      </trkpt>
      <trkpt lat="46.5228649042546749114990234375" lon="8.3255095593631267547607421875">
        <ele>1503.4000244140625</ele>
        <time>2015-09-08T13:52:36.000Z</time>
        <extensions>
          <ns3:TrackPointExtension>
            <ns3:hr>108</ns3:hr>
          </ns3:TrackPointExtension>
        </extensions>
      </trkpt>
      <trkpt lat="46.52285157702863216400146484375" lon="8.3255030214786529541015625">
        <ele>1504.199951171875</ele>
        <time>2015-09-08T13:52:39.000Z</time>
        <extensions>
          <ns3:TrackPointExtension>
            <ns3:hr>111</ns3:hr>
          </ns3:TrackPointExtension>
        </extensions>
      </trkpt>
      <trkpt lat="46.52281117625534534454345703125" lon="8.3255149237811565399169921875">
        <ele>1505</ele>
        <time>2015-09-08T13:53:13.000Z</time>
        <extensions>
          <ns3:TrackPointExtension>
            <ns3:hr>114</ns3:hr>
          </ns3:TrackPointExtension>
        </extensions>
      </trkpt>
      <trkpt lat="46.52281050570309162139892578125" lon="8.32551576197147369384765625">
        <ele>1504.800048828125</ele>
        <time>2015-09-08T13:53:26.000Z</time>
        <extensions>
          <ns3:TrackPointExtension>
            <ns3:hr>117</ns3:hr>
          </ns3:TrackPointExtension>
        </extensions>
      </trkpt>
      <trkpt lat="46.522697098553180694580078125" lon="8.32548902370035648345947265625">
        <ele>1502.5999755859375</ele>
        <time>2015-09-08T13:53:48.000Z</time>
        <extensions>
          <ns3:TrackPointExtension>
            <ns3:hr>114</ns3:hr>
          </ns3:TrackPointExtension>
        </extensions>
      </trkpt>
      <trkpt lat="46.52266901917755603790283203125" lon="8.32547913305461406707763671875">
        <ele>1501.800048828125</ele>
        <time>2015-09-08T13:53:52.000Z</time>
        <extensions>
          <ns3:TrackPointExtension>
            <ns3:hr>111</ns3:hr>
          </ns3:TrackPointExtension>
        </extensions>
      </trkpt>
      <trkpt lat="46.5226479806005954742431640625" lon="8.32545549608767032623291015625">
        <ele>1501.199951171875</ele>
        <time>2015-09-08T13:53:56.000Z</time>
        <extensions>
          <ns3:TrackPointExtension>
            <ns3:hr>108</ns3:hr>
          </ns3:TrackPointExtension>
        </extensions>
      </trkpt>
      <trkpt lat="46.52251730673015117645263671875" lon="8.3251679129898548126220703125">
        <ele>1496.800048828125</ele>
        <time>2015-09-08T13:54:31.000Z</time>
        <extensions>
          <ns3:TrackPointExtension>
            <ns3:hr>111</ns3:hr>
          </ns3:TrackPointExtension>
        </extensions>
      </trkpt>
      <trkpt lat="46.52251043356955051422119140625" lon="8.32483959384262561798095703125">
        <ele>1495.4000244140625</ele>
        <time>2015-09-08T13:54:44.000Z</time>
        <extensions>
          <ns3:TrackPointExtension>
            <ns3:hr>113</ns3:hr>
          </ns3:TrackPointExtension>
        </extensions>
      </trkpt>
      <trkpt lat="46.52253189124166965484619140625" lon="8.32472476176917552947998046875">
        <ele>1494</ele>
        <time>2015-09-08T13:54:48.000Z</time>
        <extensions>
          <ns3:TrackPointExtension>
            <ns3:hr>115</ns3:hr>
          </ns3:TrackPointExtension>
        </extensions>
      </trkpt>
      <trkpt lat="46.52255552820861339569091796875" lon="8.3245513401925563812255859375">
        <ele>1491.5999755859375</ele>
        <time>2015-09-08T13:54:54.000Z</time>
        <extensions>
          <ns3:TrackPointExtension>
            <ns3:hr>114</ns3:hr>
          </ns3:TrackPointExtension>
        </extensions>
      </trkpt>
      <trkpt lat="46.52247925288975238800048828125" lon="8.3240749128162860870361328125">
        <ele>1483.4000244140625</ele>
        <time>2015-09-08T13:55:06.000Z</time>
        <extensions>
          <ns3:TrackPointExtension>
            <ns3:hr>112</ns3:hr>
          </ns3:TrackPointExtension>
        </extensions>
      </trkpt>
      <trkpt lat="46.5222785063087940216064453125" lon="8.32387668080627918243408203125">
        <ele>1479.199951171875</ele>
        <time>2015-09-08T13:55:12.000Z</time>
        <extensions>
          <ns3:TrackPointExtension>
            <ns3:hr>109</ns3:hr>
          </ns3:TrackPointExtension>
        </extensions>
      </trkpt>
      <trkpt lat="46.5222305618226528167724609375" lon="8.32386846654117107391357421875">
        <ele>1478</ele>
        <time>2015-09-08T13:55:13.000Z</time>
        <extensions>
          <ns3:TrackPointExtension>
            <ns3:hr>109</ns3:hr>
          </ns3:TrackPointExtension>
        </extensions>
      </trkpt>
      <trkpt lat="46.52210642583668231964111328125" lon="8.3238925226032733917236328125">
        <ele>1474.4000244140625</ele>
        <time>2015-09-08T13:55:18.000Z</time>
        <extensions>
          <ns3:TrackPointExtension>
            <ns3:hr>106</ns3:hr>
          </ns3:TrackPointExtension>
        </extensions>
      </trkpt>
      <trkpt lat="46.5221474133431911468505859375" lon="8.3239875733852386474609375">
        <ele>1472.4000244140625</ele>
        <time>2015-09-08T13:55:20.000Z</time>
        <extensions>
          <ns3:TrackPointExtension>
            <ns3:hr>105</ns3:hr>
          </ns3:TrackPointExtension>
        </extensions>
      </trkpt>
      <trkpt lat="46.52223751880228519439697265625" lon="8.324144147336483001708984375">
        <ele>1470</ele>
        <time>2015-09-08T13:55:23.000Z</time>
        <extensions>
          <ns3:TrackPointExtension>
            <ns3:hr>105</ns3:hr>
          </ns3:TrackPointExtension>
        </extensions>
      </trkpt>
      <trkpt lat="46.5220159851014614105224609375" lon="8.3242526091635227203369140625">
        <ele>1463.4000244140625</ele>
        <time>2015-09-08T13:55:31.000Z</time>
        <extensions>
          <ns3:TrackPointExtension>
            <ns3:hr>102</ns3:hr>
          </ns3:TrackPointExtension>
        </extensions>
      </trkpt>
      <trkpt lat="46.52188112027943134307861328125" lon="8.32444824278354644775390625">
        <ele>1458</ele>
        <time>2015-09-08T13:55:38.000Z</time>
        <extensions>
          <ns3:TrackPointExtension>
            <ns3:hr>101</ns3:hr>
          </ns3:TrackPointExtension>
        </extensions>
      </trkpt>
      <trkpt lat="46.52194247581064701080322265625" lon="8.32460640929639339447021484375">
        <ele>1455.5999755859375</ele>
        <time>2015-09-08T13:55:40.000Z</time>
        <extensions>
          <ns3:TrackPointExtension>
            <ns3:hr>101</ns3:hr>
          </ns3:TrackPointExtension>
        </extensions>
      </trkpt>
      <trkpt lat="46.5219925157725811004638671875" lon="8.32473984919488430023193359375">
        <ele>1453.4000244140625</ele>
        <time>2015-09-08T13:55:42.000Z</time>
        <extensions>
          <ns3:TrackPointExtension>
            <ns3:hr>101</ns3:hr>
          </ns3:TrackPointExtension>
        </extensions>
      </trkpt>
      <trkpt lat="46.52176000177860260009765625" lon="8.32507378421723842620849609375">
        <ele>1443</ele>
        <time>2015-09-08T13:55:56.000Z</time>
        <extensions>
          <ns3:TrackPointExtension>
            <ns3:hr>101</ns3:hr>
          </ns3:TrackPointExtension>
        </extensions>
      </trkpt>
      <trkpt lat="46.521740891039371490478515625" lon="8.32513731904327869415283203125">
        <ele>1441.800048828125</ele>
        <time>2015-09-08T13:55:57.000Z</time>
        <extensions>
          <ns3:TrackPointExtension>
            <ns3:hr>101</ns3:hr>
          </ns3:TrackPointExtension>
        </extensions>
      </trkpt>
      <trkpt lat="46.5216800384223461151123046875" lon="8.3253489620983600616455078125">
        <ele>1438.800048828125</ele>
        <time>2015-09-08T13:56:01.000Z</time>
        <extensions>
          <ns3:TrackPointExtension>
            <ns3:hr>101</ns3:hr>
          </ns3:TrackPointExtension>
        </extensions>
      </trkpt>
      <trkpt lat="46.52172454632818698883056640625" lon="8.3256869204342365264892578125">
        <ele>1435</ele>
        <time>2015-09-08T13:56:05.000Z</time>
        <extensions>
          <ns3:TrackPointExtension>
            <ns3:hr>101</ns3:hr>
          </ns3:TrackPointExtension>
        </extensions>
      </trkpt>
      <trkpt lat="46.52175706811249256134033203125" lon="8.3258391357958316802978515625">
        <ele>1433.199951171875</ele>
        <time>2015-09-08T13:56:07.000Z</time>
        <extensions>
          <ns3:TrackPointExtension>
            <ns3:hr>101</ns3:hr>
          </ns3:TrackPointExtension>
        </extensions>
      </trkpt>
      <trkpt lat="46.521443836390972137451171875" lon="8.325915075838565826416015625">
        <ele>1424.800048828125</ele>
        <time>2015-09-08T13:56:16.000Z</time>
        <extensions>
          <ns3:TrackPointExtension>
            <ns3:hr>100</ns3:hr>
          </ns3:TrackPointExtension>
        </extensions>
      </trkpt>
      <trkpt lat="46.52136948890984058380126953125" lon="8.32590191625058650970458984375">
        <ele>1423.5999755859375</ele>
        <time>2015-09-08T13:56:17.000Z</time>
        <extensions>
          <ns3:TrackPointExtension>
            <ns3:hr>100</ns3:hr>
          </ns3:TrackPointExtension>
        </extensions>
      </trkpt>
      <trkpt lat="46.5208153612911701202392578125" lon="8.32573913969099521636962890625">
        <ele>1415.4000244140625</ele>
        <time>2015-09-08T13:56:25.000Z</time>
        <extensions>
          <ns3:TrackPointExtension>
            <ns3:hr>99</ns3:hr>
          </ns3:TrackPointExtension>
        </extensions>
      </trkpt>
      <trkpt lat="46.5205250121653079986572265625" lon="8.32563151605427265167236328125">
        <ele>1408.5999755859375</ele>
        <time>2015-09-08T13:56:30.000Z</time>
        <extensions>
          <ns3:TrackPointExtension>
            <ns3:hr>99</ns3:hr>
          </ns3:TrackPointExtension>
        </extensions>
      </trkpt>
      <trkpt lat="46.52021932415664196014404296875" lon="8.325855731964111328125">
        <ele>1398.199951171875</ele>
        <time>2015-09-08T13:56:40.000Z</time>
        <extensions>
          <ns3:TrackPointExtension>
            <ns3:hr>98</ns3:hr>
          </ns3:TrackPointExtension>
        </extensions>
      </trkpt>
      <trkpt lat="46.5202054940164089202880859375" lon="8.32597064785659313201904296875">
        <ele>1397.199951171875</ele>
        <time>2015-09-08T13:56:41.000Z</time>
        <extensions>
          <ns3:TrackPointExtension>
            <ns3:hr>97</ns3:hr>
          </ns3:TrackPointExtension>
        </extensions>
      </trkpt>
      <trkpt lat="46.52012108825147151947021484375" lon="8.32637096755206584930419921875">
        <ele>1393</ele>
        <time>2015-09-08T13:56:45.000Z</time>
        <extensions>
          <ns3:TrackPointExtension>
            <ns3:hr>97</ns3:hr>
          </ns3:TrackPointExtension>
        </extensions>
      </trkpt>
      <trkpt lat="46.519817076623439788818359375" lon="8.32620106637477874755859375">
        <ele>1386.5999755859375</ele>
        <time>2015-09-08T13:56:50.000Z</time>
        <extensions>
          <ns3:TrackPointExtension>
            <ns3:hr>97</ns3:hr>
          </ns3:TrackPointExtension>
        </extensions>
      </trkpt>
      <trkpt lat="46.51955380104482173919677734375" lon="8.325984142720699310302734375">
        <ele>1382.800048828125</ele>
        <time>2015-09-08T13:56:53.000Z</time>
        <extensions>
          <ns3:TrackPointExtension>
            <ns3:hr>98</ns3:hr>
          </ns3:TrackPointExtension>
        </extensions>
      </trkpt>
      <trkpt lat="46.51915691792964935302734375" lon="8.3257331885397434234619140625">
        <ele>1376.5999755859375</ele>
        <time>2015-09-08T13:56:57.000Z</time>
        <extensions>
          <ns3:TrackPointExtension>
            <ns3:hr>95</ns3:hr>
          </ns3:TrackPointExtension>
        </extensions>
      </trkpt>
      <trkpt lat="46.51882289908826351165771484375" lon="8.3255222998559474945068359375">
        <ele>1371.199951171875</ele>
        <time>2015-09-08T13:57:00.000Z</time>
        <extensions>
          <ns3:TrackPointExtension>
            <ns3:hr>93</ns3:hr>
          </ns3:TrackPointExtension>
        </extensions>
      </trkpt>
      <trkpt lat="46.51838452555239200592041015625" lon="8.325405456125736236572265625">
        <ele>1366.199951171875</ele>
        <time>2015-09-08T13:57:05.000Z</time>
        <extensions>
          <ns3:TrackPointExtension>
            <ns3:hr>94</ns3:hr>
          </ns3:TrackPointExtension>
        </extensions>
      </trkpt>
      <trkpt lat="46.5178438089787960052490234375" lon="8.32532624714076519012451171875">
        <ele>1362</ele>
        <time>2015-09-08T13:57:11.000Z</time>
        <extensions>
          <ns3:TrackPointExtension>
            <ns3:hr>95</ns3:hr>
          </ns3:TrackPointExtension>
        </extensions>
      </trkpt>
      <trkpt lat="46.51775504462420940399169921875" lon="8.32533362321555614471435546875">
        <ele>1361.4000244140625</ele>
        <time>2015-09-08T13:57:12.000Z</time>
        <extensions>
          <ns3:TrackPointExtension>
            <ns3:hr>95</ns3:hr>
          </ns3:TrackPointExtension>
        </extensions>
      </trkpt>
      <trkpt lat="46.517491601407527923583984375" lon="8.3251320384442806243896484375">
        <ele>1360.199951171875</ele>
        <time>2015-09-08T13:57:16.000Z</time>
        <extensions>
          <ns3:TrackPointExtension>
            <ns3:hr>93</ns3:hr>
          </ns3:TrackPointExtension>
        </extensions>
      </trkpt>
      <trkpt lat="46.51724961586296558380126953125" lon="8.32520236261188983917236328125">
        <ele>1358.5999755859375</ele>
        <time>2015-09-08T13:57:20.000Z</time>
        <extensions>
          <ns3:TrackPointExtension>
            <ns3:hr>94</ns3:hr>
          </ns3:TrackPointExtension>
        </extensions>
      </trkpt>
      <trkpt lat="46.5168131701648235321044921875" lon="8.32550528459250926971435546875">
        <ele>1355.5999755859375</ele>
        <time>2015-09-08T13:57:26.000Z</time>
        <extensions>
          <ns3:TrackPointExtension>
            <ns3:hr>95</ns3:hr>
          </ns3:TrackPointExtension>
        </extensions>
      </trkpt>
      <trkpt lat="46.5162770636379718780517578125" lon="8.32560134120285511016845703125">
        <ele>1354.4000244140625</ele>
        <time>2015-09-08T13:57:32.000Z</time>
        <extensions>
          <ns3:TrackPointExtension>
            <ns3:hr>96</ns3:hr>
          </ns3:TrackPointExtension>
        </extensions>
      </trkpt>
      <trkpt lat="46.5159189887344837188720703125" lon="8.325427584350109100341796875">
        <ele>1353.199951171875</ele>
        <time>2015-09-08T13:57:37.000Z</time>
        <extensions>
          <ns3:TrackPointExtension>
            <ns3:hr>95</ns3:hr>
          </ns3:TrackPointExtension>
        </extensions>
      </trkpt>
      <trkpt lat="46.51585369370877742767333984375" lon="8.3253700844943523406982421875">
        <ele>1353.199951171875</ele>
        <time>2015-09-08T13:57:38.000Z</time>
        <extensions>
          <ns3:TrackPointExtension>
            <ns3:hr>96</ns3:hr>
          </ns3:TrackPointExtension>
        </extensions>
      </trkpt>
      <trkpt lat="46.51548656634986400604248046875" lon="8.3252336271107196807861328125">
        <ele>1352.4000244140625</ele>
        <time>2015-09-08T13:57:43.000Z</time>
        <extensions>
          <ns3:TrackPointExtension>
            <ns3:hr>97</ns3:hr>
          </ns3:TrackPointExtension>
        </extensions>
      </trkpt>
      <trkpt lat="46.51533334515988826751708984375" lon="8.32522549666464328765869140625">
        <ele>1352</ele>
        <time>2015-09-08T13:57:45.000Z</time>
        <extensions>
          <ns3:TrackPointExtension>
            <ns3:hr>96</ns3:hr>
          </ns3:TrackPointExtension>
        </extensions>
      </trkpt>
      <trkpt lat="46.51476371102035045623779296875" lon="8.32527914084494113922119140625">
        <ele>1351.199951171875</ele>
        <time>2015-09-08T13:57:53.000Z</time>
        <extensions>
          <ns3:TrackPointExtension>
            <ns3:hr>95</ns3:hr>
          </ns3:TrackPointExtension>
        </extensions>
      </trkpt>
      <trkpt lat="46.514592133462429046630859375" lon="8.32531920634210109710693359375">
        <ele>1350.4000244140625</ele>
        <time>2015-09-08T13:57:56.000Z</time>
        <extensions>
          <ns3:TrackPointExtension>
            <ns3:hr>95</ns3:hr>
          </ns3:TrackPointExtension>
        </extensions>
      </trkpt>
      <trkpt lat="46.514423154294490814208984375" lon="8.32570997066795825958251953125">
        <ele>1346.800048828125</ele>
        <time>2015-09-08T13:58:01.000Z</time>
        <extensions>
          <ns3:TrackPointExtension>
            <ns3:hr>97</ns3:hr>
          </ns3:TrackPointExtension>
        </extensions>
      </trkpt>
      <trkpt lat="46.5143398381769657135009765625" lon="8.32586579024791717529296875">
        <ele>1346.199951171875</ele>
        <time>2015-09-08T13:58:03.000Z</time>
        <extensions>
          <ns3:TrackPointExtension>
            <ns3:hr>96</ns3:hr>
          </ns3:TrackPointExtension>
        </extensions>
      </trkpt>
      <trkpt lat="46.51420162059366703033447265625" lon="8.32606385461986064910888671875">
        <ele>1346.800048828125</ele>
        <time>2015-09-08T13:58:06.000Z</time>
        <extensions>
          <ns3:TrackPointExtension>
            <ns3:hr>95</ns3:hr>
          </ns3:TrackPointExtension>
        </extensions>
      </trkpt>
      <trkpt lat="46.5139204077422618865966796875" lon="8.32636157982051372528076171875">
        <ele>1347</ele>
        <time>2015-09-08T13:58:12.000Z</time>
        <extensions>
          <ns3:TrackPointExtension>
            <ns3:hr>97</ns3:hr>
          </ns3:TrackPointExtension>
        </extensions>
      </trkpt>
      <trkpt lat="46.51383348740637302398681640625" lon="8.32643886096775531768798828125">
        <ele>1347.4000244140625</ele>
        <time>2015-09-08T13:58:14.000Z</time>
        <extensions>
          <ns3:TrackPointExtension>
            <ns3:hr>98</ns3:hr>
          </ns3:TrackPointExtension>
        </extensions>
      </trkpt>
      <trkpt lat="46.51368998922407627105712890625" lon="8.32664304412901401519775390625">
        <ele>1348.4000244140625</ele>
        <time>2015-09-08T13:58:18.000Z</time>
        <extensions>
          <ns3:TrackPointExtension>
            <ns3:hr>100</ns3:hr>
          </ns3:TrackPointExtension>
        </extensions>
      </trkpt>
      <trkpt lat="46.5134416334331035614013671875" lon="8.326833061873912811279296875">
        <ele>1350.5999755859375</ele>
        <time>2015-09-08T13:58:26.000Z</time>
        <extensions>
          <ns3:TrackPointExtension>
            <ns3:hr>103</ns3:hr>
          </ns3:TrackPointExtension>
        </extensions>
      </trkpt>
      <trkpt lat="46.51335261762142181396484375" lon="8.32660046406090259552001953125">
        <ele>1350</ele>
        <time>2015-09-08T13:58:30.000Z</time>
        <extensions>
          <ns3:TrackPointExtension>
            <ns3:hr>106</ns3:hr>
          </ns3:TrackPointExtension>
        </extensions>
      </trkpt>
      <trkpt lat="46.5132002346217632293701171875" lon="8.3260986395180225372314453125">
        <ele>1347.4000244140625</ele>
        <time>2015-09-08T13:58:37.000Z</time>
        <extensions>
          <ns3:TrackPointExtension>
            <ns3:hr>109</ns3:hr>
          </ns3:TrackPointExtension>
        </extensions>
      </trkpt>
      <trkpt lat="46.512900330126285552978515625" lon="8.32536580972373485565185546875">
        <ele>1344.4000244140625</ele>
        <time>2015-09-08T13:58:47.000Z</time>
        <extensions>
          <ns3:TrackPointExtension>
            <ns3:hr>111</ns3:hr>
          </ns3:TrackPointExtension>
        </extensions>
      </trkpt>
      <trkpt lat="46.51254929602146148681640625" lon="8.3247628994286060333251953125">
        <ele>1344.199951171875</ele>
        <time>2015-09-08T13:58:56.000Z</time>
        <extensions>
          <ns3:TrackPointExtension>
            <ns3:hr>111</ns3:hr>
          </ns3:TrackPointExtension>
        </extensions>
      </trkpt>
      <trkpt lat="46.51212139986455440521240234375" lon="8.32420055754482746124267578125">
        <ele>1344</ele>
        <time>2015-09-08T13:59:05.000Z</time>
        <extensions>
          <ns3:TrackPointExtension>
            <ns3:hr>113</ns3:hr>
          </ns3:TrackPointExtension>
        </extensions>
      </trkpt>
      <trkpt lat="46.511926688253879547119140625" lon="8.3239320851862430572509765625">
        <ele>1344.199951171875</ele>
        <time>2015-09-08T13:59:09.000Z</time>
        <extensions>
          <ns3:TrackPointExtension>
            <ns3:hr>113</ns3:hr>
          </ns3:TrackPointExtension>
        </extensions>
      </trkpt>
      <trkpt lat="46.511509604752063751220703125" lon="8.32340276800096035003662109375">
        <ele>1344</ele>
        <time>2015-09-08T13:59:17.000Z</time>
        <extensions>
          <ns3:TrackPointExtension>
            <ns3:hr>113</ns3:hr>
          </ns3:TrackPointExtension>
        </extensions>
      </trkpt>
      <trkpt lat="46.51129829697310924530029296875" lon="8.323147706687450408935546875">
        <ele>1344.4000244140625</ele>
        <time>2015-09-08T13:59:21.000Z</time>
        <extensions>
          <ns3:TrackPointExtension>
            <ns3:hr>112</ns3:hr>
          </ns3:TrackPointExtension>
        </extensions>
      </trkpt>
      <trkpt lat="46.51084751822054386138916015625" lon="8.32265996374189853668212890625">
        <ele>1344.800048828125</ele>
        <time>2015-09-08T13:59:29.000Z</time>
        <extensions>
          <ns3:TrackPointExtension>
            <ns3:hr>112</ns3:hr>
          </ns3:TrackPointExtension>
        </extensions>
      </trkpt>
      <trkpt lat="46.51039472781121730804443359375" lon="8.32221153192222118377685546875">
        <ele>1343.199951171875</ele>
        <time>2015-09-08T13:59:37.000Z</time>
        <extensions>
          <ns3:TrackPointExtension>
            <ns3:hr>110</ns3:hr>
          </ns3:TrackPointExtension>
        </extensions>
      </trkpt>
      <trkpt lat="46.50990438647568225860595703125" lon="8.32179562188684940338134765625">
        <ele>1344.4000244140625</ele>
        <time>2015-09-08T13:59:45.000Z</time>
        <extensions>
          <ns3:TrackPointExtension>
            <ns3:hr>110</ns3:hr>
          </ns3:TrackPointExtension>
        </extensions>
      </trkpt>
      <trkpt lat="46.509788967669010162353515625" lon="8.32170166075229644775390625">
        <ele>1344.5999755859375</ele>
        <time>2015-09-08T13:59:47.000Z</time>
        <extensions>
          <ns3:TrackPointExtension>
            <ns3:hr>109</ns3:hr>
          </ns3:TrackPointExtension>
        </extensions>
      </trkpt>
      <trkpt lat="46.5095044858753681182861328125" lon="8.3214842341840267181396484375">
        <ele>1344.4000244140625</ele>
        <time>2015-09-08T13:59:52.000Z</time>
        <extensions>
          <ns3:TrackPointExtension>
            <ns3:hr>109</ns3:hr>
          </ns3:TrackPointExtension>
        </extensions>
      </trkpt>
      <trkpt lat="46.50918312370777130126953125" lon="8.320858776569366455078125">
        <ele>1344.5999755859375</ele>
        <time>2015-09-08T14:00:00.000Z</time>
        <extensions>
          <ns3:TrackPointExtension>
            <ns3:hr>109</ns3:hr>
          </ns3:TrackPointExtension>
        </extensions>
      </trkpt>
      <trkpt lat="46.508927643299102783203125" lon="8.320070207118988037109375">
        <ele>1344</ele>
        <time>2015-09-08T14:00:08.000Z</time>
        <extensions>
          <ns3:TrackPointExtension>
            <ns3:hr>108</ns3:hr>
          </ns3:TrackPointExtension>
        </extensions>
      </trkpt>
      <trkpt lat="46.5088002383708953857421875" lon="8.3197116293013095855712890625">
        <ele>1343.4000244140625</ele>
        <time>2015-09-08T14:00:12.000Z</time>
        <extensions>
          <ns3:TrackPointExtension>
            <ns3:hr>106</ns3:hr>
          </ns3:TrackPointExtension>
        </extensions>
      </trkpt>
      <trkpt lat="46.50857158005237579345703125" lon="8.31897947005927562713623046875">
        <ele>1342</ele>
        <time>2015-09-08T14:00:20.000Z</time>
        <extensions>
          <ns3:TrackPointExtension>
            <ns3:hr>107</ns3:hr>
          </ns3:TrackPointExtension>
        </extensions>
      </trkpt>
      <trkpt lat="46.5085026808083057403564453125" lon="8.31868828274309635162353515625">
        <ele>1341.5999755859375</ele>
        <time>2015-09-08T14:00:23.000Z</time>
        <extensions>
          <ns3:TrackPointExtension>
            <ns3:hr>107</ns3:hr>
          </ns3:TrackPointExtension>
        </extensions>
      </trkpt>
      <trkpt lat="46.508475355803966522216796875" lon="8.31816676072776317596435546875">
        <ele>1342</ele>
        <time>2015-09-08T14:00:28.000Z</time>
        <extensions>
          <ns3:TrackPointExtension>
            <ns3:hr>107</ns3:hr>
          </ns3:TrackPointExtension>
        </extensions>
      </trkpt>
      <trkpt lat="46.5085561573505401611328125" lon="8.31765395589172840118408203125">
        <ele>1342.199951171875</ele>
        <time>2015-09-08T14:00:33.000Z</time>
        <extensions>
          <ns3:TrackPointExtension>
            <ns3:hr>110</ns3:hr>
          </ns3:TrackPointExtension>
        </extensions>
      </trkpt>
      <trkpt lat="46.5085348673164844512939453125" lon="8.31678575836122035980224609375">
        <ele>1343.199951171875</ele>
        <time>2015-09-08T14:00:41.000Z</time>
        <extensions>
          <ns3:TrackPointExtension>
            <ns3:hr>112</ns3:hr>
          </ns3:TrackPointExtension>
        </extensions>
      </trkpt>
      <trkpt lat="46.50845129974186420440673828125" lon="8.316000960767269134521484375">
        <ele>1344</ele>
        <time>2015-09-08T14:00:48.000Z</time>
        <extensions>
          <ns3:TrackPointExtension>
            <ns3:hr>114</ns3:hr>
          </ns3:TrackPointExtension>
        </extensions>
      </trkpt>
      <trkpt lat="46.50838038884103298187255859375" lon="8.31519621424376964569091796875">
        <ele>1345.199951171875</ele>
        <time>2015-09-08T14:00:55.000Z</time>
        <extensions>
          <ns3:TrackPointExtension>
            <ns3:hr>115</ns3:hr>
          </ns3:TrackPointExtension>
        </extensions>
      </trkpt>
      <trkpt lat="46.50832020677626132965087890625" lon="8.3144062198698520660400390625">
        <ele>1344.5999755859375</ele>
        <time>2015-09-08T14:01:02.000Z</time>
        <extensions>
          <ns3:TrackPointExtension>
            <ns3:hr>116</ns3:hr>
          </ns3:TrackPointExtension>
        </extensions>
      </trkpt>
      <trkpt lat="46.5082703344523906707763671875" lon="8.31352922134101390838623046875">
        <ele>1343.800048828125</ele>
        <time>2015-09-08T14:01:10.000Z</time>
        <extensions>
          <ns3:TrackPointExtension>
            <ns3:hr>118</ns3:hr>
          </ns3:TrackPointExtension>
        </extensions>
      </trkpt>
      <trkpt lat="46.5081694163382053375244140625" lon="8.312723636627197265625">
        <ele>1343.800048828125</ele>
        <time>2015-09-08T14:01:18.000Z</time>
        <extensions>
          <ns3:TrackPointExtension>
            <ns3:hr>119</ns3:hr>
          </ns3:TrackPointExtension>
        </extensions>
      </trkpt>
      <trkpt lat="46.507899351418018341064453125" lon="8.31200488843023777008056640625">
        <ele>1341.5999755859375</ele>
        <time>2015-09-08T14:01:26.000Z</time>
        <extensions>
          <ns3:TrackPointExtension>
            <ns3:hr>120</ns3:hr>
          </ns3:TrackPointExtension>
        </extensions>
      </trkpt>
      <trkpt lat="46.50761545635759830474853515625" lon="8.31158160232007503509521484375">
        <ele>1341.800048828125</ele>
        <time>2015-09-08T14:01:32.000Z</time>
        <extensions>
          <ns3:TrackPointExtension>
            <ns3:hr>121</ns3:hr>
          </ns3:TrackPointExtension>
        </extensions>
      </trkpt>
      <trkpt lat="46.50752861984074115753173828125" lon="8.311451263725757598876953125">
        <ele>1341.800048828125</ele>
        <time>2015-09-08T14:01:34.000Z</time>
        <extensions>
          <ns3:TrackPointExtension>
            <ns3:hr>120</ns3:hr>
          </ns3:TrackPointExtension>
        </extensions>
      </trkpt>
      <trkpt lat="46.50733365677297115325927734375" lon="8.31125034950673580169677734375">
        <ele>1341.5999755859375</ele>
        <time>2015-09-08T14:01:38.000Z</time>
        <extensions>
          <ns3:TrackPointExtension>
            <ns3:hr>120</ns3:hr>
          </ns3:TrackPointExtension>
        </extensions>
      </trkpt>
      <trkpt lat="46.50699486024677753448486328125" lon="8.3109319210052490234375">
        <ele>1342</ele>
        <time>2015-09-08T14:01:47.000Z</time>
        <extensions>
          <ns3:TrackPointExtension>
            <ns3:hr>117</ns3:hr>
          </ns3:TrackPointExtension>
        </extensions>
      </trkpt>
      <trkpt lat="46.50669805705547332763671875" lon="8.3107272349298000335693359375">
        <ele>1342.800048828125</ele>
        <time>2015-09-08T14:01:54.000Z</time>
        <extensions>
          <ns3:TrackPointExtension>
            <ns3:hr>114</ns3:hr>
          </ns3:TrackPointExtension>
        </extensions>
      </trkpt>
      <trkpt lat="46.5065761841833591461181640625" lon="8.31064919941127300262451171875">
        <ele>1343.199951171875</ele>
        <time>2015-09-08T14:01:57.000Z</time>
        <extensions>
          <ns3:TrackPointExtension>
            <ns3:hr>113</ns3:hr>
          </ns3:TrackPointExtension>
        </extensions>
      </trkpt>
      <trkpt lat="46.50639706291258335113525390625" lon="8.3105924539268016815185546875">
        <ele>1343.199951171875</ele>
        <time>2015-09-08T14:02:01.000Z</time>
        <extensions>
          <ns3:TrackPointExtension>
            <ns3:hr>113</ns3:hr>
          </ns3:TrackPointExtension>
        </extensions>
      </trkpt>
      <trkpt lat="46.5061071328818798065185546875" lon="8.31043629907071590423583984375">
        <ele>1343.199951171875</ele>
        <time>2015-09-08T14:02:07.000Z</time>
        <extensions>
          <ns3:TrackPointExtension>
            <ns3:hr>113</ns3:hr>
          </ns3:TrackPointExtension>
        </extensions>
      </trkpt>
      <trkpt lat="46.50598014704883098602294921875" lon="8.31032046116888523101806640625">
        <ele>1343.4000244140625</ele>
        <time>2015-09-08T14:02:10.000Z</time>
        <extensions>
          <ns3:TrackPointExtension>
            <ns3:hr>112</ns3:hr>
          </ns3:TrackPointExtension>
        </extensions>
      </trkpt>
      <trkpt lat="46.50577864609658718109130859375" lon="8.3100704289972782135009765625">
        <ele>1343.4000244140625</ele>
        <time>2015-09-08T14:02:15.000Z</time>
        <extensions>
          <ns3:TrackPointExtension>
            <ns3:hr>111</ns3:hr>
          </ns3:TrackPointExtension>
        </extensions>
      </trkpt>
      <trkpt lat="46.50570656172931194305419921875" lon="8.3099601231515407562255859375">
        <ele>1343.800048828125</ele>
        <time>2015-09-08T14:02:17.000Z</time>
        <extensions>
          <ns3:TrackPointExtension>
            <ns3:hr>110</ns3:hr>
          </ns3:TrackPointExtension>
        </extensions>
      </trkpt>
      <trkpt lat="46.5057333000004291534423828125" lon="8.30948143266141414642333984375">
        <ele>1343</ele>
        <time>2015-09-08T14:02:24.000Z</time>
        <extensions>
          <ns3:TrackPointExtension>
            <ns3:hr>108</ns3:hr>
          </ns3:TrackPointExtension>
        </extensions>
      </trkpt>
      <trkpt lat="46.5059200488030910491943359375" lon="8.30906082876026630401611328125">
        <ele>1342.800048828125</ele>
        <time>2015-09-08T14:02:30.000Z</time>
        <extensions>
          <ns3:TrackPointExtension>
            <ns3:hr>108</ns3:hr>
          </ns3:TrackPointExtension>
        </extensions>
      </trkpt>
      <trkpt lat="46.5059814043343067169189453125" lon="8.3089472539722919464111328125">
        <ele>1342.800048828125</ele>
        <time>2015-09-08T14:02:32.000Z</time>
        <extensions>
          <ns3:TrackPointExtension>
            <ns3:hr>107</ns3:hr>
          </ns3:TrackPointExtension>
        </extensions>
      </trkpt>
      <trkpt lat="46.50586833246052265167236328125" lon="8.30876025371253490447998046875">
        <ele>1342.800048828125</ele>
        <time>2015-09-08T14:02:36.000Z</time>
        <extensions>
          <ns3:TrackPointExtension>
            <ns3:hr>106</ns3:hr>
          </ns3:TrackPointExtension>
        </extensions>
      </trkpt>
      <trkpt lat="46.50556256063282489776611328125" lon="8.3084399811923503875732421875">
        <ele>1343</ele>
        <time>2015-09-08T14:02:42.000Z</time>
        <extensions>
          <ns3:TrackPointExtension>
            <ns3:hr>109</ns3:hr>
          </ns3:TrackPointExtension>
        </extensions>
      </trkpt>
      <trkpt lat="46.505406908690929412841796875" lon="8.30825708806514739990234375">
        <ele>1342.5999755859375</ele>
        <time>2015-09-08T14:02:45.000Z</time>
        <extensions>
          <ns3:TrackPointExtension>
            <ns3:hr>109</ns3:hr>
          </ns3:TrackPointExtension>
        </extensions>
      </trkpt>
      <trkpt lat="46.50492318905889987945556640625" lon="8.30772592686116695404052734375">
        <ele>1342.800048828125</ele>
        <time>2015-09-08T14:02:54.000Z</time>
        <extensions>
          <ns3:TrackPointExtension>
            <ns3:hr>110</ns3:hr>
          </ns3:TrackPointExtension>
        </extensions>
      </trkpt>
      <trkpt lat="46.50457684881985187530517578125" lon="8.30728202126920223236083984375">
        <ele>1342.4000244140625</ele>
        <time>2015-09-08T14:03:01.000Z</time>
        <extensions>
          <ns3:TrackPointExtension>
            <ns3:hr>110</ns3:hr>
          </ns3:TrackPointExtension>
        </extensions>
      </trkpt>
      <trkpt lat="46.50425448082387447357177734375" lon="8.30653242766857147216796875">
        <ele>1341.800048828125</ele>
        <time>2015-09-08T14:03:10.000Z</time>
        <extensions>
          <ns3:TrackPointExtension>
            <ns3:hr>110</ns3:hr>
          </ns3:TrackPointExtension>
        </extensions>
      </trkpt>
      <trkpt lat="46.50393529795110225677490234375" lon="8.30581854097545146942138671875">
        <ele>1342.5999755859375</ele>
        <time>2015-09-08T14:03:18.000Z</time>
        <extensions>
          <ns3:TrackPointExtension>
            <ns3:hr>110</ns3:hr>
          </ns3:TrackPointExtension>
        </extensions>
      </trkpt>
      <trkpt lat="46.5036277659237384796142578125" lon="8.30516072921454906463623046875">
        <ele>1341.800048828125</ele>
        <time>2015-09-08T14:03:25.000Z</time>
        <extensions>
          <ns3:TrackPointExtension>
            <ns3:hr>111</ns3:hr>
          </ns3:TrackPointExtension>
        </extensions>
      </trkpt>
      <trkpt lat="46.503311097621917724609375" lon="8.304478190839290618896484375">
        <ele>1341.800048828125</ele>
        <time>2015-09-08T14:03:32.000Z</time>
        <extensions>
          <ns3:TrackPointExtension>
            <ns3:hr>112</ns3:hr>
          </ns3:TrackPointExtension>
        </extensions>
      </trkpt>
      <trkpt lat="46.5029914118349552154541015625" lon="8.30377369187772274017333984375">
        <ele>1342</ele>
        <time>2015-09-08T14:03:39.000Z</time>
        <extensions>
          <ns3:TrackPointExtension>
            <ns3:hr>113</ns3:hr>
          </ns3:TrackPointExtension>
        </extensions>
      </trkpt>
      <trkpt lat="46.5026715584099292755126953125" lon="8.3030904829502105712890625">
        <ele>1342.4000244140625</ele>
        <time>2015-09-08T14:03:46.000Z</time>
        <extensions>
          <ns3:TrackPointExtension>
            <ns3:hr>112</ns3:hr>
          </ns3:TrackPointExtension>
        </extensions>
      </trkpt>
      <trkpt lat="46.50233938358724117279052734375" lon="8.30235061235725879669189453125">
        <ele>1342.5999755859375</ele>
        <time>2015-09-08T14:03:54.000Z</time>
        <extensions>
          <ns3:TrackPointExtension>
            <ns3:hr>112</ns3:hr>
          </ns3:TrackPointExtension>
        </extensions>
      </trkpt>
      <trkpt lat="46.50204165838658809661865234375" lon="8.30168492160737514495849609375">
        <ele>1342.800048828125</ele>
        <time>2015-09-08T14:04:01.000Z</time>
        <extensions>
          <ns3:TrackPointExtension>
            <ns3:hr>114</ns3:hr>
          </ns3:TrackPointExtension>
        </extensions>
      </trkpt>
      <trkpt lat="46.5017619542777538299560546875" lon="8.30100095830857753753662109375">
        <ele>1342.5999755859375</ele>
        <time>2015-09-08T14:04:08.000Z</time>
        <extensions>
          <ns3:TrackPointExtension>
            <ns3:hr>112</ns3:hr>
          </ns3:TrackPointExtension>
        </extensions>
      </trkpt>
      <trkpt lat="46.50148442946374416351318359375" lon="8.30032520927488803863525390625">
        <ele>1342.5999755859375</ele>
        <time>2015-09-08T14:04:15.000Z</time>
        <extensions>
          <ns3:TrackPointExtension>
            <ns3:hr>112</ns3:hr>
          </ns3:TrackPointExtension>
        </extensions>
      </trkpt>
      <trkpt lat="46.501163654029369354248046875" lon="8.2995606958866119384765625">
        <ele>1342</ele>
        <time>2015-09-08T14:04:23.000Z</time>
        <extensions>
          <ns3:TrackPointExtension>
            <ns3:hr>112</ns3:hr>
          </ns3:TrackPointExtension>
        </extensions>
      </trkpt>
      <trkpt lat="46.50087590329349040985107421875" lon="8.29885904677212238311767578125">
        <ele>1340.5999755859375</ele>
        <time>2015-09-08T14:04:30.000Z</time>
        <extensions>
          <ns3:TrackPointExtension>
            <ns3:hr>113</ns3:hr>
          </ns3:TrackPointExtension>
        </extensions>
      </trkpt>
      <trkpt lat="46.50056258775293827056884765625" lon="8.29814138822257518768310546875">
        <ele>1340.199951171875</ele>
        <time>2015-09-08T14:04:38.000Z</time>
        <extensions>
          <ns3:TrackPointExtension>
            <ns3:hr>113</ns3:hr>
          </ns3:TrackPointExtension>
        </extensions>
      </trkpt>
      <trkpt lat="46.500239633023738861083984375" lon="8.2974338717758655548095703125">
        <ele>1339.800048828125</ele>
        <time>2015-09-08T14:04:47.000Z</time>
        <extensions>
          <ns3:TrackPointExtension>
            <ns3:hr>112</ns3:hr>
          </ns3:TrackPointExtension>
        </extensions>
      </trkpt>
      <trkpt lat="46.50016553699970245361328125" lon="8.29727637581527233123779296875">
        <ele>1340</ele>
        <time>2015-09-08T14:04:49.000Z</time>
        <extensions>
          <ns3:TrackPointExtension>
            <ns3:hr>112</ns3:hr>
          </ns3:TrackPointExtension>
        </extensions>
      </trkpt>
      <trkpt lat="46.4998196996748447418212890625" lon="8.2965601421892642974853515625">
        <ele>1340.5999755859375</ele>
        <time>2015-09-08T14:04:58.000Z</time>
        <extensions>
          <ns3:TrackPointExtension>
            <ns3:hr>110</ns3:hr>
          </ns3:TrackPointExtension>
        </extensions>
      </trkpt>
      <trkpt lat="46.499496661126613616943359375" lon="8.29593367874622344970703125">
        <ele>1340.800048828125</ele>
        <time>2015-09-08T14:05:06.000Z</time>
        <extensions>
          <ns3:TrackPointExtension>
            <ns3:hr>110</ns3:hr>
          </ns3:TrackPointExtension>
        </extensions>
      </trkpt>
      <trkpt lat="46.499148309230804443359375" lon="8.29528282396495342254638671875">
        <ele>1340.800048828125</ele>
        <time>2015-09-08T14:05:14.000Z</time>
        <extensions>
          <ns3:TrackPointExtension>
            <ns3:hr>112</ns3:hr>
          </ns3:TrackPointExtension>
        </extensions>
      </trkpt>
      <trkpt lat="46.49881026707589626312255859375" lon="8.29461000859737396240234375">
        <ele>1340.4000244140625</ele>
        <time>2015-09-08T14:05:22.000Z</time>
        <extensions>
          <ns3:TrackPointExtension>
            <ns3:hr>114</ns3:hr>
          </ns3:TrackPointExtension>
        </extensions>
      </trkpt>
      <trkpt lat="46.498461328446865081787109375" lon="8.2939335890114307403564453125">
        <ele>1340.4000244140625</ele>
        <time>2015-09-08T14:05:30.000Z</time>
        <extensions>
          <ns3:TrackPointExtension>
            <ns3:hr>114</ns3:hr>
          </ns3:TrackPointExtension>
        </extensions>
      </trkpt>
      <trkpt lat="46.498123370110988616943359375" lon="8.2932425849139690399169921875">
        <ele>1340.4000244140625</ele>
        <time>2015-09-08T14:05:38.000Z</time>
        <extensions>
          <ns3:TrackPointExtension>
            <ns3:hr>115</ns3:hr>
          </ns3:TrackPointExtension>
        </extensions>
      </trkpt>
      <trkpt lat="46.497810892760753631591796875" lon="8.29260078258812427520751953125">
        <ele>1340.4000244140625</ele>
        <time>2015-09-08T14:05:45.000Z</time>
        <extensions>
          <ns3:TrackPointExtension>
            <ns3:hr>115</ns3:hr>
          </ns3:TrackPointExtension>
        </extensions>
      </trkpt>
      <trkpt lat="46.49747394025325775146484375" lon="8.29195789061486721038818359375">
        <ele>1340.800048828125</ele>
        <time>2015-09-08T14:05:52.000Z</time>
        <extensions>
          <ns3:TrackPointExtension>
            <ns3:hr>116</ns3:hr>
          </ns3:TrackPointExtension>
        </extensions>
      </trkpt>
      <trkpt lat="46.49710505269467830657958984375" lon="8.29124475829303264617919921875">
        <ele>1341</ele>
        <time>2015-09-08T14:06:00.000Z</time>
        <extensions>
          <ns3:TrackPointExtension>
            <ns3:hr>116</ns3:hr>
          </ns3:TrackPointExtension>
        </extensions>
      </trkpt>
      <trkpt lat="46.496745049953460693359375" lon="8.2905295304954051971435546875">
        <ele>1341.4000244140625</ele>
        <time>2015-09-08T14:06:08.000Z</time>
        <extensions>
          <ns3:TrackPointExtension>
            <ns3:hr>117</ns3:hr>
          </ns3:TrackPointExtension>
        </extensions>
      </trkpt>
      <trkpt lat="46.4966463111340999603271484375" lon="8.2903679274022579193115234375">
        <ele>1341.5999755859375</ele>
        <time>2015-09-08T14:06:10.000Z</time>
        <extensions>
          <ns3:TrackPointExtension>
            <ns3:hr>117</ns3:hr>
          </ns3:TrackPointExtension>
        </extensions>
      </trkpt>
      <trkpt lat="46.496306173503398895263671875" lon="8.28966896049678325653076171875">
        <ele>1340.800048828125</ele>
        <time>2015-09-08T14:06:18.000Z</time>
        <extensions>
          <ns3:TrackPointExtension>
            <ns3:hr>118</ns3:hr>
          </ns3:TrackPointExtension>
        </extensions>
      </trkpt>
      <trkpt lat="46.49597064591944217681884765625" lon="8.2890020124614238739013671875">
        <ele>1341.4000244140625</ele>
        <time>2015-09-08T14:06:26.000Z</time>
        <extensions>
          <ns3:TrackPointExtension>
            <ns3:hr>119</ns3:hr>
          </ns3:TrackPointExtension>
        </extensions>
      </trkpt>
      <trkpt lat="46.495647020637989044189453125" lon="8.2883552648127079010009765625">
        <ele>1340.4000244140625</ele>
        <time>2015-09-08T14:06:34.000Z</time>
        <extensions>
          <ns3:TrackPointExtension>
            <ns3:hr>119</ns3:hr>
          </ns3:TrackPointExtension>
        </extensions>
      </trkpt>
      <trkpt lat="46.49530411697924137115478515625" lon="8.28770491294562816619873046875">
        <ele>1339.4000244140625</ele>
        <time>2015-09-08T14:06:42.000Z</time>
        <extensions>
          <ns3:TrackPointExtension>
            <ns3:hr>120</ns3:hr>
          </ns3:TrackPointExtension>
        </extensions>
      </trkpt>
      <trkpt lat="46.4949585311114788055419921875" lon="8.287035785615444183349609375">
        <ele>1339</ele>
        <time>2015-09-08T14:06:50.000Z</time>
        <extensions>
          <ns3:TrackPointExtension>
            <ns3:hr>121</ns3:hr>
          </ns3:TrackPointExtension>
        </extensions>
      </trkpt>
      <trkpt lat="46.49461478926241397857666015625" lon="8.28639180399477481842041015625">
        <ele>1338.4000244140625</ele>
        <time>2015-09-08T14:06:58.000Z</time>
        <extensions>
          <ns3:TrackPointExtension>
            <ns3:hr>120</ns3:hr>
          </ns3:TrackPointExtension>
        </extensions>
      </trkpt>
      <trkpt lat="46.4943593926727771759033203125" lon="8.285858966410160064697265625">
        <ele>1338.199951171875</ele>
        <time>2015-09-08T14:07:05.000Z</time>
        <extensions>
          <ns3:TrackPointExtension>
            <ns3:hr>117</ns3:hr>
          </ns3:TrackPointExtension>
        </extensions>
      </trkpt>
      <trkpt lat="46.49403191171586513519287109375" lon="8.28523476608097553253173828125">
        <ele>1338.199951171875</ele>
        <time>2015-09-08T14:07:13.000Z</time>
        <extensions>
          <ns3:TrackPointExtension>
            <ns3:hr>116</ns3:hr>
          </ns3:TrackPointExtension>
        </extensions>
      </trkpt>
      <trkpt lat="46.493692360818386077880859375" lon="8.28457628376781940460205078125">
        <ele>1338.5999755859375</ele>
        <time>2015-09-08T14:07:21.000Z</time>
        <extensions>
          <ns3:TrackPointExtension>
            <ns3:hr>116</ns3:hr>
          </ns3:TrackPointExtension>
        </extensions>
      </trkpt>
      <trkpt lat="46.4934605173766613006591796875" lon="8.28412852250039577484130859375">
        <ele>1338.800048828125</ele>
        <time>2015-09-08T14:07:27.000Z</time>
        <extensions>
          <ns3:TrackPointExtension>
            <ns3:hr>113</ns3:hr>
          </ns3:TrackPointExtension>
        </extensions>
      </trkpt>
      <trkpt lat="46.49311241693794727325439453125" lon="8.2834374345839023590087890625">
        <ele>1339</ele>
        <time>2015-09-08T14:07:36.000Z</time>
        <extensions>
          <ns3:TrackPointExtension>
            <ns3:hr>114</ns3:hr>
          </ns3:TrackPointExtension>
        </extensions>
      </trkpt>
      <trkpt lat="46.4929418452084064483642578125" lon="8.28312001191079616546630859375">
        <ele>1338.800048828125</ele>
        <time>2015-09-08T14:07:40.000Z</time>
        <extensions>
          <ns3:TrackPointExtension>
            <ns3:hr>112</ns3:hr>
          </ns3:TrackPointExtension>
        </extensions>
      </trkpt>
      <trkpt lat="46.49284151382744312286376953125" lon="8.28287073411047458648681640625">
        <ele>1338.5999755859375</ele>
        <time>2015-09-08T14:07:43.000Z</time>
        <extensions>
          <ns3:TrackPointExtension>
            <ns3:hr>111</ns3:hr>
          </ns3:TrackPointExtension>
        </extensions>
      </trkpt>
      <trkpt lat="46.49308458901941776275634765625" lon="8.28224745579063892364501953125">
        <ele>1338.4000244140625</ele>
        <time>2015-09-08T14:07:52.000Z</time>
        <extensions>
          <ns3:TrackPointExtension>
            <ns3:hr>110</ns3:hr>
          </ns3:TrackPointExtension>
        </extensions>
      </trkpt>
      <trkpt lat="46.4931470341980457305908203125" lon="8.2822257466614246368408203125">
        <ele>1338.5999755859375</ele>
        <time>2015-09-08T14:07:53.000Z</time>
        <extensions>
          <ns3:TrackPointExtension>
            <ns3:hr>110</ns3:hr>
          </ns3:TrackPointExtension>
        </extensions>
      </trkpt>
      <trkpt lat="46.493722535669803619384765625" lon="8.2820587791502475738525390625">
        <ele>1338.4000244140625</ele>
        <time>2015-09-08T14:08:02.000Z</time>
        <extensions>
          <ns3:TrackPointExtension>
            <ns3:hr>112</ns3:hr>
          </ns3:TrackPointExtension>
        </extensions>
      </trkpt>
      <trkpt lat="46.49428118951618671417236328125" lon="8.28189860098063945770263671875">
        <ele>1340.199951171875</ele>
        <time>2015-09-08T14:08:12.000Z</time>
        <extensions>
          <ns3:TrackPointExtension>
            <ns3:hr>114</ns3:hr>
          </ns3:TrackPointExtension>
        </extensions>
      </trkpt>
      <trkpt lat="46.4944468997418880462646484375" lon="8.28184730373322963714599609375">
        <ele>1341.199951171875</ele>
        <time>2015-09-08T14:08:16.000Z</time>
        <extensions>
          <ns3:TrackPointExtension>
            <ns3:hr>116</ns3:hr>
          </ns3:TrackPointExtension>
        </extensions>
      </trkpt>
      <trkpt lat="46.494635157287120819091796875" lon="8.28176029957830905914306640625">
        <ele>1342.4000244140625</ele>
        <time>2015-09-08T14:08:21.000Z</time>
        <extensions>
          <ns3:TrackPointExtension>
            <ns3:hr>119</ns3:hr>
          </ns3:TrackPointExtension>
        </extensions>
      </trkpt>
      <trkpt lat="46.49482333101332187652587890625" lon="8.2817047275602817535400390625">
        <ele>1343.5999755859375</ele>
        <time>2015-09-08T14:08:26.000Z</time>
        <extensions>
          <ns3:TrackPointExtension>
            <ns3:hr>122</ns3:hr>
          </ns3:TrackPointExtension>
        </extensions>
      </trkpt>
      <trkpt lat="46.4951016940176486968994140625" lon="8.28165359795093536376953125">
        <ele>1344.5999755859375</ele>
        <time>2015-09-08T14:08:33.000Z</time>
        <extensions>
          <ns3:TrackPointExtension>
            <ns3:hr>125</ns3:hr>
          </ns3:TrackPointExtension>
        </extensions>
      </trkpt>
      <trkpt lat="46.495642326772212982177734375" lon="8.2815984450280666351318359375">
        <ele>1348</ele>
        <time>2015-09-08T14:08:51.000Z</time>
        <extensions>
          <ns3:TrackPointExtension>
            <ns3:hr>127</ns3:hr>
          </ns3:TrackPointExtension>
        </extensions>
      </trkpt>
      <trkpt lat="46.495964191854000091552734375" lon="8.2814710400998592376708984375">
        <ele>1350.5999755859375</ele>
        <time>2015-09-08T14:09:04.000Z</time>
        <extensions>
          <ns3:TrackPointExtension>
            <ns3:hr>130</ns3:hr>
          </ns3:TrackPointExtension>
        </extensions>
      </trkpt>
      <trkpt lat="46.49593946523964405059814453125" lon="8.28081113286316394805908203125">
        <ele>1351.4000244140625</ele>
        <time>2015-09-08T14:09:21.000Z</time>
        <extensions>
          <ns3:TrackPointExtension>
            <ns3:hr>131</ns3:hr>
          </ns3:TrackPointExtension>
        </extensions>
      </trkpt>
      <trkpt lat="46.49558977223932743072509765625" lon="8.28028223477303981781005859375">
        <ele>1351.800048828125</ele>
        <time>2015-09-08T14:09:33.000Z</time>
        <extensions>
          <ns3:TrackPointExtension>
            <ns3:hr>130</ns3:hr>
          </ns3:TrackPointExtension>
        </extensions>
      </trkpt>
      <trkpt lat="46.495461948215961456298828125" lon="8.2801762036979198455810546875">
        <ele>1352.199951171875</ele>
        <time>2015-09-08T14:09:36.000Z</time>
        <extensions>
          <ns3:TrackPointExtension>
            <ns3:hr>130</ns3:hr>
          </ns3:TrackPointExtension>
        </extensions>
      </trkpt>
      <trkpt lat="46.49519112892448902130126953125" lon="8.28007067553699016571044921875">
        <ele>1353</ele>
        <time>2015-09-08T14:09:42.000Z</time>
        <extensions>
          <ns3:TrackPointExtension>
            <ns3:hr>127</ns3:hr>
          </ns3:TrackPointExtension>
        </extensions>
      </trkpt>
      <trkpt lat="46.49481721222400665283203125" lon="8.279893733561038970947265625">
        <ele>1354.199951171875</ele>
        <time>2015-09-08T14:09:51.000Z</time>
        <extensions>
          <ns3:TrackPointExtension>
            <ns3:hr>124</ns3:hr>
          </ns3:TrackPointExtension>
        </extensions>
      </trkpt>
      <trkpt lat="46.49428655393421649932861328125" lon="8.27957228757441043853759765625">
        <ele>1356.5999755859375</ele>
        <time>2015-09-08T14:10:05.000Z</time>
        <extensions>
          <ns3:TrackPointExtension>
            <ns3:hr>124</ns3:hr>
          </ns3:TrackPointExtension>
        </extensions>
      </trkpt>
      <trkpt lat="46.4937786944210529327392578125" lon="8.279283531010150909423828125">
        <ele>1358.199951171875</ele>
        <time>2015-09-08T14:10:19.000Z</time>
        <extensions>
          <ns3:TrackPointExtension>
            <ns3:hr>126</ns3:hr>
          </ns3:TrackPointExtension>
        </extensions>
      </trkpt>
      <trkpt lat="46.49335398338735103607177734375" lon="8.2790417969226837158203125">
        <ele>1360.4000244140625</ele>
        <time>2015-09-08T14:10:31.000Z</time>
        <extensions>
          <ns3:TrackPointExtension>
            <ns3:hr>129</ns3:hr>
          </ns3:TrackPointExtension>
        </extensions>
      </trkpt>
      <trkpt lat="46.4928509853780269622802734375" lon="8.2787177525460720062255859375">
        <ele>1363.199951171875</ele>
        <time>2015-09-08T14:10:46.000Z</time>
        <extensions>
          <ns3:TrackPointExtension>
            <ns3:hr>131</ns3:hr>
          </ns3:TrackPointExtension>
        </extensions>
      </trkpt>
      <trkpt lat="46.49236475117504596710205078125" lon="8.27832237817347049713134765625">
        <ele>1366.800048828125</ele>
        <time>2015-09-08T14:11:01.000Z</time>
        <extensions>
          <ns3:TrackPointExtension>
            <ns3:hr>132</ns3:hr>
          </ns3:TrackPointExtension>
        </extensions>
      </trkpt>
      <trkpt lat="46.49195705540478229522705078125" lon="8.27793127857148647308349609375">
        <ele>1370</ele>
        <time>2015-09-08T14:11:14.000Z</time>
        <extensions>
          <ns3:TrackPointExtension>
            <ns3:hr>135</ns3:hr>
          </ns3:TrackPointExtension>
        </extensions>
      </trkpt>
      <trkpt lat="46.49151667021214962005615234375" lon="8.27743238769471645355224609375">
        <ele>1373.199951171875</ele>
        <time>2015-09-08T14:11:29.000Z</time>
        <extensions>
          <ns3:TrackPointExtension>
            <ns3:hr>136</ns3:hr>
          </ns3:TrackPointExtension>
        </extensions>
      </trkpt>
      <trkpt lat="46.49111048318445682525634765625" lon="8.2768797688186168670654296875">
        <ele>1376.4000244140625</ele>
        <time>2015-09-08T14:11:44.000Z</time>
        <extensions>
          <ns3:TrackPointExtension>
            <ns3:hr>137</ns3:hr>
          </ns3:TrackPointExtension>
        </extensions>
      </trkpt>
      <trkpt lat="46.49074033834040164947509765625" lon="8.27627501450479030609130859375">
        <ele>1379.4000244140625</ele>
        <time>2015-09-08T14:11:59.000Z</time>
        <extensions>
          <ns3:TrackPointExtension>
            <ns3:hr>138</ns3:hr>
          </ns3:TrackPointExtension>
        </extensions>
      </trkpt>
      <trkpt lat="46.490387879312038421630859375" lon="8.2756798155605792999267578125">
        <ele>1382.4000244140625</ele>
        <time>2015-09-08T14:12:13.000Z</time>
        <extensions>
          <ns3:TrackPointExtension>
            <ns3:hr>138</ns3:hr>
          </ns3:TrackPointExtension>
        </extensions>
      </trkpt>
      <trkpt lat="46.49003407917916774749755859375" lon="8.2750793360173702239990234375">
        <ele>1385</ele>
        <time>2015-09-08T14:12:27.000Z</time>
        <extensions>
          <ns3:TrackPointExtension>
            <ns3:hr>137</ns3:hr>
          </ns3:TrackPointExtension>
        </extensions>
      </trkpt>
      <trkpt lat="46.4897084422409534454345703125" lon="8.27444943599402904510498046875">
        <ele>1387.5999755859375</ele>
        <time>2015-09-08T14:12:41.000Z</time>
        <extensions>
          <ns3:TrackPointExtension>
            <ns3:hr>136</ns3:hr>
          </ns3:TrackPointExtension>
        </extensions>
      </trkpt>
      <trkpt lat="46.4894199371337890625" lon="8.27377259731292724609375">
        <ele>1390.199951171875</ele>
        <time>2015-09-08T14:12:55.000Z</time>
        <extensions>
          <ns3:TrackPointExtension>
            <ns3:hr>135</ns3:hr>
          </ns3:TrackPointExtension>
        </extensions>
      </trkpt>
      <trkpt lat="46.48913017474114894866943359375" lon="8.27309039421379566192626953125">
        <ele>1392.4000244140625</ele>
        <time>2015-09-08T14:13:09.000Z</time>
        <extensions>
          <ns3:TrackPointExtension>
            <ns3:hr>134</ns3:hr>
          </ns3:TrackPointExtension>
        </extensions>
      </trkpt>
      <trkpt lat="46.48883613757789134979248046875" lon="8.272402323782444000244140625">
        <ele>1394.199951171875</ele>
        <time>2015-09-08T14:13:23.000Z</time>
        <extensions>
          <ns3:TrackPointExtension>
            <ns3:hr>134</ns3:hr>
          </ns3:TrackPointExtension>
        </extensions>
      </trkpt>
      <trkpt lat="46.48856288753449916839599609375" lon="8.27166195027530193328857421875">
        <ele>1395.5999755859375</ele>
        <time>2015-09-08T14:13:37.000Z</time>
        <extensions>
          <ns3:TrackPointExtension>
            <ns3:hr>133</ns3:hr>
          </ns3:TrackPointExtension>
        </extensions>
      </trkpt>
      <trkpt lat="46.48836742155253887176513671875" lon="8.27090866863727569580078125">
        <ele>1397.199951171875</ele>
        <time>2015-09-08T14:13:50.000Z</time>
        <extensions>
          <ns3:TrackPointExtension>
            <ns3:hr>132</ns3:hr>
          </ns3:TrackPointExtension>
        </extensions>
      </trkpt>
      <trkpt lat="46.48818821646273136138916015625" lon="8.2701132260262966156005859375">
        <ele>1397.800048828125</ele>
        <time>2015-09-08T14:14:04.000Z</time>
        <extensions>
          <ns3:TrackPointExtension>
            <ns3:hr>130</ns3:hr>
          </ns3:TrackPointExtension>
        </extensions>
      </trkpt>
      <trkpt lat="46.48811931721866130828857421875" lon="8.26972640119493007659912109375">
        <ele>1397</ele>
        <time>2015-09-08T14:14:11.000Z</time>
        <extensions>
          <ns3:TrackPointExtension>
            <ns3:hr>127</ns3:hr>
          </ns3:TrackPointExtension>
        </extensions>
      </trkpt>
    </trkseg>
  </trk>
</gpx>
